<?xml version="1.0" encoding="UTF-8" standalone="no" ?>
<gpx xmlns="http://www.topografix.com/GPX/1/1" creator="www.cicloide.com" version="1.1" xmlns:xsi="http://www.w3.org/2001/XMLSchema-instance" xsi:schemaLocation="http://www.topografix.com/GPX/1/1 http://www.topografix.com/GPX/1/1/gpx.xsd">
  <trk>
    <name>www.cicloide.com 8898</name>
    <desc>www.cicloide.com 8898</desc>
    <trkseg>
      <trkpt lat="42.459718000" lon="-2.464044000">
        <ele>402.00</ele>
        <time>2012-05-12T08:28:56Z</time>
      </trkpt>
      <trkpt lat="42.459636000" lon="-2.464034000">
        <ele>402.70</ele>
        <time>2012-05-12T08:29:00Z</time>
      </trkpt>
      <trkpt lat="42.459425000" lon="-2.463954000">
        <ele>403.60</ele>
        <time>2012-05-12T08:29:08Z</time>
      </trkpt>
      <trkpt lat="42.459338000" lon="-2.463946000">
        <ele>404.00</ele>
        <time>2012-05-12T08:29:12Z</time>
      </trkpt>
      <trkpt lat="42.459306000" lon="-2.463956000">
        <ele>404.10</ele>
        <time>2012-05-12T08:29:12Z</time>
      </trkpt>
      <trkpt lat="42.459271000" lon="-2.463978000">
        <ele>404.10</ele>
        <time>2012-05-12T08:29:14Z</time>
      </trkpt>
      <trkpt lat="42.459245000" lon="-2.464004000">
        <ele>404.20</ele>
        <time>2012-05-12T08:29:14Z</time>
      </trkpt>
      <trkpt lat="42.459230000" lon="-2.464039000">
        <ele>404.20</ele>
        <time>2012-05-12T08:29:15Z</time>
      </trkpt>
      <trkpt lat="42.459226000" lon="-2.464074000">
        <ele>404.10</ele>
        <time>2012-05-12T08:29:17Z</time>
      </trkpt>
      <trkpt lat="42.459235000" lon="-2.464339000">
        <ele>403.20</ele>
        <time>2012-05-12T08:29:24Z</time>
      </trkpt>
      <trkpt lat="42.459246000" lon="-2.464396000">
        <ele>403.00</ele>
        <time>2012-05-12T08:29:26Z</time>
      </trkpt>
      <trkpt lat="42.459261000" lon="-2.464541000">
        <ele>402.40</ele>
        <time>2012-05-12T08:29:31Z</time>
      </trkpt>
      <trkpt lat="42.459270000" lon="-2.464661000">
        <ele>402.10</ele>
        <time>2012-05-12T08:29:36Z</time>
      </trkpt>
      <trkpt lat="42.459276000" lon="-2.464689000">
        <ele>402.10</ele>
        <time>2012-05-12T08:29:36Z</time>
      </trkpt>
      <trkpt lat="42.459286000" lon="-2.464874000">
        <ele>402.00</ele>
        <time>2012-05-12T08:29:43Z</time>
      </trkpt>
      <trkpt lat="42.459286000" lon="-2.464933000">
        <ele>402.00</ele>
        <time>2012-05-12T08:29:45Z</time>
      </trkpt>
      <trkpt lat="42.459273000" lon="-2.465008000">
        <ele>402.00</ele>
        <time>2012-05-12T08:29:47Z</time>
      </trkpt>
      <trkpt lat="42.459266000" lon="-2.465026000">
        <ele>402.10</ele>
        <time>2012-05-12T08:29:48Z</time>
      </trkpt>
      <trkpt lat="42.459256000" lon="-2.465043000">
        <ele>402.10</ele>
        <time>2012-05-12T08:29:50Z</time>
      </trkpt>
      <trkpt lat="42.459241000" lon="-2.465056000">
        <ele>402.10</ele>
        <time>2012-05-12T08:29:52Z</time>
      </trkpt>
      <trkpt lat="42.459235000" lon="-2.465066000">
        <ele>402.20</ele>
        <time>2012-05-12T08:29:52Z</time>
      </trkpt>
      <trkpt lat="42.459226000" lon="-2.465083000">
        <ele>402.20</ele>
        <time>2012-05-12T08:29:54Z</time>
      </trkpt>
      <trkpt lat="42.459220000" lon="-2.465091000">
        <ele>402.20</ele>
        <time>2012-05-12T08:29:55Z</time>
      </trkpt>
      <trkpt lat="42.459206000" lon="-2.465106000">
        <ele>402.30</ele>
        <time>2012-05-12T08:29:57Z</time>
      </trkpt>
      <trkpt lat="42.459198000" lon="-2.465116000">
        <ele>402.30</ele>
        <time>2012-05-12T08:29:59Z</time>
      </trkpt>
      <trkpt lat="42.459191000" lon="-2.465128000">
        <ele>402.30</ele>
        <time>2012-05-12T08:29:59Z</time>
      </trkpt>
      <trkpt lat="42.459183000" lon="-2.465138000">
        <ele>402.40</ele>
        <time>2012-05-12T08:30:01Z</time>
      </trkpt>
      <trkpt lat="42.459158000" lon="-2.465164000">
        <ele>402.40</ele>
        <time>2012-05-12T08:30:04Z</time>
      </trkpt>
      <trkpt lat="42.459150000" lon="-2.465173000">
        <ele>402.50</ele>
        <time>2012-05-12T08:30:04Z</time>
      </trkpt>
      <trkpt lat="42.459131000" lon="-2.465196000">
        <ele>402.50</ele>
        <time>2012-05-12T08:30:08Z</time>
      </trkpt>
      <trkpt lat="42.459117000" lon="-2.465216000">
        <ele>402.00</ele>
        <time>2012-05-12T08:30:11Z</time>
      </trkpt>
      <trkpt lat="42.459113000" lon="-2.465228000">
        <ele>402.00</ele>
        <time>2012-05-12T08:30:15Z</time>
      </trkpt>
      <trkpt lat="42.459120000" lon="-2.465230000">
        <ele>402.00</ele>
        <time>2012-05-12T08:30:18Z</time>
      </trkpt>
      <trkpt lat="42.459123000" lon="-2.465229000">
        <ele>402.60</ele>
        <time>2012-05-12T08:30:20Z</time>
      </trkpt>
      <trkpt lat="42.459140000" lon="-2.465241000">
        <ele>402.60</ele>
        <time>2012-05-12T08:30:25Z</time>
      </trkpt>
      <trkpt lat="42.459146000" lon="-2.465243000">
        <ele>402.50</ele>
        <time>2012-05-12T08:30:25Z</time>
      </trkpt>
      <trkpt lat="42.459161000" lon="-2.465244000">
        <ele>402.50</ele>
        <time>2012-05-12T08:30:27Z</time>
      </trkpt>
      <trkpt lat="42.459166000" lon="-2.465246000">
        <ele>402.50</ele>
        <time>2012-05-12T08:30:29Z</time>
      </trkpt>
      <trkpt lat="42.459175000" lon="-2.465244000">
        <ele>402.50</ele>
        <time>2012-05-12T08:30:30Z</time>
      </trkpt>
      <trkpt lat="42.459180000" lon="-2.465243000">
        <ele>402.40</ele>
        <time>2012-05-12T08:30:30Z</time>
      </trkpt>
      <trkpt lat="42.459185000" lon="-2.465239000">
        <ele>402.40</ele>
        <time>2012-05-12T08:30:32Z</time>
      </trkpt>
      <trkpt lat="42.459191000" lon="-2.465238000">
        <ele>402.40</ele>
        <time>2012-05-12T08:30:32Z</time>
      </trkpt>
      <trkpt lat="42.459198000" lon="-2.465229000">
        <ele>402.40</ele>
        <time>2012-05-12T08:30:34Z</time>
      </trkpt>
      <trkpt lat="42.459200000" lon="-2.465224000">
        <ele>402.30</ele>
        <time>2012-05-12T08:30:35Z</time>
      </trkpt>
      <trkpt lat="42.459201000" lon="-2.465223000">
        <ele>402.30</ele>
        <time>2012-05-12T08:30:37Z</time>
      </trkpt>
      <trkpt lat="42.459200000" lon="-2.465218000">
        <ele>402.30</ele>
        <time>2012-05-12T08:30:39Z</time>
      </trkpt>
      <trkpt lat="42.459196000" lon="-2.465213000">
        <ele>402.30</ele>
        <time>2012-05-12T08:30:41Z</time>
      </trkpt>
      <trkpt lat="42.459195000" lon="-2.465209000">
        <ele>402.30</ele>
        <time>2012-05-12T08:30:41Z</time>
      </trkpt>
      <trkpt lat="42.459193000" lon="-2.465209000">
        <ele>402.30</ele>
        <time>2012-05-12T08:30:42Z</time>
      </trkpt>
      <trkpt lat="42.459188000" lon="-2.465201000">
        <ele>402.40</ele>
        <time>2012-05-12T08:30:46Z</time>
      </trkpt>
      <trkpt lat="42.459186000" lon="-2.465201000">
        <ele>402.40</ele>
        <time>2012-05-12T08:30:48Z</time>
      </trkpt>
      <trkpt lat="42.459176000" lon="-2.465194000">
        <ele>402.40</ele>
        <time>2012-05-12T08:30:53Z</time>
      </trkpt>
      <trkpt lat="42.459171000" lon="-2.465194000">
        <ele>402.40</ele>
        <time>2012-05-12T08:30:55Z</time>
      </trkpt>
      <trkpt lat="42.459168000" lon="-2.465196000">
        <ele>402.40</ele>
        <time>2012-05-12T08:30:56Z</time>
      </trkpt>
      <trkpt lat="42.459165000" lon="-2.465196000">
        <ele>402.40</ele>
        <time>2012-05-12T08:30:58Z</time>
      </trkpt>
      <trkpt lat="42.459161000" lon="-2.465196000">
        <ele>402.50</ele>
        <time>2012-05-12T08:30:58Z</time>
      </trkpt>
      <trkpt lat="42.459158000" lon="-2.465196000">
        <ele>402.50</ele>
        <time>2012-05-12T08:31:00Z</time>
      </trkpt>
      <trkpt lat="42.459155000" lon="-2.465198000">
        <ele>402.50</ele>
        <time>2012-05-12T08:31:00Z</time>
      </trkpt>
      <trkpt lat="42.459145000" lon="-2.465199000">
        <ele>402.50</ele>
        <time>2012-05-12T08:31:05Z</time>
      </trkpt>
      <trkpt lat="42.459136000" lon="-2.465203000">
        <ele>402.50</ele>
        <time>2012-05-12T08:31:07Z</time>
      </trkpt>
      <trkpt lat="42.459133000" lon="-2.465203000">
        <ele>402.60</ele>
        <time>2012-05-12T08:31:09Z</time>
      </trkpt>
      <trkpt lat="42.459113000" lon="-2.465203000">
        <ele>402.60</ele>
        <time>2012-05-12T08:31:16Z</time>
      </trkpt>
      <trkpt lat="42.459110000" lon="-2.465201000">
        <ele>402.60</ele>
        <time>2012-05-12T08:31:17Z</time>
      </trkpt>
      <trkpt lat="42.459108000" lon="-2.465196000">
        <ele>402.70</ele>
        <time>2012-05-12T08:31:19Z</time>
      </trkpt>
      <trkpt lat="42.459108000" lon="-2.465193000">
        <ele>402.70</ele>
        <time>2012-05-12T08:31:21Z</time>
      </trkpt>
      <trkpt lat="42.459103000" lon="-2.465193000">
        <ele>402.70</ele>
        <time>2012-05-12T08:31:26Z</time>
      </trkpt>
      <trkpt lat="42.459105000" lon="-2.465196000">
        <ele>402.70</ele>
        <time>2012-05-12T08:31:28Z</time>
      </trkpt>
      <trkpt lat="42.459098000" lon="-2.465199000">
        <ele>402.70</ele>
        <time>2012-05-12T08:31:31Z</time>
      </trkpt>
      <trkpt lat="42.459098000" lon="-2.465201000">
        <ele>402.70</ele>
        <time>2012-05-12T08:31:33Z</time>
      </trkpt>
      <trkpt lat="42.459103000" lon="-2.465209000">
        <ele>402.70</ele>
        <time>2012-05-12T08:31:38Z</time>
      </trkpt>
      <trkpt lat="42.459103000" lon="-2.465219000">
        <ele>402.70</ele>
        <time>2012-05-12T08:31:42Z</time>
      </trkpt>
      <trkpt lat="42.459101000" lon="-2.465224000">
        <ele>402.70</ele>
        <time>2012-05-12T08:31:43Z</time>
      </trkpt>
      <trkpt lat="42.459103000" lon="-2.465228000">
        <ele>402.70</ele>
        <time>2012-05-12T08:31:45Z</time>
      </trkpt>
      <trkpt lat="42.459108000" lon="-2.465231000">
        <ele>402.70</ele>
        <time>2012-05-12T08:31:49Z</time>
      </trkpt>
      <trkpt lat="42.459108000" lon="-2.465233000">
        <ele>402.70</ele>
        <time>2012-05-12T08:31:49Z</time>
      </trkpt>
      <trkpt lat="42.459108000" lon="-2.465231000">
        <ele>402.70</ele>
        <time>2012-05-12T08:31:52Z</time>
      </trkpt>
      <trkpt lat="42.459106000" lon="-2.465231000">
        <ele>402.70</ele>
        <time>2012-05-12T08:31:54Z</time>
      </trkpt>
      <trkpt lat="42.459105000" lon="-2.465233000">
        <ele>402.70</ele>
        <time>2012-05-12T08:31:57Z</time>
      </trkpt>
      <trkpt lat="42.459095000" lon="-2.465234000">
        <ele>402.70</ele>
        <time>2012-05-12T08:32:03Z</time>
      </trkpt>
      <trkpt lat="42.459093000" lon="-2.465236000">
        <ele>402.70</ele>
        <time>2012-05-12T08:32:04Z</time>
      </trkpt>
      <trkpt lat="42.459086000" lon="-2.465234000">
        <ele>402.70</ele>
        <time>2012-05-12T08:32:06Z</time>
      </trkpt>
      <trkpt lat="42.459083000" lon="-2.465234000">
        <ele>402.70</ele>
        <time>2012-05-12T08:32:06Z</time>
      </trkpt>
      <trkpt lat="42.459078000" lon="-2.465234000">
        <ele>402.80</ele>
        <time>2012-05-12T08:32:08Z</time>
      </trkpt>
      <trkpt lat="42.459073000" lon="-2.465234000">
        <ele>402.80</ele>
        <time>2012-05-12T08:32:08Z</time>
      </trkpt>
      <trkpt lat="42.459051000" lon="-2.465243000">
        <ele>402.80</ele>
        <time>2012-05-12T08:32:13Z</time>
      </trkpt>
      <trkpt lat="42.459046000" lon="-2.465244000">
        <ele>402.90</ele>
        <time>2012-05-12T08:32:15Z</time>
      </trkpt>
      <trkpt lat="42.459023000" lon="-2.465249000">
        <ele>402.90</ele>
        <time>2012-05-12T08:32:20Z</time>
      </trkpt>
      <trkpt lat="42.459020000" lon="-2.465249000">
        <ele>403.00</ele>
        <time>2012-05-12T08:32:22Z</time>
      </trkpt>
      <trkpt lat="42.459015000" lon="-2.465253000">
        <ele>403.00</ele>
        <time>2012-05-12T08:32:24Z</time>
      </trkpt>
      <trkpt lat="42.459011000" lon="-2.465254000">
        <ele>403.00</ele>
        <time>2012-05-12T08:32:25Z</time>
      </trkpt>
      <trkpt lat="42.459010000" lon="-2.465258000">
        <ele>403.00</ele>
        <time>2012-05-12T08:32:27Z</time>
      </trkpt>
      <trkpt lat="42.459008000" lon="-2.465259000">
        <ele>403.00</ele>
        <time>2012-05-12T08:32:29Z</time>
      </trkpt>
      <trkpt lat="42.459006000" lon="-2.465258000">
        <ele>403.00</ele>
        <time>2012-05-12T08:32:32Z</time>
      </trkpt>
      <trkpt lat="42.459006000" lon="-2.465264000">
        <ele>403.00</ele>
        <time>2012-05-12T08:32:37Z</time>
      </trkpt>
      <trkpt lat="42.459010000" lon="-2.465261000">
        <ele>403.00</ele>
        <time>2012-05-12T08:32:41Z</time>
      </trkpt>
      <trkpt lat="42.459010000" lon="-2.465253000">
        <ele>403.00</ele>
        <time>2012-05-12T08:32:46Z</time>
      </trkpt>
      <trkpt lat="42.459003000" lon="-2.465248000">
        <ele>403.00</ele>
        <time>2012-05-12T08:32:51Z</time>
      </trkpt>
      <trkpt lat="42.459000000" lon="-2.465248000">
        <ele>403.00</ele>
        <time>2012-05-12T08:32:53Z</time>
      </trkpt>
      <trkpt lat="42.458996000" lon="-2.465248000">
        <ele>403.10</ele>
        <time>2012-05-12T08:32:55Z</time>
      </trkpt>
      <trkpt lat="42.458986000" lon="-2.465248000">
        <ele>403.10</ele>
        <time>2012-05-12T08:33:02Z</time>
      </trkpt>
      <trkpt lat="42.458986000" lon="-2.465244000">
        <ele>403.10</ele>
        <time>2012-05-12T08:33:05Z</time>
      </trkpt>
      <trkpt lat="42.458988000" lon="-2.465243000">
        <ele>403.10</ele>
        <time>2012-05-12T08:33:05Z</time>
      </trkpt>
      <trkpt lat="42.458988000" lon="-2.465253000">
        <ele>403.10</ele>
        <time>2012-05-12T08:33:14Z</time>
      </trkpt>
      <trkpt lat="42.458990000" lon="-2.465254000">
        <ele>403.10</ele>
        <time>2012-05-12T08:33:14Z</time>
      </trkpt>
      <trkpt lat="42.458991000" lon="-2.465263000">
        <ele>403.10</ele>
        <time>2012-05-12T08:33:19Z</time>
      </trkpt>
      <trkpt lat="42.458995000" lon="-2.465271000">
        <ele>403.10</ele>
        <time>2012-05-12T08:33:21Z</time>
      </trkpt>
      <trkpt lat="42.458996000" lon="-2.465281000">
        <ele>403.10</ele>
        <time>2012-05-12T08:33:26Z</time>
      </trkpt>
      <trkpt lat="42.459000000" lon="-2.465286000">
        <ele>403.10</ele>
        <time>2012-05-12T08:33:28Z</time>
      </trkpt>
      <trkpt lat="42.459001000" lon="-2.465286000">
        <ele>403.10</ele>
        <time>2012-05-12T08:33:30Z</time>
      </trkpt>
      <trkpt lat="42.459005000" lon="-2.465286000">
        <ele>403.00</ele>
        <time>2012-05-12T08:33:30Z</time>
      </trkpt>
      <trkpt lat="42.459005000" lon="-2.465288000">
        <ele>403.00</ele>
        <time>2012-05-12T08:33:31Z</time>
      </trkpt>
      <trkpt lat="42.459005000" lon="-2.465281000">
        <ele>403.00</ele>
        <time>2012-05-12T08:33:35Z</time>
      </trkpt>
      <trkpt lat="42.459003000" lon="-2.465284000">
        <ele>403.00</ele>
        <time>2012-05-12T08:33:37Z</time>
      </trkpt>
      <trkpt lat="42.459005000" lon="-2.465288000">
        <ele>403.00</ele>
        <time>2012-05-12T08:33:37Z</time>
      </trkpt>
      <trkpt lat="42.459008000" lon="-2.465284000">
        <ele>403.00</ele>
        <time>2012-05-12T08:33:40Z</time>
      </trkpt>
      <trkpt lat="42.459016000" lon="-2.465284000">
        <ele>403.00</ele>
        <time>2012-05-12T08:33:42Z</time>
      </trkpt>
      <trkpt lat="42.459023000" lon="-2.465286000">
        <ele>403.00</ele>
        <time>2012-05-12T08:33:42Z</time>
      </trkpt>
      <trkpt lat="42.459033000" lon="-2.465286000">
        <ele>403.00</ele>
        <time>2012-05-12T08:33:45Z</time>
      </trkpt>
      <trkpt lat="42.459040000" lon="-2.465286000">
        <ele>402.90</ele>
        <time>2012-05-12T08:33:45Z</time>
      </trkpt>
      <trkpt lat="42.459045000" lon="-2.465288000">
        <ele>402.90</ele>
        <time>2012-05-12T08:33:47Z</time>
      </trkpt>
      <trkpt lat="42.459058000" lon="-2.465284000">
        <ele>402.90</ele>
        <time>2012-05-12T08:33:49Z</time>
      </trkpt>
      <trkpt lat="42.459065000" lon="-2.465281000">
        <ele>402.80</ele>
        <time>2012-05-12T08:33:49Z</time>
      </trkpt>
      <trkpt lat="42.459075000" lon="-2.465281000">
        <ele>402.80</ele>
        <time>2012-05-12T08:33:52Z</time>
      </trkpt>
      <trkpt lat="42.459085000" lon="-2.465279000">
        <ele>402.80</ele>
        <time>2012-05-12T08:33:54Z</time>
      </trkpt>
      <trkpt lat="42.459090000" lon="-2.465278000">
        <ele>402.70</ele>
        <time>2012-05-12T08:33:54Z</time>
      </trkpt>
      <trkpt lat="42.459103000" lon="-2.465273000">
        <ele>402.70</ele>
        <time>2012-05-12T08:33:58Z</time>
      </trkpt>
      <trkpt lat="42.459113000" lon="-2.465264000">
        <ele>402.70</ele>
        <time>2012-05-12T08:33:59Z</time>
      </trkpt>
      <trkpt lat="42.459116000" lon="-2.465259000">
        <ele>402.60</ele>
        <time>2012-05-12T08:34:01Z</time>
      </trkpt>
      <trkpt lat="42.459123000" lon="-2.465243000">
        <ele>402.60</ele>
        <time>2012-05-12T08:34:05Z</time>
      </trkpt>
      <trkpt lat="42.459123000" lon="-2.465226000">
        <ele>402.60</ele>
        <time>2012-05-12T08:34:10Z</time>
      </trkpt>
      <trkpt lat="42.459121000" lon="-2.465223000">
        <ele>402.60</ele>
        <time>2012-05-12T08:34:10Z</time>
      </trkpt>
      <trkpt lat="42.459121000" lon="-2.465218000">
        <ele>402.60</ele>
        <time>2012-05-12T08:34:12Z</time>
      </trkpt>
      <trkpt lat="42.459115000" lon="-2.465213000">
        <ele>402.60</ele>
        <time>2012-05-12T08:34:15Z</time>
      </trkpt>
      <trkpt lat="42.459115000" lon="-2.465211000">
        <ele>402.60</ele>
        <time>2012-05-12T08:34:17Z</time>
      </trkpt>
      <trkpt lat="42.459111000" lon="-2.465211000">
        <ele>402.60</ele>
        <time>2012-05-12T08:34:18Z</time>
      </trkpt>
      <trkpt lat="42.459108000" lon="-2.465209000">
        <ele>402.70</ele>
        <time>2012-05-12T08:34:20Z</time>
      </trkpt>
      <trkpt lat="42.459106000" lon="-2.465211000">
        <ele>402.70</ele>
        <time>2012-05-12T08:34:22Z</time>
      </trkpt>
      <trkpt lat="42.459106000" lon="-2.465209000">
        <ele>402.70</ele>
        <time>2012-05-12T08:34:22Z</time>
      </trkpt>
      <trkpt lat="42.459103000" lon="-2.465208000">
        <ele>402.70</ele>
        <time>2012-05-12T08:34:24Z</time>
      </trkpt>
      <trkpt lat="42.459086000" lon="-2.465214000">
        <ele>402.70</ele>
        <time>2012-05-12T08:34:29Z</time>
      </trkpt>
      <trkpt lat="42.459081000" lon="-2.465219000">
        <ele>402.70</ele>
        <time>2012-05-12T08:34:31Z</time>
      </trkpt>
      <trkpt lat="42.459080000" lon="-2.465221000">
        <ele>402.80</ele>
        <time>2012-05-12T08:34:32Z</time>
      </trkpt>
      <trkpt lat="42.459060000" lon="-2.465224000">
        <ele>402.80</ele>
        <time>2012-05-12T08:34:39Z</time>
      </trkpt>
      <trkpt lat="42.459060000" lon="-2.465226000">
        <ele>402.80</ele>
        <time>2012-05-12T08:34:41Z</time>
      </trkpt>
      <trkpt lat="42.459053000" lon="-2.465226000">
        <ele>402.80</ele>
        <time>2012-05-12T08:34:43Z</time>
      </trkpt>
      <trkpt lat="42.459051000" lon="-2.465226000">
        <ele>402.90</ele>
        <time>2012-05-12T08:34:43Z</time>
      </trkpt>
      <trkpt lat="42.459051000" lon="-2.465228000">
        <ele>402.90</ele>
        <time>2012-05-12T08:34:45Z</time>
      </trkpt>
      <trkpt lat="42.459055000" lon="-2.465228000">
        <ele>402.90</ele>
        <time>2012-05-12T08:34:48Z</time>
      </trkpt>
      <trkpt lat="42.459058000" lon="-2.465228000">
        <ele>402.80</ele>
        <time>2012-05-12T08:34:48Z</time>
      </trkpt>
      <trkpt lat="42.459066000" lon="-2.465228000">
        <ele>402.80</ele>
        <time>2012-05-12T08:34:50Z</time>
      </trkpt>
      <trkpt lat="42.459088000" lon="-2.465221000">
        <ele>402.80</ele>
        <time>2012-05-12T08:34:55Z</time>
      </trkpt>
      <trkpt lat="42.459093000" lon="-2.465219000">
        <ele>402.70</ele>
        <time>2012-05-12T08:34:55Z</time>
      </trkpt>
      <trkpt lat="42.459116000" lon="-2.465219000">
        <ele>402.70</ele>
        <time>2012-05-12T08:35:00Z</time>
      </trkpt>
      <trkpt lat="42.459121000" lon="-2.465218000">
        <ele>402.60</ele>
        <time>2012-05-12T08:35:00Z</time>
      </trkpt>
      <trkpt lat="42.459125000" lon="-2.465218000">
        <ele>402.60</ele>
        <time>2012-05-12T08:35:02Z</time>
      </trkpt>
      <trkpt lat="42.459136000" lon="-2.465214000">
        <ele>402.60</ele>
        <time>2012-05-12T08:35:04Z</time>
      </trkpt>
      <trkpt lat="42.459140000" lon="-2.465211000">
        <ele>402.60</ele>
        <time>2012-05-12T08:35:06Z</time>
      </trkpt>
      <trkpt lat="42.459143000" lon="-2.465209000">
        <ele>402.50</ele>
        <time>2012-05-12T08:35:07Z</time>
      </trkpt>
      <trkpt lat="42.459146000" lon="-2.465208000">
        <ele>402.50</ele>
        <time>2012-05-12T08:35:09Z</time>
      </trkpt>
      <trkpt lat="42.459151000" lon="-2.465209000">
        <ele>402.50</ele>
        <time>2012-05-12T08:35:11Z</time>
      </trkpt>
      <trkpt lat="42.459151000" lon="-2.465213000">
        <ele>402.50</ele>
        <time>2012-05-12T08:35:12Z</time>
      </trkpt>
      <trkpt lat="42.459150000" lon="-2.465209000">
        <ele>402.50</ele>
        <time>2012-05-12T08:35:16Z</time>
      </trkpt>
      <trkpt lat="42.459148000" lon="-2.465209000">
        <ele>402.50</ele>
        <time>2012-05-12T08:35:18Z</time>
      </trkpt>
      <trkpt lat="42.459143000" lon="-2.465213000">
        <ele>402.50</ele>
        <time>2012-05-12T08:35:21Z</time>
      </trkpt>
      <trkpt lat="42.459136000" lon="-2.465214000">
        <ele>402.50</ele>
        <time>2012-05-12T08:35:23Z</time>
      </trkpt>
      <trkpt lat="42.459133000" lon="-2.465216000">
        <ele>402.60</ele>
        <time>2012-05-12T08:35:23Z</time>
      </trkpt>
      <trkpt lat="42.459125000" lon="-2.465216000">
        <ele>402.60</ele>
        <time>2012-05-12T08:35:25Z</time>
      </trkpt>
      <trkpt lat="42.459110000" lon="-2.465223000">
        <ele>402.60</ele>
        <time>2012-05-12T08:35:28Z</time>
      </trkpt>
      <trkpt lat="42.459105000" lon="-2.465228000">
        <ele>402.60</ele>
        <time>2012-05-12T08:35:30Z</time>
      </trkpt>
      <trkpt lat="42.459098000" lon="-2.465233000">
        <ele>402.70</ele>
        <time>2012-05-12T08:35:30Z</time>
      </trkpt>
      <trkpt lat="42.459091000" lon="-2.465238000">
        <ele>402.70</ele>
        <time>2012-05-12T08:35:32Z</time>
      </trkpt>
      <trkpt lat="42.459076000" lon="-2.465246000">
        <ele>402.70</ele>
        <time>2012-05-12T08:35:33Z</time>
      </trkpt>
      <trkpt lat="42.459070000" lon="-2.465251000">
        <ele>402.80</ele>
        <time>2012-05-12T08:35:35Z</time>
      </trkpt>
      <trkpt lat="42.459058000" lon="-2.465258000">
        <ele>402.80</ele>
        <time>2012-05-12T08:35:37Z</time>
      </trkpt>
      <trkpt lat="42.459050000" lon="-2.465261000">
        <ele>402.80</ele>
        <time>2012-05-12T08:35:37Z</time>
      </trkpt>
      <trkpt lat="42.459043000" lon="-2.465264000">
        <ele>402.90</ele>
        <time>2012-05-12T08:35:39Z</time>
      </trkpt>
      <trkpt lat="42.459038000" lon="-2.465274000">
        <ele>402.90</ele>
        <time>2012-05-12T08:35:40Z</time>
      </trkpt>
      <trkpt lat="42.459026000" lon="-2.465283000">
        <ele>402.90</ele>
        <time>2012-05-12T08:35:44Z</time>
      </trkpt>
      <trkpt lat="42.459023000" lon="-2.465284000">
        <ele>403.00</ele>
        <time>2012-05-12T08:35:44Z</time>
      </trkpt>
      <trkpt lat="42.459016000" lon="-2.465288000">
        <ele>403.00</ele>
        <time>2012-05-12T08:35:47Z</time>
      </trkpt>
      <trkpt lat="42.459011000" lon="-2.465284000">
        <ele>403.00</ele>
        <time>2012-05-12T08:35:51Z</time>
      </trkpt>
      <trkpt lat="42.459010000" lon="-2.465278000">
        <ele>403.00</ele>
        <time>2012-05-12T08:35:56Z</time>
      </trkpt>
      <trkpt lat="42.459008000" lon="-2.465278000">
        <ele>403.00</ele>
        <time>2012-05-12T08:35:56Z</time>
      </trkpt>
      <trkpt lat="42.459008000" lon="-2.465276000">
        <ele>403.00</ele>
        <time>2012-05-12T08:35:58Z</time>
      </trkpt>
      <trkpt lat="42.459010000" lon="-2.465276000">
        <ele>403.00</ele>
        <time>2012-05-12T08:36:00Z</time>
      </trkpt>
      <trkpt lat="42.459005000" lon="-2.465264000">
        <ele>403.00</ele>
        <time>2012-05-12T08:36:03Z</time>
      </trkpt>
      <trkpt lat="42.458998000" lon="-2.465269000">
        <ele>403.00</ele>
        <time>2012-05-12T08:36:08Z</time>
      </trkpt>
      <trkpt lat="42.458995000" lon="-2.465273000">
        <ele>403.10</ele>
        <time>2012-05-12T08:36:10Z</time>
      </trkpt>
      <trkpt lat="42.458991000" lon="-2.465276000">
        <ele>403.10</ele>
        <time>2012-05-12T08:36:10Z</time>
      </trkpt>
      <trkpt lat="42.458990000" lon="-2.465281000">
        <ele>403.10</ele>
        <time>2012-05-12T08:36:12Z</time>
      </trkpt>
      <trkpt lat="42.458986000" lon="-2.465286000">
        <ele>403.10</ele>
        <time>2012-05-12T08:36:12Z</time>
      </trkpt>
      <trkpt lat="42.458985000" lon="-2.465296000">
        <ele>403.10</ele>
        <time>2012-05-12T08:36:15Z</time>
      </trkpt>
      <trkpt lat="42.458975000" lon="-2.465304000">
        <ele>403.10</ele>
        <time>2012-05-12T08:36:19Z</time>
      </trkpt>
      <trkpt lat="42.458975000" lon="-2.465316000">
        <ele>403.10</ele>
        <time>2012-05-12T08:36:27Z</time>
      </trkpt>
      <trkpt lat="42.458973000" lon="-2.465321000">
        <ele>403.10</ele>
        <time>2012-05-12T08:36:29Z</time>
      </trkpt>
      <trkpt lat="42.458973000" lon="-2.465329000">
        <ele>403.10</ele>
        <time>2012-05-12T08:36:31Z</time>
      </trkpt>
      <trkpt lat="42.458971000" lon="-2.465331000">
        <ele>403.10</ele>
        <time>2012-05-12T08:36:34Z</time>
      </trkpt>
      <trkpt lat="42.458971000" lon="-2.465333000">
        <ele>403.20</ele>
        <time>2012-05-12T08:36:34Z</time>
      </trkpt>
      <trkpt lat="42.458968000" lon="-2.465334000">
        <ele>403.20</ele>
        <time>2012-05-12T08:36:36Z</time>
      </trkpt>
      <trkpt lat="42.458961000" lon="-2.465331000">
        <ele>403.20</ele>
        <time>2012-05-12T08:36:38Z</time>
      </trkpt>
      <trkpt lat="42.458963000" lon="-2.465334000">
        <ele>403.20</ele>
        <time>2012-05-12T08:36:38Z</time>
      </trkpt>
      <trkpt lat="42.458963000" lon="-2.465338000">
        <ele>403.20</ele>
        <time>2012-05-12T08:36:40Z</time>
      </trkpt>
      <trkpt lat="42.458960000" lon="-2.465343000">
        <ele>403.20</ele>
        <time>2012-05-12T08:36:41Z</time>
      </trkpt>
      <trkpt lat="42.458935000" lon="-2.465364000">
        <ele>403.30</ele>
        <time>2012-05-12T08:36:48Z</time>
      </trkpt>
      <trkpt lat="42.458928000" lon="-2.465373000">
        <ele>403.30</ele>
        <time>2012-05-12T08:36:48Z</time>
      </trkpt>
      <trkpt lat="42.458920000" lon="-2.465388000">
        <ele>403.30</ele>
        <time>2012-05-12T08:36:50Z</time>
      </trkpt>
      <trkpt lat="42.458915000" lon="-2.465393000">
        <ele>403.30</ele>
        <time>2012-05-12T08:36:52Z</time>
      </trkpt>
      <trkpt lat="42.458903000" lon="-2.465393000">
        <ele>403.40</ele>
        <time>2012-05-12T08:36:54Z</time>
      </trkpt>
      <trkpt lat="42.458846000" lon="-2.465426000">
        <ele>403.60</ele>
        <time>2012-05-12T08:37:04Z</time>
      </trkpt>
      <trkpt lat="42.458841000" lon="-2.465431000">
        <ele>403.60</ele>
        <time>2012-05-12T08:37:04Z</time>
      </trkpt>
      <trkpt lat="42.458836000" lon="-2.465434000">
        <ele>403.70</ele>
        <time>2012-05-12T08:37:06Z</time>
      </trkpt>
      <trkpt lat="42.458816000" lon="-2.465438000">
        <ele>403.80</ele>
        <time>2012-05-12T08:37:13Z</time>
      </trkpt>
      <trkpt lat="42.458818000" lon="-2.465434000">
        <ele>403.80</ele>
        <time>2012-05-12T08:37:14Z</time>
      </trkpt>
      <trkpt lat="42.458816000" lon="-2.465434000">
        <ele>403.80</ele>
        <time>2012-05-12T08:37:16Z</time>
      </trkpt>
      <trkpt lat="42.458811000" lon="-2.465423000">
        <ele>403.80</ele>
        <time>2012-05-12T08:37:18Z</time>
      </trkpt>
      <trkpt lat="42.458805000" lon="-2.465419000">
        <ele>403.80</ele>
        <time>2012-05-12T08:37:18Z</time>
      </trkpt>
      <trkpt lat="42.458790000" lon="-2.465416000">
        <ele>403.80</ele>
        <time>2012-05-12T08:37:21Z</time>
      </trkpt>
      <trkpt lat="42.458778000" lon="-2.465418000">
        <ele>403.80</ele>
        <time>2012-05-12T08:37:25Z</time>
      </trkpt>
      <trkpt lat="42.458766000" lon="-2.465418000">
        <ele>403.90</ele>
        <time>2012-05-12T08:37:28Z</time>
      </trkpt>
      <trkpt lat="42.458755000" lon="-2.465421000">
        <ele>403.90</ele>
        <time>2012-05-12T08:37:28Z</time>
      </trkpt>
      <trkpt lat="42.458721000" lon="-2.465416000">
        <ele>404.00</ele>
        <time>2012-05-12T08:37:30Z</time>
      </trkpt>
      <trkpt lat="42.458705000" lon="-2.465418000">
        <ele>404.10</ele>
        <time>2012-05-12T08:37:32Z</time>
      </trkpt>
      <trkpt lat="42.458666000" lon="-2.465438000">
        <ele>404.30</ele>
        <time>2012-05-12T08:37:34Z</time>
      </trkpt>
      <trkpt lat="42.458645000" lon="-2.465443000">
        <ele>404.40</ele>
        <time>2012-05-12T08:37:35Z</time>
      </trkpt>
      <trkpt lat="42.458626000" lon="-2.465438000">
        <ele>404.50</ele>
        <time>2012-05-12T08:37:35Z</time>
      </trkpt>
      <trkpt lat="42.458608000" lon="-2.465418000">
        <ele>404.60</ele>
        <time>2012-05-12T08:37:37Z</time>
      </trkpt>
      <trkpt lat="42.458591000" lon="-2.465389000">
        <ele>404.60</ele>
        <time>2012-05-12T08:37:37Z</time>
      </trkpt>
      <trkpt lat="42.458573000" lon="-2.465316000">
        <ele>404.70</ele>
        <time>2012-05-12T08:37:39Z</time>
      </trkpt>
      <trkpt lat="42.458556000" lon="-2.465094000">
        <ele>404.80</ele>
        <time>2012-05-12T08:37:44Z</time>
      </trkpt>
      <trkpt lat="42.458468000" lon="-2.464244000">
        <ele>405.30</ele>
        <time>2012-05-12T08:38:00Z</time>
      </trkpt>
      <trkpt lat="42.458133000" lon="-2.461683000">
        <ele>401.40</ele>
        <time>2012-05-12T08:38:42Z</time>
      </trkpt>
      <trkpt lat="42.458116000" lon="-2.461616000">
        <ele>401.30</ele>
        <time>2012-05-12T08:38:43Z</time>
      </trkpt>
      <trkpt lat="42.458008000" lon="-2.461094000">
        <ele>398.90</ele>
        <time>2012-05-12T08:38:52Z</time>
      </trkpt>
      <trkpt lat="42.457985000" lon="-2.461083000">
        <ele>398.90</ele>
        <time>2012-05-12T08:38:54Z</time>
      </trkpt>
      <trkpt lat="42.457930000" lon="-2.461081000">
        <ele>398.80</ele>
        <time>2012-05-12T08:38:55Z</time>
      </trkpt>
      <trkpt lat="42.457373000" lon="-2.461264000">
        <ele>399.60</ele>
        <time>2012-05-12T08:39:11Z</time>
      </trkpt>
      <trkpt lat="42.456851000" lon="-2.461523000">
        <ele>400.20</ele>
        <time>2012-05-12T08:39:27Z</time>
      </trkpt>
      <trkpt lat="42.456793000" lon="-2.461536000">
        <ele>400.20</ele>
        <time>2012-05-12T08:39:29Z</time>
      </trkpt>
      <trkpt lat="42.456765000" lon="-2.461528000">
        <ele>400.20</ele>
        <time>2012-05-12T08:39:30Z</time>
      </trkpt>
      <trkpt lat="42.456740000" lon="-2.461506000">
        <ele>400.10</ele>
        <time>2012-05-12T08:39:30Z</time>
      </trkpt>
      <trkpt lat="42.456711000" lon="-2.461444000">
        <ele>399.90</ele>
        <time>2012-05-12T08:39:32Z</time>
      </trkpt>
      <trkpt lat="42.456636000" lon="-2.461036000">
        <ele>398.60</ele>
        <time>2012-05-12T08:39:42Z</time>
      </trkpt>
      <trkpt lat="42.456635000" lon="-2.460994000">
        <ele>398.60</ele>
        <time>2012-05-12T08:39:44Z</time>
      </trkpt>
      <trkpt lat="42.456570000" lon="-2.460643000">
        <ele>397.80</ele>
        <time>2012-05-12T08:39:53Z</time>
      </trkpt>
      <trkpt lat="42.456433000" lon="-2.460388000">
        <ele>397.20</ele>
        <time>2012-05-12T08:40:00Z</time>
      </trkpt>
      <trkpt lat="42.456415000" lon="-2.460363000">
        <ele>397.10</ele>
        <time>2012-05-12T08:40:02Z</time>
      </trkpt>
      <trkpt lat="42.456393000" lon="-2.460343000">
        <ele>397.00</ele>
        <time>2012-05-12T08:40:02Z</time>
      </trkpt>
      <trkpt lat="42.456370000" lon="-2.460329000">
        <ele>396.90</ele>
        <time>2012-05-12T08:40:03Z</time>
      </trkpt>
      <trkpt lat="42.456341000" lon="-2.460326000">
        <ele>396.90</ele>
        <time>2012-05-12T08:40:05Z</time>
      </trkpt>
      <trkpt lat="42.456258000" lon="-2.460351000">
        <ele>396.80</ele>
        <time>2012-05-12T08:40:07Z</time>
      </trkpt>
      <trkpt lat="42.456226000" lon="-2.460351000">
        <ele>396.70</ele>
        <time>2012-05-12T08:40:09Z</time>
      </trkpt>
      <trkpt lat="42.456196000" lon="-2.460343000">
        <ele>396.60</ele>
        <time>2012-05-12T08:40:10Z</time>
      </trkpt>
      <trkpt lat="42.456098000" lon="-2.460278000">
        <ele>396.10</ele>
        <time>2012-05-12T08:40:14Z</time>
      </trkpt>
      <trkpt lat="42.456043000" lon="-2.460263000">
        <ele>395.80</ele>
        <time>2012-05-12T08:40:16Z</time>
      </trkpt>
      <trkpt lat="42.455926000" lon="-2.460271000">
        <ele>395.40</ele>
        <time>2012-05-12T08:40:19Z</time>
      </trkpt>
      <trkpt lat="42.455710000" lon="-2.460299000">
        <ele>394.70</ele>
        <time>2012-05-12T08:40:28Z</time>
      </trkpt>
      <trkpt lat="42.455700000" lon="-2.460298000">
        <ele>394.60</ele>
        <time>2012-05-12T08:40:28Z</time>
      </trkpt>
      <trkpt lat="42.455678000" lon="-2.460301000">
        <ele>394.50</ele>
        <time>2012-05-12T08:40:31Z</time>
      </trkpt>
      <trkpt lat="42.455668000" lon="-2.460303000">
        <ele>394.50</ele>
        <time>2012-05-12T08:40:31Z</time>
      </trkpt>
      <trkpt lat="42.455626000" lon="-2.460309000">
        <ele>394.40</ele>
        <time>2012-05-12T08:40:35Z</time>
      </trkpt>
      <trkpt lat="42.455605000" lon="-2.460308000">
        <ele>394.30</ele>
        <time>2012-05-12T08:40:36Z</time>
      </trkpt>
      <trkpt lat="42.455591000" lon="-2.460311000">
        <ele>394.30</ele>
        <time>2012-05-12T08:40:38Z</time>
      </trkpt>
      <trkpt lat="42.455581000" lon="-2.460309000">
        <ele>394.20</ele>
        <time>2012-05-12T08:40:38Z</time>
      </trkpt>
      <trkpt lat="42.455580000" lon="-2.460314000">
        <ele>394.20</ele>
        <time>2012-05-12T08:40:40Z</time>
      </trkpt>
      <trkpt lat="42.455516000" lon="-2.460324000">
        <ele>394.10</ele>
        <time>2012-05-12T08:40:42Z</time>
      </trkpt>
      <trkpt lat="42.455485000" lon="-2.460323000">
        <ele>393.90</ele>
        <time>2012-05-12T08:40:45Z</time>
      </trkpt>
      <trkpt lat="42.455461000" lon="-2.460328000">
        <ele>393.90</ele>
        <time>2012-05-12T08:40:45Z</time>
      </trkpt>
      <trkpt lat="42.455436000" lon="-2.460319000">
        <ele>393.80</ele>
        <time>2012-05-12T08:40:47Z</time>
      </trkpt>
      <trkpt lat="42.455420000" lon="-2.460306000">
        <ele>393.70</ele>
        <time>2012-05-12T08:40:47Z</time>
      </trkpt>
      <trkpt lat="42.455376000" lon="-2.460261000">
        <ele>393.50</ele>
        <time>2012-05-12T08:40:52Z</time>
      </trkpt>
      <trkpt lat="42.455368000" lon="-2.460258000">
        <ele>393.50</ele>
        <time>2012-05-12T08:40:52Z</time>
      </trkpt>
      <trkpt lat="42.455360000" lon="-2.460258000">
        <ele>393.50</ele>
        <time>2012-05-12T08:40:54Z</time>
      </trkpt>
      <trkpt lat="42.455345000" lon="-2.460254000">
        <ele>393.50</ele>
        <time>2012-05-12T08:40:56Z</time>
      </trkpt>
      <trkpt lat="42.455286000" lon="-2.460248000">
        <ele>393.50</ele>
        <time>2012-05-12T08:41:03Z</time>
      </trkpt>
      <trkpt lat="42.455278000" lon="-2.460246000">
        <ele>393.60</ele>
        <time>2012-05-12T08:41:04Z</time>
      </trkpt>
      <trkpt lat="42.455263000" lon="-2.460243000">
        <ele>393.60</ele>
        <time>2012-05-12T08:41:06Z</time>
      </trkpt>
      <trkpt lat="42.455260000" lon="-2.460233000">
        <ele>393.60</ele>
        <time>2012-05-12T08:41:06Z</time>
      </trkpt>
      <trkpt lat="42.455258000" lon="-2.460219000">
        <ele>393.50</ele>
        <time>2012-05-12T08:41:08Z</time>
      </trkpt>
      <trkpt lat="42.455250000" lon="-2.460214000">
        <ele>393.50</ele>
        <time>2012-05-12T08:41:10Z</time>
      </trkpt>
      <trkpt lat="42.455236000" lon="-2.460198000">
        <ele>393.50</ele>
        <time>2012-05-12T08:41:13Z</time>
      </trkpt>
      <trkpt lat="42.455130000" lon="-2.459834000">
        <ele>392.80</ele>
        <time>2012-05-12T08:41:22Z</time>
      </trkpt>
      <trkpt lat="42.455053000" lon="-2.459461000">
        <ele>392.30</ele>
        <time>2012-05-12T08:41:29Z</time>
      </trkpt>
      <trkpt lat="42.454861000" lon="-2.459036000">
        <ele>392.70</ele>
        <time>2012-05-12T08:41:39Z</time>
      </trkpt>
      <trkpt lat="42.454730000" lon="-2.458853000">
        <ele>392.80</ele>
        <time>2012-05-12T08:41:43Z</time>
      </trkpt>
      <trkpt lat="42.454693000" lon="-2.458814000">
        <ele>392.80</ele>
        <time>2012-05-12T08:41:43Z</time>
      </trkpt>
      <trkpt lat="42.454655000" lon="-2.458788000">
        <ele>392.90</ele>
        <time>2012-05-12T08:41:44Z</time>
      </trkpt>
      <trkpt lat="42.454615000" lon="-2.458783000">
        <ele>392.90</ele>
        <time>2012-05-12T08:41:46Z</time>
      </trkpt>
      <trkpt lat="42.454580000" lon="-2.458803000">
        <ele>392.90</ele>
        <time>2012-05-12T08:41:46Z</time>
      </trkpt>
      <trkpt lat="42.454550000" lon="-2.458838000">
        <ele>393.00</ele>
        <time>2012-05-12T08:41:48Z</time>
      </trkpt>
      <trkpt lat="42.454493000" lon="-2.458919000">
        <ele>393.10</ele>
        <time>2012-05-12T08:41:50Z</time>
      </trkpt>
      <trkpt lat="42.454456000" lon="-2.458953000">
        <ele>393.10</ele>
        <time>2012-05-12T08:41:50Z</time>
      </trkpt>
      <trkpt lat="42.453386000" lon="-2.459313000">
        <ele>392.70</ele>
        <time>2012-05-12T08:42:16Z</time>
      </trkpt>
      <trkpt lat="42.453356000" lon="-2.459336000">
        <ele>392.70</ele>
        <time>2012-05-12T08:42:17Z</time>
      </trkpt>
      <trkpt lat="42.453338000" lon="-2.459366000">
        <ele>392.70</ele>
        <time>2012-05-12T08:42:19Z</time>
      </trkpt>
      <trkpt lat="42.453320000" lon="-2.459451000">
        <ele>392.70</ele>
        <time>2012-05-12T08:42:21Z</time>
      </trkpt>
      <trkpt lat="42.453160000" lon="-2.459664000">
        <ele>392.60</ele>
        <time>2012-05-12T08:42:26Z</time>
      </trkpt>
      <trkpt lat="42.453108000" lon="-2.459706000">
        <ele>392.70</ele>
        <time>2012-05-12T08:42:26Z</time>
      </trkpt>
      <trkpt lat="42.453048000" lon="-2.459728000">
        <ele>392.70</ele>
        <time>2012-05-12T08:42:28Z</time>
      </trkpt>
      <trkpt lat="42.452986000" lon="-2.459724000">
        <ele>392.80</ele>
        <time>2012-05-12T08:42:28Z</time>
      </trkpt>
      <trkpt lat="42.452841000" lon="-2.459691000">
        <ele>393.10</ele>
        <time>2012-05-12T08:42:31Z</time>
      </trkpt>
      <trkpt lat="42.450931000" lon="-2.460231000">
        <ele>396.00</ele>
        <time>2012-05-12T08:43:22Z</time>
      </trkpt>
      <trkpt lat="42.450905000" lon="-2.460244000">
        <ele>396.00</ele>
        <time>2012-05-12T08:43:22Z</time>
      </trkpt>
      <trkpt lat="42.450530000" lon="-2.460383000">
        <ele>396.00</ele>
        <time>2012-05-12T08:43:34Z</time>
      </trkpt>
      <trkpt lat="42.450458000" lon="-2.460483000">
        <ele>396.00</ele>
        <time>2012-05-12T08:43:38Z</time>
      </trkpt>
      <trkpt lat="42.450398000" lon="-2.460536000">
        <ele>396.10</ele>
        <time>2012-05-12T08:43:39Z</time>
      </trkpt>
      <trkpt lat="42.450365000" lon="-2.460553000">
        <ele>396.10</ele>
        <time>2012-05-12T08:43:41Z</time>
      </trkpt>
      <trkpt lat="42.450328000" lon="-2.460556000">
        <ele>396.20</ele>
        <time>2012-05-12T08:43:41Z</time>
      </trkpt>
      <trkpt lat="42.450291000" lon="-2.460546000">
        <ele>396.20</ele>
        <time>2012-05-12T08:43:43Z</time>
      </trkpt>
      <trkpt lat="42.450258000" lon="-2.460526000">
        <ele>396.20</ele>
        <time>2012-05-12T08:43:43Z</time>
      </trkpt>
      <trkpt lat="42.450230000" lon="-2.460498000">
        <ele>396.30</ele>
        <time>2012-05-12T08:43:45Z</time>
      </trkpt>
      <trkpt lat="42.450155000" lon="-2.460401000">
        <ele>396.30</ele>
        <time>2012-05-12T08:43:48Z</time>
      </trkpt>
      <trkpt lat="42.450125000" lon="-2.460374000">
        <ele>396.30</ele>
        <time>2012-05-12T08:43:48Z</time>
      </trkpt>
      <trkpt lat="42.450091000" lon="-2.460354000">
        <ele>396.30</ele>
        <time>2012-05-12T08:43:50Z</time>
      </trkpt>
      <trkpt lat="42.450058000" lon="-2.460343000">
        <ele>396.40</ele>
        <time>2012-05-12T08:43:50Z</time>
      </trkpt>
      <trkpt lat="42.446083000" lon="-2.460901000">
        <ele>407.00</ele>
        <time>2012-05-12T08:45:36Z</time>
      </trkpt>
      <trkpt lat="42.446050000" lon="-2.460913000">
        <ele>407.00</ele>
        <time>2012-05-12T08:45:38Z</time>
      </trkpt>
      <trkpt lat="42.445805000" lon="-2.461101000">
        <ele>407.30</ele>
        <time>2012-05-12T08:45:45Z</time>
      </trkpt>
      <trkpt lat="42.445540000" lon="-2.461566000">
        <ele>407.30</ele>
        <time>2012-05-12T08:45:57Z</time>
      </trkpt>
      <trkpt lat="42.445343000" lon="-2.461769000">
        <ele>407.50</ele>
        <time>2012-05-12T08:46:04Z</time>
      </trkpt>
      <trkpt lat="42.445025000" lon="-2.462043000">
        <ele>409.00</ele>
        <time>2012-05-12T08:46:16Z</time>
      </trkpt>
      <trkpt lat="42.444966000" lon="-2.462076000">
        <ele>409.40</ele>
        <time>2012-05-12T08:46:18Z</time>
      </trkpt>
      <trkpt lat="42.443831000" lon="-2.462504000">
        <ele>411.50</ele>
        <time>2012-05-12T08:46:51Z</time>
      </trkpt>
      <trkpt lat="42.443791000" lon="-2.462531000">
        <ele>411.50</ele>
        <time>2012-05-12T08:46:51Z</time>
      </trkpt>
      <trkpt lat="42.443441000" lon="-2.462688000">
        <ele>411.50</ele>
        <time>2012-05-12T08:47:00Z</time>
      </trkpt>
      <trkpt lat="42.443311000" lon="-2.462676000">
        <ele>411.40</ele>
        <time>2012-05-12T08:47:03Z</time>
      </trkpt>
      <trkpt lat="42.443188000" lon="-2.462631000">
        <ele>411.20</ele>
        <time>2012-05-12T08:47:05Z</time>
      </trkpt>
      <trkpt lat="42.442480000" lon="-2.462099000">
        <ele>410.10</ele>
        <time>2012-05-12T08:47:26Z</time>
      </trkpt>
      <trkpt lat="42.442351000" lon="-2.461978000">
        <ele>410.20</ele>
        <time>2012-05-12T08:47:31Z</time>
      </trkpt>
      <trkpt lat="42.441970000" lon="-2.461771000">
        <ele>411.30</ele>
        <time>2012-05-12T08:47:40Z</time>
      </trkpt>
      <trkpt lat="42.441930000" lon="-2.461766000">
        <ele>411.40</ele>
        <time>2012-05-12T08:47:42Z</time>
      </trkpt>
      <trkpt lat="42.441565000" lon="-2.461811000">
        <ele>413.00</ele>
        <time>2012-05-12T08:47:50Z</time>
      </trkpt>
      <trkpt lat="42.441135000" lon="-2.461704000">
        <ele>414.50</ele>
        <time>2012-05-12T08:48:01Z</time>
      </trkpt>
      <trkpt lat="42.441096000" lon="-2.461686000">
        <ele>414.50</ele>
        <time>2012-05-12T08:48:02Z</time>
      </trkpt>
      <trkpt lat="42.440558000" lon="-2.461456000">
        <ele>415.20</ele>
        <time>2012-05-12T08:48:18Z</time>
      </trkpt>
      <trkpt lat="42.440408000" lon="-2.461488000">
        <ele>415.40</ele>
        <time>2012-05-12T08:48:22Z</time>
      </trkpt>
      <trkpt lat="42.440371000" lon="-2.461503000">
        <ele>415.50</ele>
        <time>2012-05-12T08:48:23Z</time>
      </trkpt>
      <trkpt lat="42.439638000" lon="-2.462203000">
        <ele>419.20</ele>
        <time>2012-05-12T08:48:48Z</time>
      </trkpt>
      <trkpt lat="42.438863000" lon="-2.463201000">
        <ele>422.90</ele>
        <time>2012-05-12T08:49:17Z</time>
      </trkpt>
      <trkpt lat="42.438843000" lon="-2.463243000">
        <ele>422.90</ele>
        <time>2012-05-12T08:49:19Z</time>
      </trkpt>
      <trkpt lat="42.437331000" lon="-2.466453000">
        <ele>431.60</ele>
        <time>2012-05-12T08:50:43Z</time>
      </trkpt>
      <trkpt lat="42.437321000" lon="-2.466483000">
        <ele>431.60</ele>
        <time>2012-05-12T08:50:43Z</time>
      </trkpt>
      <trkpt lat="42.437226000" lon="-2.466684000">
        <ele>432.10</ele>
        <time>2012-05-12T08:50:50Z</time>
      </trkpt>
      <trkpt lat="42.437091000" lon="-2.467074000">
        <ele>432.80</ele>
        <time>2012-05-12T08:51:00Z</time>
      </trkpt>
      <trkpt lat="42.434806000" lon="-2.471909000">
        <ele>439.10</ele>
        <time>2012-05-12T08:52:55Z</time>
      </trkpt>
      <trkpt lat="42.434785000" lon="-2.471943000">
        <ele>439.20</ele>
        <time>2012-05-12T08:52:57Z</time>
      </trkpt>
      <trkpt lat="42.434610000" lon="-2.472203000">
        <ele>439.70</ele>
        <time>2012-05-12T08:53:05Z</time>
      </trkpt>
      <trkpt lat="42.434583000" lon="-2.472221000">
        <ele>439.80</ele>
        <time>2012-05-12T08:53:07Z</time>
      </trkpt>
      <trkpt lat="42.434555000" lon="-2.472234000">
        <ele>439.90</ele>
        <time>2012-05-12T08:53:07Z</time>
      </trkpt>
      <trkpt lat="42.434525000" lon="-2.472243000">
        <ele>440.10</ele>
        <time>2012-05-12T08:53:09Z</time>
      </trkpt>
      <trkpt lat="42.434065000" lon="-2.472169000">
        <ele>442.80</ele>
        <time>2012-05-12T08:53:23Z</time>
      </trkpt>
      <trkpt lat="42.433980000" lon="-2.472133000">
        <ele>443.40</ele>
        <time>2012-05-12T08:53:26Z</time>
      </trkpt>
      <trkpt lat="42.433650000" lon="-2.471861000">
        <ele>445.30</ele>
        <time>2012-05-12T08:53:39Z</time>
      </trkpt>
      <trkpt lat="42.433470000" lon="-2.471679000">
        <ele>446.40</ele>
        <time>2012-05-12T08:53:46Z</time>
      </trkpt>
      <trkpt lat="42.433396000" lon="-2.471568000">
        <ele>446.90</ele>
        <time>2012-05-12T08:53:49Z</time>
      </trkpt>
      <trkpt lat="42.433378000" lon="-2.471519000">
        <ele>447.00</ele>
        <time>2012-05-12T08:53:49Z</time>
      </trkpt>
      <trkpt lat="42.433365000" lon="-2.471468000">
        <ele>447.00</ele>
        <time>2012-05-12T08:53:51Z</time>
      </trkpt>
      <trkpt lat="42.433350000" lon="-2.471306000">
        <ele>447.00</ele>
        <time>2012-05-12T08:53:54Z</time>
      </trkpt>
      <trkpt lat="42.433356000" lon="-2.470891000">
        <ele>446.30</ele>
        <time>2012-05-12T08:54:01Z</time>
      </trkpt>
      <trkpt lat="42.433350000" lon="-2.470843000">
        <ele>446.20</ele>
        <time>2012-05-12T08:54:03Z</time>
      </trkpt>
      <trkpt lat="42.433166000" lon="-2.470309000">
        <ele>446.10</ele>
        <time>2012-05-12T08:54:15Z</time>
      </trkpt>
      <trkpt lat="42.433065000" lon="-2.470176000">
        <ele>446.20</ele>
        <time>2012-05-12T08:54:19Z</time>
      </trkpt>
      <trkpt lat="42.432860000" lon="-2.470024000">
        <ele>446.70</ele>
        <time>2012-05-12T08:54:26Z</time>
      </trkpt>
      <trkpt lat="42.432636000" lon="-2.469954000">
        <ele>447.00</ele>
        <time>2012-05-12T08:54:33Z</time>
      </trkpt>
      <trkpt lat="42.432176000" lon="-2.469873000">
        <ele>448.00</ele>
        <time>2012-05-12T08:54:45Z</time>
      </trkpt>
      <trkpt lat="42.432081000" lon="-2.469824000">
        <ele>448.10</ele>
        <time>2012-05-12T08:54:48Z</time>
      </trkpt>
      <trkpt lat="42.431940000" lon="-2.469691000">
        <ele>448.20</ele>
        <time>2012-05-12T08:54:50Z</time>
      </trkpt>
      <trkpt lat="42.431896000" lon="-2.469629000">
        <ele>448.20</ele>
        <time>2012-05-12T08:54:52Z</time>
      </trkpt>
      <trkpt lat="42.431860000" lon="-2.469558000">
        <ele>448.20</ele>
        <time>2012-05-12T08:54:52Z</time>
      </trkpt>
      <trkpt lat="42.431706000" lon="-2.468836000">
        <ele>447.70</ele>
        <time>2012-05-12T08:54:59Z</time>
      </trkpt>
      <trkpt lat="42.431675000" lon="-2.468739000">
        <ele>447.60</ele>
        <time>2012-05-12T08:55:00Z</time>
      </trkpt>
      <trkpt lat="42.431628000" lon="-2.468668000">
        <ele>447.50</ele>
        <time>2012-05-12T08:55:02Z</time>
      </trkpt>
      <trkpt lat="42.431573000" lon="-2.468618000">
        <ele>447.40</ele>
        <time>2012-05-12T08:55:02Z</time>
      </trkpt>
      <trkpt lat="42.431408000" lon="-2.468528000">
        <ele>447.60</ele>
        <time>2012-05-12T08:55:06Z</time>
      </trkpt>
      <trkpt lat="42.431360000" lon="-2.468511000">
        <ele>447.60</ele>
        <time>2012-05-12T08:55:06Z</time>
      </trkpt>
      <trkpt lat="42.431115000" lon="-2.468456000">
        <ele>447.60</ele>
        <time>2012-05-12T08:55:13Z</time>
      </trkpt>
      <trkpt lat="42.431080000" lon="-2.468433000">
        <ele>447.40</ele>
        <time>2012-05-12T08:55:13Z</time>
      </trkpt>
      <trkpt lat="42.430926000" lon="-2.468244000">
        <ele>446.10</ele>
        <time>2012-05-12T08:55:18Z</time>
      </trkpt>
      <trkpt lat="42.430898000" lon="-2.468193000">
        <ele>445.80</ele>
        <time>2012-05-12T08:55:20Z</time>
      </trkpt>
      <trkpt lat="42.430881000" lon="-2.468133000">
        <ele>445.50</ele>
        <time>2012-05-12T08:55:21Z</time>
      </trkpt>
      <trkpt lat="42.430836000" lon="-2.467509000">
        <ele>442.20</ele>
        <time>2012-05-12T08:55:28Z</time>
      </trkpt>
      <trkpt lat="42.430943000" lon="-2.467043000">
        <ele>439.60</ele>
        <time>2012-05-12T08:55:35Z</time>
      </trkpt>
      <trkpt lat="42.430946000" lon="-2.466963000">
        <ele>439.20</ele>
        <time>2012-05-12T08:55:35Z</time>
      </trkpt>
      <trkpt lat="42.430931000" lon="-2.466884000">
        <ele>438.80</ele>
        <time>2012-05-12T08:55:37Z</time>
      </trkpt>
      <trkpt lat="42.430895000" lon="-2.466814000">
        <ele>438.50</ele>
        <time>2012-05-12T08:55:37Z</time>
      </trkpt>
      <trkpt lat="42.430840000" lon="-2.466756000">
        <ele>438.10</ele>
        <time>2012-05-12T08:55:39Z</time>
      </trkpt>
      <trkpt lat="42.430435000" lon="-2.466468000">
        <ele>435.80</ele>
        <time>2012-05-12T08:55:44Z</time>
      </trkpt>
      <trkpt lat="42.430036000" lon="-2.466134000">
        <ele>433.10</ele>
        <time>2012-05-12T08:55:49Z</time>
      </trkpt>
      <trkpt lat="42.429976000" lon="-2.466058000">
        <ele>432.60</ele>
        <time>2012-05-12T08:55:49Z</time>
      </trkpt>
      <trkpt lat="42.429933000" lon="-2.465963000">
        <ele>432.10</ele>
        <time>2012-05-12T08:55:51Z</time>
      </trkpt>
      <trkpt lat="42.429830000" lon="-2.465429000">
        <ele>429.60</ele>
        <time>2012-05-12T08:55:56Z</time>
      </trkpt>
      <trkpt lat="42.429800000" lon="-2.465349000">
        <ele>429.30</ele>
        <time>2012-05-12T08:55:56Z</time>
      </trkpt>
      <trkpt lat="42.429761000" lon="-2.465294000">
        <ele>429.10</ele>
        <time>2012-05-12T08:55:58Z</time>
      </trkpt>
      <trkpt lat="42.429715000" lon="-2.465271000">
        <ele>428.90</ele>
        <time>2012-05-12T08:55:58Z</time>
      </trkpt>
      <trkpt lat="42.429658000" lon="-2.465266000">
        <ele>428.90</ele>
        <time>2012-05-12T08:56:00Z</time>
      </trkpt>
      <trkpt lat="42.429378000" lon="-2.465291000">
        <ele>429.80</ele>
        <time>2012-05-12T08:56:05Z</time>
      </trkpt>
      <trkpt lat="42.429280000" lon="-2.465266000">
        <ele>430.40</ele>
        <time>2012-05-12T08:56:07Z</time>
      </trkpt>
      <trkpt lat="42.429188000" lon="-2.465218000">
        <ele>431.00</ele>
        <time>2012-05-12T08:56:08Z</time>
      </trkpt>
      <trkpt lat="42.429148000" lon="-2.465183000">
        <ele>431.10</ele>
        <time>2012-05-12T08:56:10Z</time>
      </trkpt>
      <trkpt lat="42.428963000" lon="-2.464943000">
        <ele>431.90</ele>
        <time>2012-05-12T08:56:15Z</time>
      </trkpt>
      <trkpt lat="42.428923000" lon="-2.464911000">
        <ele>432.00</ele>
        <time>2012-05-12T08:56:17Z</time>
      </trkpt>
      <trkpt lat="42.428876000" lon="-2.464889000">
        <ele>432.20</ele>
        <time>2012-05-12T08:56:17Z</time>
      </trkpt>
      <trkpt lat="42.428126000" lon="-2.464703000">
        <ele>436.40</ele>
        <time>2012-05-12T08:56:36Z</time>
      </trkpt>
      <trkpt lat="42.427923000" lon="-2.464579000">
        <ele>437.60</ele>
        <time>2012-05-12T08:56:42Z</time>
      </trkpt>
      <trkpt lat="42.427536000" lon="-2.464279000">
        <ele>438.80</ele>
        <time>2012-05-12T08:56:55Z</time>
      </trkpt>
      <trkpt lat="42.427515000" lon="-2.464273000">
        <ele>438.80</ele>
        <time>2012-05-12T08:56:57Z</time>
      </trkpt>
      <trkpt lat="42.427490000" lon="-2.464276000">
        <ele>438.90</ele>
        <time>2012-05-12T08:56:57Z</time>
      </trkpt>
      <trkpt lat="42.427468000" lon="-2.464294000">
        <ele>439.00</ele>
        <time>2012-05-12T08:56:59Z</time>
      </trkpt>
      <trkpt lat="42.427448000" lon="-2.464318000">
        <ele>439.00</ele>
        <time>2012-05-12T08:56:59Z</time>
      </trkpt>
      <trkpt lat="42.427415000" lon="-2.464376000">
        <ele>439.10</ele>
        <time>2012-05-12T08:57:01Z</time>
      </trkpt>
      <trkpt lat="42.427390000" lon="-2.464394000">
        <ele>439.10</ele>
        <time>2012-05-12T08:57:02Z</time>
      </trkpt>
      <trkpt lat="42.427361000" lon="-2.464399000">
        <ele>439.20</ele>
        <time>2012-05-12T08:57:04Z</time>
      </trkpt>
      <trkpt lat="42.427318000" lon="-2.464369000">
        <ele>439.30</ele>
        <time>2012-05-12T08:57:06Z</time>
      </trkpt>
      <trkpt lat="42.427126000" lon="-2.464213000">
        <ele>439.80</ele>
        <time>2012-05-12T08:57:13Z</time>
      </trkpt>
      <trkpt lat="42.427096000" lon="-2.464203000">
        <ele>439.80</ele>
        <time>2012-05-12T08:57:13Z</time>
      </trkpt>
      <trkpt lat="42.427023000" lon="-2.464206000">
        <ele>440.00</ele>
        <time>2012-05-12T08:57:16Z</time>
      </trkpt>
      <trkpt lat="42.426991000" lon="-2.464218000">
        <ele>440.10</ele>
        <time>2012-05-12T08:57:16Z</time>
      </trkpt>
      <trkpt lat="42.426903000" lon="-2.464283000">
        <ele>440.50</ele>
        <time>2012-05-12T08:57:20Z</time>
      </trkpt>
      <trkpt lat="42.426823000" lon="-2.464601000">
        <ele>441.10</ele>
        <time>2012-05-12T08:57:27Z</time>
      </trkpt>
      <trkpt lat="42.426808000" lon="-2.464629000">
        <ele>441.20</ele>
        <time>2012-05-12T08:57:29Z</time>
      </trkpt>
      <trkpt lat="42.426788000" lon="-2.464656000">
        <ele>441.30</ele>
        <time>2012-05-12T08:57:30Z</time>
      </trkpt>
      <trkpt lat="42.426758000" lon="-2.464674000">
        <ele>441.50</ele>
        <time>2012-05-12T08:57:30Z</time>
      </trkpt>
      <trkpt lat="42.426691000" lon="-2.464698000">
        <ele>441.80</ele>
        <time>2012-05-12T08:57:32Z</time>
      </trkpt>
      <trkpt lat="42.426621000" lon="-2.464703000">
        <ele>442.10</ele>
        <time>2012-05-12T08:57:34Z</time>
      </trkpt>
      <trkpt lat="42.426586000" lon="-2.464698000">
        <ele>442.30</ele>
        <time>2012-05-12T08:57:36Z</time>
      </trkpt>
      <trkpt lat="42.426008000" lon="-2.464749000">
        <ele>445.30</ele>
        <time>2012-05-12T08:57:51Z</time>
      </trkpt>
      <trkpt lat="42.425950000" lon="-2.464788000">
        <ele>445.70</ele>
        <time>2012-05-12T08:57:53Z</time>
      </trkpt>
      <trkpt lat="42.425071000" lon="-2.464731000">
        <ele>450.70</ele>
        <time>2012-05-12T08:58:17Z</time>
      </trkpt>
      <trkpt lat="42.425040000" lon="-2.464723000">
        <ele>450.80</ele>
        <time>2012-05-12T08:58:17Z</time>
      </trkpt>
      <trkpt lat="42.424791000" lon="-2.464611000">
        <ele>451.90</ele>
        <time>2012-05-12T08:58:26Z</time>
      </trkpt>
      <trkpt lat="42.424765000" lon="-2.464604000">
        <ele>452.00</ele>
        <time>2012-05-12T08:58:28Z</time>
      </trkpt>
      <trkpt lat="42.424710000" lon="-2.464608000">
        <ele>452.30</ele>
        <time>2012-05-12T08:58:30Z</time>
      </trkpt>
      <trkpt lat="42.424648000" lon="-2.464631000">
        <ele>452.60</ele>
        <time>2012-05-12T08:58:31Z</time>
      </trkpt>
      <trkpt lat="42.424566000" lon="-2.464693000">
        <ele>453.10</ele>
        <time>2012-05-12T08:58:35Z</time>
      </trkpt>
      <trkpt lat="42.424238000" lon="-2.465153000">
        <ele>454.70</ele>
        <time>2012-05-12T08:58:49Z</time>
      </trkpt>
      <trkpt lat="42.423568000" lon="-2.466329000">
        <ele>457.20</ele>
        <time>2012-05-12T08:59:27Z</time>
      </trkpt>
      <trkpt lat="42.423548000" lon="-2.466356000">
        <ele>457.30</ele>
        <time>2012-05-12T08:59:29Z</time>
      </trkpt>
      <trkpt lat="42.421753000" lon="-2.467796000">
        <ele>459.60</ele>
        <time>2012-05-12T09:00:26Z</time>
      </trkpt>
      <trkpt lat="42.419980000" lon="-2.468321000">
        <ele>461.30</ele>
        <time>2012-05-12T09:01:06Z</time>
      </trkpt>
      <trkpt lat="42.419935000" lon="-2.468324000">
        <ele>461.40</ele>
        <time>2012-05-12T09:01:06Z</time>
      </trkpt>
      <trkpt lat="42.417846000" lon="-2.468558000">
        <ele>464.00</ele>
        <time>2012-05-12T09:01:53Z</time>
      </trkpt>
      <trkpt lat="42.415878000" lon="-2.468274000">
        <ele>461.80</ele>
        <time>2012-05-12T09:02:33Z</time>
      </trkpt>
      <trkpt lat="42.415828000" lon="-2.468258000">
        <ele>461.80</ele>
        <time>2012-05-12T09:02:35Z</time>
      </trkpt>
      <trkpt lat="42.414595000" lon="-2.467726000">
        <ele>462.00</ele>
        <time>2012-05-12T09:02:59Z</time>
      </trkpt>
      <trkpt lat="42.414470000" lon="-2.467594000">
        <ele>461.70</ele>
        <time>2012-05-12T09:03:03Z</time>
      </trkpt>
      <trkpt lat="42.413946000" lon="-2.466704000">
        <ele>458.10</ele>
        <time>2012-05-12T09:03:15Z</time>
      </trkpt>
      <trkpt lat="42.413876000" lon="-2.466648000">
        <ele>457.80</ele>
        <time>2012-05-12T09:03:15Z</time>
      </trkpt>
      <trkpt lat="42.413801000" lon="-2.466621000">
        <ele>457.60</ele>
        <time>2012-05-12T09:03:17Z</time>
      </trkpt>
      <trkpt lat="42.413728000" lon="-2.466631000">
        <ele>457.50</ele>
        <time>2012-05-12T09:03:17Z</time>
      </trkpt>
      <trkpt lat="42.413663000" lon="-2.466668000">
        <ele>457.60</ele>
        <time>2012-05-12T09:03:19Z</time>
      </trkpt>
      <trkpt lat="42.413382000" lon="-2.466963000">
        <ele>459.00</ele>
        <time>2012-05-12T09:03:24Z</time>
      </trkpt>
      <trkpt lat="42.413228000" lon="-2.467069000">
        <ele>460.00</ele>
        <time>2012-05-12T09:03:27Z</time>
      </trkpt>
      <trkpt lat="42.412921000" lon="-2.467154000">
        <ele>461.00</ele>
        <time>2012-05-12T09:03:36Z</time>
      </trkpt>
      <trkpt lat="42.412595000" lon="-2.467106000">
        <ele>461.40</ele>
        <time>2012-05-12T09:03:43Z</time>
      </trkpt>
      <trkpt lat="42.412550000" lon="-2.467091000">
        <ele>461.40</ele>
        <time>2012-05-12T09:03:43Z</time>
      </trkpt>
      <trkpt lat="42.410123000" lon="-2.466101000">
        <ele>462.40</ele>
        <time>2012-05-12T09:04:41Z</time>
      </trkpt>
      <trkpt lat="42.409961000" lon="-2.466118000">
        <ele>462.40</ele>
        <time>2012-05-12T09:04:44Z</time>
      </trkpt>
      <trkpt lat="42.409383000" lon="-2.466299000">
        <ele>462.60</ele>
        <time>2012-05-12T09:04:58Z</time>
      </trkpt>
      <trkpt lat="42.409340000" lon="-2.466324000">
        <ele>462.60</ele>
        <time>2012-05-12T09:04:58Z</time>
      </trkpt>
      <trkpt lat="42.407968000" lon="-2.467896000">
        <ele>462.00</ele>
        <time>2012-05-12T09:05:38Z</time>
      </trkpt>
      <trkpt lat="42.407411000" lon="-2.468949000">
        <ele>464.40</ele>
        <time>2012-05-12T09:06:01Z</time>
      </trkpt>
      <trkpt lat="42.407383000" lon="-2.468989000">
        <ele>464.50</ele>
        <time>2012-05-12T09:06:02Z</time>
      </trkpt>
      <trkpt lat="42.406921000" lon="-2.469463000">
        <ele>466.40</ele>
        <time>2012-05-12T09:06:16Z</time>
      </trkpt>
      <trkpt lat="42.404583000" lon="-2.472814000">
        <ele>464.90</ele>
        <time>2012-05-12T09:07:30Z</time>
      </trkpt>
      <trkpt lat="42.404555000" lon="-2.472868000">
        <ele>464.90</ele>
        <time>2012-05-12T09:07:31Z</time>
      </trkpt>
      <trkpt lat="42.402430000" lon="-2.475914000">
        <ele>470.60</ele>
        <time>2012-05-12T09:08:41Z</time>
      </trkpt>
      <trkpt lat="42.402035000" lon="-2.476973000">
        <ele>470.00</ele>
        <time>2012-05-12T09:09:02Z</time>
      </trkpt>
      <trkpt lat="42.401976000" lon="-2.477376000">
        <ele>470.80</ele>
        <time>2012-05-12T09:09:09Z</time>
      </trkpt>
      <trkpt lat="42.401941000" lon="-2.477466000">
        <ele>471.10</ele>
        <time>2012-05-12T09:09:12Z</time>
      </trkpt>
      <trkpt lat="42.401871000" lon="-2.477603000">
        <ele>471.50</ele>
        <time>2012-05-12T09:09:14Z</time>
      </trkpt>
      <trkpt lat="42.401120000" lon="-2.479653000">
        <ele>474.50</ele>
        <time>2012-05-12T09:09:54Z</time>
      </trkpt>
      <trkpt lat="42.401096000" lon="-2.479698000">
        <ele>474.50</ele>
        <time>2012-05-12T09:09:56Z</time>
      </trkpt>
      <trkpt lat="42.399671000" lon="-2.482999000">
        <ele>472.90</ele>
        <time>2012-05-12T09:11:00Z</time>
      </trkpt>
      <trkpt lat="42.399648000" lon="-2.483044000">
        <ele>472.90</ele>
        <time>2012-05-12T09:11:00Z</time>
      </trkpt>
      <trkpt lat="42.398715000" lon="-2.484534000">
        <ele>477.70</ele>
        <time>2012-05-12T09:11:37Z</time>
      </trkpt>
      <trkpt lat="42.398683000" lon="-2.484558000">
        <ele>478.00</ele>
        <time>2012-05-12T09:11:39Z</time>
      </trkpt>
      <trkpt lat="42.398121000" lon="-2.485223000">
        <ele>486.70</ele>
        <time>2012-05-12T09:12:06Z</time>
      </trkpt>
      <trkpt lat="42.398108000" lon="-2.485244000">
        <ele>486.90</ele>
        <time>2012-05-12T09:12:08Z</time>
      </trkpt>
      <trkpt lat="42.397855000" lon="-2.485594000">
        <ele>492.40</ele>
        <time>2012-05-12T09:12:26Z</time>
      </trkpt>
      <trkpt lat="42.397683000" lon="-2.485821000">
        <ele>497.00</ele>
        <time>2012-05-12T09:12:40Z</time>
      </trkpt>
      <trkpt lat="42.397616000" lon="-2.485943000">
        <ele>498.70</ele>
        <time>2012-05-12T09:12:45Z</time>
      </trkpt>
      <trkpt lat="42.397525000" lon="-2.486044000">
        <ele>500.90</ele>
        <time>2012-05-12T09:12:52Z</time>
      </trkpt>
      <trkpt lat="42.397473000" lon="-2.486119000">
        <ele>502.30</ele>
        <time>2012-05-12T09:12:57Z</time>
      </trkpt>
      <trkpt lat="42.397433000" lon="-2.486198000">
        <ele>503.30</ele>
        <time>2012-05-12T09:13:02Z</time>
      </trkpt>
      <trkpt lat="42.396931000" lon="-2.486876000">
        <ele>512.60</ele>
        <time>2012-05-12T09:13:46Z</time>
      </trkpt>
      <trkpt lat="42.396916000" lon="-2.486888000">
        <ele>512.60</ele>
        <time>2012-05-12T09:13:47Z</time>
      </trkpt>
      <trkpt lat="42.396646000" lon="-2.487089000">
        <ele>510.50</ele>
        <time>2012-05-12T09:14:05Z</time>
      </trkpt>
      <trkpt lat="42.396606000" lon="-2.487131000">
        <ele>510.40</ele>
        <time>2012-05-12T09:14:07Z</time>
      </trkpt>
      <trkpt lat="42.396588000" lon="-2.487159000">
        <ele>510.40</ele>
        <time>2012-05-12T09:14:10Z</time>
      </trkpt>
      <trkpt lat="42.396578000" lon="-2.487171000">
        <ele>510.40</ele>
        <time>2012-05-12T09:14:10Z</time>
      </trkpt>
      <trkpt lat="42.396561000" lon="-2.487203000">
        <ele>510.50</ele>
        <time>2012-05-12T09:14:12Z</time>
      </trkpt>
      <trkpt lat="42.396546000" lon="-2.487244000">
        <ele>510.70</ele>
        <time>2012-05-12T09:14:14Z</time>
      </trkpt>
      <trkpt lat="42.396533000" lon="-2.487303000">
        <ele>511.10</ele>
        <time>2012-05-12T09:14:17Z</time>
      </trkpt>
      <trkpt lat="42.396531000" lon="-2.487319000">
        <ele>511.30</ele>
        <time>2012-05-12T09:14:19Z</time>
      </trkpt>
      <trkpt lat="42.396488000" lon="-2.487404000">
        <ele>511.70</ele>
        <time>2012-05-12T09:14:24Z</time>
      </trkpt>
      <trkpt lat="42.396476000" lon="-2.487419000">
        <ele>511.70</ele>
        <time>2012-05-12T09:14:24Z</time>
      </trkpt>
      <trkpt lat="42.396371000" lon="-2.487524000">
        <ele>511.40</ele>
        <time>2012-05-12T09:14:33Z</time>
      </trkpt>
      <trkpt lat="42.396361000" lon="-2.487539000">
        <ele>511.40</ele>
        <time>2012-05-12T09:14:35Z</time>
      </trkpt>
      <trkpt lat="42.396350000" lon="-2.487551000">
        <ele>511.40</ele>
        <time>2012-05-12T09:14:36Z</time>
      </trkpt>
      <trkpt lat="42.396305000" lon="-2.487606000">
        <ele>511.20</ele>
        <time>2012-05-12T09:14:40Z</time>
      </trkpt>
      <trkpt lat="42.396273000" lon="-2.487683000">
        <ele>511.30</ele>
        <time>2012-05-12T09:14:43Z</time>
      </trkpt>
      <trkpt lat="42.396270000" lon="-2.487703000">
        <ele>511.40</ele>
        <time>2012-05-12T09:14:45Z</time>
      </trkpt>
      <trkpt lat="42.396260000" lon="-2.487743000">
        <ele>511.50</ele>
        <time>2012-05-12T09:14:47Z</time>
      </trkpt>
      <trkpt lat="42.396251000" lon="-2.487808000">
        <ele>511.90</ele>
        <time>2012-05-12T09:14:50Z</time>
      </trkpt>
      <trkpt lat="42.396251000" lon="-2.487831000">
        <ele>512.00</ele>
        <time>2012-05-12T09:14:50Z</time>
      </trkpt>
      <trkpt lat="42.396230000" lon="-2.488178000">
        <ele>514.80</ele>
        <time>2012-05-12T09:15:04Z</time>
      </trkpt>
      <trkpt lat="42.396180000" lon="-2.488344000">
        <ele>516.20</ele>
        <time>2012-05-12T09:15:11Z</time>
      </trkpt>
      <trkpt lat="42.396133000" lon="-2.488459000">
        <ele>517.20</ele>
        <time>2012-05-12T09:15:16Z</time>
      </trkpt>
      <trkpt lat="42.396115000" lon="-2.488534000">
        <ele>517.90</ele>
        <time>2012-05-12T09:15:20Z</time>
      </trkpt>
      <trkpt lat="42.396096000" lon="-2.488688000">
        <ele>519.40</ele>
        <time>2012-05-12T09:15:25Z</time>
      </trkpt>
      <trkpt lat="42.396096000" lon="-2.488766000">
        <ele>520.10</ele>
        <time>2012-05-12T09:15:29Z</time>
      </trkpt>
      <trkpt lat="42.396116000" lon="-2.488871000">
        <ele>520.70</ele>
        <time>2012-05-12T09:15:32Z</time>
      </trkpt>
      <trkpt lat="42.396125000" lon="-2.488894000">
        <ele>520.80</ele>
        <time>2012-05-12T09:15:34Z</time>
      </trkpt>
      <trkpt lat="42.396151000" lon="-2.488998000">
        <ele>521.20</ele>
        <time>2012-05-12T09:15:37Z</time>
      </trkpt>
      <trkpt lat="42.396176000" lon="-2.489041000">
        <ele>521.40</ele>
        <time>2012-05-12T09:15:39Z</time>
      </trkpt>
      <trkpt lat="42.396186000" lon="-2.489064000">
        <ele>521.50</ele>
        <time>2012-05-12T09:15:41Z</time>
      </trkpt>
      <trkpt lat="42.396195000" lon="-2.489119000">
        <ele>521.70</ele>
        <time>2012-05-12T09:15:42Z</time>
      </trkpt>
      <trkpt lat="42.396191000" lon="-2.489289000">
        <ele>522.50</ele>
        <time>2012-05-12T09:15:48Z</time>
      </trkpt>
      <trkpt lat="42.396161000" lon="-2.489479000">
        <ele>523.40</ele>
        <time>2012-05-12T09:15:55Z</time>
      </trkpt>
      <trkpt lat="42.396151000" lon="-2.489511000">
        <ele>523.50</ele>
        <time>2012-05-12T09:15:55Z</time>
      </trkpt>
      <trkpt lat="42.396096000" lon="-2.489624000">
        <ele>524.10</ele>
        <time>2012-05-12T09:16:00Z</time>
      </trkpt>
      <trkpt lat="42.396053000" lon="-2.489668000">
        <ele>524.20</ele>
        <time>2012-05-12T09:16:02Z</time>
      </trkpt>
      <trkpt lat="42.395903000" lon="-2.489738000">
        <ele>524.40</ele>
        <time>2012-05-12T09:16:07Z</time>
      </trkpt>
      <trkpt lat="42.395816000" lon="-2.489804000">
        <ele>524.60</ele>
        <time>2012-05-12T09:16:12Z</time>
      </trkpt>
      <trkpt lat="42.395765000" lon="-2.489871000">
        <ele>524.60</ele>
        <time>2012-05-12T09:16:14Z</time>
      </trkpt>
      <trkpt lat="42.395718000" lon="-2.489949000">
        <ele>524.70</ele>
        <time>2012-05-12T09:16:17Z</time>
      </trkpt>
      <trkpt lat="42.395581000" lon="-2.490101000">
        <ele>524.90</ele>
        <time>2012-05-12T09:16:26Z</time>
      </trkpt>
      <trkpt lat="42.395571000" lon="-2.490119000">
        <ele>524.90</ele>
        <time>2012-05-12T09:16:28Z</time>
      </trkpt>
      <trkpt lat="42.395556000" lon="-2.490156000">
        <ele>524.90</ele>
        <time>2012-05-12T09:16:29Z</time>
      </trkpt>
      <trkpt lat="42.395548000" lon="-2.490171000">
        <ele>524.90</ele>
        <time>2012-05-12T09:16:31Z</time>
      </trkpt>
      <trkpt lat="42.395541000" lon="-2.490179000">
        <ele>524.90</ele>
        <time>2012-05-12T09:16:31Z</time>
      </trkpt>
      <trkpt lat="42.395530000" lon="-2.490206000">
        <ele>524.90</ele>
        <time>2012-05-12T09:16:38Z</time>
      </trkpt>
      <trkpt lat="42.395533000" lon="-2.490203000">
        <ele>524.90</ele>
        <time>2012-05-12T09:16:42Z</time>
      </trkpt>
      <trkpt lat="42.395533000" lon="-2.490201000">
        <ele>524.90</ele>
        <time>2012-05-12T09:16:42Z</time>
      </trkpt>
      <trkpt lat="42.395535000" lon="-2.490201000">
        <ele>524.90</ele>
        <time>2012-05-12T09:16:45Z</time>
      </trkpt>
      <trkpt lat="42.395535000" lon="-2.490199000">
        <ele>524.90</ele>
        <time>2012-05-12T09:16:45Z</time>
      </trkpt>
      <trkpt lat="42.395526000" lon="-2.490211000">
        <ele>524.90</ele>
        <time>2012-05-12T09:16:59Z</time>
      </trkpt>
      <trkpt lat="42.395526000" lon="-2.490213000">
        <ele>524.90</ele>
        <time>2012-05-12T09:16:59Z</time>
      </trkpt>
      <trkpt lat="42.395523000" lon="-2.490214000">
        <ele>524.90</ele>
        <time>2012-05-12T09:17:01Z</time>
      </trkpt>
      <trkpt lat="42.395520000" lon="-2.490221000">
        <ele>524.90</ele>
        <time>2012-05-12T09:17:06Z</time>
      </trkpt>
      <trkpt lat="42.395516000" lon="-2.490224000">
        <ele>524.90</ele>
        <time>2012-05-12T09:17:10Z</time>
      </trkpt>
      <trkpt lat="42.395515000" lon="-2.490228000">
        <ele>524.90</ele>
        <time>2012-05-12T09:17:11Z</time>
      </trkpt>
      <trkpt lat="42.395518000" lon="-2.490219000">
        <ele>524.90</ele>
        <time>2012-05-12T09:17:22Z</time>
      </trkpt>
      <trkpt lat="42.395520000" lon="-2.490219000">
        <ele>524.90</ele>
        <time>2012-05-12T09:17:22Z</time>
      </trkpt>
      <trkpt lat="42.395521000" lon="-2.490214000">
        <ele>524.90</ele>
        <time>2012-05-12T09:17:25Z</time>
      </trkpt>
      <trkpt lat="42.395523000" lon="-2.490213000">
        <ele>524.90</ele>
        <time>2012-05-12T09:17:27Z</time>
      </trkpt>
      <trkpt lat="42.395523000" lon="-2.490209000">
        <ele>524.90</ele>
        <time>2012-05-12T09:17:30Z</time>
      </trkpt>
      <trkpt lat="42.395525000" lon="-2.490209000">
        <ele>524.90</ele>
        <time>2012-05-12T09:17:32Z</time>
      </trkpt>
      <trkpt lat="42.395531000" lon="-2.490198000">
        <ele>524.90</ele>
        <time>2012-05-12T09:17:41Z</time>
      </trkpt>
      <trkpt lat="42.395530000" lon="-2.490203000">
        <ele>524.90</ele>
        <time>2012-05-12T09:17:43Z</time>
      </trkpt>
      <trkpt lat="42.395508000" lon="-2.490228000">
        <ele>524.90</ele>
        <time>2012-05-12T09:17:46Z</time>
      </trkpt>
      <trkpt lat="42.395495000" lon="-2.490263000">
        <ele>524.90</ele>
        <time>2012-05-12T09:17:58Z</time>
      </trkpt>
      <trkpt lat="42.395495000" lon="-2.490261000">
        <ele>524.90</ele>
        <time>2012-05-12T09:18:02Z</time>
      </trkpt>
      <trkpt lat="42.395495000" lon="-2.490263000">
        <ele>524.90</ele>
        <time>2012-05-12T09:18:05Z</time>
      </trkpt>
      <trkpt lat="42.395493000" lon="-2.490264000">
        <ele>524.90</ele>
        <time>2012-05-12T09:18:07Z</time>
      </trkpt>
      <trkpt lat="42.395493000" lon="-2.490268000">
        <ele>524.90</ele>
        <time>2012-05-12T09:18:09Z</time>
      </trkpt>
      <trkpt lat="42.395491000" lon="-2.490268000">
        <ele>524.90</ele>
        <time>2012-05-12T09:18:09Z</time>
      </trkpt>
      <trkpt lat="42.395490000" lon="-2.490273000">
        <ele>524.90</ele>
        <time>2012-05-12T09:18:14Z</time>
      </trkpt>
      <trkpt lat="42.395488000" lon="-2.490273000">
        <ele>524.90</ele>
        <time>2012-05-12T09:18:14Z</time>
      </trkpt>
      <trkpt lat="42.395488000" lon="-2.490276000">
        <ele>524.90</ele>
        <time>2012-05-12T09:18:18Z</time>
      </trkpt>
      <trkpt lat="42.395486000" lon="-2.490276000">
        <ele>524.90</ele>
        <time>2012-05-12T09:18:19Z</time>
      </trkpt>
      <trkpt lat="42.395485000" lon="-2.490284000">
        <ele>524.90</ele>
        <time>2012-05-12T09:18:33Z</time>
      </trkpt>
      <trkpt lat="42.395486000" lon="-2.490281000">
        <ele>524.90</ele>
        <time>2012-05-12T09:18:47Z</time>
      </trkpt>
      <trkpt lat="42.395488000" lon="-2.490281000">
        <ele>524.90</ele>
        <time>2012-05-12T09:18:49Z</time>
      </trkpt>
      <trkpt lat="42.395488000" lon="-2.490279000">
        <ele>524.90</ele>
        <time>2012-05-12T09:18:49Z</time>
      </trkpt>
      <trkpt lat="42.395490000" lon="-2.490278000">
        <ele>524.90</ele>
        <time>2012-05-12T09:18:52Z</time>
      </trkpt>
      <trkpt lat="42.395491000" lon="-2.490274000">
        <ele>524.90</ele>
        <time>2012-05-12T09:18:56Z</time>
      </trkpt>
      <trkpt lat="42.395491000" lon="-2.490276000">
        <ele>524.90</ele>
        <time>2012-05-12T09:18:58Z</time>
      </trkpt>
      <trkpt lat="42.395493000" lon="-2.490274000">
        <ele>524.90</ele>
        <time>2012-05-12T09:18:59Z</time>
      </trkpt>
      <trkpt lat="42.395493000" lon="-2.490276000">
        <ele>524.90</ele>
        <time>2012-05-12T09:19:01Z</time>
      </trkpt>
      <trkpt lat="42.395491000" lon="-2.490276000">
        <ele>524.90</ele>
        <time>2012-05-12T09:19:01Z</time>
      </trkpt>
      <trkpt lat="42.395493000" lon="-2.490276000">
        <ele>524.90</ele>
        <time>2012-05-12T09:19:08Z</time>
      </trkpt>
      <trkpt lat="42.395493000" lon="-2.490278000">
        <ele>524.90</ele>
        <time>2012-05-12T09:19:13Z</time>
      </trkpt>
      <trkpt lat="42.395493000" lon="-2.490276000">
        <ele>524.90</ele>
        <time>2012-05-12T09:19:13Z</time>
      </trkpt>
      <trkpt lat="42.395493000" lon="-2.490278000">
        <ele>524.90</ele>
        <time>2012-05-12T09:19:15Z</time>
      </trkpt>
      <trkpt lat="42.395493000" lon="-2.490276000">
        <ele>524.90</ele>
        <time>2012-05-12T09:19:17Z</time>
      </trkpt>
      <trkpt lat="42.395495000" lon="-2.490276000">
        <ele>524.90</ele>
        <time>2012-05-12T09:19:20Z</time>
      </trkpt>
      <trkpt lat="42.395495000" lon="-2.490274000">
        <ele>524.90</ele>
        <time>2012-05-12T09:19:22Z</time>
      </trkpt>
      <trkpt lat="42.395493000" lon="-2.490276000">
        <ele>524.90</ele>
        <time>2012-05-12T09:19:24Z</time>
      </trkpt>
      <trkpt lat="42.395490000" lon="-2.490276000">
        <ele>524.90</ele>
        <time>2012-05-12T09:19:27Z</time>
      </trkpt>
      <trkpt lat="42.395488000" lon="-2.490281000">
        <ele>524.90</ele>
        <time>2012-05-12T09:19:31Z</time>
      </trkpt>
      <trkpt lat="42.395486000" lon="-2.490281000">
        <ele>524.90</ele>
        <time>2012-05-12T09:19:32Z</time>
      </trkpt>
      <trkpt lat="42.395485000" lon="-2.490286000">
        <ele>524.90</ele>
        <time>2012-05-12T09:19:43Z</time>
      </trkpt>
      <trkpt lat="42.395483000" lon="-2.490286000">
        <ele>524.90</ele>
        <time>2012-05-12T09:19:46Z</time>
      </trkpt>
      <trkpt lat="42.395485000" lon="-2.490284000">
        <ele>524.90</ele>
        <time>2012-05-12T09:19:48Z</time>
      </trkpt>
      <trkpt lat="42.395483000" lon="-2.490284000">
        <ele>524.90</ele>
        <time>2012-05-12T09:19:50Z</time>
      </trkpt>
      <trkpt lat="42.395485000" lon="-2.490288000">
        <ele>524.90</ele>
        <time>2012-05-12T09:19:55Z</time>
      </trkpt>
      <trkpt lat="42.395483000" lon="-2.490288000">
        <ele>524.90</ele>
        <time>2012-05-12T09:19:57Z</time>
      </trkpt>
      <trkpt lat="42.395483000" lon="-2.490286000">
        <ele>524.90</ele>
        <time>2012-05-12T09:20:00Z</time>
      </trkpt>
      <trkpt lat="42.395485000" lon="-2.490286000">
        <ele>524.90</ele>
        <time>2012-05-12T09:20:02Z</time>
      </trkpt>
      <trkpt lat="42.395486000" lon="-2.490281000">
        <ele>524.90</ele>
        <time>2012-05-12T09:20:09Z</time>
      </trkpt>
      <trkpt lat="42.395486000" lon="-2.490283000">
        <ele>524.90</ele>
        <time>2012-05-12T09:20:09Z</time>
      </trkpt>
      <trkpt lat="42.395483000" lon="-2.490286000">
        <ele>524.90</ele>
        <time>2012-05-12T09:20:21Z</time>
      </trkpt>
      <trkpt lat="42.395483000" lon="-2.490284000">
        <ele>524.90</ele>
        <time>2012-05-12T09:20:23Z</time>
      </trkpt>
      <trkpt lat="42.395485000" lon="-2.490283000">
        <ele>524.90</ele>
        <time>2012-05-12T09:20:23Z</time>
      </trkpt>
      <trkpt lat="42.395480000" lon="-2.490293000">
        <ele>524.90</ele>
        <time>2012-05-12T09:20:30Z</time>
      </trkpt>
      <trkpt lat="42.395478000" lon="-2.490294000">
        <ele>524.90</ele>
        <time>2012-05-12T09:20:32Z</time>
      </trkpt>
      <trkpt lat="42.395478000" lon="-2.490296000">
        <ele>524.90</ele>
        <time>2012-05-12T09:20:33Z</time>
      </trkpt>
      <trkpt lat="42.395476000" lon="-2.490296000">
        <ele>524.90</ele>
        <time>2012-05-12T09:20:33Z</time>
      </trkpt>
      <trkpt lat="42.395473000" lon="-2.490321000">
        <ele>524.90</ele>
        <time>2012-05-12T09:20:44Z</time>
      </trkpt>
      <trkpt lat="42.395463000" lon="-2.490344000">
        <ele>524.90</ele>
        <time>2012-05-12T09:20:47Z</time>
      </trkpt>
      <trkpt lat="42.395460000" lon="-2.490358000">
        <ele>524.90</ele>
        <time>2012-05-12T09:20:47Z</time>
      </trkpt>
      <trkpt lat="42.395453000" lon="-2.490413000">
        <ele>524.90</ele>
        <time>2012-05-12T09:20:51Z</time>
      </trkpt>
      <trkpt lat="42.394776000" lon="-2.492568000">
        <ele>525.30</ele>
        <time>2012-05-12T09:21:43Z</time>
      </trkpt>
      <trkpt lat="42.394758000" lon="-2.492608000">
        <ele>525.30</ele>
        <time>2012-05-12T09:21:45Z</time>
      </trkpt>
      <trkpt lat="42.393960000" lon="-2.493768000">
        <ele>526.10</ele>
        <time>2012-05-12T09:22:18Z</time>
      </trkpt>
      <trkpt lat="42.393258000" lon="-2.494928000">
        <ele>527.50</ele>
        <time>2012-05-12T09:22:51Z</time>
      </trkpt>
      <trkpt lat="42.393241000" lon="-2.494966000">
        <ele>527.50</ele>
        <time>2012-05-12T09:22:53Z</time>
      </trkpt>
      <trkpt lat="42.391965000" lon="-2.497581000">
        <ele>529.00</ele>
        <time>2012-05-12T09:23:57Z</time>
      </trkpt>
      <trkpt lat="42.391941000" lon="-2.497619000">
        <ele>529.00</ele>
        <time>2012-05-12T09:23:59Z</time>
      </trkpt>
      <trkpt lat="42.391818000" lon="-2.497779000">
        <ele>529.00</ele>
        <time>2012-05-12T09:24:04Z</time>
      </trkpt>
      <trkpt lat="42.391791000" lon="-2.497799000">
        <ele>529.00</ele>
        <time>2012-05-12T09:24:04Z</time>
      </trkpt>
      <trkpt lat="42.391763000" lon="-2.497809000">
        <ele>529.00</ele>
        <time>2012-05-12T09:24:06Z</time>
      </trkpt>
      <trkpt lat="42.391713000" lon="-2.497813000">
        <ele>529.00</ele>
        <time>2012-05-12T09:24:08Z</time>
      </trkpt>
      <trkpt lat="42.391693000" lon="-2.497829000">
        <ele>529.00</ele>
        <time>2012-05-12T09:24:09Z</time>
      </trkpt>
      <trkpt lat="42.391638000" lon="-2.497946000">
        <ele>529.00</ele>
        <time>2012-05-12T09:24:11Z</time>
      </trkpt>
      <trkpt lat="42.390506000" lon="-2.499289000">
        <ele>529.90</ele>
        <time>2012-05-12T09:24:51Z</time>
      </trkpt>
      <trkpt lat="42.389775000" lon="-2.500306000">
        <ele>530.80</ele>
        <time>2012-05-12T09:25:16Z</time>
      </trkpt>
      <trkpt lat="42.389746000" lon="-2.500336000">
        <ele>530.80</ele>
        <time>2012-05-12T09:25:17Z</time>
      </trkpt>
      <trkpt lat="42.388948000" lon="-2.501798000">
        <ele>532.70</ele>
        <time>2012-05-12T09:25:54Z</time>
      </trkpt>
      <trkpt lat="42.388333000" lon="-2.502656000">
        <ele>533.50</ele>
        <time>2012-05-12T09:26:18Z</time>
      </trkpt>
      <trkpt lat="42.388306000" lon="-2.502684000">
        <ele>533.60</ele>
        <time>2012-05-12T09:26:20Z</time>
      </trkpt>
      <trkpt lat="42.387828000" lon="-2.503111000">
        <ele>534.60</ele>
        <time>2012-05-12T09:26:36Z</time>
      </trkpt>
      <trkpt lat="42.387775000" lon="-2.503174000">
        <ele>534.50</ele>
        <time>2012-05-12T09:26:37Z</time>
      </trkpt>
      <trkpt lat="42.386848000" lon="-2.504829000">
        <ele>534.90</ele>
        <time>2012-05-12T09:27:16Z</time>
      </trkpt>
      <trkpt lat="42.386101000" lon="-2.505704000">
        <ele>535.70</ele>
        <time>2012-05-12T09:27:42Z</time>
      </trkpt>
      <trkpt lat="42.386076000" lon="-2.505743000">
        <ele>535.70</ele>
        <time>2012-05-12T09:27:44Z</time>
      </trkpt>
      <trkpt lat="42.385330000" lon="-2.506696000">
        <ele>539.60</ele>
        <time>2012-05-12T09:28:13Z</time>
      </trkpt>
      <trkpt lat="42.383348000" lon="-2.508048000">
        <ele>546.80</ele>
        <time>2012-05-12T09:29:23Z</time>
      </trkpt>
      <trkpt lat="42.383318000" lon="-2.508061000">
        <ele>546.80</ele>
        <time>2012-05-12T09:29:25Z</time>
      </trkpt>
      <trkpt lat="42.382368000" lon="-2.508639000">
        <ele>551.20</ele>
        <time>2012-05-12T09:29:58Z</time>
      </trkpt>
      <trkpt lat="42.382268000" lon="-2.508698000">
        <ele>551.50</ele>
        <time>2012-05-12T09:30:03Z</time>
      </trkpt>
      <trkpt lat="42.381621000" lon="-2.509256000">
        <ele>555.70</ele>
        <time>2012-05-12T09:30:29Z</time>
      </trkpt>
      <trkpt lat="42.381595000" lon="-2.509273000">
        <ele>555.80</ele>
        <time>2012-05-12T09:30:29Z</time>
      </trkpt>
      <trkpt lat="42.379848000" lon="-2.510399000">
        <ele>563.50</ele>
        <time>2012-05-12T09:31:42Z</time>
      </trkpt>
      <trkpt lat="42.379823000" lon="-2.510408000">
        <ele>563.50</ele>
        <time>2012-05-12T09:31:42Z</time>
      </trkpt>
      <trkpt lat="42.379010000" lon="-2.510851000">
        <ele>569.60</ele>
        <time>2012-05-12T09:32:15Z</time>
      </trkpt>
      <trkpt lat="42.378661000" lon="-2.510976000">
        <ele>571.80</ele>
        <time>2012-05-12T09:32:29Z</time>
      </trkpt>
      <trkpt lat="42.378018000" lon="-2.511186000">
        <ele>575.20</ele>
        <time>2012-05-12T09:32:52Z</time>
      </trkpt>
      <trkpt lat="42.377993000" lon="-2.511189000">
        <ele>575.30</ele>
        <time>2012-05-12T09:32:54Z</time>
      </trkpt>
      <trkpt lat="42.376616000" lon="-2.511766000">
        <ele>582.00</ele>
        <time>2012-05-12T09:33:48Z</time>
      </trkpt>
      <trkpt lat="42.376371000" lon="-2.511949000">
        <ele>583.50</ele>
        <time>2012-05-12T09:33:58Z</time>
      </trkpt>
      <trkpt lat="42.376348000" lon="-2.511973000">
        <ele>583.50</ele>
        <time>2012-05-12T09:33:58Z</time>
      </trkpt>
      <trkpt lat="42.375926000" lon="-2.512273000">
        <ele>585.60</ele>
        <time>2012-05-12T09:34:16Z</time>
      </trkpt>
      <trkpt lat="42.374800000" lon="-2.512499000">
        <ele>591.20</ele>
        <time>2012-05-12T09:34:57Z</time>
      </trkpt>
      <trkpt lat="42.374200000" lon="-2.512819000">
        <ele>594.00</ele>
        <time>2012-05-12T09:35:20Z</time>
      </trkpt>
      <trkpt lat="42.374173000" lon="-2.512826000">
        <ele>594.10</ele>
        <time>2012-05-12T09:35:20Z</time>
      </trkpt>
      <trkpt lat="42.373073000" lon="-2.513154000">
        <ele>599.60</ele>
        <time>2012-05-12T09:36:02Z</time>
      </trkpt>
      <trkpt lat="42.372995000" lon="-2.513201000">
        <ele>600.00</ele>
        <time>2012-05-12T09:36:05Z</time>
      </trkpt>
      <trkpt lat="42.372910000" lon="-2.513226000">
        <ele>600.50</ele>
        <time>2012-05-12T09:36:07Z</time>
      </trkpt>
      <trkpt lat="42.372745000" lon="-2.513221000">
        <ele>600.80</ele>
        <time>2012-05-12T09:36:14Z</time>
      </trkpt>
      <trkpt lat="42.372718000" lon="-2.513226000">
        <ele>600.90</ele>
        <time>2012-05-12T09:36:14Z</time>
      </trkpt>
      <trkpt lat="42.372690000" lon="-2.513238000">
        <ele>600.90</ele>
        <time>2012-05-12T09:36:16Z</time>
      </trkpt>
      <trkpt lat="42.372665000" lon="-2.513256000">
        <ele>601.00</ele>
        <time>2012-05-12T09:36:16Z</time>
      </trkpt>
      <trkpt lat="42.372641000" lon="-2.513281000">
        <ele>601.10</ele>
        <time>2012-05-12T09:36:17Z</time>
      </trkpt>
      <trkpt lat="42.372593000" lon="-2.513381000">
        <ele>601.30</ele>
        <time>2012-05-12T09:36:21Z</time>
      </trkpt>
      <trkpt lat="42.372581000" lon="-2.513418000">
        <ele>601.40</ele>
        <time>2012-05-12T09:36:21Z</time>
      </trkpt>
      <trkpt lat="42.372518000" lon="-2.513579000">
        <ele>601.90</ele>
        <time>2012-05-12T09:36:26Z</time>
      </trkpt>
      <trkpt lat="42.372496000" lon="-2.513601000">
        <ele>602.00</ele>
        <time>2012-05-12T09:36:28Z</time>
      </trkpt>
      <trkpt lat="42.371883000" lon="-2.514021000">
        <ele>604.50</ele>
        <time>2012-05-12T09:36:52Z</time>
      </trkpt>
      <trkpt lat="42.371661000" lon="-2.514206000">
        <ele>605.90</ele>
        <time>2012-05-12T09:37:01Z</time>
      </trkpt>
      <trkpt lat="42.371611000" lon="-2.514224000">
        <ele>606.10</ele>
        <time>2012-05-12T09:37:03Z</time>
      </trkpt>
      <trkpt lat="42.370520000" lon="-2.514896000">
        <ele>610.60</ele>
        <time>2012-05-12T09:37:43Z</time>
      </trkpt>
      <trkpt lat="42.370490000" lon="-2.514908000">
        <ele>610.70</ele>
        <time>2012-05-12T09:37:45Z</time>
      </trkpt>
      <trkpt lat="42.369318000" lon="-2.515061000">
        <ele>614.00</ele>
        <time>2012-05-12T09:38:25Z</time>
      </trkpt>
      <trkpt lat="42.369078000" lon="-2.515139000">
        <ele>615.10</ele>
        <time>2012-05-12T09:38:33Z</time>
      </trkpt>
      <trkpt lat="42.369003000" lon="-2.515188000">
        <ele>615.50</ele>
        <time>2012-05-12T09:38:37Z</time>
      </trkpt>
      <trkpt lat="42.368905000" lon="-2.515286000">
        <ele>616.10</ele>
        <time>2012-05-12T09:38:42Z</time>
      </trkpt>
      <trkpt lat="42.368856000" lon="-2.515356000">
        <ele>616.40</ele>
        <time>2012-05-12T09:38:44Z</time>
      </trkpt>
      <trkpt lat="42.368831000" lon="-2.515373000">
        <ele>616.40</ele>
        <time>2012-05-12T09:38:46Z</time>
      </trkpt>
      <trkpt lat="42.368728000" lon="-2.515411000">
        <ele>616.80</ele>
        <time>2012-05-12T09:38:49Z</time>
      </trkpt>
      <trkpt lat="42.368608000" lon="-2.515428000">
        <ele>617.20</ele>
        <time>2012-05-12T09:38:51Z</time>
      </trkpt>
      <trkpt lat="42.367620000" lon="-2.515241000">
        <ele>618.50</ele>
        <time>2012-05-12T09:39:27Z</time>
      </trkpt>
      <trkpt lat="42.367456000" lon="-2.515248000">
        <ele>618.40</ele>
        <time>2012-05-12T09:39:40Z</time>
      </trkpt>
      <trkpt lat="42.367350000" lon="-2.515284000">
        <ele>618.50</ele>
        <time>2012-05-12T09:39:48Z</time>
      </trkpt>
      <trkpt lat="42.367340000" lon="-2.515284000">
        <ele>618.50</ele>
        <time>2012-05-12T09:39:50Z</time>
      </trkpt>
      <trkpt lat="42.367271000" lon="-2.515293000">
        <ele>618.50</ele>
        <time>2012-05-12T09:39:55Z</time>
      </trkpt>
      <trkpt lat="42.367240000" lon="-2.515304000">
        <ele>618.60</ele>
        <time>2012-05-12T09:39:59Z</time>
      </trkpt>
      <trkpt lat="42.367180000" lon="-2.515331000">
        <ele>618.60</ele>
        <time>2012-05-12T09:40:04Z</time>
      </trkpt>
      <trkpt lat="42.367170000" lon="-2.515338000">
        <ele>618.70</ele>
        <time>2012-05-12T09:40:06Z</time>
      </trkpt>
      <trkpt lat="42.367125000" lon="-2.515361000">
        <ele>618.70</ele>
        <time>2012-05-12T09:40:09Z</time>
      </trkpt>
      <trkpt lat="42.367108000" lon="-2.515376000">
        <ele>618.80</ele>
        <time>2012-05-12T09:40:11Z</time>
      </trkpt>
      <trkpt lat="42.367063000" lon="-2.515404000">
        <ele>618.90</ele>
        <time>2012-05-12T09:40:16Z</time>
      </trkpt>
      <trkpt lat="42.367043000" lon="-2.515413000">
        <ele>619.00</ele>
        <time>2012-05-12T09:40:18Z</time>
      </trkpt>
      <trkpt lat="42.367035000" lon="-2.515419000">
        <ele>619.00</ele>
        <time>2012-05-12T09:40:20Z</time>
      </trkpt>
      <trkpt lat="42.367015000" lon="-2.515429000">
        <ele>619.10</ele>
        <time>2012-05-12T09:40:21Z</time>
      </trkpt>
      <trkpt lat="42.367006000" lon="-2.515436000">
        <ele>619.20</ele>
        <time>2012-05-12T09:40:23Z</time>
      </trkpt>
      <trkpt lat="42.366996000" lon="-2.515441000">
        <ele>619.20</ele>
        <time>2012-05-12T09:40:23Z</time>
      </trkpt>
      <trkpt lat="42.366980000" lon="-2.515456000">
        <ele>619.30</ele>
        <time>2012-05-12T09:40:25Z</time>
      </trkpt>
      <trkpt lat="42.366966000" lon="-2.515474000">
        <ele>619.40</ele>
        <time>2012-05-12T09:40:28Z</time>
      </trkpt>
      <trkpt lat="42.366956000" lon="-2.515484000">
        <ele>619.40</ele>
        <time>2012-05-12T09:40:28Z</time>
      </trkpt>
      <trkpt lat="42.366945000" lon="-2.515493000">
        <ele>619.50</ele>
        <time>2012-05-12T09:40:30Z</time>
      </trkpt>
      <trkpt lat="42.366933000" lon="-2.515498000">
        <ele>619.50</ele>
        <time>2012-05-12T09:40:30Z</time>
      </trkpt>
      <trkpt lat="42.366928000" lon="-2.515496000">
        <ele>619.60</ele>
        <time>2012-05-12T09:40:32Z</time>
      </trkpt>
      <trkpt lat="42.366926000" lon="-2.515496000">
        <ele>619.60</ele>
        <time>2012-05-12T09:40:32Z</time>
      </trkpt>
      <trkpt lat="42.366915000" lon="-2.515501000">
        <ele>619.60</ele>
        <time>2012-05-12T09:40:35Z</time>
      </trkpt>
      <trkpt lat="42.366905000" lon="-2.515508000">
        <ele>619.60</ele>
        <time>2012-05-12T09:40:35Z</time>
      </trkpt>
      <trkpt lat="42.366873000" lon="-2.515516000">
        <ele>619.70</ele>
        <time>2012-05-12T09:40:37Z</time>
      </trkpt>
      <trkpt lat="42.366856000" lon="-2.515514000">
        <ele>619.80</ele>
        <time>2012-05-12T09:40:39Z</time>
      </trkpt>
      <trkpt lat="42.366798000" lon="-2.515524000">
        <ele>619.90</ele>
        <time>2012-05-12T09:40:42Z</time>
      </trkpt>
      <trkpt lat="42.366760000" lon="-2.515549000">
        <ele>620.00</ele>
        <time>2012-05-12T09:40:44Z</time>
      </trkpt>
      <trkpt lat="42.366723000" lon="-2.515579000">
        <ele>620.20</ele>
        <time>2012-05-12T09:40:46Z</time>
      </trkpt>
      <trkpt lat="42.366605000" lon="-2.515653000">
        <ele>620.70</ele>
        <time>2012-05-12T09:40:53Z</time>
      </trkpt>
      <trkpt lat="42.366588000" lon="-2.515659000">
        <ele>620.70</ele>
        <time>2012-05-12T09:40:53Z</time>
      </trkpt>
      <trkpt lat="42.366418000" lon="-2.515758000">
        <ele>621.40</ele>
        <time>2012-05-12T09:41:05Z</time>
      </trkpt>
      <trkpt lat="42.366403000" lon="-2.515766000">
        <ele>621.40</ele>
        <time>2012-05-12T09:41:05Z</time>
      </trkpt>
      <trkpt lat="42.366351000" lon="-2.515811000">
        <ele>621.60</ele>
        <time>2012-05-12T09:41:10Z</time>
      </trkpt>
      <trkpt lat="42.366340000" lon="-2.515818000">
        <ele>621.70</ele>
        <time>2012-05-12T09:41:10Z</time>
      </trkpt>
      <trkpt lat="42.366321000" lon="-2.515831000">
        <ele>621.80</ele>
        <time>2012-05-12T09:41:12Z</time>
      </trkpt>
      <trkpt lat="42.366303000" lon="-2.515848000">
        <ele>621.80</ele>
        <time>2012-05-12T09:41:14Z</time>
      </trkpt>
      <trkpt lat="42.366181000" lon="-2.515911000">
        <ele>622.00</ele>
        <time>2012-05-12T09:41:24Z</time>
      </trkpt>
      <trkpt lat="42.366065000" lon="-2.516009000">
        <ele>622.10</ele>
        <time>2012-05-12T09:41:31Z</time>
      </trkpt>
      <trkpt lat="42.366010000" lon="-2.516069000">
        <ele>622.10</ele>
        <time>2012-05-12T09:41:36Z</time>
      </trkpt>
      <trkpt lat="42.365913000" lon="-2.516131000">
        <ele>622.00</ele>
        <time>2012-05-12T09:41:42Z</time>
      </trkpt>
      <trkpt lat="42.365865000" lon="-2.516143000">
        <ele>621.90</ele>
        <time>2012-05-12T09:41:45Z</time>
      </trkpt>
      <trkpt lat="42.365851000" lon="-2.516149000">
        <ele>621.90</ele>
        <time>2012-05-12T09:41:45Z</time>
      </trkpt>
      <trkpt lat="42.365840000" lon="-2.516159000">
        <ele>621.90</ele>
        <time>2012-05-12T09:41:47Z</time>
      </trkpt>
      <trkpt lat="42.365778000" lon="-2.516198000">
        <ele>621.80</ele>
        <time>2012-05-12T09:41:52Z</time>
      </trkpt>
      <trkpt lat="42.365753000" lon="-2.516218000">
        <ele>621.80</ele>
        <time>2012-05-12T09:41:54Z</time>
      </trkpt>
      <trkpt lat="42.365706000" lon="-2.516273000">
        <ele>621.70</ele>
        <time>2012-05-12T09:41:57Z</time>
      </trkpt>
      <trkpt lat="42.365693000" lon="-2.516284000">
        <ele>621.70</ele>
        <time>2012-05-12T09:41:59Z</time>
      </trkpt>
      <trkpt lat="42.365606000" lon="-2.516353000">
        <ele>621.80</ele>
        <time>2012-05-12T09:42:06Z</time>
      </trkpt>
      <trkpt lat="42.365448000" lon="-2.516468000">
        <ele>622.00</ele>
        <time>2012-05-12T09:42:18Z</time>
      </trkpt>
      <trkpt lat="42.365435000" lon="-2.516474000">
        <ele>622.10</ele>
        <time>2012-05-12T09:42:20Z</time>
      </trkpt>
      <trkpt lat="42.365306000" lon="-2.516584000">
        <ele>622.20</ele>
        <time>2012-05-12T09:42:30Z</time>
      </trkpt>
      <trkpt lat="42.365296000" lon="-2.516596000">
        <ele>622.20</ele>
        <time>2012-05-12T09:42:32Z</time>
      </trkpt>
      <trkpt lat="42.364858000" lon="-2.516946000">
        <ele>622.40</ele>
        <time>2012-05-12T09:43:05Z</time>
      </trkpt>
      <trkpt lat="42.364843000" lon="-2.516954000">
        <ele>622.40</ele>
        <time>2012-05-12T09:43:07Z</time>
      </trkpt>
      <trkpt lat="42.363563000" lon="-2.517824000">
        <ele>624.90</ele>
        <time>2012-05-12T09:44:10Z</time>
      </trkpt>
      <trkpt lat="42.363538000" lon="-2.517836000">
        <ele>624.90</ele>
        <time>2012-05-12T09:44:11Z</time>
      </trkpt>
      <trkpt lat="42.361271000" lon="-2.518831000">
        <ele>633.30</ele>
        <time>2012-05-12T09:45:40Z</time>
      </trkpt>
      <trkpt lat="42.359755000" lon="-2.519561000">
        <ele>640.30</ele>
        <time>2012-05-12T09:46:41Z</time>
      </trkpt>
      <trkpt lat="42.358426000" lon="-2.520568000">
        <ele>644.90</ele>
        <time>2012-05-12T09:47:37Z</time>
      </trkpt>
      <trkpt lat="42.358406000" lon="-2.520589000">
        <ele>645.00</ele>
        <time>2012-05-12T09:47:39Z</time>
      </trkpt>
      <trkpt lat="42.356786000" lon="-2.521841000">
        <ele>653.40</ele>
        <time>2012-05-12T09:49:00Z</time>
      </trkpt>
      <trkpt lat="42.356763000" lon="-2.521851000">
        <ele>653.40</ele>
        <time>2012-05-12T09:49:02Z</time>
      </trkpt>
      <trkpt lat="42.356001000" lon="-2.522464000">
        <ele>656.70</ele>
        <time>2012-05-12T09:49:35Z</time>
      </trkpt>
      <trkpt lat="42.355823000" lon="-2.522788000">
        <ele>658.60</ele>
        <time>2012-05-12T09:49:47Z</time>
      </trkpt>
      <trkpt lat="42.354798000" lon="-2.525054000">
        <ele>670.80</ele>
        <time>2012-05-12T09:51:11Z</time>
      </trkpt>
      <trkpt lat="42.354783000" lon="-2.525079000">
        <ele>670.90</ele>
        <time>2012-05-12T09:51:11Z</time>
      </trkpt>
      <trkpt lat="42.353883000" lon="-2.526859000">
        <ele>676.50</ele>
        <time>2012-05-12T09:52:14Z</time>
      </trkpt>
      <trkpt lat="42.353878000" lon="-2.526888000">
        <ele>676.60</ele>
        <time>2012-05-12T09:52:16Z</time>
      </trkpt>
      <trkpt lat="42.353851000" lon="-2.527008000">
        <ele>676.90</ele>
        <time>2012-05-12T09:52:19Z</time>
      </trkpt>
      <trkpt lat="42.353666000" lon="-2.527296000">
        <ele>677.90</ele>
        <time>2012-05-12T09:52:30Z</time>
      </trkpt>
      <trkpt lat="42.353368000" lon="-2.527928000">
        <ele>680.80</ele>
        <time>2012-05-12T09:52:50Z</time>
      </trkpt>
      <trkpt lat="42.353356000" lon="-2.527978000">
        <ele>681.00</ele>
        <time>2012-05-12T09:52:52Z</time>
      </trkpt>
      <trkpt lat="42.353348000" lon="-2.528001000">
        <ele>681.00</ele>
        <time>2012-05-12T09:52:54Z</time>
      </trkpt>
      <trkpt lat="42.353308000" lon="-2.528044000">
        <ele>681.10</ele>
        <time>2012-05-12T09:52:56Z</time>
      </trkpt>
      <trkpt lat="42.353225000" lon="-2.528091000">
        <ele>681.20</ele>
        <time>2012-05-12T09:52:59Z</time>
      </trkpt>
      <trkpt lat="42.351806000" lon="-2.528433000">
        <ele>684.60</ele>
        <time>2012-05-12T09:53:43Z</time>
      </trkpt>
      <trkpt lat="42.351780000" lon="-2.528444000">
        <ele>684.70</ele>
        <time>2012-05-12T09:53:43Z</time>
      </trkpt>
      <trkpt lat="42.346805000" lon="-2.529903000">
        <ele>713.10</ele>
        <time>2012-05-12T09:56:46Z</time>
      </trkpt>
      <trkpt lat="42.344271000" lon="-2.529558000">
        <ele>716.20</ele>
        <time>2012-05-12T09:57:57Z</time>
      </trkpt>
      <trkpt lat="42.344160000" lon="-2.529501000">
        <ele>716.30</ele>
        <time>2012-05-12T09:58:02Z</time>
      </trkpt>
      <trkpt lat="42.344076000" lon="-2.529413000">
        <ele>716.20</ele>
        <time>2012-05-12T09:58:09Z</time>
      </trkpt>
      <trkpt lat="42.344058000" lon="-2.529399000">
        <ele>716.20</ele>
        <time>2012-05-12T09:58:09Z</time>
      </trkpt>
      <trkpt lat="42.343975000" lon="-2.529368000">
        <ele>716.30</ele>
        <time>2012-05-12T09:58:13Z</time>
      </trkpt>
      <trkpt lat="42.343961000" lon="-2.529351000">
        <ele>716.30</ele>
        <time>2012-05-12T09:58:16Z</time>
      </trkpt>
      <trkpt lat="42.343956000" lon="-2.529354000">
        <ele>716.30</ele>
        <time>2012-05-12T09:58:18Z</time>
      </trkpt>
      <trkpt lat="42.343950000" lon="-2.529353000">
        <ele>716.30</ele>
        <time>2012-05-12T09:58:18Z</time>
      </trkpt>
      <trkpt lat="42.343945000" lon="-2.529349000">
        <ele>716.30</ele>
        <time>2012-05-12T09:58:21Z</time>
      </trkpt>
      <trkpt lat="42.343946000" lon="-2.529333000">
        <ele>716.30</ele>
        <time>2012-05-12T09:59:03Z</time>
      </trkpt>
      <trkpt lat="42.343948000" lon="-2.529333000">
        <ele>716.30</ele>
        <time>2012-05-12T09:59:07Z</time>
      </trkpt>
      <trkpt lat="42.343948000" lon="-2.529329000">
        <ele>716.30</ele>
        <time>2012-05-12T09:59:14Z</time>
      </trkpt>
      <trkpt lat="42.343950000" lon="-2.529329000">
        <ele>716.30</ele>
        <time>2012-05-12T09:59:17Z</time>
      </trkpt>
      <trkpt lat="42.343951000" lon="-2.529324000">
        <ele>716.30</ele>
        <time>2012-05-12T09:59:36Z</time>
      </trkpt>
      <trkpt lat="42.343951000" lon="-2.529324000">
        <ele>716.30</ele>
        <time>2012-05-12T09:59:36Z</time>
      </trkpt>
      <trkpt lat="42.343951000" lon="-2.529323000">
        <ele>716.20</ele>
        <time>2012-05-12T09:59:41Z</time>
      </trkpt>
      <trkpt lat="42.343953000" lon="-2.529323000">
        <ele>716.20</ele>
        <time>2012-05-12T09:59:43Z</time>
      </trkpt>
      <trkpt lat="42.343953000" lon="-2.529321000">
        <ele>716.20</ele>
        <time>2012-05-12T09:59:48Z</time>
      </trkpt>
      <trkpt lat="42.343951000" lon="-2.529321000">
        <ele>716.20</ele>
        <time>2012-05-12T09:59:50Z</time>
      </trkpt>
      <trkpt lat="42.343951000" lon="-2.529316000">
        <ele>716.20</ele>
        <time>2012-05-12T10:00:16Z</time>
      </trkpt>
      <trkpt lat="42.343950000" lon="-2.529314000">
        <ele>716.20</ele>
        <time>2012-05-12T10:00:30Z</time>
      </trkpt>
      <trkpt lat="42.343948000" lon="-2.529314000">
        <ele>716.20</ele>
        <time>2012-05-12T10:00:42Z</time>
      </trkpt>
      <trkpt lat="42.343948000" lon="-2.529311000">
        <ele>716.20</ele>
        <time>2012-05-12T10:00:58Z</time>
      </trkpt>
      <trkpt lat="42.343945000" lon="-2.529311000">
        <ele>716.20</ele>
        <time>2012-05-12T10:01:21Z</time>
      </trkpt>
      <trkpt lat="42.343945000" lon="-2.529309000">
        <ele>716.20</ele>
        <time>2012-05-12T10:01:24Z</time>
      </trkpt>
      <trkpt lat="42.343946000" lon="-2.529311000">
        <ele>716.20</ele>
        <time>2012-05-12T10:02:22Z</time>
      </trkpt>
      <trkpt lat="42.343945000" lon="-2.529309000">
        <ele>716.20</ele>
        <time>2012-05-12T10:02:34Z</time>
      </trkpt>
      <trkpt lat="42.343945000" lon="-2.529311000">
        <ele>716.20</ele>
        <time>2012-05-12T10:02:48Z</time>
      </trkpt>
      <trkpt lat="42.343946000" lon="-2.529309000">
        <ele>716.20</ele>
        <time>2012-05-12T10:03:07Z</time>
      </trkpt>
      <trkpt lat="42.343948000" lon="-2.529309000">
        <ele>716.20</ele>
        <time>2012-05-12T10:03:37Z</time>
      </trkpt>
      <trkpt lat="42.343948000" lon="-2.529311000">
        <ele>716.20</ele>
        <time>2012-05-12T10:03:40Z</time>
      </trkpt>
      <trkpt lat="42.343950000" lon="-2.529311000">
        <ele>716.20</ele>
        <time>2012-05-12T10:03:52Z</time>
      </trkpt>
      <trkpt lat="42.343951000" lon="-2.529313000">
        <ele>716.20</ele>
        <time>2012-05-12T10:04:08Z</time>
      </trkpt>
      <trkpt lat="42.343950000" lon="-2.529306000">
        <ele>716.20</ele>
        <time>2012-05-12T10:05:07Z</time>
      </trkpt>
      <trkpt lat="42.343948000" lon="-2.529306000">
        <ele>716.20</ele>
        <time>2012-05-12T10:05:16Z</time>
      </trkpt>
      <trkpt lat="42.343948000" lon="-2.529298000">
        <ele>716.20</ele>
        <time>2012-05-12T10:05:49Z</time>
      </trkpt>
      <trkpt lat="42.343946000" lon="-2.529298000">
        <ele>716.20</ele>
        <time>2012-05-12T10:05:51Z</time>
      </trkpt>
      <trkpt lat="42.343945000" lon="-2.529291000">
        <ele>716.20</ele>
        <time>2012-05-12T10:06:26Z</time>
      </trkpt>
      <trkpt lat="42.343943000" lon="-2.529291000">
        <ele>716.20</ele>
        <time>2012-05-12T10:06:36Z</time>
      </trkpt>
      <trkpt lat="42.343940000" lon="-2.529284000">
        <ele>716.20</ele>
        <time>2012-05-12T10:07:07Z</time>
      </trkpt>
      <trkpt lat="42.343941000" lon="-2.529283000">
        <ele>716.20</ele>
        <time>2012-05-12T10:07:21Z</time>
      </trkpt>
      <trkpt lat="42.343946000" lon="-2.529288000">
        <ele>716.20</ele>
        <time>2012-05-12T10:07:35Z</time>
      </trkpt>
      <trkpt lat="42.343946000" lon="-2.529286000">
        <ele>716.20</ele>
        <time>2012-05-12T10:07:46Z</time>
      </trkpt>
      <trkpt lat="42.343948000" lon="-2.529286000">
        <ele>716.20</ele>
        <time>2012-05-12T10:07:48Z</time>
      </trkpt>
      <trkpt lat="42.343948000" lon="-2.529288000">
        <ele>716.20</ele>
        <time>2012-05-12T10:07:49Z</time>
      </trkpt>
      <trkpt lat="42.343948000" lon="-2.529286000">
        <ele>716.20</ele>
        <time>2012-05-12T10:07:58Z</time>
      </trkpt>
      <trkpt lat="42.343950000" lon="-2.529286000">
        <ele>716.20</ele>
        <time>2012-05-12T10:08:10Z</time>
      </trkpt>
      <trkpt lat="42.343950000" lon="-2.529291000">
        <ele>716.20</ele>
        <time>2012-05-12T10:08:57Z</time>
      </trkpt>
      <trkpt lat="42.343946000" lon="-2.529291000">
        <ele>716.20</ele>
        <time>2012-05-12T10:09:13Z</time>
      </trkpt>
      <trkpt lat="42.343958000" lon="-2.529289000">
        <ele>716.20</ele>
        <time>2012-05-12T10:09:18Z</time>
      </trkpt>
      <trkpt lat="42.343963000" lon="-2.529286000">
        <ele>716.20</ele>
        <time>2012-05-12T10:09:20Z</time>
      </trkpt>
      <trkpt lat="42.343966000" lon="-2.529279000">
        <ele>716.20</ele>
        <time>2012-05-12T10:09:22Z</time>
      </trkpt>
      <trkpt lat="42.343968000" lon="-2.529274000">
        <ele>716.10</ele>
        <time>2012-05-12T10:09:23Z</time>
      </trkpt>
      <trkpt lat="42.343975000" lon="-2.529274000">
        <ele>716.10</ele>
        <time>2012-05-12T10:09:25Z</time>
      </trkpt>
      <trkpt lat="42.343971000" lon="-2.529276000">
        <ele>716.10</ele>
        <time>2012-05-12T10:09:29Z</time>
      </trkpt>
      <trkpt lat="42.343971000" lon="-2.529274000">
        <ele>716.10</ele>
        <time>2012-05-12T10:09:30Z</time>
      </trkpt>
      <trkpt lat="42.343975000" lon="-2.529279000">
        <ele>716.10</ele>
        <time>2012-05-12T10:09:37Z</time>
      </trkpt>
      <trkpt lat="42.343976000" lon="-2.529289000">
        <ele>716.10</ele>
        <time>2012-05-12T10:09:55Z</time>
      </trkpt>
      <trkpt lat="42.343978000" lon="-2.529289000">
        <ele>716.10</ele>
        <time>2012-05-12T10:09:56Z</time>
      </trkpt>
      <trkpt lat="42.343978000" lon="-2.529291000">
        <ele>716.10</ele>
        <time>2012-05-12T10:10:02Z</time>
      </trkpt>
      <trkpt lat="42.343976000" lon="-2.529289000">
        <ele>716.10</ele>
        <time>2012-05-12T10:10:05Z</time>
      </trkpt>
      <trkpt lat="42.343976000" lon="-2.529286000">
        <ele>716.10</ele>
        <time>2012-05-12T10:10:07Z</time>
      </trkpt>
      <trkpt lat="42.343975000" lon="-2.529289000">
        <ele>716.10</ele>
        <time>2012-05-12T10:10:21Z</time>
      </trkpt>
      <trkpt lat="42.343973000" lon="-2.529283000">
        <ele>716.10</ele>
        <time>2012-05-12T10:10:24Z</time>
      </trkpt>
      <trkpt lat="42.343973000" lon="-2.529288000">
        <ele>716.10</ele>
        <time>2012-05-12T10:10:31Z</time>
      </trkpt>
      <trkpt lat="42.343968000" lon="-2.529286000">
        <ele>716.10</ele>
        <time>2012-05-12T10:10:31Z</time>
      </trkpt>
      <trkpt lat="42.343943000" lon="-2.529264000">
        <ele>716.20</ele>
        <time>2012-05-12T10:10:33Z</time>
      </trkpt>
      <trkpt lat="42.343931000" lon="-2.529251000">
        <ele>716.20</ele>
        <time>2012-05-12T10:10:35Z</time>
      </trkpt>
      <trkpt lat="42.343915000" lon="-2.529224000">
        <ele>716.20</ele>
        <time>2012-05-12T10:10:36Z</time>
      </trkpt>
      <trkpt lat="42.343645000" lon="-2.529033000">
        <ele>717.00</ele>
        <time>2012-05-12T10:10:49Z</time>
      </trkpt>
      <trkpt lat="42.343588000" lon="-2.528971000">
        <ele>717.40</ele>
        <time>2012-05-12T10:10:52Z</time>
      </trkpt>
      <trkpt lat="42.343566000" lon="-2.528958000">
        <ele>717.50</ele>
        <time>2012-05-12T10:10:52Z</time>
      </trkpt>
      <trkpt lat="42.343543000" lon="-2.528949000">
        <ele>717.70</ele>
        <time>2012-05-12T10:10:54Z</time>
      </trkpt>
      <trkpt lat="42.343381000" lon="-2.528934000">
        <ele>719.00</ele>
        <time>2012-05-12T10:11:01Z</time>
      </trkpt>
      <trkpt lat="42.343171000" lon="-2.528874000">
        <ele>720.70</ele>
        <time>2012-05-12T10:11:10Z</time>
      </trkpt>
      <trkpt lat="42.343045000" lon="-2.528879000">
        <ele>721.80</ele>
        <time>2012-05-12T10:11:15Z</time>
      </trkpt>
      <trkpt lat="42.342913000" lon="-2.528929000">
        <ele>722.90</ele>
        <time>2012-05-12T10:11:22Z</time>
      </trkpt>
      <trkpt lat="42.342723000" lon="-2.529053000">
        <ele>725.30</ele>
        <time>2012-05-12T10:11:30Z</time>
      </trkpt>
      <trkpt lat="42.342700000" lon="-2.529059000">
        <ele>725.40</ele>
        <time>2012-05-12T10:11:32Z</time>
      </trkpt>
      <trkpt lat="42.342576000" lon="-2.529124000">
        <ele>727.20</ele>
        <time>2012-05-12T10:11:37Z</time>
      </trkpt>
      <trkpt lat="42.342458000" lon="-2.529176000">
        <ele>728.70</ele>
        <time>2012-05-12T10:11:43Z</time>
      </trkpt>
      <trkpt lat="42.342440000" lon="-2.529188000">
        <ele>728.90</ele>
        <time>2012-05-12T10:11:44Z</time>
      </trkpt>
      <trkpt lat="42.342345000" lon="-2.529289000">
        <ele>730.20</ele>
        <time>2012-05-12T10:11:50Z</time>
      </trkpt>
      <trkpt lat="42.342331000" lon="-2.529311000">
        <ele>730.40</ele>
        <time>2012-05-12T10:11:51Z</time>
      </trkpt>
      <trkpt lat="42.342306000" lon="-2.529383000">
        <ele>730.80</ele>
        <time>2012-05-12T10:11:55Z</time>
      </trkpt>
      <trkpt lat="42.342280000" lon="-2.529421000">
        <ele>731.20</ele>
        <time>2012-05-12T10:11:57Z</time>
      </trkpt>
      <trkpt lat="42.342261000" lon="-2.529463000">
        <ele>731.50</ele>
        <time>2012-05-12T10:11:58Z</time>
      </trkpt>
      <trkpt lat="42.342238000" lon="-2.529504000">
        <ele>731.80</ele>
        <time>2012-05-12T10:12:00Z</time>
      </trkpt>
      <trkpt lat="42.342101000" lon="-2.529844000">
        <ele>734.10</ele>
        <time>2012-05-12T10:12:16Z</time>
      </trkpt>
      <trkpt lat="42.342071000" lon="-2.529978000">
        <ele>734.80</ele>
        <time>2012-05-12T10:12:21Z</time>
      </trkpt>
      <trkpt lat="42.342048000" lon="-2.530136000">
        <ele>735.30</ele>
        <time>2012-05-12T10:12:26Z</time>
      </trkpt>
      <trkpt lat="42.342028000" lon="-2.530213000">
        <ele>735.60</ele>
        <time>2012-05-12T10:12:30Z</time>
      </trkpt>
      <trkpt lat="42.341956000" lon="-2.530376000">
        <ele>736.40</ele>
        <time>2012-05-12T10:12:37Z</time>
      </trkpt>
      <trkpt lat="42.341943000" lon="-2.530393000">
        <ele>736.50</ele>
        <time>2012-05-12T10:12:38Z</time>
      </trkpt>
      <trkpt lat="42.341770000" lon="-2.530553000">
        <ele>738.10</ele>
        <time>2012-05-12T10:12:49Z</time>
      </trkpt>
      <trkpt lat="42.341670000" lon="-2.530569000">
        <ele>738.80</ele>
        <time>2012-05-12T10:12:54Z</time>
      </trkpt>
      <trkpt lat="42.341650000" lon="-2.530579000">
        <ele>739.00</ele>
        <time>2012-05-12T10:12:56Z</time>
      </trkpt>
      <trkpt lat="42.341631000" lon="-2.530594000">
        <ele>739.10</ele>
        <time>2012-05-12T10:12:56Z</time>
      </trkpt>
      <trkpt lat="42.341616000" lon="-2.530611000">
        <ele>739.30</ele>
        <time>2012-05-12T10:12:58Z</time>
      </trkpt>
      <trkpt lat="42.341563000" lon="-2.530704000">
        <ele>739.90</ele>
        <time>2012-05-12T10:13:01Z</time>
      </trkpt>
      <trkpt lat="42.341391000" lon="-2.531108000">
        <ele>742.40</ele>
        <time>2012-05-12T10:13:17Z</time>
      </trkpt>
      <trkpt lat="42.341346000" lon="-2.531336000">
        <ele>743.60</ele>
        <time>2012-05-12T10:13:25Z</time>
      </trkpt>
      <trkpt lat="42.341320000" lon="-2.531418000">
        <ele>744.20</ele>
        <time>2012-05-12T10:13:29Z</time>
      </trkpt>
      <trkpt lat="42.341075000" lon="-2.531774000">
        <ele>747.60</ele>
        <time>2012-05-12T10:13:46Z</time>
      </trkpt>
      <trkpt lat="42.341060000" lon="-2.531791000">
        <ele>747.70</ele>
        <time>2012-05-12T10:13:46Z</time>
      </trkpt>
      <trkpt lat="42.340973000" lon="-2.531893000">
        <ele>748.90</ele>
        <time>2012-05-12T10:13:53Z</time>
      </trkpt>
      <trkpt lat="42.340906000" lon="-2.531973000">
        <ele>749.90</ele>
        <time>2012-05-12T10:13:57Z</time>
      </trkpt>
      <trkpt lat="42.340866000" lon="-2.532013000">
        <ele>750.40</ele>
        <time>2012-05-12T10:14:00Z</time>
      </trkpt>
      <trkpt lat="42.340855000" lon="-2.532028000">
        <ele>750.60</ele>
        <time>2012-05-12T10:14:02Z</time>
      </trkpt>
      <trkpt lat="42.340801000" lon="-2.532079000">
        <ele>751.40</ele>
        <time>2012-05-12T10:14:06Z</time>
      </trkpt>
      <trkpt lat="42.340625000" lon="-2.532311000">
        <ele>753.50</ele>
        <time>2012-05-12T10:14:21Z</time>
      </trkpt>
      <trkpt lat="42.340615000" lon="-2.532329000">
        <ele>753.60</ele>
        <time>2012-05-12T10:14:21Z</time>
      </trkpt>
      <trkpt lat="42.340580000" lon="-2.532378000">
        <ele>754.00</ele>
        <time>2012-05-12T10:14:25Z</time>
      </trkpt>
      <trkpt lat="42.340515000" lon="-2.532484000">
        <ele>754.80</ele>
        <time>2012-05-12T10:14:33Z</time>
      </trkpt>
      <trkpt lat="42.340508000" lon="-2.532493000">
        <ele>754.90</ele>
        <time>2012-05-12T10:14:33Z</time>
      </trkpt>
      <trkpt lat="42.340495000" lon="-2.532508000">
        <ele>755.00</ele>
        <time>2012-05-12T10:14:35Z</time>
      </trkpt>
      <trkpt lat="42.340490000" lon="-2.532509000">
        <ele>755.10</ele>
        <time>2012-05-12T10:14:37Z</time>
      </trkpt>
      <trkpt lat="42.340488000" lon="-2.532516000">
        <ele>755.10</ele>
        <time>2012-05-12T10:14:39Z</time>
      </trkpt>
      <trkpt lat="42.340486000" lon="-2.532518000">
        <ele>755.20</ele>
        <time>2012-05-12T10:14:40Z</time>
      </trkpt>
      <trkpt lat="42.340480000" lon="-2.532529000">
        <ele>755.20</ele>
        <time>2012-05-12T10:14:42Z</time>
      </trkpt>
      <trkpt lat="42.340476000" lon="-2.532538000">
        <ele>755.30</ele>
        <time>2012-05-12T10:14:44Z</time>
      </trkpt>
      <trkpt lat="42.340473000" lon="-2.532546000">
        <ele>755.30</ele>
        <time>2012-05-12T10:14:44Z</time>
      </trkpt>
      <trkpt lat="42.340453000" lon="-2.532611000">
        <ele>755.60</ele>
        <time>2012-05-12T10:14:49Z</time>
      </trkpt>
      <trkpt lat="42.340450000" lon="-2.532631000">
        <ele>755.60</ele>
        <time>2012-05-12T10:14:49Z</time>
      </trkpt>
      <trkpt lat="42.340445000" lon="-2.532649000">
        <ele>755.80</ele>
        <time>2012-05-12T10:14:51Z</time>
      </trkpt>
      <trkpt lat="42.340436000" lon="-2.532664000">
        <ele>755.80</ele>
        <time>2012-05-12T10:14:51Z</time>
      </trkpt>
      <trkpt lat="42.340366000" lon="-2.532729000">
        <ele>756.10</ele>
        <time>2012-05-12T10:14:56Z</time>
      </trkpt>
      <trkpt lat="42.340346000" lon="-2.532766000">
        <ele>756.20</ele>
        <time>2012-05-12T10:14:58Z</time>
      </trkpt>
      <trkpt lat="42.340216000" lon="-2.533083000">
        <ele>758.40</ele>
        <time>2012-05-12T10:15:13Z</time>
      </trkpt>
      <trkpt lat="42.340176000" lon="-2.533241000">
        <ele>760.00</ele>
        <time>2012-05-12T10:15:22Z</time>
      </trkpt>
      <trkpt lat="42.340170000" lon="-2.533258000">
        <ele>760.20</ele>
        <time>2012-05-12T10:15:22Z</time>
      </trkpt>
      <trkpt lat="42.340128000" lon="-2.533403000">
        <ele>761.70</ele>
        <time>2012-05-12T10:15:29Z</time>
      </trkpt>
      <trkpt lat="42.340125000" lon="-2.533448000">
        <ele>762.20</ele>
        <time>2012-05-12T10:15:31Z</time>
      </trkpt>
      <trkpt lat="42.340086000" lon="-2.533583000">
        <ele>763.70</ele>
        <time>2012-05-12T10:15:38Z</time>
      </trkpt>
      <trkpt lat="42.340078000" lon="-2.533646000">
        <ele>764.40</ele>
        <time>2012-05-12T10:15:41Z</time>
      </trkpt>
      <trkpt lat="42.340061000" lon="-2.533703000">
        <ele>765.00</ele>
        <time>2012-05-12T10:15:45Z</time>
      </trkpt>
      <trkpt lat="42.340036000" lon="-2.533821000">
        <ele>766.10</ele>
        <time>2012-05-12T10:15:50Z</time>
      </trkpt>
      <trkpt lat="42.340030000" lon="-2.533839000">
        <ele>766.20</ele>
        <time>2012-05-12T10:15:52Z</time>
      </trkpt>
      <trkpt lat="42.339975000" lon="-2.533994000">
        <ele>767.50</ele>
        <time>2012-05-12T10:16:00Z</time>
      </trkpt>
      <trkpt lat="42.339966000" lon="-2.534029000">
        <ele>767.70</ele>
        <time>2012-05-12T10:16:02Z</time>
      </trkpt>
      <trkpt lat="42.339960000" lon="-2.534046000">
        <ele>767.90</ele>
        <time>2012-05-12T10:16:04Z</time>
      </trkpt>
      <trkpt lat="42.339950000" lon="-2.534083000">
        <ele>768.10</ele>
        <time>2012-05-12T10:16:06Z</time>
      </trkpt>
      <trkpt lat="42.339903000" lon="-2.534171000">
        <ele>768.90</ele>
        <time>2012-05-12T10:16:11Z</time>
      </trkpt>
      <trkpt lat="42.339885000" lon="-2.534198000">
        <ele>769.10</ele>
        <time>2012-05-12T10:16:13Z</time>
      </trkpt>
      <trkpt lat="42.339786000" lon="-2.534399000">
        <ele>770.80</ele>
        <time>2012-05-12T10:16:25Z</time>
      </trkpt>
      <trkpt lat="42.339756000" lon="-2.534451000">
        <ele>771.20</ele>
        <time>2012-05-12T10:16:28Z</time>
      </trkpt>
      <trkpt lat="42.339745000" lon="-2.534466000">
        <ele>771.40</ele>
        <time>2012-05-12T10:16:30Z</time>
      </trkpt>
      <trkpt lat="42.339698000" lon="-2.534551000">
        <ele>772.10</ele>
        <time>2012-05-12T10:16:35Z</time>
      </trkpt>
      <trkpt lat="42.339611000" lon="-2.534713000">
        <ele>773.60</ele>
        <time>2012-05-12T10:16:44Z</time>
      </trkpt>
      <trkpt lat="42.339605000" lon="-2.534729000">
        <ele>773.70</ele>
        <time>2012-05-12T10:16:46Z</time>
      </trkpt>
      <trkpt lat="42.339595000" lon="-2.534744000">
        <ele>773.90</ele>
        <time>2012-05-12T10:16:46Z</time>
      </trkpt>
      <trkpt lat="42.339573000" lon="-2.534773000">
        <ele>774.10</ele>
        <time>2012-05-12T10:16:49Z</time>
      </trkpt>
      <trkpt lat="42.339565000" lon="-2.534788000">
        <ele>774.20</ele>
        <time>2012-05-12T10:16:49Z</time>
      </trkpt>
      <trkpt lat="42.339553000" lon="-2.534801000">
        <ele>774.30</ele>
        <time>2012-05-12T10:16:51Z</time>
      </trkpt>
      <trkpt lat="42.339543000" lon="-2.534816000">
        <ele>774.40</ele>
        <time>2012-05-12T10:16:51Z</time>
      </trkpt>
      <trkpt lat="42.339458000" lon="-2.534906000">
        <ele>774.70</ele>
        <time>2012-05-12T10:16:58Z</time>
      </trkpt>
      <trkpt lat="42.339446000" lon="-2.534923000">
        <ele>774.70</ele>
        <time>2012-05-12T10:17:00Z</time>
      </trkpt>
      <trkpt lat="42.339355000" lon="-2.535051000">
        <ele>775.30</ele>
        <time>2012-05-12T10:17:07Z</time>
      </trkpt>
      <trkpt lat="42.339155000" lon="-2.535548000">
        <ele>777.90</ele>
        <time>2012-05-12T10:17:33Z</time>
      </trkpt>
      <trkpt lat="42.339126000" lon="-2.535604000">
        <ele>778.30</ele>
        <time>2012-05-12T10:17:36Z</time>
      </trkpt>
      <trkpt lat="42.339115000" lon="-2.535648000">
        <ele>778.60</ele>
        <time>2012-05-12T10:17:38Z</time>
      </trkpt>
      <trkpt lat="42.339106000" lon="-2.535693000">
        <ele>779.00</ele>
        <time>2012-05-12T10:17:40Z</time>
      </trkpt>
      <trkpt lat="42.339085000" lon="-2.535754000">
        <ele>779.50</ele>
        <time>2012-05-12T10:17:43Z</time>
      </trkpt>
      <trkpt lat="42.339060000" lon="-2.535839000">
        <ele>780.20</ele>
        <time>2012-05-12T10:17:47Z</time>
      </trkpt>
      <trkpt lat="42.339041000" lon="-2.535926000">
        <ele>781.00</ele>
        <time>2012-05-12T10:17:52Z</time>
      </trkpt>
      <trkpt lat="42.338700000" lon="-2.536993000">
        <ele>790.70</ele>
        <time>2012-05-12T10:18:44Z</time>
      </trkpt>
      <trkpt lat="42.338691000" lon="-2.537011000">
        <ele>790.80</ele>
        <time>2012-05-12T10:18:44Z</time>
      </trkpt>
      <trkpt lat="42.338681000" lon="-2.537048000">
        <ele>791.10</ele>
        <time>2012-05-12T10:18:46Z</time>
      </trkpt>
      <trkpt lat="42.338673000" lon="-2.537086000">
        <ele>791.50</ele>
        <time>2012-05-12T10:18:48Z</time>
      </trkpt>
      <trkpt lat="42.338661000" lon="-2.537126000">
        <ele>791.80</ele>
        <time>2012-05-12T10:18:51Z</time>
      </trkpt>
      <trkpt lat="42.338641000" lon="-2.537211000">
        <ele>792.40</ele>
        <time>2012-05-12T10:18:55Z</time>
      </trkpt>
      <trkpt lat="42.338636000" lon="-2.537254000">
        <ele>792.70</ele>
        <time>2012-05-12T10:18:56Z</time>
      </trkpt>
      <trkpt lat="42.338585000" lon="-2.537504000">
        <ele>794.50</ele>
        <time>2012-05-12T10:19:07Z</time>
      </trkpt>
      <trkpt lat="42.338585000" lon="-2.537528000">
        <ele>794.60</ele>
        <time>2012-05-12T10:19:09Z</time>
      </trkpt>
      <trkpt lat="42.338536000" lon="-2.537891000">
        <ele>797.50</ele>
        <time>2012-05-12T10:19:26Z</time>
      </trkpt>
      <trkpt lat="42.338531000" lon="-2.537909000">
        <ele>797.70</ele>
        <time>2012-05-12T10:19:26Z</time>
      </trkpt>
      <trkpt lat="42.338530000" lon="-2.537931000">
        <ele>797.90</ele>
        <time>2012-05-12T10:19:28Z</time>
      </trkpt>
      <trkpt lat="42.338518000" lon="-2.537969000">
        <ele>798.20</ele>
        <time>2012-05-12T10:19:30Z</time>
      </trkpt>
      <trkpt lat="42.338510000" lon="-2.538009000">
        <ele>798.60</ele>
        <time>2012-05-12T10:19:31Z</time>
      </trkpt>
      <trkpt lat="42.338456000" lon="-2.538183000">
        <ele>800.20</ele>
        <time>2012-05-12T10:19:40Z</time>
      </trkpt>
      <trkpt lat="42.338405000" lon="-2.538291000">
        <ele>801.20</ele>
        <time>2012-05-12T10:19:47Z</time>
      </trkpt>
      <trkpt lat="42.338398000" lon="-2.538311000">
        <ele>801.30</ele>
        <time>2012-05-12T10:19:47Z</time>
      </trkpt>
      <trkpt lat="42.338270000" lon="-2.538774000">
        <ele>805.40</ele>
        <time>2012-05-12T10:20:11Z</time>
      </trkpt>
      <trkpt lat="42.338271000" lon="-2.538878000">
        <ele>806.30</ele>
        <time>2012-05-12T10:20:15Z</time>
      </trkpt>
      <trkpt lat="42.338268000" lon="-2.538898000">
        <ele>806.40</ele>
        <time>2012-05-12T10:20:17Z</time>
      </trkpt>
      <trkpt lat="42.338275000" lon="-2.539076000">
        <ele>808.00</ele>
        <time>2012-05-12T10:20:25Z</time>
      </trkpt>
      <trkpt lat="42.338271000" lon="-2.539154000">
        <ele>808.60</ele>
        <time>2012-05-12T10:20:29Z</time>
      </trkpt>
      <trkpt lat="42.338256000" lon="-2.539254000">
        <ele>809.50</ele>
        <time>2012-05-12T10:20:34Z</time>
      </trkpt>
      <trkpt lat="42.338220000" lon="-2.539361000">
        <ele>810.50</ele>
        <time>2012-05-12T10:20:41Z</time>
      </trkpt>
      <trkpt lat="42.338196000" lon="-2.539449000">
        <ele>811.20</ele>
        <time>2012-05-12T10:20:44Z</time>
      </trkpt>
      <trkpt lat="42.338195000" lon="-2.539516000">
        <ele>811.80</ele>
        <time>2012-05-12T10:20:48Z</time>
      </trkpt>
      <trkpt lat="42.338206000" lon="-2.539558000">
        <ele>812.20</ele>
        <time>2012-05-12T10:20:50Z</time>
      </trkpt>
      <trkpt lat="42.338210000" lon="-2.539578000">
        <ele>812.30</ele>
        <time>2012-05-12T10:20:50Z</time>
      </trkpt>
      <trkpt lat="42.338215000" lon="-2.539793000">
        <ele>814.20</ele>
        <time>2012-05-12T10:21:02Z</time>
      </trkpt>
      <trkpt lat="42.338213000" lon="-2.539856000">
        <ele>814.70</ele>
        <time>2012-05-12T10:21:05Z</time>
      </trkpt>
      <trkpt lat="42.338201000" lon="-2.539939000">
        <ele>815.50</ele>
        <time>2012-05-12T10:21:09Z</time>
      </trkpt>
      <trkpt lat="42.338186000" lon="-2.539996000">
        <ele>816.00</ele>
        <time>2012-05-12T10:21:12Z</time>
      </trkpt>
      <trkpt lat="42.338178000" lon="-2.540129000">
        <ele>817.20</ele>
        <time>2012-05-12T10:21:17Z</time>
      </trkpt>
      <trkpt lat="42.338166000" lon="-2.540176000">
        <ele>817.60</ele>
        <time>2012-05-12T10:21:19Z</time>
      </trkpt>
      <trkpt lat="42.338143000" lon="-2.540411000">
        <ele>819.80</ele>
        <time>2012-05-12T10:21:30Z</time>
      </trkpt>
      <trkpt lat="42.338123000" lon="-2.540636000">
        <ele>821.70</ele>
        <time>2012-05-12T10:21:40Z</time>
      </trkpt>
      <trkpt lat="42.338085000" lon="-2.540794000">
        <ele>823.10</ele>
        <time>2012-05-12T10:21:47Z</time>
      </trkpt>
      <trkpt lat="42.338081000" lon="-2.540821000">
        <ele>823.30</ele>
        <time>2012-05-12T10:21:47Z</time>
      </trkpt>
      <trkpt lat="42.338075000" lon="-2.540944000">
        <ele>824.30</ele>
        <time>2012-05-12T10:21:52Z</time>
      </trkpt>
      <trkpt lat="42.338076000" lon="-2.540968000">
        <ele>824.40</ele>
        <time>2012-05-12T10:21:54Z</time>
      </trkpt>
      <trkpt lat="42.338196000" lon="-2.541401000">
        <ele>827.90</ele>
        <time>2012-05-12T10:22:15Z</time>
      </trkpt>
      <trkpt lat="42.338201000" lon="-2.541443000">
        <ele>828.20</ele>
        <time>2012-05-12T10:22:17Z</time>
      </trkpt>
      <trkpt lat="42.338206000" lon="-2.541461000">
        <ele>828.40</ele>
        <time>2012-05-12T10:22:17Z</time>
      </trkpt>
      <trkpt lat="42.338226000" lon="-2.541629000">
        <ele>829.60</ele>
        <time>2012-05-12T10:22:25Z</time>
      </trkpt>
      <trkpt lat="42.338226000" lon="-2.541653000">
        <ele>829.80</ele>
        <time>2012-05-12T10:22:27Z</time>
      </trkpt>
      <trkpt lat="42.338236000" lon="-2.541739000">
        <ele>830.50</ele>
        <time>2012-05-12T10:22:31Z</time>
      </trkpt>
      <trkpt lat="42.338240000" lon="-2.541804000">
        <ele>831.00</ele>
        <time>2012-05-12T10:22:34Z</time>
      </trkpt>
      <trkpt lat="42.338266000" lon="-2.542056000">
        <ele>833.00</ele>
        <time>2012-05-12T10:22:46Z</time>
      </trkpt>
      <trkpt lat="42.338278000" lon="-2.542266000">
        <ele>834.90</ele>
        <time>2012-05-12T10:22:55Z</time>
      </trkpt>
      <trkpt lat="42.338281000" lon="-2.542286000">
        <ele>835.00</ele>
        <time>2012-05-12T10:22:57Z</time>
      </trkpt>
      <trkpt lat="42.338296000" lon="-2.542656000">
        <ele>838.70</ele>
        <time>2012-05-12T10:23:14Z</time>
      </trkpt>
      <trkpt lat="42.338306000" lon="-2.542738000">
        <ele>839.50</ele>
        <time>2012-05-12T10:23:18Z</time>
      </trkpt>
      <trkpt lat="42.338328000" lon="-2.543413000">
        <ele>846.00</ele>
        <time>2012-05-12T10:23:51Z</time>
      </trkpt>
      <trkpt lat="42.338331000" lon="-2.543434000">
        <ele>846.20</ele>
        <time>2012-05-12T10:23:53Z</time>
      </trkpt>
      <trkpt lat="42.338335000" lon="-2.543514000">
        <ele>846.90</ele>
        <time>2012-05-12T10:23:56Z</time>
      </trkpt>
      <trkpt lat="42.338338000" lon="-2.543534000">
        <ele>847.10</ele>
        <time>2012-05-12T10:23:58Z</time>
      </trkpt>
      <trkpt lat="42.338350000" lon="-2.543839000">
        <ele>850.00</ele>
        <time>2012-05-12T10:24:12Z</time>
      </trkpt>
      <trkpt lat="42.338341000" lon="-2.543899000">
        <ele>850.50</ele>
        <time>2012-05-12T10:24:15Z</time>
      </trkpt>
      <trkpt lat="42.338338000" lon="-2.543958000">
        <ele>851.00</ele>
        <time>2012-05-12T10:24:19Z</time>
      </trkpt>
      <trkpt lat="42.338328000" lon="-2.544013000">
        <ele>851.50</ele>
        <time>2012-05-12T10:24:22Z</time>
      </trkpt>
      <trkpt lat="42.338328000" lon="-2.544051000">
        <ele>851.80</ele>
        <time>2012-05-12T10:24:24Z</time>
      </trkpt>
      <trkpt lat="42.338320000" lon="-2.544126000">
        <ele>852.40</ele>
        <time>2012-05-12T10:24:27Z</time>
      </trkpt>
      <trkpt lat="42.338316000" lon="-2.544284000">
        <ele>853.80</ele>
        <time>2012-05-12T10:24:36Z</time>
      </trkpt>
      <trkpt lat="42.338321000" lon="-2.544573000">
        <ele>856.20</ele>
        <time>2012-05-12T10:24:50Z</time>
      </trkpt>
      <trkpt lat="42.338310000" lon="-2.544948000">
        <ele>859.40</ele>
        <time>2012-05-12T10:25:09Z</time>
      </trkpt>
      <trkpt lat="42.338311000" lon="-2.544966000">
        <ele>859.50</ele>
        <time>2012-05-12T10:25:11Z</time>
      </trkpt>
      <trkpt lat="42.338315000" lon="-2.545003000">
        <ele>859.80</ele>
        <time>2012-05-12T10:25:13Z</time>
      </trkpt>
      <trkpt lat="42.338318000" lon="-2.545054000">
        <ele>860.30</ele>
        <time>2012-05-12T10:25:16Z</time>
      </trkpt>
      <trkpt lat="42.338311000" lon="-2.545151000">
        <ele>861.10</ele>
        <time>2012-05-12T10:25:21Z</time>
      </trkpt>
      <trkpt lat="42.338306000" lon="-2.545169000">
        <ele>861.30</ele>
        <time>2012-05-12T10:25:21Z</time>
      </trkpt>
      <trkpt lat="42.338293000" lon="-2.545226000">
        <ele>861.80</ele>
        <time>2012-05-12T10:25:25Z</time>
      </trkpt>
      <trkpt lat="42.338288000" lon="-2.545281000">
        <ele>862.30</ele>
        <time>2012-05-12T10:25:28Z</time>
      </trkpt>
      <trkpt lat="42.338281000" lon="-2.545298000">
        <ele>862.40</ele>
        <time>2012-05-12T10:25:28Z</time>
      </trkpt>
      <trkpt lat="42.338273000" lon="-2.545313000">
        <ele>862.60</ele>
        <time>2012-05-12T10:25:30Z</time>
      </trkpt>
      <trkpt lat="42.338261000" lon="-2.545346000">
        <ele>862.90</ele>
        <time>2012-05-12T10:25:32Z</time>
      </trkpt>
      <trkpt lat="42.338255000" lon="-2.545401000">
        <ele>863.40</ele>
        <time>2012-05-12T10:25:35Z</time>
      </trkpt>
      <trkpt lat="42.338245000" lon="-2.545436000">
        <ele>863.70</ele>
        <time>2012-05-12T10:25:37Z</time>
      </trkpt>
      <trkpt lat="42.338211000" lon="-2.545594000">
        <ele>865.50</ele>
        <time>2012-05-12T10:25:46Z</time>
      </trkpt>
      <trkpt lat="42.338186000" lon="-2.545808000">
        <ele>867.80</ele>
        <time>2012-05-12T10:25:58Z</time>
      </trkpt>
      <trkpt lat="42.338181000" lon="-2.545878000">
        <ele>868.60</ele>
        <time>2012-05-12T10:26:01Z</time>
      </trkpt>
      <trkpt lat="42.338175000" lon="-2.545914000">
        <ele>869.00</ele>
        <time>2012-05-12T10:26:03Z</time>
      </trkpt>
      <trkpt lat="42.338178000" lon="-2.545984000">
        <ele>869.70</ele>
        <time>2012-05-12T10:26:07Z</time>
      </trkpt>
      <trkpt lat="42.338176000" lon="-2.546001000">
        <ele>869.90</ele>
        <time>2012-05-12T10:26:08Z</time>
      </trkpt>
      <trkpt lat="42.338158000" lon="-2.546066000">
        <ele>870.60</ele>
        <time>2012-05-12T10:26:12Z</time>
      </trkpt>
      <trkpt lat="42.338156000" lon="-2.546084000">
        <ele>870.70</ele>
        <time>2012-05-12T10:26:14Z</time>
      </trkpt>
      <trkpt lat="42.338123000" lon="-2.546206000">
        <ele>872.20</ele>
        <time>2012-05-12T10:26:21Z</time>
      </trkpt>
      <trkpt lat="42.338108000" lon="-2.546243000">
        <ele>872.70</ele>
        <time>2012-05-12T10:26:22Z</time>
      </trkpt>
      <trkpt lat="42.338036000" lon="-2.546496000">
        <ele>875.30</ele>
        <time>2012-05-12T10:26:38Z</time>
      </trkpt>
      <trkpt lat="42.338016000" lon="-2.546544000">
        <ele>875.80</ele>
        <time>2012-05-12T10:26:40Z</time>
      </trkpt>
      <trkpt lat="42.337965000" lon="-2.546716000">
        <ele>877.50</ele>
        <time>2012-05-12T10:26:50Z</time>
      </trkpt>
      <trkpt lat="42.337950000" lon="-2.546748000">
        <ele>877.80</ele>
        <time>2012-05-12T10:26:52Z</time>
      </trkpt>
      <trkpt lat="42.337888000" lon="-2.546934000">
        <ele>879.60</ele>
        <time>2012-05-12T10:27:04Z</time>
      </trkpt>
      <trkpt lat="42.337880000" lon="-2.546951000">
        <ele>879.70</ele>
        <time>2012-05-12T10:27:04Z</time>
      </trkpt>
      <trkpt lat="42.337868000" lon="-2.546983000">
        <ele>880.00</ele>
        <time>2012-05-12T10:27:06Z</time>
      </trkpt>
      <trkpt lat="42.337851000" lon="-2.547013000">
        <ele>880.30</ele>
        <time>2012-05-12T10:27:09Z</time>
      </trkpt>
      <trkpt lat="42.337845000" lon="-2.547029000">
        <ele>880.50</ele>
        <time>2012-05-12T10:27:09Z</time>
      </trkpt>
      <trkpt lat="42.337840000" lon="-2.547048000">
        <ele>880.60</ele>
        <time>2012-05-12T10:27:11Z</time>
      </trkpt>
      <trkpt lat="42.337801000" lon="-2.547148000">
        <ele>881.50</ele>
        <time>2012-05-12T10:27:16Z</time>
      </trkpt>
      <trkpt lat="42.337793000" lon="-2.547163000">
        <ele>881.60</ele>
        <time>2012-05-12T10:27:18Z</time>
      </trkpt>
      <trkpt lat="42.337786000" lon="-2.547179000">
        <ele>881.80</ele>
        <time>2012-05-12T10:27:18Z</time>
      </trkpt>
      <trkpt lat="42.337771000" lon="-2.547233000">
        <ele>882.20</ele>
        <time>2012-05-12T10:27:22Z</time>
      </trkpt>
      <trkpt lat="42.337758000" lon="-2.547266000">
        <ele>882.50</ele>
        <time>2012-05-12T10:27:23Z</time>
      </trkpt>
      <trkpt lat="42.337708000" lon="-2.547383000">
        <ele>883.40</ele>
        <time>2012-05-12T10:27:30Z</time>
      </trkpt>
      <trkpt lat="42.337690000" lon="-2.547433000">
        <ele>883.80</ele>
        <time>2012-05-12T10:27:34Z</time>
      </trkpt>
      <trkpt lat="42.337681000" lon="-2.547449000">
        <ele>884.00</ele>
        <time>2012-05-12T10:27:34Z</time>
      </trkpt>
      <trkpt lat="42.337500000" lon="-2.548008000">
        <ele>888.70</ele>
        <time>2012-05-12T10:28:05Z</time>
      </trkpt>
      <trkpt lat="42.337486000" lon="-2.548064000">
        <ele>889.30</ele>
        <time>2012-05-12T10:28:09Z</time>
      </trkpt>
      <trkpt lat="42.337453000" lon="-2.548173000">
        <ele>890.50</ele>
        <time>2012-05-12T10:28:14Z</time>
      </trkpt>
      <trkpt lat="42.337435000" lon="-2.548296000">
        <ele>891.80</ele>
        <time>2012-05-12T10:28:21Z</time>
      </trkpt>
      <trkpt lat="42.337430000" lon="-2.548313000">
        <ele>891.90</ele>
        <time>2012-05-12T10:28:23Z</time>
      </trkpt>
      <trkpt lat="42.337398000" lon="-2.548456000">
        <ele>893.50</ele>
        <time>2012-05-12T10:28:31Z</time>
      </trkpt>
      <trkpt lat="42.337393000" lon="-2.548494000">
        <ele>893.90</ele>
        <time>2012-05-12T10:28:33Z</time>
      </trkpt>
      <trkpt lat="42.337358000" lon="-2.548659000">
        <ele>895.50</ele>
        <time>2012-05-12T10:28:42Z</time>
      </trkpt>
      <trkpt lat="42.337298000" lon="-2.549184000">
        <ele>900.90</ele>
        <time>2012-05-12T10:29:10Z</time>
      </trkpt>
      <trkpt lat="42.337296000" lon="-2.549259000">
        <ele>901.70</ele>
        <time>2012-05-12T10:29:13Z</time>
      </trkpt>
      <trkpt lat="42.337288000" lon="-2.549314000">
        <ele>902.30</ele>
        <time>2012-05-12T10:29:17Z</time>
      </trkpt>
      <trkpt lat="42.337286000" lon="-2.549366000">
        <ele>902.90</ele>
        <time>2012-05-12T10:29:20Z</time>
      </trkpt>
      <trkpt lat="42.337198000" lon="-2.550099000">
        <ele>911.00</ele>
        <time>2012-05-12T10:30:00Z</time>
      </trkpt>
      <trkpt lat="42.337198000" lon="-2.550118000">
        <ele>911.10</ele>
        <time>2012-05-12T10:30:00Z</time>
      </trkpt>
      <trkpt lat="42.337188000" lon="-2.550228000">
        <ele>912.50</ele>
        <time>2012-05-12T10:30:07Z</time>
      </trkpt>
      <trkpt lat="42.337186000" lon="-2.550283000">
        <ele>913.10</ele>
        <time>2012-05-12T10:30:09Z</time>
      </trkpt>
      <trkpt lat="42.337180000" lon="-2.550339000">
        <ele>913.80</ele>
        <time>2012-05-12T10:30:12Z</time>
      </trkpt>
      <trkpt lat="42.337178000" lon="-2.550378000">
        <ele>914.20</ele>
        <time>2012-05-12T10:30:14Z</time>
      </trkpt>
      <trkpt lat="42.337161000" lon="-2.550496000">
        <ele>915.60</ele>
        <time>2012-05-12T10:30:21Z</time>
      </trkpt>
      <trkpt lat="42.337161000" lon="-2.550516000">
        <ele>915.80</ele>
        <time>2012-05-12T10:30:21Z</time>
      </trkpt>
      <trkpt lat="42.337158000" lon="-2.550534000">
        <ele>916.10</ele>
        <time>2012-05-12T10:30:23Z</time>
      </trkpt>
      <trkpt lat="42.337130000" lon="-2.550744000">
        <ele>918.60</ele>
        <time>2012-05-12T10:30:33Z</time>
      </trkpt>
      <trkpt lat="42.337130000" lon="-2.550764000">
        <ele>918.80</ele>
        <time>2012-05-12T10:30:35Z</time>
      </trkpt>
      <trkpt lat="42.337080000" lon="-2.551098000">
        <ele>922.80</ele>
        <time>2012-05-12T10:30:52Z</time>
      </trkpt>
      <trkpt lat="42.337078000" lon="-2.551156000">
        <ele>923.50</ele>
        <time>2012-05-12T10:30:56Z</time>
      </trkpt>
      <trkpt lat="42.337058000" lon="-2.551356000">
        <ele>926.00</ele>
        <time>2012-05-12T10:31:06Z</time>
      </trkpt>
      <trkpt lat="42.337058000" lon="-2.551373000">
        <ele>926.10</ele>
        <time>2012-05-12T10:31:08Z</time>
      </trkpt>
      <trkpt lat="42.337050000" lon="-2.551441000">
        <ele>927.00</ele>
        <time>2012-05-12T10:31:12Z</time>
      </trkpt>
      <trkpt lat="42.337050000" lon="-2.551474000">
        <ele>927.40</ele>
        <time>2012-05-12T10:31:13Z</time>
      </trkpt>
      <trkpt lat="42.337051000" lon="-2.551508000">
        <ele>927.80</ele>
        <time>2012-05-12T10:31:15Z</time>
      </trkpt>
      <trkpt lat="42.337026000" lon="-2.551903000">
        <ele>932.50</ele>
        <time>2012-05-12T10:31:38Z</time>
      </trkpt>
      <trkpt lat="42.337023000" lon="-2.551919000">
        <ele>932.70</ele>
        <time>2012-05-12T10:31:39Z</time>
      </trkpt>
      <trkpt lat="42.337021000" lon="-2.551969000">
        <ele>933.30</ele>
        <time>2012-05-12T10:31:43Z</time>
      </trkpt>
      <trkpt lat="42.337016000" lon="-2.552021000">
        <ele>933.90</ele>
        <time>2012-05-12T10:31:46Z</time>
      </trkpt>
      <trkpt lat="42.337005000" lon="-2.552178000">
        <ele>935.60</ele>
        <time>2012-05-12T10:31:55Z</time>
      </trkpt>
      <trkpt lat="42.336998000" lon="-2.552211000">
        <ele>935.90</ele>
        <time>2012-05-12T10:31:57Z</time>
      </trkpt>
      <trkpt lat="42.336956000" lon="-2.552486000">
        <ele>938.80</ele>
        <time>2012-05-12T10:32:14Z</time>
      </trkpt>
      <trkpt lat="42.336951000" lon="-2.552499000">
        <ele>938.80</ele>
        <time>2012-05-12T10:32:14Z</time>
      </trkpt>
      <trkpt lat="42.336943000" lon="-2.552529000">
        <ele>939.20</ele>
        <time>2012-05-12T10:32:16Z</time>
      </trkpt>
      <trkpt lat="42.336943000" lon="-2.552544000">
        <ele>939.40</ele>
        <time>2012-05-12T10:32:18Z</time>
      </trkpt>
      <trkpt lat="42.336940000" lon="-2.552561000">
        <ele>939.60</ele>
        <time>2012-05-12T10:32:18Z</time>
      </trkpt>
      <trkpt lat="42.336936000" lon="-2.552594000">
        <ele>939.90</ele>
        <time>2012-05-12T10:32:21Z</time>
      </trkpt>
      <trkpt lat="42.336933000" lon="-2.552609000">
        <ele>940.10</ele>
        <time>2012-05-12T10:32:21Z</time>
      </trkpt>
      <trkpt lat="42.336931000" lon="-2.552626000">
        <ele>940.20</ele>
        <time>2012-05-12T10:32:23Z</time>
      </trkpt>
      <trkpt lat="42.336911000" lon="-2.552723000">
        <ele>941.30</ele>
        <time>2012-05-12T10:32:28Z</time>
      </trkpt>
      <trkpt lat="42.336910000" lon="-2.552739000">
        <ele>941.50</ele>
        <time>2012-05-12T10:32:30Z</time>
      </trkpt>
      <trkpt lat="42.336900000" lon="-2.552788000">
        <ele>942.00</ele>
        <time>2012-05-12T10:32:33Z</time>
      </trkpt>
      <trkpt lat="42.336891000" lon="-2.552871000">
        <ele>942.90</ele>
        <time>2012-05-12T10:32:37Z</time>
      </trkpt>
      <trkpt lat="42.336881000" lon="-2.552921000">
        <ele>943.50</ele>
        <time>2012-05-12T10:32:40Z</time>
      </trkpt>
      <trkpt lat="42.336880000" lon="-2.552938000">
        <ele>943.70</ele>
        <time>2012-05-12T10:32:42Z</time>
      </trkpt>
      <trkpt lat="42.336871000" lon="-2.552968000">
        <ele>944.10</ele>
        <time>2012-05-12T10:32:44Z</time>
      </trkpt>
      <trkpt lat="42.336870000" lon="-2.553001000">
        <ele>944.50</ele>
        <time>2012-05-12T10:32:46Z</time>
      </trkpt>
      <trkpt lat="42.336845000" lon="-2.553166000">
        <ele>946.70</ele>
        <time>2012-05-12T10:32:56Z</time>
      </trkpt>
      <trkpt lat="42.336845000" lon="-2.553183000">
        <ele>946.90</ele>
        <time>2012-05-12T10:32:56Z</time>
      </trkpt>
      <trkpt lat="42.336841000" lon="-2.553198000">
        <ele>947.10</ele>
        <time>2012-05-12T10:32:58Z</time>
      </trkpt>
      <trkpt lat="42.336840000" lon="-2.553231000">
        <ele>947.50</ele>
        <time>2012-05-12T10:32:59Z</time>
      </trkpt>
      <trkpt lat="42.336815000" lon="-2.553374000">
        <ele>949.30</ele>
        <time>2012-05-12T10:33:08Z</time>
      </trkpt>
      <trkpt lat="42.336815000" lon="-2.553391000">
        <ele>949.60</ele>
        <time>2012-05-12T10:33:10Z</time>
      </trkpt>
      <trkpt lat="42.336810000" lon="-2.553439000">
        <ele>950.20</ele>
        <time>2012-05-12T10:33:12Z</time>
      </trkpt>
      <trkpt lat="42.336790000" lon="-2.553678000">
        <ele>953.10</ele>
        <time>2012-05-12T10:33:26Z</time>
      </trkpt>
      <trkpt lat="42.336786000" lon="-2.553694000">
        <ele>953.30</ele>
        <time>2012-05-12T10:33:27Z</time>
      </trkpt>
      <trkpt lat="42.336788000" lon="-2.553781000">
        <ele>954.40</ele>
        <time>2012-05-12T10:33:33Z</time>
      </trkpt>
      <trkpt lat="42.336785000" lon="-2.553796000">
        <ele>954.60</ele>
        <time>2012-05-12T10:33:34Z</time>
      </trkpt>
      <trkpt lat="42.336783000" lon="-2.553813000">
        <ele>954.80</ele>
        <time>2012-05-12T10:33:34Z</time>
      </trkpt>
      <trkpt lat="42.336776000" lon="-2.553828000">
        <ele>955.00</ele>
        <time>2012-05-12T10:33:36Z</time>
      </trkpt>
      <trkpt lat="42.336773000" lon="-2.553843000">
        <ele>955.20</ele>
        <time>2012-05-12T10:33:36Z</time>
      </trkpt>
      <trkpt lat="42.336760000" lon="-2.553873000">
        <ele>955.60</ele>
        <time>2012-05-12T10:33:38Z</time>
      </trkpt>
      <trkpt lat="42.336746000" lon="-2.553916000">
        <ele>956.20</ele>
        <time>2012-05-12T10:33:41Z</time>
      </trkpt>
      <trkpt lat="42.336601000" lon="-2.554228000">
        <ele>960.00</ele>
        <time>2012-05-12T10:34:04Z</time>
      </trkpt>
      <trkpt lat="42.336598000" lon="-2.554244000">
        <ele>960.10</ele>
        <time>2012-05-12T10:34:04Z</time>
      </trkpt>
      <trkpt lat="42.336575000" lon="-2.554296000">
        <ele>960.80</ele>
        <time>2012-05-12T10:34:09Z</time>
      </trkpt>
      <trkpt lat="42.336571000" lon="-2.554313000">
        <ele>960.90</ele>
        <time>2012-05-12T10:34:09Z</time>
      </trkpt>
      <trkpt lat="42.336545000" lon="-2.554386000">
        <ele>961.80</ele>
        <time>2012-05-12T10:34:14Z</time>
      </trkpt>
      <trkpt lat="42.336538000" lon="-2.554399000">
        <ele>962.00</ele>
        <time>2012-05-12T10:34:16Z</time>
      </trkpt>
      <trkpt lat="42.336511000" lon="-2.554506000">
        <ele>963.20</ele>
        <time>2012-05-12T10:34:23Z</time>
      </trkpt>
      <trkpt lat="42.336506000" lon="-2.554519000">
        <ele>963.30</ele>
        <time>2012-05-12T10:34:23Z</time>
      </trkpt>
      <trkpt lat="42.336493000" lon="-2.554579000">
        <ele>964.00</ele>
        <time>2012-05-12T10:34:28Z</time>
      </trkpt>
      <trkpt lat="42.336491000" lon="-2.554594000">
        <ele>964.10</ele>
        <time>2012-05-12T10:34:28Z</time>
      </trkpt>
      <trkpt lat="42.336483000" lon="-2.554641000">
        <ele>964.70</ele>
        <time>2012-05-12T10:34:32Z</time>
      </trkpt>
      <trkpt lat="42.336478000" lon="-2.554656000">
        <ele>964.90</ele>
        <time>2012-05-12T10:34:32Z</time>
      </trkpt>
      <trkpt lat="42.336436000" lon="-2.554904000">
        <ele>967.70</ele>
        <time>2012-05-12T10:34:49Z</time>
      </trkpt>
      <trkpt lat="42.336426000" lon="-2.554934000">
        <ele>968.10</ele>
        <time>2012-05-12T10:34:51Z</time>
      </trkpt>
      <trkpt lat="42.336425000" lon="-2.554949000">
        <ele>968.20</ele>
        <time>2012-05-12T10:34:51Z</time>
      </trkpt>
      <trkpt lat="42.336425000" lon="-2.554966000">
        <ele>968.40</ele>
        <time>2012-05-12T10:34:53Z</time>
      </trkpt>
      <trkpt lat="42.336421000" lon="-2.554996000">
        <ele>968.80</ele>
        <time>2012-05-12T10:34:54Z</time>
      </trkpt>
      <trkpt lat="42.336418000" lon="-2.555011000">
        <ele>969.00</ele>
        <time>2012-05-12T10:34:56Z</time>
      </trkpt>
      <trkpt lat="42.336416000" lon="-2.555028000">
        <ele>969.10</ele>
        <time>2012-05-12T10:34:56Z</time>
      </trkpt>
      <trkpt lat="42.336401000" lon="-2.555109000">
        <ele>970.10</ele>
        <time>2012-05-12T10:35:01Z</time>
      </trkpt>
      <trkpt lat="42.336396000" lon="-2.555124000">
        <ele>970.30</ele>
        <time>2012-05-12T10:35:03Z</time>
      </trkpt>
      <trkpt lat="42.336386000" lon="-2.555188000">
        <ele>971.00</ele>
        <time>2012-05-12T10:35:07Z</time>
      </trkpt>
      <trkpt lat="42.336381000" lon="-2.555203000">
        <ele>971.20</ele>
        <time>2012-05-12T10:35:07Z</time>
      </trkpt>
      <trkpt lat="42.336380000" lon="-2.555219000">
        <ele>971.40</ele>
        <time>2012-05-12T10:35:08Z</time>
      </trkpt>
      <trkpt lat="42.336371000" lon="-2.555266000">
        <ele>971.90</ele>
        <time>2012-05-12T10:35:12Z</time>
      </trkpt>
      <trkpt lat="42.336363000" lon="-2.555298000">
        <ele>972.30</ele>
        <time>2012-05-12T10:35:14Z</time>
      </trkpt>
      <trkpt lat="42.336353000" lon="-2.555364000">
        <ele>973.10</ele>
        <time>2012-05-12T10:35:17Z</time>
      </trkpt>
      <trkpt lat="42.336348000" lon="-2.555379000">
        <ele>973.30</ele>
        <time>2012-05-12T10:35:19Z</time>
      </trkpt>
      <trkpt lat="42.336311000" lon="-2.555559000">
        <ele>975.50</ele>
        <time>2012-05-12T10:35:29Z</time>
      </trkpt>
      <trkpt lat="42.336306000" lon="-2.555574000">
        <ele>975.60</ele>
        <time>2012-05-12T10:35:31Z</time>
      </trkpt>
      <trkpt lat="42.336265000" lon="-2.555736000">
        <ele>977.90</ele>
        <time>2012-05-12T10:35:40Z</time>
      </trkpt>
      <trkpt lat="42.336258000" lon="-2.555751000">
        <ele>978.10</ele>
        <time>2012-05-12T10:35:42Z</time>
      </trkpt>
      <trkpt lat="42.336241000" lon="-2.555779000">
        <ele>978.50</ele>
        <time>2012-05-12T10:35:43Z</time>
      </trkpt>
      <trkpt lat="42.336228000" lon="-2.555808000">
        <ele>979.00</ele>
        <time>2012-05-12T10:35:45Z</time>
      </trkpt>
      <trkpt lat="42.336171000" lon="-2.555883000">
        <ele>980.40</ele>
        <time>2012-05-12T10:35:52Z</time>
      </trkpt>
      <trkpt lat="42.336150000" lon="-2.555903000">
        <ele>980.80</ele>
        <time>2012-05-12T10:35:54Z</time>
      </trkpt>
      <trkpt lat="42.336010000" lon="-2.555989000">
        <ele>983.00</ele>
        <time>2012-05-12T10:36:04Z</time>
      </trkpt>
      <trkpt lat="42.335996000" lon="-2.555994000">
        <ele>983.20</ele>
        <time>2012-05-12T10:36:06Z</time>
      </trkpt>
      <trkpt lat="42.335908000" lon="-2.556048000">
        <ele>984.50</ele>
        <time>2012-05-12T10:36:13Z</time>
      </trkpt>
      <trkpt lat="42.335786000" lon="-2.556084000">
        <ele>985.90</ele>
        <time>2012-05-12T10:36:22Z</time>
      </trkpt>
      <trkpt lat="42.335723000" lon="-2.556118000">
        <ele>986.80</ele>
        <time>2012-05-12T10:36:27Z</time>
      </trkpt>
      <trkpt lat="42.335710000" lon="-2.556121000">
        <ele>986.90</ele>
        <time>2012-05-12T10:36:27Z</time>
      </trkpt>
      <trkpt lat="42.335550000" lon="-2.556189000">
        <ele>989.00</ele>
        <time>2012-05-12T10:36:39Z</time>
      </trkpt>
      <trkpt lat="42.335538000" lon="-2.556198000">
        <ele>989.10</ele>
        <time>2012-05-12T10:36:41Z</time>
      </trkpt>
      <trkpt lat="42.335483000" lon="-2.556223000">
        <ele>989.90</ele>
        <time>2012-05-12T10:36:44Z</time>
      </trkpt>
      <trkpt lat="42.335168000" lon="-2.556448000">
        <ele>990.00</ele>
        <time>2012-05-12T10:37:10Z</time>
      </trkpt>
      <trkpt lat="42.335160000" lon="-2.556459000">
        <ele>989.90</ele>
        <time>2012-05-12T10:37:12Z</time>
      </trkpt>
      <trkpt lat="42.335106000" lon="-2.556511000">
        <ele>989.70</ele>
        <time>2012-05-12T10:37:17Z</time>
      </trkpt>
      <trkpt lat="42.335096000" lon="-2.556526000">
        <ele>989.60</ele>
        <time>2012-05-12T10:37:17Z</time>
      </trkpt>
      <trkpt lat="42.335085000" lon="-2.556558000">
        <ele>989.60</ele>
        <time>2012-05-12T10:37:19Z</time>
      </trkpt>
      <trkpt lat="42.335080000" lon="-2.556608000">
        <ele>989.90</ele>
        <time>2012-05-12T10:37:23Z</time>
      </trkpt>
      <trkpt lat="42.335080000" lon="-2.556626000">
        <ele>990.10</ele>
        <time>2012-05-12T10:37:24Z</time>
      </trkpt>
      <trkpt lat="42.335088000" lon="-2.556661000">
        <ele>990.50</ele>
        <time>2012-05-12T10:37:26Z</time>
      </trkpt>
      <trkpt lat="42.335128000" lon="-2.556739000">
        <ele>992.00</ele>
        <time>2012-05-12T10:37:31Z</time>
      </trkpt>
      <trkpt lat="42.335176000" lon="-2.556803000">
        <ele>993.60</ele>
        <time>2012-05-12T10:37:35Z</time>
      </trkpt>
      <trkpt lat="42.335206000" lon="-2.556836000">
        <ele>994.60</ele>
        <time>2012-05-12T10:37:38Z</time>
      </trkpt>
      <trkpt lat="42.335250000" lon="-2.556869000">
        <ele>995.90</ele>
        <time>2012-05-12T10:37:42Z</time>
      </trkpt>
      <trkpt lat="42.335260000" lon="-2.556881000">
        <ele>996.10</ele>
        <time>2012-05-12T10:37:43Z</time>
      </trkpt>
      <trkpt lat="42.335441000" lon="-2.557109000">
        <ele>1002.80</ele>
        <time>2012-05-12T10:38:01Z</time>
      </trkpt>
      <trkpt lat="42.335506000" lon="-2.557216000">
        <ele>1003.40</ele>
        <time>2012-05-12T10:38:08Z</time>
      </trkpt>
      <trkpt lat="42.335545000" lon="-2.557294000">
        <ele>1003.90</ele>
        <time>2012-05-12T10:38:13Z</time>
      </trkpt>
      <trkpt lat="42.335551000" lon="-2.557316000">
        <ele>1004.10</ele>
        <time>2012-05-12T10:38:13Z</time>
      </trkpt>
      <trkpt lat="42.335686000" lon="-2.557554000">
        <ele>1005.70</ele>
        <time>2012-05-12T10:38:27Z</time>
      </trkpt>
      <trkpt lat="42.335700000" lon="-2.557571000">
        <ele>1005.80</ele>
        <time>2012-05-12T10:38:27Z</time>
      </trkpt>
      <trkpt lat="42.335745000" lon="-2.557651000">
        <ele>1006.30</ele>
        <time>2012-05-12T10:38:32Z</time>
      </trkpt>
      <trkpt lat="42.335788000" lon="-2.557746000">
        <ele>1007.00</ele>
        <time>2012-05-12T10:38:36Z</time>
      </trkpt>
      <trkpt lat="42.335801000" lon="-2.557768000">
        <ele>1007.20</ele>
        <time>2012-05-12T10:38:36Z</time>
      </trkpt>
      <trkpt lat="42.335846000" lon="-2.557813000">
        <ele>1007.50</ele>
        <time>2012-05-12T10:38:39Z</time>
      </trkpt>
      <trkpt lat="42.335936000" lon="-2.557869000">
        <ele>1007.60</ele>
        <time>2012-05-12T10:38:46Z</time>
      </trkpt>
      <trkpt lat="42.335953000" lon="-2.557876000">
        <ele>1007.60</ele>
        <time>2012-05-12T10:38:46Z</time>
      </trkpt>
      <trkpt lat="42.336038000" lon="-2.557893000">
        <ele>1007.30</ele>
        <time>2012-05-12T10:38:51Z</time>
      </trkpt>
      <trkpt lat="42.336090000" lon="-2.557896000">
        <ele>1007.00</ele>
        <time>2012-05-12T10:38:55Z</time>
      </trkpt>
      <trkpt lat="42.336125000" lon="-2.557901000">
        <ele>1006.80</ele>
        <time>2012-05-12T10:38:57Z</time>
      </trkpt>
      <trkpt lat="42.336173000" lon="-2.557898000">
        <ele>1006.40</ele>
        <time>2012-05-12T10:39:00Z</time>
      </trkpt>
      <trkpt lat="42.336190000" lon="-2.557901000">
        <ele>1006.30</ele>
        <time>2012-05-12T10:39:00Z</time>
      </trkpt>
      <trkpt lat="42.336221000" lon="-2.557901000">
        <ele>1006.10</ele>
        <time>2012-05-12T10:39:02Z</time>
      </trkpt>
      <trkpt lat="42.336270000" lon="-2.557928000">
        <ele>1006.00</ele>
        <time>2012-05-12T10:39:05Z</time>
      </trkpt>
      <trkpt lat="42.336296000" lon="-2.557954000">
        <ele>1006.10</ele>
        <time>2012-05-12T10:39:07Z</time>
      </trkpt>
      <trkpt lat="42.336308000" lon="-2.557973000">
        <ele>1006.20</ele>
        <time>2012-05-12T10:39:09Z</time>
      </trkpt>
      <trkpt lat="42.336323000" lon="-2.558013000">
        <ele>1006.60</ele>
        <time>2012-05-12T10:39:11Z</time>
      </trkpt>
      <trkpt lat="42.336325000" lon="-2.558033000">
        <ele>1006.80</ele>
        <time>2012-05-12T10:39:12Z</time>
      </trkpt>
      <trkpt lat="42.336321000" lon="-2.558053000">
        <ele>1007.10</ele>
        <time>2012-05-12T10:39:12Z</time>
      </trkpt>
      <trkpt lat="42.336300000" lon="-2.558124000">
        <ele>1008.50</ele>
        <time>2012-05-12T10:39:16Z</time>
      </trkpt>
      <trkpt lat="42.336231000" lon="-2.558283000">
        <ele>1011.70</ele>
        <time>2012-05-12T10:39:26Z</time>
      </trkpt>
      <trkpt lat="42.336228000" lon="-2.558309000">
        <ele>1012.10</ele>
        <time>2012-05-12T10:39:26Z</time>
      </trkpt>
      <trkpt lat="42.336205000" lon="-2.558361000">
        <ele>1013.10</ele>
        <time>2012-05-12T10:39:30Z</time>
      </trkpt>
      <trkpt lat="42.336186000" lon="-2.558414000">
        <ele>1014.00</ele>
        <time>2012-05-12T10:39:33Z</time>
      </trkpt>
      <trkpt lat="42.336108000" lon="-2.558574000">
        <ele>1016.50</ele>
        <time>2012-05-12T10:39:42Z</time>
      </trkpt>
      <trkpt lat="42.336060000" lon="-2.558644000">
        <ele>1017.50</ele>
        <time>2012-05-12T10:39:47Z</time>
      </trkpt>
      <trkpt lat="42.336048000" lon="-2.558656000">
        <ele>1017.60</ele>
        <time>2012-05-12T10:39:49Z</time>
      </trkpt>
      <trkpt lat="42.335930000" lon="-2.558778000">
        <ele>1019.00</ele>
        <time>2012-05-12T10:39:59Z</time>
      </trkpt>
      <trkpt lat="42.335748000" lon="-2.558979000">
        <ele>1020.40</ele>
        <time>2012-05-12T10:40:17Z</time>
      </trkpt>
      <trkpt lat="42.335693000" lon="-2.559079000">
        <ele>1021.00</ele>
        <time>2012-05-12T10:40:24Z</time>
      </trkpt>
      <trkpt lat="42.335671000" lon="-2.559126000">
        <ele>1021.30</ele>
        <time>2012-05-12T10:40:27Z</time>
      </trkpt>
      <trkpt lat="42.335661000" lon="-2.559139000">
        <ele>1021.30</ele>
        <time>2012-05-12T10:40:27Z</time>
      </trkpt>
      <trkpt lat="42.335653000" lon="-2.559154000">
        <ele>1021.40</ele>
        <time>2012-05-12T10:40:29Z</time>
      </trkpt>
      <trkpt lat="42.335611000" lon="-2.559204000">
        <ele>1021.50</ele>
        <time>2012-05-12T10:40:32Z</time>
      </trkpt>
      <trkpt lat="42.335588000" lon="-2.559221000">
        <ele>1021.50</ele>
        <time>2012-05-12T10:40:34Z</time>
      </trkpt>
      <trkpt lat="42.335558000" lon="-2.559229000">
        <ele>1021.30</ele>
        <time>2012-05-12T10:40:36Z</time>
      </trkpt>
      <trkpt lat="42.335531000" lon="-2.559224000">
        <ele>1021.10</ele>
        <time>2012-05-12T10:40:38Z</time>
      </trkpt>
      <trkpt lat="42.335518000" lon="-2.559216000">
        <ele>1020.90</ele>
        <time>2012-05-12T10:40:39Z</time>
      </trkpt>
      <trkpt lat="42.335506000" lon="-2.559206000">
        <ele>1020.80</ele>
        <time>2012-05-12T10:40:41Z</time>
      </trkpt>
      <trkpt lat="42.335456000" lon="-2.559143000">
        <ele>1019.90</ele>
        <time>2012-05-12T10:40:46Z</time>
      </trkpt>
      <trkpt lat="42.335448000" lon="-2.559128000">
        <ele>1019.70</ele>
        <time>2012-05-12T10:40:46Z</time>
      </trkpt>
      <trkpt lat="42.335310000" lon="-2.558931000">
        <ele>1015.50</ele>
        <time>2012-05-12T10:40:59Z</time>
      </trkpt>
      <trkpt lat="42.335295000" lon="-2.558916000">
        <ele>1015.20</ele>
        <time>2012-05-12T10:41:00Z</time>
      </trkpt>
      <trkpt lat="42.335181000" lon="-2.558844000">
        <ele>1011.30</ele>
        <time>2012-05-12T10:41:07Z</time>
      </trkpt>
      <trkpt lat="42.335130000" lon="-2.558838000">
        <ele>1009.70</ele>
        <time>2012-05-12T10:41:09Z</time>
      </trkpt>
      <trkpt lat="42.335113000" lon="-2.558839000">
        <ele>1009.20</ele>
        <time>2012-05-12T10:41:11Z</time>
      </trkpt>
      <trkpt lat="42.335065000" lon="-2.558856000">
        <ele>1007.80</ele>
        <time>2012-05-12T10:41:14Z</time>
      </trkpt>
      <trkpt lat="42.335035000" lon="-2.558874000">
        <ele>1007.00</ele>
        <time>2012-05-12T10:41:16Z</time>
      </trkpt>
      <trkpt lat="42.334983000" lon="-2.558931000">
        <ele>1005.50</ele>
        <time>2012-05-12T10:41:19Z</time>
      </trkpt>
      <trkpt lat="42.334973000" lon="-2.558948000">
        <ele>1005.20</ele>
        <time>2012-05-12T10:41:21Z</time>
      </trkpt>
      <trkpt lat="42.334960000" lon="-2.558998000">
        <ele>1004.80</ele>
        <time>2012-05-12T10:41:23Z</time>
      </trkpt>
      <trkpt lat="42.334958000" lon="-2.559014000">
        <ele>1004.70</ele>
        <time>2012-05-12T10:41:25Z</time>
      </trkpt>
      <trkpt lat="42.334953000" lon="-2.559046000">
        <ele>1004.60</ele>
        <time>2012-05-12T10:41:26Z</time>
      </trkpt>
      <trkpt lat="42.334953000" lon="-2.559094000">
        <ele>1004.70</ele>
        <time>2012-05-12T10:41:30Z</time>
      </trkpt>
      <trkpt lat="42.334955000" lon="-2.559111000">
        <ele>1004.80</ele>
        <time>2012-05-12T10:41:30Z</time>
      </trkpt>
      <trkpt lat="42.334955000" lon="-2.559126000">
        <ele>1004.80</ele>
        <time>2012-05-12T10:41:32Z</time>
      </trkpt>
      <trkpt lat="42.334970000" lon="-2.559201000">
        <ele>1005.40</ele>
        <time>2012-05-12T10:41:37Z</time>
      </trkpt>
      <trkpt lat="42.334970000" lon="-2.559216000">
        <ele>1005.50</ele>
        <time>2012-05-12T10:41:37Z</time>
      </trkpt>
      <trkpt lat="42.334973000" lon="-2.559229000">
        <ele>1005.70</ele>
        <time>2012-05-12T10:41:39Z</time>
      </trkpt>
      <trkpt lat="42.334973000" lon="-2.559243000">
        <ele>1005.80</ele>
        <time>2012-05-12T10:41:40Z</time>
      </trkpt>
      <trkpt lat="42.334971000" lon="-2.559254000">
        <ele>1005.80</ele>
        <time>2012-05-12T10:41:40Z</time>
      </trkpt>
      <trkpt lat="42.334970000" lon="-2.559256000">
        <ele>1005.80</ele>
        <time>2012-05-12T10:41:42Z</time>
      </trkpt>
      <trkpt lat="42.334968000" lon="-2.559256000">
        <ele>1005.80</ele>
        <time>2012-05-12T10:41:42Z</time>
      </trkpt>
      <trkpt lat="42.334971000" lon="-2.559263000">
        <ele>1005.80</ele>
        <time>2012-05-12T10:41:46Z</time>
      </trkpt>
      <trkpt lat="42.334970000" lon="-2.559269000">
        <ele>1005.90</ele>
        <time>2012-05-12T10:41:47Z</time>
      </trkpt>
      <trkpt lat="42.334968000" lon="-2.559269000">
        <ele>1005.80</ele>
        <time>2012-05-12T10:41:49Z</time>
      </trkpt>
      <trkpt lat="42.334968000" lon="-2.559274000">
        <ele>1005.80</ele>
        <time>2012-05-12T10:41:53Z</time>
      </trkpt>
      <trkpt lat="42.334966000" lon="-2.559276000">
        <ele>1005.80</ele>
        <time>2012-05-12T10:41:56Z</time>
      </trkpt>
      <trkpt lat="42.334968000" lon="-2.559278000">
        <ele>1005.80</ele>
        <time>2012-05-12T10:41:58Z</time>
      </trkpt>
      <trkpt lat="42.334965000" lon="-2.559286000">
        <ele>1005.80</ele>
        <time>2012-05-12T10:42:00Z</time>
      </trkpt>
      <trkpt lat="42.334965000" lon="-2.559298000">
        <ele>1005.80</ele>
        <time>2012-05-12T10:42:05Z</time>
      </trkpt>
      <trkpt lat="42.334963000" lon="-2.559299000">
        <ele>1005.80</ele>
        <time>2012-05-12T10:42:08Z</time>
      </trkpt>
      <trkpt lat="42.334961000" lon="-2.559299000">
        <ele>1005.70</ele>
        <time>2012-05-12T10:42:12Z</time>
      </trkpt>
      <trkpt lat="42.334963000" lon="-2.559299000">
        <ele>1005.70</ele>
        <time>2012-05-12T10:42:13Z</time>
      </trkpt>
      <trkpt lat="42.334963000" lon="-2.559299000">
        <ele>1005.70</ele>
        <time>2012-05-12T10:42:15Z</time>
      </trkpt>
      <trkpt lat="42.334961000" lon="-2.559299000">
        <ele>1005.70</ele>
        <time>2012-05-12T10:42:15Z</time>
      </trkpt>
      <trkpt lat="42.334963000" lon="-2.559299000">
        <ele>1005.70</ele>
        <time>2012-05-12T10:42:17Z</time>
      </trkpt>
      <trkpt lat="42.334963000" lon="-2.559299000">
        <ele>1005.70</ele>
        <time>2012-05-12T10:42:19Z</time>
      </trkpt>
      <trkpt lat="42.334961000" lon="-2.559298000">
        <ele>1005.70</ele>
        <time>2012-05-12T10:42:34Z</time>
      </trkpt>
      <trkpt lat="42.334960000" lon="-2.559298000">
        <ele>1005.70</ele>
        <time>2012-05-12T10:42:41Z</time>
      </trkpt>
      <trkpt lat="42.334963000" lon="-2.559289000">
        <ele>1005.70</ele>
        <time>2012-05-12T10:42:43Z</time>
      </trkpt>
      <trkpt lat="42.334963000" lon="-2.559281000">
        <ele>1005.70</ele>
        <time>2012-05-12T10:42:45Z</time>
      </trkpt>
      <trkpt lat="42.334968000" lon="-2.559271000">
        <ele>1005.70</ele>
        <time>2012-05-12T10:42:45Z</time>
      </trkpt>
      <trkpt lat="42.334976000" lon="-2.559263000">
        <ele>1005.90</ele>
        <time>2012-05-12T10:42:47Z</time>
      </trkpt>
      <trkpt lat="42.334981000" lon="-2.559261000">
        <ele>1006.00</ele>
        <time>2012-05-12T10:42:48Z</time>
      </trkpt>
      <trkpt lat="42.334985000" lon="-2.559264000">
        <ele>1006.20</ele>
        <time>2012-05-12T10:42:48Z</time>
      </trkpt>
      <trkpt lat="42.334986000" lon="-2.559266000">
        <ele>1006.30</ele>
        <time>2012-05-12T10:42:50Z</time>
      </trkpt>
      <trkpt lat="42.334991000" lon="-2.559266000">
        <ele>1006.40</ele>
        <time>2012-05-12T10:42:50Z</time>
      </trkpt>
      <trkpt lat="42.334995000" lon="-2.559264000">
        <ele>1006.50</ele>
        <time>2012-05-12T10:42:52Z</time>
      </trkpt>
      <trkpt lat="42.334995000" lon="-2.559264000">
        <ele>1006.50</ele>
        <time>2012-05-12T10:42:52Z</time>
      </trkpt>
      <trkpt lat="42.334991000" lon="-2.559261000">
        <ele>1006.60</ele>
        <time>2012-05-12T10:43:02Z</time>
      </trkpt>
      <trkpt lat="42.334991000" lon="-2.559261000">
        <ele>1006.60</ele>
        <time>2012-05-12T10:43:04Z</time>
      </trkpt>
      <trkpt lat="42.334990000" lon="-2.559263000">
        <ele>1006.50</ele>
        <time>2012-05-12T10:43:28Z</time>
      </trkpt>
      <trkpt lat="42.334990000" lon="-2.559261000">
        <ele>1006.50</ele>
        <time>2012-05-12T10:43:28Z</time>
      </trkpt>
      <trkpt lat="42.334988000" lon="-2.559263000">
        <ele>1006.50</ele>
        <time>2012-05-12T10:44:03Z</time>
      </trkpt>
      <trkpt lat="42.334988000" lon="-2.559263000">
        <ele>1006.50</ele>
        <time>2012-05-12T10:44:05Z</time>
      </trkpt>
      <trkpt lat="42.334990000" lon="-2.559264000">
        <ele>1006.50</ele>
        <time>2012-05-12T10:44:22Z</time>
      </trkpt>
      <trkpt lat="42.334991000" lon="-2.559264000">
        <ele>1006.50</ele>
        <time>2012-05-12T10:44:29Z</time>
      </trkpt>
      <trkpt lat="42.334991000" lon="-2.559261000">
        <ele>1006.50</ele>
        <time>2012-05-12T10:44:52Z</time>
      </trkpt>
      <trkpt lat="42.334990000" lon="-2.559258000">
        <ele>1006.50</ele>
        <time>2012-05-12T10:45:53Z</time>
      </trkpt>
      <trkpt lat="42.334988000" lon="-2.559258000">
        <ele>1006.40</ele>
        <time>2012-05-12T10:45:55Z</time>
      </trkpt>
      <trkpt lat="42.334988000" lon="-2.559256000">
        <ele>1006.40</ele>
        <time>2012-05-12T10:45:58Z</time>
      </trkpt>
      <trkpt lat="42.334986000" lon="-2.559256000">
        <ele>1006.40</ele>
        <time>2012-05-12T10:46:02Z</time>
      </trkpt>
      <trkpt lat="42.334986000" lon="-2.559254000">
        <ele>1006.40</ele>
        <time>2012-05-12T10:46:03Z</time>
      </trkpt>
      <trkpt lat="42.334985000" lon="-2.559254000">
        <ele>1006.30</ele>
        <time>2012-05-12T10:46:07Z</time>
      </trkpt>
      <trkpt lat="42.334983000" lon="-2.559254000">
        <ele>1006.30</ele>
        <time>2012-05-12T10:46:12Z</time>
      </trkpt>
      <trkpt lat="42.334983000" lon="-2.559254000">
        <ele>1006.30</ele>
        <time>2012-05-12T10:46:16Z</time>
      </trkpt>
      <trkpt lat="42.334980000" lon="-2.559254000">
        <ele>1006.20</ele>
        <time>2012-05-12T10:46:23Z</time>
      </trkpt>
      <trkpt lat="42.334980000" lon="-2.559253000">
        <ele>1006.10</ele>
        <time>2012-05-12T10:46:24Z</time>
      </trkpt>
      <trkpt lat="42.334976000" lon="-2.559253000">
        <ele>1006.10</ele>
        <time>2012-05-12T10:46:35Z</time>
      </trkpt>
      <trkpt lat="42.334976000" lon="-2.559253000">
        <ele>1006.10</ele>
        <time>2012-05-12T10:46:35Z</time>
      </trkpt>
      <trkpt lat="42.334975000" lon="-2.559253000">
        <ele>1006.00</ele>
        <time>2012-05-12T10:46:40Z</time>
      </trkpt>
      <trkpt lat="42.334975000" lon="-2.559251000">
        <ele>1006.00</ele>
        <time>2012-05-12T10:46:42Z</time>
      </trkpt>
      <trkpt lat="42.334973000" lon="-2.559251000">
        <ele>1005.90</ele>
        <time>2012-05-12T10:46:47Z</time>
      </trkpt>
      <trkpt lat="42.334973000" lon="-2.559249000">
        <ele>1005.90</ele>
        <time>2012-05-12T10:47:01Z</time>
      </trkpt>
      <trkpt lat="42.334971000" lon="-2.559249000">
        <ele>1005.90</ele>
        <time>2012-05-12T10:47:01Z</time>
      </trkpt>
      <trkpt lat="42.334970000" lon="-2.559251000">
        <ele>1005.80</ele>
        <time>2012-05-12T10:47:22Z</time>
      </trkpt>
      <trkpt lat="42.334970000" lon="-2.559246000">
        <ele>1005.80</ele>
        <time>2012-05-12T10:47:34Z</time>
      </trkpt>
      <trkpt lat="42.334968000" lon="-2.559246000">
        <ele>1005.80</ele>
        <time>2012-05-12T10:47:36Z</time>
      </trkpt>
      <trkpt lat="42.334968000" lon="-2.559244000">
        <ele>1005.70</ele>
        <time>2012-05-12T10:47:37Z</time>
      </trkpt>
      <trkpt lat="42.334968000" lon="-2.559243000">
        <ele>1005.70</ele>
        <time>2012-05-12T10:47:41Z</time>
      </trkpt>
      <trkpt lat="42.334966000" lon="-2.559243000">
        <ele>1005.70</ele>
        <time>2012-05-12T10:47:43Z</time>
      </trkpt>
      <trkpt lat="42.334966000" lon="-2.559241000">
        <ele>1005.70</ele>
        <time>2012-05-12T10:47:46Z</time>
      </trkpt>
      <trkpt lat="42.334965000" lon="-2.559239000">
        <ele>1005.60</ele>
        <time>2012-05-12T10:47:53Z</time>
      </trkpt>
      <trkpt lat="42.334963000" lon="-2.559239000">
        <ele>1005.60</ele>
        <time>2012-05-12T10:48:16Z</time>
      </trkpt>
      <trkpt lat="42.334966000" lon="-2.559243000">
        <ele>1005.60</ele>
        <time>2012-05-12T10:48:30Z</time>
      </trkpt>
      <trkpt lat="42.334970000" lon="-2.559248000">
        <ele>1005.80</ele>
        <time>2012-05-12T10:48:44Z</time>
      </trkpt>
      <trkpt lat="42.334971000" lon="-2.559251000">
        <ele>1005.80</ele>
        <time>2012-05-12T10:48:51Z</time>
      </trkpt>
      <trkpt lat="42.334971000" lon="-2.559251000">
        <ele>1005.80</ele>
        <time>2012-05-12T10:48:54Z</time>
      </trkpt>
      <trkpt lat="42.334973000" lon="-2.559256000">
        <ele>1005.90</ele>
        <time>2012-05-12T10:48:59Z</time>
      </trkpt>
      <trkpt lat="42.334975000" lon="-2.559256000">
        <ele>1005.90</ele>
        <time>2012-05-12T10:49:01Z</time>
      </trkpt>
      <trkpt lat="42.334975000" lon="-2.559256000">
        <ele>1005.90</ele>
        <time>2012-05-12T10:49:01Z</time>
      </trkpt>
      <trkpt lat="42.334976000" lon="-2.559256000">
        <ele>1006.00</ele>
        <time>2012-05-12T10:49:10Z</time>
      </trkpt>
      <trkpt lat="42.334978000" lon="-2.559256000">
        <ele>1006.10</ele>
        <time>2012-05-12T10:49:10Z</time>
      </trkpt>
      <trkpt lat="42.334980000" lon="-2.559256000">
        <ele>1006.10</ele>
        <time>2012-05-12T10:49:17Z</time>
      </trkpt>
      <trkpt lat="42.334980000" lon="-2.559254000">
        <ele>1006.10</ele>
        <time>2012-05-12T10:49:17Z</time>
      </trkpt>
      <trkpt lat="42.334981000" lon="-2.559254000">
        <ele>1006.20</ele>
        <time>2012-05-12T10:49:22Z</time>
      </trkpt>
      <trkpt lat="42.334980000" lon="-2.559254000">
        <ele>1006.10</ele>
        <time>2012-05-12T10:49:24Z</time>
      </trkpt>
      <trkpt lat="42.334978000" lon="-2.559254000">
        <ele>1006.10</ele>
        <time>2012-05-12T10:49:25Z</time>
      </trkpt>
      <trkpt lat="42.334976000" lon="-2.559256000">
        <ele>1006.10</ele>
        <time>2012-05-12T10:49:31Z</time>
      </trkpt>
      <trkpt lat="42.334976000" lon="-2.559256000">
        <ele>1006.10</ele>
        <time>2012-05-12T10:49:31Z</time>
      </trkpt>
      <trkpt lat="42.334973000" lon="-2.559259000">
        <ele>1006.00</ele>
        <time>2012-05-12T10:49:41Z</time>
      </trkpt>
      <trkpt lat="42.334973000" lon="-2.559259000">
        <ele>1006.00</ele>
        <time>2012-05-12T10:49:43Z</time>
      </trkpt>
      <trkpt lat="42.334971000" lon="-2.559258000">
        <ele>1005.90</ele>
        <time>2012-05-12T10:49:48Z</time>
      </trkpt>
      <trkpt lat="42.334970000" lon="-2.559258000">
        <ele>1005.90</ele>
        <time>2012-05-12T10:49:55Z</time>
      </trkpt>
      <trkpt lat="42.334970000" lon="-2.559258000">
        <ele>1005.90</ele>
        <time>2012-05-12T10:49:57Z</time>
      </trkpt>
      <trkpt lat="42.334970000" lon="-2.559256000">
        <ele>1005.80</ele>
        <time>2012-05-12T10:49:57Z</time>
      </trkpt>
      <trkpt lat="42.334968000" lon="-2.559256000">
        <ele>1005.80</ele>
        <time>2012-05-12T10:50:00Z</time>
      </trkpt>
      <trkpt lat="42.334968000" lon="-2.559253000">
        <ele>1005.80</ele>
        <time>2012-05-12T10:50:09Z</time>
      </trkpt>
      <trkpt lat="42.334966000" lon="-2.559253000">
        <ele>1005.70</ele>
        <time>2012-05-12T10:50:12Z</time>
      </trkpt>
      <trkpt lat="42.334966000" lon="-2.559251000">
        <ele>1005.70</ele>
        <time>2012-05-12T10:50:16Z</time>
      </trkpt>
      <trkpt lat="42.334965000" lon="-2.559251000">
        <ele>1005.70</ele>
        <time>2012-05-12T10:50:21Z</time>
      </trkpt>
      <trkpt lat="42.334965000" lon="-2.559251000">
        <ele>1005.70</ele>
        <time>2012-05-12T10:50:25Z</time>
      </trkpt>
      <trkpt lat="42.334960000" lon="-2.559253000">
        <ele>1005.60</ele>
        <time>2012-05-12T10:50:44Z</time>
      </trkpt>
      <trkpt lat="42.334950000" lon="-2.559249000">
        <ele>1005.30</ele>
        <time>2012-05-12T10:50:47Z</time>
      </trkpt>
      <trkpt lat="42.334943000" lon="-2.559258000">
        <ele>1005.10</ele>
        <time>2012-05-12T10:50:49Z</time>
      </trkpt>
      <trkpt lat="42.334941000" lon="-2.559256000">
        <ele>1005.00</ele>
        <time>2012-05-12T10:50:49Z</time>
      </trkpt>
      <trkpt lat="42.334940000" lon="-2.559254000">
        <ele>1005.00</ele>
        <time>2012-05-12T10:50:51Z</time>
      </trkpt>
      <trkpt lat="42.334936000" lon="-2.559253000">
        <ele>1004.80</ele>
        <time>2012-05-12T10:50:53Z</time>
      </trkpt>
      <trkpt lat="42.334940000" lon="-2.559253000">
        <ele>1004.80</ele>
        <time>2012-05-12T10:51:01Z</time>
      </trkpt>
      <trkpt lat="42.334938000" lon="-2.559253000">
        <ele>1004.80</ele>
        <time>2012-05-12T10:51:03Z</time>
      </trkpt>
      <trkpt lat="42.334940000" lon="-2.559261000">
        <ele>1004.90</ele>
        <time>2012-05-12T10:51:43Z</time>
      </trkpt>
      <trkpt lat="42.334945000" lon="-2.559259000">
        <ele>1005.00</ele>
        <time>2012-05-12T10:51:52Z</time>
      </trkpt>
      <trkpt lat="42.334946000" lon="-2.559259000">
        <ele>1005.00</ele>
        <time>2012-05-12T10:51:55Z</time>
      </trkpt>
      <trkpt lat="42.334946000" lon="-2.559259000">
        <ele>1005.00</ele>
        <time>2012-05-12T10:51:55Z</time>
      </trkpt>
      <trkpt lat="42.334945000" lon="-2.559259000">
        <ele>1005.10</ele>
        <time>2012-05-12T10:51:57Z</time>
      </trkpt>
      <trkpt lat="42.334943000" lon="-2.559261000">
        <ele>1005.00</ele>
        <time>2012-05-12T10:51:57Z</time>
      </trkpt>
      <trkpt lat="42.334945000" lon="-2.559263000">
        <ele>1005.00</ele>
        <time>2012-05-12T10:51:59Z</time>
      </trkpt>
      <trkpt lat="42.334945000" lon="-2.559266000">
        <ele>1005.10</ele>
        <time>2012-05-12T10:52:02Z</time>
      </trkpt>
      <trkpt lat="42.334946000" lon="-2.559269000">
        <ele>1005.10</ele>
        <time>2012-05-12T10:52:13Z</time>
      </trkpt>
      <trkpt lat="42.334948000" lon="-2.559273000">
        <ele>1005.20</ele>
        <time>2012-05-12T10:52:27Z</time>
      </trkpt>
      <trkpt lat="42.334950000" lon="-2.559273000">
        <ele>1005.20</ele>
        <time>2012-05-12T10:52:32Z</time>
      </trkpt>
      <trkpt lat="42.334951000" lon="-2.559273000">
        <ele>1005.30</ele>
        <time>2012-05-12T10:52:37Z</time>
      </trkpt>
      <trkpt lat="42.334953000" lon="-2.559273000">
        <ele>1005.30</ele>
        <time>2012-05-12T10:52:44Z</time>
      </trkpt>
      <trkpt lat="42.334955000" lon="-2.559274000">
        <ele>1005.40</ele>
        <time>2012-05-12T10:52:53Z</time>
      </trkpt>
      <trkpt lat="42.334956000" lon="-2.559271000">
        <ele>1005.40</ele>
        <time>2012-05-12T10:53:03Z</time>
      </trkpt>
      <trkpt lat="42.334958000" lon="-2.559268000">
        <ele>1005.50</ele>
        <time>2012-05-12T10:53:05Z</time>
      </trkpt>
      <trkpt lat="42.334960000" lon="-2.559269000">
        <ele>1005.50</ele>
        <time>2012-05-12T10:53:05Z</time>
      </trkpt>
      <trkpt lat="42.334958000" lon="-2.559271000">
        <ele>1005.50</ele>
        <time>2012-05-12T10:53:07Z</time>
      </trkpt>
      <trkpt lat="42.334956000" lon="-2.559283000">
        <ele>1005.50</ele>
        <time>2012-05-12T10:53:14Z</time>
      </trkpt>
      <trkpt lat="42.334958000" lon="-2.559288000">
        <ele>1005.50</ele>
        <time>2012-05-12T10:53:19Z</time>
      </trkpt>
      <trkpt lat="42.334960000" lon="-2.559286000">
        <ele>1005.60</ele>
        <time>2012-05-12T10:53:21Z</time>
      </trkpt>
      <trkpt lat="42.334961000" lon="-2.559284000">
        <ele>1005.60</ele>
        <time>2012-05-12T10:53:22Z</time>
      </trkpt>
      <trkpt lat="42.334963000" lon="-2.559284000">
        <ele>1005.60</ele>
        <time>2012-05-12T10:53:22Z</time>
      </trkpt>
      <trkpt lat="42.334963000" lon="-2.559284000">
        <ele>1005.60</ele>
        <time>2012-05-12T10:53:24Z</time>
      </trkpt>
      <trkpt lat="42.334965000" lon="-2.559283000">
        <ele>1005.70</ele>
        <time>2012-05-12T10:53:26Z</time>
      </trkpt>
      <trkpt lat="42.334966000" lon="-2.559283000">
        <ele>1005.80</ele>
        <time>2012-05-12T10:53:29Z</time>
      </trkpt>
      <trkpt lat="42.334966000" lon="-2.559289000">
        <ele>1005.80</ele>
        <time>2012-05-12T10:53:36Z</time>
      </trkpt>
      <trkpt lat="42.334973000" lon="-2.559333000">
        <ele>1006.10</ele>
        <time>2012-05-12T10:53:40Z</time>
      </trkpt>
      <trkpt lat="42.334970000" lon="-2.559366000">
        <ele>1006.20</ele>
        <time>2012-05-12T10:53:42Z</time>
      </trkpt>
      <trkpt lat="42.334971000" lon="-2.559384000">
        <ele>1006.20</ele>
        <time>2012-05-12T10:53:43Z</time>
      </trkpt>
      <trkpt lat="42.334995000" lon="-2.559466000">
        <ele>1007.10</ele>
        <time>2012-05-12T10:53:47Z</time>
      </trkpt>
      <trkpt lat="42.334998000" lon="-2.559488000">
        <ele>1007.20</ele>
        <time>2012-05-12T10:53:48Z</time>
      </trkpt>
      <trkpt lat="42.335015000" lon="-2.559539000">
        <ele>1008.00</ele>
        <time>2012-05-12T10:53:52Z</time>
      </trkpt>
      <trkpt lat="42.335020000" lon="-2.559558000">
        <ele>1008.20</ele>
        <time>2012-05-12T10:53:52Z</time>
      </trkpt>
      <trkpt lat="42.335063000" lon="-2.559693000">
        <ele>1010.70</ele>
        <time>2012-05-12T10:54:01Z</time>
      </trkpt>
      <trkpt lat="42.335073000" lon="-2.559739000">
        <ele>1011.50</ele>
        <time>2012-05-12T10:54:04Z</time>
      </trkpt>
      <trkpt lat="42.335095000" lon="-2.559898000">
        <ele>1013.70</ele>
        <time>2012-05-12T10:54:13Z</time>
      </trkpt>
      <trkpt lat="42.335100000" lon="-2.559918000">
        <ele>1014.00</ele>
        <time>2012-05-12T10:54:13Z</time>
      </trkpt>
      <trkpt lat="42.335105000" lon="-2.559989000">
        <ele>1014.90</ele>
        <time>2012-05-12T10:54:18Z</time>
      </trkpt>
      <trkpt lat="42.335130000" lon="-2.560109000">
        <ele>1016.80</ele>
        <time>2012-05-12T10:54:25Z</time>
      </trkpt>
      <trkpt lat="42.335130000" lon="-2.560128000">
        <ele>1017.00</ele>
        <time>2012-05-12T10:54:25Z</time>
      </trkpt>
      <trkpt lat="42.335141000" lon="-2.560179000">
        <ele>1017.80</ele>
        <time>2012-05-12T10:54:29Z</time>
      </trkpt>
      <trkpt lat="42.335148000" lon="-2.560196000">
        <ele>1018.20</ele>
        <time>2012-05-12T10:54:30Z</time>
      </trkpt>
      <trkpt lat="42.335185000" lon="-2.560336000">
        <ele>1020.80</ele>
        <time>2012-05-12T10:54:39Z</time>
      </trkpt>
      <trkpt lat="42.335185000" lon="-2.560353000">
        <ele>1021.00</ele>
        <time>2012-05-12T10:54:39Z</time>
      </trkpt>
      <trkpt lat="42.335198000" lon="-2.560416000">
        <ele>1022.00</ele>
        <time>2012-05-12T10:54:44Z</time>
      </trkpt>
      <trkpt lat="42.335200000" lon="-2.560433000">
        <ele>1022.30</ele>
        <time>2012-05-12T10:54:44Z</time>
      </trkpt>
      <trkpt lat="42.335211000" lon="-2.560484000">
        <ele>1023.40</ele>
        <time>2012-05-12T10:54:48Z</time>
      </trkpt>
      <trkpt lat="42.335240000" lon="-2.560691000">
        <ele>1027.50</ele>
        <time>2012-05-12T10:55:00Z</time>
      </trkpt>
      <trkpt lat="42.335240000" lon="-2.560708000">
        <ele>1027.60</ele>
        <time>2012-05-12T10:55:00Z</time>
      </trkpt>
      <trkpt lat="42.335243000" lon="-2.560739000">
        <ele>1028.40</ele>
        <time>2012-05-12T10:55:02Z</time>
      </trkpt>
      <trkpt lat="42.335243000" lon="-2.560756000">
        <ele>1028.60</ele>
        <time>2012-05-12T10:55:03Z</time>
      </trkpt>
      <trkpt lat="42.335241000" lon="-2.560773000">
        <ele>1028.90</ele>
        <time>2012-05-12T10:55:05Z</time>
      </trkpt>
      <trkpt lat="42.335236000" lon="-2.560789000">
        <ele>1029.00</ele>
        <time>2012-05-12T10:55:05Z</time>
      </trkpt>
      <trkpt lat="42.335233000" lon="-2.560821000">
        <ele>1029.40</ele>
        <time>2012-05-12T10:55:07Z</time>
      </trkpt>
      <trkpt lat="42.335233000" lon="-2.560839000">
        <ele>1029.60</ele>
        <time>2012-05-12T10:55:09Z</time>
      </trkpt>
      <trkpt lat="42.335223000" lon="-2.560938000">
        <ele>1030.80</ele>
        <time>2012-05-12T10:55:14Z</time>
      </trkpt>
      <trkpt lat="42.335226000" lon="-2.560971000">
        <ele>1031.30</ele>
        <time>2012-05-12T10:55:17Z</time>
      </trkpt>
      <trkpt lat="42.335223000" lon="-2.561004000">
        <ele>1031.70</ele>
        <time>2012-05-12T10:55:19Z</time>
      </trkpt>
      <trkpt lat="42.335226000" lon="-2.561021000">
        <ele>1032.00</ele>
        <time>2012-05-12T10:55:19Z</time>
      </trkpt>
      <trkpt lat="42.335226000" lon="-2.561053000">
        <ele>1032.50</ele>
        <time>2012-05-12T10:55:21Z</time>
      </trkpt>
      <trkpt lat="42.335228000" lon="-2.561069000">
        <ele>1032.80</ele>
        <time>2012-05-12T10:55:23Z</time>
      </trkpt>
      <trkpt lat="42.335220000" lon="-2.561153000">
        <ele>1033.90</ele>
        <time>2012-05-12T10:55:28Z</time>
      </trkpt>
      <trkpt lat="42.335220000" lon="-2.561199000">
        <ele>1034.50</ele>
        <time>2012-05-12T10:55:31Z</time>
      </trkpt>
      <trkpt lat="42.335236000" lon="-2.561298000">
        <ele>1036.70</ele>
        <time>2012-05-12T10:55:36Z</time>
      </trkpt>
      <trkpt lat="42.335238000" lon="-2.561349000">
        <ele>1038.10</ele>
        <time>2012-05-12T10:55:40Z</time>
      </trkpt>
      <trkpt lat="42.335241000" lon="-2.561368000">
        <ele>1038.60</ele>
        <time>2012-05-12T10:55:40Z</time>
      </trkpt>
      <trkpt lat="42.335246000" lon="-2.561383000">
        <ele>1039.10</ele>
        <time>2012-05-12T10:55:42Z</time>
      </trkpt>
      <trkpt lat="42.335248000" lon="-2.561398000">
        <ele>1039.60</ele>
        <time>2012-05-12T10:55:42Z</time>
      </trkpt>
      <trkpt lat="42.335253000" lon="-2.561411000">
        <ele>1040.00</ele>
        <time>2012-05-12T10:55:43Z</time>
      </trkpt>
      <trkpt lat="42.335255000" lon="-2.561426000">
        <ele>1040.50</ele>
        <time>2012-05-12T10:55:45Z</time>
      </trkpt>
      <trkpt lat="42.335260000" lon="-2.561441000">
        <ele>1041.00</ele>
        <time>2012-05-12T10:55:45Z</time>
      </trkpt>
      <trkpt lat="42.335273000" lon="-2.561513000">
        <ele>1043.00</ele>
        <time>2012-05-12T10:55:49Z</time>
      </trkpt>
      <trkpt lat="42.335286000" lon="-2.561543000">
        <ele>1044.20</ele>
        <time>2012-05-12T10:55:52Z</time>
      </trkpt>
      <trkpt lat="42.335333000" lon="-2.561593000">
        <ele>1046.80</ele>
        <time>2012-05-12T10:55:57Z</time>
      </trkpt>
      <trkpt lat="42.335355000" lon="-2.561601000">
        <ele>1047.70</ele>
        <time>2012-05-12T10:55:59Z</time>
      </trkpt>
      <trkpt lat="42.335375000" lon="-2.561586000">
        <ele>1048.20</ele>
        <time>2012-05-12T10:56:01Z</time>
      </trkpt>
      <trkpt lat="42.335381000" lon="-2.561576000">
        <ele>1048.20</ele>
        <time>2012-05-12T10:56:01Z</time>
      </trkpt>
      <trkpt lat="42.335416000" lon="-2.561546000">
        <ele>1048.60</ele>
        <time>2012-05-12T10:56:06Z</time>
      </trkpt>
      <trkpt lat="42.335463000" lon="-2.561486000">
        <ele>1048.30</ele>
        <time>2012-05-12T10:56:11Z</time>
      </trkpt>
      <trkpt lat="42.335493000" lon="-2.561464000">
        <ele>1048.20</ele>
        <time>2012-05-12T10:56:15Z</time>
      </trkpt>
      <trkpt lat="42.335536000" lon="-2.561419000">
        <ele>1048.00</ele>
        <time>2012-05-12T10:56:18Z</time>
      </trkpt>
      <trkpt lat="42.335576000" lon="-2.561389000">
        <ele>1048.00</ele>
        <time>2012-05-12T10:56:22Z</time>
      </trkpt>
      <trkpt lat="42.335625000" lon="-2.561363000">
        <ele>1048.10</ele>
        <time>2012-05-12T10:56:25Z</time>
      </trkpt>
      <trkpt lat="42.335691000" lon="-2.561348000">
        <ele>1048.80</ele>
        <time>2012-05-12T10:56:29Z</time>
      </trkpt>
      <trkpt lat="42.335751000" lon="-2.561358000">
        <ele>1050.00</ele>
        <time>2012-05-12T10:56:32Z</time>
      </trkpt>
      <trkpt lat="42.335768000" lon="-2.561364000">
        <ele>1050.30</ele>
        <time>2012-05-12T10:56:34Z</time>
      </trkpt>
      <trkpt lat="42.335813000" lon="-2.561398000">
        <ele>1051.70</ele>
        <time>2012-05-12T10:56:36Z</time>
      </trkpt>
      <trkpt lat="42.335843000" lon="-2.561426000">
        <ele>1052.70</ele>
        <time>2012-05-12T10:56:39Z</time>
      </trkpt>
      <trkpt lat="42.335928000" lon="-2.561549000">
        <ele>1056.80</ele>
        <time>2012-05-12T10:56:46Z</time>
      </trkpt>
      <trkpt lat="42.335961000" lon="-2.561611000">
        <ele>1058.60</ele>
        <time>2012-05-12T10:56:48Z</time>
      </trkpt>
      <trkpt lat="42.335970000" lon="-2.561634000">
        <ele>1059.30</ele>
        <time>2012-05-12T10:56:50Z</time>
      </trkpt>
      <trkpt lat="42.335991000" lon="-2.561674000">
        <ele>1060.50</ele>
        <time>2012-05-12T10:56:51Z</time>
      </trkpt>
      <trkpt lat="42.336013000" lon="-2.561739000">
        <ele>1062.30</ele>
        <time>2012-05-12T10:56:55Z</time>
      </trkpt>
      <trkpt lat="42.336023000" lon="-2.561759000">
        <ele>1062.90</ele>
        <time>2012-05-12T10:56:55Z</time>
      </trkpt>
      <trkpt lat="42.336191000" lon="-2.562363000">
        <ele>1079.40</ele>
        <time>2012-05-12T10:57:23Z</time>
      </trkpt>
      <trkpt lat="42.336195000" lon="-2.562384000">
        <ele>1079.70</ele>
        <time>2012-05-12T10:57:23Z</time>
      </trkpt>
      <trkpt lat="42.336296000" lon="-2.562763000">
        <ele>1089.40</ele>
        <time>2012-05-12T10:57:40Z</time>
      </trkpt>
      <trkpt lat="42.336301000" lon="-2.562783000">
        <ele>1089.70</ele>
        <time>2012-05-12T10:57:40Z</time>
      </trkpt>
      <trkpt lat="42.336455000" lon="-2.563079000">
        <ele>1092.40</ele>
        <time>2012-05-12T10:57:56Z</time>
      </trkpt>
      <trkpt lat="42.336483000" lon="-2.563139000">
        <ele>1092.90</ele>
        <time>2012-05-12T10:57:59Z</time>
      </trkpt>
      <trkpt lat="42.336531000" lon="-2.563226000">
        <ele>1093.50</ele>
        <time>2012-05-12T10:58:05Z</time>
      </trkpt>
      <trkpt lat="42.336576000" lon="-2.563279000">
        <ele>1093.60</ele>
        <time>2012-05-12T10:58:08Z</time>
      </trkpt>
      <trkpt lat="42.336703000" lon="-2.563406000">
        <ele>1092.90</ele>
        <time>2012-05-12T10:58:20Z</time>
      </trkpt>
      <trkpt lat="42.336746000" lon="-2.563476000">
        <ele>1093.00</ele>
        <time>2012-05-12T10:58:24Z</time>
      </trkpt>
      <trkpt lat="42.336861000" lon="-2.563653000">
        <ele>1093.80</ele>
        <time>2012-05-12T10:58:32Z</time>
      </trkpt>
      <trkpt lat="42.336876000" lon="-2.563669000">
        <ele>1093.80</ele>
        <time>2012-05-12T10:58:34Z</time>
      </trkpt>
      <trkpt lat="42.337071000" lon="-2.563836000">
        <ele>1093.60</ele>
        <time>2012-05-12T10:58:46Z</time>
      </trkpt>
      <trkpt lat="42.337113000" lon="-2.563886000">
        <ele>1094.50</ele>
        <time>2012-05-12T10:58:48Z</time>
      </trkpt>
      <trkpt lat="42.337125000" lon="-2.563904000">
        <ele>1094.90</ele>
        <time>2012-05-12T10:58:50Z</time>
      </trkpt>
      <trkpt lat="42.337318000" lon="-2.564171000">
        <ele>1100.60</ele>
        <time>2012-05-12T10:59:04Z</time>
      </trkpt>
      <trkpt lat="42.337416000" lon="-2.564356000">
        <ele>1104.60</ele>
        <time>2012-05-12T10:59:14Z</time>
      </trkpt>
      <trkpt lat="42.337730000" lon="-2.564769000">
        <ele>1108.10</ele>
        <time>2012-05-12T10:59:37Z</time>
      </trkpt>
      <trkpt lat="42.337741000" lon="-2.564781000">
        <ele>1108.10</ele>
        <time>2012-05-12T10:59:39Z</time>
      </trkpt>
      <trkpt lat="42.337906000" lon="-2.564903000">
        <ele>1106.70</ele>
        <time>2012-05-12T10:59:51Z</time>
      </trkpt>
      <trkpt lat="42.338010000" lon="-2.565006000">
        <ele>1106.50</ele>
        <time>2012-05-12T10:59:58Z</time>
      </trkpt>
      <trkpt lat="42.338021000" lon="-2.565023000">
        <ele>1106.50</ele>
        <time>2012-05-12T11:00:00Z</time>
      </trkpt>
      <trkpt lat="42.338035000" lon="-2.565038000">
        <ele>1106.60</ele>
        <time>2012-05-12T11:00:01Z</time>
      </trkpt>
      <trkpt lat="42.338113000" lon="-2.565194000">
        <ele>1108.10</ele>
        <time>2012-05-12T11:00:08Z</time>
      </trkpt>
      <trkpt lat="42.338141000" lon="-2.565319000">
        <ele>1110.20</ele>
        <time>2012-05-12T11:00:15Z</time>
      </trkpt>
      <trkpt lat="42.338143000" lon="-2.565383000">
        <ele>1111.60</ele>
        <time>2012-05-12T11:00:17Z</time>
      </trkpt>
      <trkpt lat="42.338146000" lon="-2.565404000">
        <ele>1112.10</ele>
        <time>2012-05-12T11:00:19Z</time>
      </trkpt>
      <trkpt lat="42.338143000" lon="-2.565486000">
        <ele>1113.90</ele>
        <time>2012-05-12T11:00:22Z</time>
      </trkpt>
      <trkpt lat="42.338145000" lon="-2.565508000">
        <ele>1114.40</ele>
        <time>2012-05-12T11:00:24Z</time>
      </trkpt>
      <trkpt lat="42.338143000" lon="-2.565614000">
        <ele>1116.70</ele>
        <time>2012-05-12T11:00:29Z</time>
      </trkpt>
      <trkpt lat="42.338158000" lon="-2.565716000">
        <ele>1118.30</ele>
        <time>2012-05-12T11:00:34Z</time>
      </trkpt>
      <trkpt lat="42.338215000" lon="-2.565919000">
        <ele>1120.50</ele>
        <time>2012-05-12T11:00:45Z</time>
      </trkpt>
      <trkpt lat="42.338218000" lon="-2.565941000">
        <ele>1120.70</ele>
        <time>2012-05-12T11:00:45Z</time>
      </trkpt>
      <trkpt lat="42.338236000" lon="-2.566019000">
        <ele>1121.70</ele>
        <time>2012-05-12T11:00:50Z</time>
      </trkpt>
      <trkpt lat="42.338313000" lon="-2.566206000">
        <ele>1122.80</ele>
        <time>2012-05-12T11:00:59Z</time>
      </trkpt>
      <trkpt lat="42.338346000" lon="-2.566271000">
        <ele>1122.80</ele>
        <time>2012-05-12T11:01:04Z</time>
      </trkpt>
      <trkpt lat="42.338350000" lon="-2.566288000">
        <ele>1122.80</ele>
        <time>2012-05-12T11:01:04Z</time>
      </trkpt>
      <trkpt lat="42.338451000" lon="-2.566556000">
        <ele>1122.60</ele>
        <time>2012-05-12T11:01:18Z</time>
      </trkpt>
      <trkpt lat="42.338456000" lon="-2.566576000">
        <ele>1122.60</ele>
        <time>2012-05-12T11:01:20Z</time>
      </trkpt>
      <trkpt lat="42.338486000" lon="-2.566646000">
        <ele>1122.50</ele>
        <time>2012-05-12T11:01:23Z</time>
      </trkpt>
      <trkpt lat="42.338573000" lon="-2.566956000">
        <ele>1123.50</ele>
        <time>2012-05-12T11:01:39Z</time>
      </trkpt>
      <trkpt lat="42.338576000" lon="-2.566978000">
        <ele>1123.60</ele>
        <time>2012-05-12T11:01:41Z</time>
      </trkpt>
      <trkpt lat="42.338610000" lon="-2.567091000">
        <ele>1124.00</ele>
        <time>2012-05-12T11:01:46Z</time>
      </trkpt>
      <trkpt lat="42.338613000" lon="-2.567111000">
        <ele>1124.00</ele>
        <time>2012-05-12T11:01:48Z</time>
      </trkpt>
      <trkpt lat="42.338641000" lon="-2.567214000">
        <ele>1124.00</ele>
        <time>2012-05-12T11:01:53Z</time>
      </trkpt>
      <trkpt lat="42.338653000" lon="-2.567279000">
        <ele>1124.00</ele>
        <time>2012-05-12T11:01:56Z</time>
      </trkpt>
      <trkpt lat="42.338660000" lon="-2.567299000">
        <ele>1124.00</ele>
        <time>2012-05-12T11:01:56Z</time>
      </trkpt>
      <trkpt lat="42.338713000" lon="-2.567564000">
        <ele>1124.30</ele>
        <time>2012-05-12T11:02:10Z</time>
      </trkpt>
      <trkpt lat="42.338718000" lon="-2.567604000">
        <ele>1124.40</ele>
        <time>2012-05-12T11:02:12Z</time>
      </trkpt>
      <trkpt lat="42.338726000" lon="-2.567641000">
        <ele>1124.40</ele>
        <time>2012-05-12T11:02:14Z</time>
      </trkpt>
      <trkpt lat="42.338731000" lon="-2.567679000">
        <ele>1124.60</ele>
        <time>2012-05-12T11:02:15Z</time>
      </trkpt>
      <trkpt lat="42.338781000" lon="-2.567918000">
        <ele>1124.90</ele>
        <time>2012-05-12T11:02:29Z</time>
      </trkpt>
      <trkpt lat="42.338788000" lon="-2.568099000">
        <ele>1125.20</ele>
        <time>2012-05-12T11:02:38Z</time>
      </trkpt>
      <trkpt lat="42.338771000" lon="-2.568354000">
        <ele>1126.30</ele>
        <time>2012-05-12T11:02:50Z</time>
      </trkpt>
      <trkpt lat="42.338768000" lon="-2.568374000">
        <ele>1126.40</ele>
        <time>2012-05-12T11:02:50Z</time>
      </trkpt>
      <trkpt lat="42.338761000" lon="-2.568471000">
        <ele>1126.90</ele>
        <time>2012-05-12T11:02:55Z</time>
      </trkpt>
      <trkpt lat="42.338753000" lon="-2.568529000">
        <ele>1127.20</ele>
        <time>2012-05-12T11:02:59Z</time>
      </trkpt>
      <trkpt lat="42.338730000" lon="-2.568854000">
        <ele>1129.60</ele>
        <time>2012-05-12T11:03:15Z</time>
      </trkpt>
      <trkpt lat="42.338731000" lon="-2.568874000">
        <ele>1129.90</ele>
        <time>2012-05-12T11:03:16Z</time>
      </trkpt>
      <trkpt lat="42.338725000" lon="-2.568934000">
        <ele>1130.70</ele>
        <time>2012-05-12T11:03:18Z</time>
      </trkpt>
      <trkpt lat="42.338726000" lon="-2.568956000">
        <ele>1131.00</ele>
        <time>2012-05-12T11:03:20Z</time>
      </trkpt>
      <trkpt lat="42.338711000" lon="-2.569099000">
        <ele>1133.10</ele>
        <time>2012-05-12T11:03:27Z</time>
      </trkpt>
      <trkpt lat="42.338703000" lon="-2.569141000">
        <ele>1133.90</ele>
        <time>2012-05-12T11:03:29Z</time>
      </trkpt>
      <trkpt lat="42.338701000" lon="-2.569184000">
        <ele>1134.50</ele>
        <time>2012-05-12T11:03:30Z</time>
      </trkpt>
      <trkpt lat="42.338671000" lon="-2.569441000">
        <ele>1138.60</ele>
        <time>2012-05-12T11:03:44Z</time>
      </trkpt>
      <trkpt lat="42.338671000" lon="-2.569458000">
        <ele>1138.80</ele>
        <time>2012-05-12T11:03:44Z</time>
      </trkpt>
      <trkpt lat="42.338660000" lon="-2.569563000">
        <ele>1140.40</ele>
        <time>2012-05-12T11:03:51Z</time>
      </trkpt>
      <trkpt lat="42.338661000" lon="-2.569616000">
        <ele>1141.20</ele>
        <time>2012-05-12T11:03:53Z</time>
      </trkpt>
      <trkpt lat="42.338660000" lon="-2.569634000">
        <ele>1141.40</ele>
        <time>2012-05-12T11:03:55Z</time>
      </trkpt>
      <trkpt lat="42.338655000" lon="-2.569684000">
        <ele>1142.80</ele>
        <time>2012-05-12T11:03:58Z</time>
      </trkpt>
      <trkpt lat="42.338658000" lon="-2.569736000">
        <ele>1143.80</ele>
        <time>2012-05-12T11:04:00Z</time>
      </trkpt>
      <trkpt lat="42.338655000" lon="-2.569774000">
        <ele>1144.60</ele>
        <time>2012-05-12T11:04:02Z</time>
      </trkpt>
      <trkpt lat="42.338650000" lon="-2.569791000">
        <ele>1145.10</ele>
        <time>2012-05-12T11:04:03Z</time>
      </trkpt>
      <trkpt lat="42.338641000" lon="-2.569829000">
        <ele>1146.00</ele>
        <time>2012-05-12T11:04:05Z</time>
      </trkpt>
      <trkpt lat="42.338635000" lon="-2.569848000">
        <ele>1146.60</ele>
        <time>2012-05-12T11:04:07Z</time>
      </trkpt>
      <trkpt lat="42.338626000" lon="-2.569863000">
        <ele>1147.10</ele>
        <time>2012-05-12T11:04:07Z</time>
      </trkpt>
      <trkpt lat="42.338595000" lon="-2.569901000">
        <ele>1148.70</ele>
        <time>2012-05-12T11:04:10Z</time>
      </trkpt>
      <trkpt lat="42.338578000" lon="-2.569931000">
        <ele>1149.80</ele>
        <time>2012-05-12T11:04:12Z</time>
      </trkpt>
      <trkpt lat="42.338566000" lon="-2.569939000">
        <ele>1150.30</ele>
        <time>2012-05-12T11:04:14Z</time>
      </trkpt>
      <trkpt lat="42.338510000" lon="-2.569958000">
        <ele>1152.20</ele>
        <time>2012-05-12T11:04:17Z</time>
      </trkpt>
      <trkpt lat="42.338481000" lon="-2.569953000">
        <ele>1152.90</ele>
        <time>2012-05-12T11:04:19Z</time>
      </trkpt>
      <trkpt lat="42.338445000" lon="-2.569924000">
        <ele>1153.60</ele>
        <time>2012-05-12T11:04:23Z</time>
      </trkpt>
      <trkpt lat="42.338423000" lon="-2.569898000">
        <ele>1153.90</ele>
        <time>2012-05-12T11:04:24Z</time>
      </trkpt>
      <trkpt lat="42.338393000" lon="-2.569836000">
        <ele>1153.90</ele>
        <time>2012-05-12T11:04:28Z</time>
      </trkpt>
      <trkpt lat="42.338380000" lon="-2.569788000">
        <ele>1153.70</ele>
        <time>2012-05-12T11:04:31Z</time>
      </trkpt>
      <trkpt lat="42.338376000" lon="-2.569766000">
        <ele>1153.50</ele>
        <time>2012-05-12T11:04:33Z</time>
      </trkpt>
      <trkpt lat="42.338375000" lon="-2.569706000">
        <ele>1152.80</ele>
        <time>2012-05-12T11:04:35Z</time>
      </trkpt>
      <trkpt lat="42.338380000" lon="-2.569619000">
        <ele>1151.40</ele>
        <time>2012-05-12T11:04:40Z</time>
      </trkpt>
      <trkpt lat="42.338376000" lon="-2.569509000">
        <ele>1150.10</ele>
        <time>2012-05-12T11:04:45Z</time>
      </trkpt>
      <trkpt lat="42.338381000" lon="-2.569201000">
        <ele>1147.00</ele>
        <time>2012-05-12T11:04:57Z</time>
      </trkpt>
      <trkpt lat="42.338378000" lon="-2.569173000">
        <ele>1146.90</ele>
        <time>2012-05-12T11:04:57Z</time>
      </trkpt>
      <trkpt lat="42.338333000" lon="-2.568999000">
        <ele>1146.60</ele>
        <time>2012-05-12T11:05:04Z</time>
      </trkpt>
      <trkpt lat="42.338261000" lon="-2.568864000">
        <ele>1148.00</ele>
        <time>2012-05-12T11:05:11Z</time>
      </trkpt>
      <trkpt lat="42.338255000" lon="-2.568844000">
        <ele>1148.10</ele>
        <time>2012-05-12T11:05:13Z</time>
      </trkpt>
      <trkpt lat="42.338233000" lon="-2.568803000">
        <ele>1148.60</ele>
        <time>2012-05-12T11:05:15Z</time>
      </trkpt>
      <trkpt lat="42.338211000" lon="-2.568711000">
        <ele>1149.00</ele>
        <time>2012-05-12T11:05:18Z</time>
      </trkpt>
      <trkpt lat="42.338175000" lon="-2.568421000">
        <ele>1149.00</ele>
        <time>2012-05-12T11:05:29Z</time>
      </trkpt>
      <trkpt lat="42.338140000" lon="-2.568301000">
        <ele>1149.60</ele>
        <time>2012-05-12T11:05:34Z</time>
      </trkpt>
      <trkpt lat="42.338061000" lon="-2.568113000">
        <ele>1151.50</ele>
        <time>2012-05-12T11:05:43Z</time>
      </trkpt>
      <trkpt lat="42.338026000" lon="-2.568061000">
        <ele>1152.40</ele>
        <time>2012-05-12T11:05:46Z</time>
      </trkpt>
      <trkpt lat="42.337653000" lon="-2.567288000">
        <ele>1158.80</ele>
        <time>2012-05-12T11:06:23Z</time>
      </trkpt>
      <trkpt lat="42.337646000" lon="-2.567273000">
        <ele>1158.80</ele>
        <time>2012-05-12T11:06:24Z</time>
      </trkpt>
      <trkpt lat="42.337546000" lon="-2.567086000">
        <ele>1159.90</ele>
        <time>2012-05-12T11:06:35Z</time>
      </trkpt>
      <trkpt lat="42.337445000" lon="-2.566938000">
        <ele>1161.00</ele>
        <time>2012-05-12T11:06:44Z</time>
      </trkpt>
      <trkpt lat="42.337431000" lon="-2.566903000">
        <ele>1161.10</ele>
        <time>2012-05-12T11:06:45Z</time>
      </trkpt>
      <trkpt lat="42.337348000" lon="-2.566768000">
        <ele>1161.60</ele>
        <time>2012-05-12T11:06:52Z</time>
      </trkpt>
      <trkpt lat="42.336945000" lon="-2.566339000">
        <ele>1167.10</ele>
        <time>2012-05-12T11:07:17Z</time>
      </trkpt>
      <trkpt lat="42.336726000" lon="-2.566178000">
        <ele>1170.40</ele>
        <time>2012-05-12T11:07:31Z</time>
      </trkpt>
      <trkpt lat="42.336713000" lon="-2.566161000">
        <ele>1170.40</ele>
        <time>2012-05-12T11:07:31Z</time>
      </trkpt>
      <trkpt lat="42.336648000" lon="-2.566086000">
        <ele>1170.50</ele>
        <time>2012-05-12T11:07:36Z</time>
      </trkpt>
      <trkpt lat="42.336630000" lon="-2.566078000">
        <ele>1170.70</ele>
        <time>2012-05-12T11:07:38Z</time>
      </trkpt>
      <trkpt lat="42.336610000" lon="-2.566073000">
        <ele>1171.00</ele>
        <time>2012-05-12T11:07:38Z</time>
      </trkpt>
      <trkpt lat="42.336591000" lon="-2.566073000">
        <ele>1171.40</ele>
        <time>2012-05-12T11:07:39Z</time>
      </trkpt>
      <trkpt lat="42.336558000" lon="-2.566086000">
        <ele>1172.50</ele>
        <time>2012-05-12T11:07:41Z</time>
      </trkpt>
      <trkpt lat="42.336546000" lon="-2.566099000">
        <ele>1173.10</ele>
        <time>2012-05-12T11:07:43Z</time>
      </trkpt>
      <trkpt lat="42.336541000" lon="-2.566118000">
        <ele>1173.60</ele>
        <time>2012-05-12T11:07:43Z</time>
      </trkpt>
      <trkpt lat="42.336543000" lon="-2.566136000">
        <ele>1174.10</ele>
        <time>2012-05-12T11:07:45Z</time>
      </trkpt>
      <trkpt lat="42.336556000" lon="-2.566191000">
        <ele>1175.30</ele>
        <time>2012-05-12T11:07:48Z</time>
      </trkpt>
      <trkpt lat="42.336565000" lon="-2.566208000">
        <ele>1175.50</ele>
        <time>2012-05-12T11:07:48Z</time>
      </trkpt>
      <trkpt lat="42.336586000" lon="-2.566239000">
        <ele>1175.80</ele>
        <time>2012-05-12T11:07:50Z</time>
      </trkpt>
      <trkpt lat="42.336610000" lon="-2.566293000">
        <ele>1176.30</ele>
        <time>2012-05-12T11:07:53Z</time>
      </trkpt>
      <trkpt lat="42.336635000" lon="-2.566376000">
        <ele>1177.20</ele>
        <time>2012-05-12T11:07:57Z</time>
      </trkpt>
      <trkpt lat="42.336756000" lon="-2.566729000">
        <ele>1180.40</ele>
        <time>2012-05-12T11:08:18Z</time>
      </trkpt>
      <trkpt lat="42.336761000" lon="-2.566743000">
        <ele>1180.50</ele>
        <time>2012-05-12T11:08:18Z</time>
      </trkpt>
      <trkpt lat="42.336763000" lon="-2.566753000">
        <ele>1180.60</ele>
        <time>2012-05-12T11:08:19Z</time>
      </trkpt>
      <trkpt lat="42.336768000" lon="-2.566764000">
        <ele>1180.70</ele>
        <time>2012-05-12T11:08:21Z</time>
      </trkpt>
      <trkpt lat="42.336773000" lon="-2.566791000">
        <ele>1180.90</ele>
        <time>2012-05-12T11:08:23Z</time>
      </trkpt>
      <trkpt lat="42.336786000" lon="-2.566826000">
        <ele>1181.10</ele>
        <time>2012-05-12T11:08:25Z</time>
      </trkpt>
      <trkpt lat="42.336905000" lon="-2.567189000">
        <ele>1182.70</ele>
        <time>2012-05-12T11:08:42Z</time>
      </trkpt>
      <trkpt lat="42.336908000" lon="-2.567211000">
        <ele>1182.80</ele>
        <time>2012-05-12T11:08:42Z</time>
      </trkpt>
      <trkpt lat="42.337178000" lon="-2.568258000">
        <ele>1184.80</ele>
        <time>2012-05-12T11:09:24Z</time>
      </trkpt>
      <trkpt lat="42.337180000" lon="-2.568298000">
        <ele>1184.90</ele>
        <time>2012-05-12T11:09:26Z</time>
      </trkpt>
      <trkpt lat="42.337181000" lon="-2.568309000">
        <ele>1185.00</ele>
        <time>2012-05-12T11:09:27Z</time>
      </trkpt>
      <trkpt lat="42.337180000" lon="-2.568316000">
        <ele>1185.10</ele>
        <time>2012-05-12T11:09:29Z</time>
      </trkpt>
      <trkpt lat="42.337183000" lon="-2.568324000">
        <ele>1185.20</ele>
        <time>2012-05-12T11:09:29Z</time>
      </trkpt>
      <trkpt lat="42.337185000" lon="-2.568328000">
        <ele>1185.20</ele>
        <time>2012-05-12T11:09:31Z</time>
      </trkpt>
      <trkpt lat="42.337183000" lon="-2.568331000">
        <ele>1185.20</ele>
        <time>2012-05-12T11:09:31Z</time>
      </trkpt>
      <trkpt lat="42.337183000" lon="-2.568333000">
        <ele>1185.30</ele>
        <time>2012-05-12T11:09:33Z</time>
      </trkpt>
      <trkpt lat="42.337181000" lon="-2.568333000">
        <ele>1185.30</ele>
        <time>2012-05-12T11:09:34Z</time>
      </trkpt>
      <trkpt lat="42.337180000" lon="-2.568336000">
        <ele>1185.40</ele>
        <time>2012-05-12T11:09:36Z</time>
      </trkpt>
      <trkpt lat="42.337180000" lon="-2.568338000">
        <ele>1185.40</ele>
        <time>2012-05-12T11:09:38Z</time>
      </trkpt>
      <trkpt lat="42.337178000" lon="-2.568338000">
        <ele>1185.50</ele>
        <time>2012-05-12T11:09:38Z</time>
      </trkpt>
      <trkpt lat="42.337178000" lon="-2.568341000">
        <ele>1185.50</ele>
        <time>2012-05-12T11:09:41Z</time>
      </trkpt>
      <trkpt lat="42.337176000" lon="-2.568341000">
        <ele>1185.60</ele>
        <time>2012-05-12T11:09:43Z</time>
      </trkpt>
      <trkpt lat="42.337178000" lon="-2.568341000">
        <ele>1185.60</ele>
        <time>2012-05-12T11:09:43Z</time>
      </trkpt>
      <trkpt lat="42.337180000" lon="-2.568343000">
        <ele>1185.50</ele>
        <time>2012-05-12T11:09:45Z</time>
      </trkpt>
      <trkpt lat="42.337176000" lon="-2.568344000">
        <ele>1185.60</ele>
        <time>2012-05-12T11:09:45Z</time>
      </trkpt>
      <trkpt lat="42.337176000" lon="-2.568348000">
        <ele>1185.60</ele>
        <time>2012-05-12T11:09:48Z</time>
      </trkpt>
      <trkpt lat="42.337176000" lon="-2.568348000">
        <ele>1185.60</ele>
        <time>2012-05-12T11:09:48Z</time>
      </trkpt>
      <trkpt lat="42.337178000" lon="-2.568348000">
        <ele>1185.60</ele>
        <time>2012-05-12T11:09:50Z</time>
      </trkpt>
      <trkpt lat="42.337178000" lon="-2.568349000">
        <ele>1185.60</ele>
        <time>2012-05-12T11:09:52Z</time>
      </trkpt>
      <trkpt lat="42.337176000" lon="-2.568348000">
        <ele>1185.60</ele>
        <time>2012-05-12T11:09:55Z</time>
      </trkpt>
      <trkpt lat="42.337176000" lon="-2.568346000">
        <ele>1185.60</ele>
        <time>2012-05-12T11:09:55Z</time>
      </trkpt>
      <trkpt lat="42.337175000" lon="-2.568346000">
        <ele>1185.70</ele>
        <time>2012-05-12T11:09:57Z</time>
      </trkpt>
      <trkpt lat="42.337173000" lon="-2.568341000">
        <ele>1185.70</ele>
        <time>2012-05-12T11:10:00Z</time>
      </trkpt>
      <trkpt lat="42.337171000" lon="-2.568341000">
        <ele>1185.80</ele>
        <time>2012-05-12T11:10:02Z</time>
      </trkpt>
      <trkpt lat="42.337170000" lon="-2.568339000">
        <ele>1185.80</ele>
        <time>2012-05-12T11:10:04Z</time>
      </trkpt>
      <trkpt lat="42.337170000" lon="-2.568336000">
        <ele>1185.80</ele>
        <time>2012-05-12T11:10:06Z</time>
      </trkpt>
      <trkpt lat="42.337173000" lon="-2.568336000">
        <ele>1185.70</ele>
        <time>2012-05-12T11:10:13Z</time>
      </trkpt>
      <trkpt lat="42.337173000" lon="-2.568338000">
        <ele>1185.70</ele>
        <time>2012-05-12T11:10:14Z</time>
      </trkpt>
      <trkpt lat="42.337175000" lon="-2.568338000">
        <ele>1185.70</ele>
        <time>2012-05-12T11:10:16Z</time>
      </trkpt>
      <trkpt lat="42.337176000" lon="-2.568338000">
        <ele>1185.60</ele>
        <time>2012-05-12T11:10:18Z</time>
      </trkpt>
      <trkpt lat="42.337178000" lon="-2.568338000">
        <ele>1185.60</ele>
        <time>2012-05-12T11:10:21Z</time>
      </trkpt>
      <trkpt lat="42.337178000" lon="-2.568338000">
        <ele>1185.60</ele>
        <time>2012-05-12T11:10:23Z</time>
      </trkpt>
      <trkpt lat="42.337180000" lon="-2.568338000">
        <ele>1185.50</ele>
        <time>2012-05-12T11:10:25Z</time>
      </trkpt>
      <trkpt lat="42.337181000" lon="-2.568338000">
        <ele>1185.40</ele>
        <time>2012-05-12T11:10:30Z</time>
      </trkpt>
      <trkpt lat="42.337183000" lon="-2.568338000">
        <ele>1185.40</ele>
        <time>2012-05-12T11:10:39Z</time>
      </trkpt>
      <trkpt lat="42.337183000" lon="-2.568338000">
        <ele>1185.40</ele>
        <time>2012-05-12T11:10:39Z</time>
      </trkpt>
      <trkpt lat="42.337186000" lon="-2.568338000">
        <ele>1185.30</ele>
        <time>2012-05-12T11:10:42Z</time>
      </trkpt>
      <trkpt lat="42.337186000" lon="-2.568338000">
        <ele>1185.30</ele>
        <time>2012-05-12T11:10:42Z</time>
      </trkpt>
      <trkpt lat="42.337190000" lon="-2.568338000">
        <ele>1185.20</ele>
        <time>2012-05-12T11:10:46Z</time>
      </trkpt>
      <trkpt lat="42.337190000" lon="-2.568339000">
        <ele>1185.10</ele>
        <time>2012-05-12T11:10:46Z</time>
      </trkpt>
      <trkpt lat="42.337191000" lon="-2.568339000">
        <ele>1185.10</ele>
        <time>2012-05-12T11:10:48Z</time>
      </trkpt>
      <trkpt lat="42.337193000" lon="-2.568339000">
        <ele>1185.00</ele>
        <time>2012-05-12T11:10:49Z</time>
      </trkpt>
      <trkpt lat="42.337195000" lon="-2.568339000">
        <ele>1185.00</ele>
        <time>2012-05-12T11:10:51Z</time>
      </trkpt>
      <trkpt lat="42.337196000" lon="-2.568339000">
        <ele>1184.90</ele>
        <time>2012-05-12T11:10:53Z</time>
      </trkpt>
      <trkpt lat="42.337198000" lon="-2.568339000">
        <ele>1184.90</ele>
        <time>2012-05-12T11:10:54Z</time>
      </trkpt>
      <trkpt lat="42.337200000" lon="-2.568339000">
        <ele>1184.80</ele>
        <time>2012-05-12T11:10:56Z</time>
      </trkpt>
      <trkpt lat="42.337200000" lon="-2.568341000">
        <ele>1184.80</ele>
        <time>2012-05-12T11:10:56Z</time>
      </trkpt>
      <trkpt lat="42.337201000" lon="-2.568341000">
        <ele>1184.70</ele>
        <time>2012-05-12T11:10:58Z</time>
      </trkpt>
      <trkpt lat="42.337200000" lon="-2.568341000">
        <ele>1184.70</ele>
        <time>2012-05-12T11:11:03Z</time>
      </trkpt>
      <trkpt lat="42.337198000" lon="-2.568341000">
        <ele>1184.80</ele>
        <time>2012-05-12T11:11:05Z</time>
      </trkpt>
      <trkpt lat="42.337200000" lon="-2.568343000">
        <ele>1184.80</ele>
        <time>2012-05-12T11:11:07Z</time>
      </trkpt>
      <trkpt lat="42.337201000" lon="-2.568344000">
        <ele>1184.70</ele>
        <time>2012-05-12T11:11:10Z</time>
      </trkpt>
      <trkpt lat="42.337201000" lon="-2.568348000">
        <ele>1184.70</ele>
        <time>2012-05-12T11:11:17Z</time>
      </trkpt>
      <trkpt lat="42.337201000" lon="-2.568348000">
        <ele>1184.70</ele>
        <time>2012-05-12T11:11:19Z</time>
      </trkpt>
      <trkpt lat="42.337201000" lon="-2.568349000">
        <ele>1184.80</ele>
        <time>2012-05-12T11:11:19Z</time>
      </trkpt>
      <trkpt lat="42.337201000" lon="-2.568348000">
        <ele>1184.80</ele>
        <time>2012-05-12T11:11:22Z</time>
      </trkpt>
      <trkpt lat="42.337203000" lon="-2.568344000">
        <ele>1184.70</ele>
        <time>2012-05-12T11:11:22Z</time>
      </trkpt>
      <trkpt lat="42.337205000" lon="-2.568344000">
        <ele>1184.70</ele>
        <time>2012-05-12T11:11:24Z</time>
      </trkpt>
      <trkpt lat="42.337205000" lon="-2.568348000">
        <ele>1184.60</ele>
        <time>2012-05-12T11:11:26Z</time>
      </trkpt>
      <trkpt lat="42.337208000" lon="-2.568353000">
        <ele>1184.60</ele>
        <time>2012-05-12T11:11:28Z</time>
      </trkpt>
      <trkpt lat="42.337205000" lon="-2.568353000">
        <ele>1184.60</ele>
        <time>2012-05-12T11:11:29Z</time>
      </trkpt>
      <trkpt lat="42.337205000" lon="-2.568353000">
        <ele>1184.60</ele>
        <time>2012-05-12T11:11:31Z</time>
      </trkpt>
      <trkpt lat="42.337206000" lon="-2.568358000">
        <ele>1184.70</ele>
        <time>2012-05-12T11:11:36Z</time>
      </trkpt>
      <trkpt lat="42.337208000" lon="-2.568358000">
        <ele>1184.60</ele>
        <time>2012-05-12T11:11:36Z</time>
      </trkpt>
      <trkpt lat="42.337211000" lon="-2.568361000">
        <ele>1184.60</ele>
        <time>2012-05-12T11:11:38Z</time>
      </trkpt>
      <trkpt lat="42.337218000" lon="-2.568373000">
        <ele>1184.40</ele>
        <time>2012-05-12T11:11:45Z</time>
      </trkpt>
      <trkpt lat="42.337218000" lon="-2.568374000">
        <ele>1184.40</ele>
        <time>2012-05-12T11:11:47Z</time>
      </trkpt>
      <trkpt lat="42.337220000" lon="-2.568374000">
        <ele>1184.40</ele>
        <time>2012-05-12T11:11:47Z</time>
      </trkpt>
      <trkpt lat="42.337220000" lon="-2.568374000">
        <ele>1184.40</ele>
        <time>2012-05-12T11:11:48Z</time>
      </trkpt>
      <trkpt lat="42.337220000" lon="-2.568378000">
        <ele>1184.30</ele>
        <time>2012-05-12T11:11:52Z</time>
      </trkpt>
      <trkpt lat="42.337220000" lon="-2.568379000">
        <ele>1184.40</ele>
        <time>2012-05-12T11:11:54Z</time>
      </trkpt>
      <trkpt lat="42.337221000" lon="-2.568379000">
        <ele>1184.30</ele>
        <time>2012-05-12T11:11:54Z</time>
      </trkpt>
      <trkpt lat="42.337221000" lon="-2.568381000">
        <ele>1184.30</ele>
        <time>2012-05-12T11:11:55Z</time>
      </trkpt>
      <trkpt lat="42.337220000" lon="-2.568383000">
        <ele>1184.40</ele>
        <time>2012-05-12T11:11:57Z</time>
      </trkpt>
      <trkpt lat="42.337221000" lon="-2.568383000">
        <ele>1184.40</ele>
        <time>2012-05-12T11:11:57Z</time>
      </trkpt>
      <trkpt lat="42.337221000" lon="-2.568383000">
        <ele>1184.40</ele>
        <time>2012-05-12T11:11:59Z</time>
      </trkpt>
      <trkpt lat="42.337225000" lon="-2.568386000">
        <ele>1184.30</ele>
        <time>2012-05-12T11:11:59Z</time>
      </trkpt>
      <trkpt lat="42.337235000" lon="-2.568393000">
        <ele>1184.10</ele>
        <time>2012-05-12T11:12:01Z</time>
      </trkpt>
      <trkpt lat="42.337268000" lon="-2.568449000">
        <ele>1183.50</ele>
        <time>2012-05-12T11:12:04Z</time>
      </trkpt>
      <trkpt lat="42.337316000" lon="-2.568599000">
        <ele>1182.80</ele>
        <time>2012-05-12T11:12:11Z</time>
      </trkpt>
      <trkpt lat="42.337345000" lon="-2.568673000">
        <ele>1182.40</ele>
        <time>2012-05-12T11:12:15Z</time>
      </trkpt>
      <trkpt lat="42.337368000" lon="-2.568769000">
        <ele>1182.20</ele>
        <time>2012-05-12T11:12:18Z</time>
      </trkpt>
      <trkpt lat="42.337378000" lon="-2.568796000">
        <ele>1182.10</ele>
        <time>2012-05-12T11:12:20Z</time>
      </trkpt>
      <trkpt lat="42.337388000" lon="-2.568849000">
        <ele>1182.00</ele>
        <time>2012-05-12T11:12:22Z</time>
      </trkpt>
      <trkpt lat="42.337391000" lon="-2.568954000">
        <ele>1182.40</ele>
        <time>2012-05-12T11:12:27Z</time>
      </trkpt>
      <trkpt lat="42.337410000" lon="-2.569039000">
        <ele>1182.40</ele>
        <time>2012-05-12T11:12:30Z</time>
      </trkpt>
      <trkpt lat="42.337436000" lon="-2.569109000">
        <ele>1182.10</ele>
        <time>2012-05-12T11:12:32Z</time>
      </trkpt>
      <trkpt lat="42.337501000" lon="-2.569693000">
        <ele>1183.00</ele>
        <time>2012-05-12T11:12:51Z</time>
      </trkpt>
      <trkpt lat="42.337508000" lon="-2.569721000">
        <ele>1183.00</ele>
        <time>2012-05-12T11:12:53Z</time>
      </trkpt>
      <trkpt lat="42.337530000" lon="-2.569776000">
        <ele>1182.70</ele>
        <time>2012-05-12T11:12:55Z</time>
      </trkpt>
      <trkpt lat="42.337740000" lon="-2.570144000">
        <ele>1177.10</ele>
        <time>2012-05-12T11:13:07Z</time>
      </trkpt>
      <trkpt lat="42.337755000" lon="-2.570189000">
        <ele>1176.60</ele>
        <time>2012-05-12T11:13:09Z</time>
      </trkpt>
      <trkpt lat="42.337796000" lon="-2.570441000">
        <ele>1176.10</ele>
        <time>2012-05-12T11:13:14Z</time>
      </trkpt>
      <trkpt lat="42.337841000" lon="-2.570549000">
        <ele>1175.90</ele>
        <time>2012-05-12T11:13:16Z</time>
      </trkpt>
      <trkpt lat="42.337938000" lon="-2.570711000">
        <ele>1175.20</ele>
        <time>2012-05-12T11:13:19Z</time>
      </trkpt>
      <trkpt lat="42.338026000" lon="-2.570811000">
        <ele>1175.50</ele>
        <time>2012-05-12T11:13:21Z</time>
      </trkpt>
      <trkpt lat="42.338050000" lon="-2.570826000">
        <ele>1175.60</ele>
        <time>2012-05-12T11:13:23Z</time>
      </trkpt>
      <trkpt lat="42.338128000" lon="-2.570844000">
        <ele>1175.60</ele>
        <time>2012-05-12T11:13:26Z</time>
      </trkpt>
      <trkpt lat="42.338490000" lon="-2.570763000">
        <ele>1171.00</ele>
        <time>2012-05-12T11:13:40Z</time>
      </trkpt>
      <trkpt lat="42.338550000" lon="-2.570733000">
        <ele>1169.80</ele>
        <time>2012-05-12T11:13:43Z</time>
      </trkpt>
      <trkpt lat="42.338868000" lon="-2.570673000">
        <ele>1166.30</ele>
        <time>2012-05-12T11:13:54Z</time>
      </trkpt>
      <trkpt lat="42.338891000" lon="-2.570663000">
        <ele>1166.30</ele>
        <time>2012-05-12T11:13:56Z</time>
      </trkpt>
      <trkpt lat="42.339060000" lon="-2.570616000">
        <ele>1166.00</ele>
        <time>2012-05-12T11:14:01Z</time>
      </trkpt>
      <trkpt lat="42.339085000" lon="-2.570601000">
        <ele>1165.80</ele>
        <time>2012-05-12T11:14:03Z</time>
      </trkpt>
      <trkpt lat="42.339213000" lon="-2.570569000">
        <ele>1165.60</ele>
        <time>2012-05-12T11:14:06Z</time>
      </trkpt>
      <trkpt lat="42.339253000" lon="-2.570571000">
        <ele>1165.70</ele>
        <time>2012-05-12T11:14:08Z</time>
      </trkpt>
      <trkpt lat="42.339355000" lon="-2.570556000">
        <ele>1166.10</ele>
        <time>2012-05-12T11:14:11Z</time>
      </trkpt>
      <trkpt lat="42.339411000" lon="-2.570534000">
        <ele>1166.00</ele>
        <time>2012-05-12T11:14:13Z</time>
      </trkpt>
      <trkpt lat="42.339548000" lon="-2.570518000">
        <ele>1166.20</ele>
        <time>2012-05-12T11:14:17Z</time>
      </trkpt>
      <trkpt lat="42.339853000" lon="-2.570549000">
        <ele>1167.70</ele>
        <time>2012-05-12T11:14:25Z</time>
      </trkpt>
      <trkpt lat="42.340063000" lon="-2.570539000">
        <ele>1167.60</ele>
        <time>2012-05-12T11:14:34Z</time>
      </trkpt>
      <trkpt lat="42.340126000" lon="-2.570529000">
        <ele>1167.30</ele>
        <time>2012-05-12T11:14:36Z</time>
      </trkpt>
      <trkpt lat="42.340186000" lon="-2.570538000">
        <ele>1167.50</ele>
        <time>2012-05-12T11:14:39Z</time>
      </trkpt>
      <trkpt lat="42.340221000" lon="-2.570536000">
        <ele>1167.50</ele>
        <time>2012-05-12T11:14:41Z</time>
      </trkpt>
      <trkpt lat="42.340240000" lon="-2.570546000">
        <ele>1167.70</ele>
        <time>2012-05-12T11:14:43Z</time>
      </trkpt>
      <trkpt lat="42.340258000" lon="-2.570549000">
        <ele>1167.80</ele>
        <time>2012-05-12T11:14:46Z</time>
      </trkpt>
      <trkpt lat="42.340266000" lon="-2.570549000">
        <ele>1167.90</ele>
        <time>2012-05-12T11:14:46Z</time>
      </trkpt>
      <trkpt lat="42.340283000" lon="-2.570551000">
        <ele>1167.90</ele>
        <time>2012-05-12T11:14:48Z</time>
      </trkpt>
      <trkpt lat="42.340286000" lon="-2.570553000">
        <ele>1168.00</ele>
        <time>2012-05-12T11:14:50Z</time>
      </trkpt>
      <trkpt lat="42.340291000" lon="-2.570549000">
        <ele>1167.90</ele>
        <time>2012-05-12T11:14:50Z</time>
      </trkpt>
      <trkpt lat="42.340301000" lon="-2.570541000">
        <ele>1167.80</ele>
        <time>2012-05-12T11:14:51Z</time>
      </trkpt>
      <trkpt lat="42.340346000" lon="-2.570521000">
        <ele>1167.30</ele>
        <time>2012-05-12T11:14:55Z</time>
      </trkpt>
      <trkpt lat="42.340433000" lon="-2.570513000">
        <ele>1166.80</ele>
        <time>2012-05-12T11:15:00Z</time>
      </trkpt>
      <trkpt lat="42.340445000" lon="-2.570509000">
        <ele>1166.80</ele>
        <time>2012-05-12T11:15:00Z</time>
      </trkpt>
      <trkpt lat="42.340473000" lon="-2.570509000">
        <ele>1166.40</ele>
        <time>2012-05-12T11:15:02Z</time>
      </trkpt>
      <trkpt lat="42.340501000" lon="-2.570508000">
        <ele>1166.10</ele>
        <time>2012-05-12T11:15:05Z</time>
      </trkpt>
      <trkpt lat="42.340511000" lon="-2.570509000">
        <ele>1166.00</ele>
        <time>2012-05-12T11:15:05Z</time>
      </trkpt>
      <trkpt lat="42.340531000" lon="-2.570514000">
        <ele>1165.90</ele>
        <time>2012-05-12T11:15:07Z</time>
      </trkpt>
      <trkpt lat="42.340545000" lon="-2.570518000">
        <ele>1165.80</ele>
        <time>2012-05-12T11:15:09Z</time>
      </trkpt>
      <trkpt lat="42.340551000" lon="-2.570521000">
        <ele>1165.80</ele>
        <time>2012-05-12T11:15:11Z</time>
      </trkpt>
      <trkpt lat="42.340558000" lon="-2.570528000">
        <ele>1165.80</ele>
        <time>2012-05-12T11:15:12Z</time>
      </trkpt>
      <trkpt lat="42.340566000" lon="-2.570534000">
        <ele>1165.90</ele>
        <time>2012-05-12T11:15:12Z</time>
      </trkpt>
      <trkpt lat="42.340580000" lon="-2.570551000">
        <ele>1166.10</ele>
        <time>2012-05-12T11:15:14Z</time>
      </trkpt>
      <trkpt lat="42.340585000" lon="-2.570559000">
        <ele>1166.30</ele>
        <time>2012-05-12T11:15:16Z</time>
      </trkpt>
      <trkpt lat="42.340590000" lon="-2.570568000">
        <ele>1166.40</ele>
        <time>2012-05-12T11:15:16Z</time>
      </trkpt>
      <trkpt lat="42.340595000" lon="-2.570574000">
        <ele>1166.60</ele>
        <time>2012-05-12T11:15:18Z</time>
      </trkpt>
      <trkpt lat="42.340600000" lon="-2.570581000">
        <ele>1166.70</ele>
        <time>2012-05-12T11:15:19Z</time>
      </trkpt>
      <trkpt lat="42.340603000" lon="-2.570584000">
        <ele>1166.80</ele>
        <time>2012-05-12T11:15:19Z</time>
      </trkpt>
      <trkpt lat="42.340605000" lon="-2.570589000">
        <ele>1166.90</ele>
        <time>2012-05-12T11:15:21Z</time>
      </trkpt>
      <trkpt lat="42.340606000" lon="-2.570596000">
        <ele>1167.00</ele>
        <time>2012-05-12T11:15:21Z</time>
      </trkpt>
      <trkpt lat="42.340606000" lon="-2.570613000">
        <ele>1167.30</ele>
        <time>2012-05-12T11:15:23Z</time>
      </trkpt>
      <trkpt lat="42.340606000" lon="-2.570623000">
        <ele>1167.60</ele>
        <time>2012-05-12T11:15:24Z</time>
      </trkpt>
      <trkpt lat="42.340610000" lon="-2.570628000">
        <ele>1167.70</ele>
        <time>2012-05-12T11:15:26Z</time>
      </trkpt>
      <trkpt lat="42.340613000" lon="-2.570628000">
        <ele>1167.80</ele>
        <time>2012-05-12T11:15:26Z</time>
      </trkpt>
      <trkpt lat="42.340613000" lon="-2.570626000">
        <ele>1167.80</ele>
        <time>2012-05-12T11:15:28Z</time>
      </trkpt>
      <trkpt lat="42.340615000" lon="-2.570624000">
        <ele>1167.80</ele>
        <time>2012-05-12T11:15:30Z</time>
      </trkpt>
      <trkpt lat="42.340616000" lon="-2.570624000">
        <ele>1167.80</ele>
        <time>2012-05-12T11:15:31Z</time>
      </trkpt>
      <trkpt lat="42.340618000" lon="-2.570623000">
        <ele>1167.70</ele>
        <time>2012-05-12T11:15:33Z</time>
      </trkpt>
      <trkpt lat="42.340620000" lon="-2.570623000">
        <ele>1167.70</ele>
        <time>2012-05-12T11:15:35Z</time>
      </trkpt>
      <trkpt lat="42.340620000" lon="-2.570623000">
        <ele>1167.70</ele>
        <time>2012-05-12T11:15:37Z</time>
      </trkpt>
      <trkpt lat="42.340620000" lon="-2.570621000">
        <ele>1167.60</ele>
        <time>2012-05-12T11:15:37Z</time>
      </trkpt>
      <trkpt lat="42.340620000" lon="-2.570621000">
        <ele>1167.60</ele>
        <time>2012-05-12T11:15:38Z</time>
      </trkpt>
      <trkpt lat="42.340621000" lon="-2.570644000">
        <ele>1168.00</ele>
        <time>2012-05-12T11:15:42Z</time>
      </trkpt>
      <trkpt lat="42.340625000" lon="-2.570651000">
        <ele>1168.20</ele>
        <time>2012-05-12T11:15:45Z</time>
      </trkpt>
      <trkpt lat="42.340626000" lon="-2.570651000">
        <ele>1168.20</ele>
        <time>2012-05-12T11:15:45Z</time>
      </trkpt>
      <trkpt lat="42.340626000" lon="-2.570651000">
        <ele>1168.20</ele>
        <time>2012-05-12T11:15:47Z</time>
      </trkpt>
      <trkpt lat="42.340628000" lon="-2.570651000">
        <ele>1168.30</ele>
        <time>2012-05-12T11:15:47Z</time>
      </trkpt>
      <trkpt lat="42.340628000" lon="-2.570651000">
        <ele>1168.30</ele>
        <time>2012-05-12T11:15:49Z</time>
      </trkpt>
      <trkpt lat="42.340628000" lon="-2.570649000">
        <ele>1168.20</ele>
        <time>2012-05-12T11:15:49Z</time>
      </trkpt>
      <trkpt lat="42.340630000" lon="-2.570648000">
        <ele>1168.20</ele>
        <time>2012-05-12T11:15:52Z</time>
      </trkpt>
      <trkpt lat="42.340630000" lon="-2.570646000">
        <ele>1168.10</ele>
        <time>2012-05-12T11:15:56Z</time>
      </trkpt>
      <trkpt lat="42.340630000" lon="-2.570648000">
        <ele>1168.10</ele>
        <time>2012-05-12T11:15:59Z</time>
      </trkpt>
      <trkpt lat="42.340635000" lon="-2.570659000">
        <ele>1168.30</ele>
        <time>2012-05-12T11:16:01Z</time>
      </trkpt>
      <trkpt lat="42.340633000" lon="-2.570679000">
        <ele>1168.70</ele>
        <time>2012-05-12T11:16:03Z</time>
      </trkpt>
      <trkpt lat="42.340631000" lon="-2.570683000">
        <ele>1168.80</ele>
        <time>2012-05-12T11:16:05Z</time>
      </trkpt>
      <trkpt lat="42.340630000" lon="-2.570686000">
        <ele>1169.10</ele>
        <time>2012-05-12T11:16:08Z</time>
      </trkpt>
      <trkpt lat="42.340628000" lon="-2.570686000">
        <ele>1169.10</ele>
        <time>2012-05-12T11:16:10Z</time>
      </trkpt>
      <trkpt lat="42.340628000" lon="-2.570684000">
        <ele>1169.10</ele>
        <time>2012-05-12T11:16:10Z</time>
      </trkpt>
      <trkpt lat="42.340631000" lon="-2.570684000">
        <ele>1169.10</ele>
        <time>2012-05-12T11:16:15Z</time>
      </trkpt>
      <trkpt lat="42.340633000" lon="-2.570684000">
        <ele>1169.00</ele>
        <time>2012-05-12T11:16:18Z</time>
      </trkpt>
      <trkpt lat="42.340636000" lon="-2.570684000">
        <ele>1169.00</ele>
        <time>2012-05-12T11:16:24Z</time>
      </trkpt>
      <trkpt lat="42.340638000" lon="-2.570686000">
        <ele>1169.00</ele>
        <time>2012-05-12T11:16:27Z</time>
      </trkpt>
      <trkpt lat="42.340641000" lon="-2.570686000">
        <ele>1169.00</ele>
        <time>2012-05-12T11:16:32Z</time>
      </trkpt>
      <trkpt lat="42.340645000" lon="-2.570689000">
        <ele>1169.00</ele>
        <time>2012-05-12T11:16:38Z</time>
      </trkpt>
      <trkpt lat="42.340648000" lon="-2.570694000">
        <ele>1169.00</ele>
        <time>2012-05-12T11:16:41Z</time>
      </trkpt>
      <trkpt lat="42.340648000" lon="-2.570693000">
        <ele>1169.00</ele>
        <time>2012-05-12T11:16:43Z</time>
      </trkpt>
      <trkpt lat="42.340651000" lon="-2.570696000">
        <ele>1169.00</ele>
        <time>2012-05-12T11:16:46Z</time>
      </trkpt>
      <trkpt lat="42.340653000" lon="-2.570696000">
        <ele>1169.00</ele>
        <time>2012-05-12T11:16:48Z</time>
      </trkpt>
      <trkpt lat="42.340655000" lon="-2.570699000">
        <ele>1169.10</ele>
        <time>2012-05-12T11:16:50Z</time>
      </trkpt>
      <trkpt lat="42.340656000" lon="-2.570701000">
        <ele>1169.10</ele>
        <time>2012-05-12T11:16:53Z</time>
      </trkpt>
      <trkpt lat="42.340661000" lon="-2.570704000">
        <ele>1169.10</ele>
        <time>2012-05-12T11:17:00Z</time>
      </trkpt>
      <trkpt lat="42.340663000" lon="-2.570708000">
        <ele>1169.10</ele>
        <time>2012-05-12T11:17:02Z</time>
      </trkpt>
      <trkpt lat="42.340663000" lon="-2.570708000">
        <ele>1169.10</ele>
        <time>2012-05-12T11:17:04Z</time>
      </trkpt>
      <trkpt lat="42.340671000" lon="-2.570716000">
        <ele>1169.20</ele>
        <time>2012-05-12T11:17:16Z</time>
      </trkpt>
      <trkpt lat="42.340673000" lon="-2.570718000">
        <ele>1169.30</ele>
        <time>2012-05-12T11:17:19Z</time>
      </trkpt>
      <trkpt lat="42.340676000" lon="-2.570721000">
        <ele>1169.30</ele>
        <time>2012-05-12T11:17:25Z</time>
      </trkpt>
      <trkpt lat="42.340675000" lon="-2.570728000">
        <ele>1169.50</ele>
        <time>2012-05-12T11:17:49Z</time>
      </trkpt>
      <trkpt lat="42.340673000" lon="-2.570728000">
        <ele>1169.50</ele>
        <time>2012-05-12T11:17:53Z</time>
      </trkpt>
      <trkpt lat="42.340673000" lon="-2.570726000">
        <ele>1169.50</ele>
        <time>2012-05-12T11:17:54Z</time>
      </trkpt>
      <trkpt lat="42.340670000" lon="-2.570726000">
        <ele>1169.50</ele>
        <time>2012-05-12T11:17:59Z</time>
      </trkpt>
      <trkpt lat="42.340670000" lon="-2.570724000">
        <ele>1169.50</ele>
        <time>2012-05-12T11:18:01Z</time>
      </trkpt>
      <trkpt lat="42.340665000" lon="-2.570723000">
        <ele>1169.50</ele>
        <time>2012-05-12T11:18:08Z</time>
      </trkpt>
      <trkpt lat="42.340663000" lon="-2.570719000">
        <ele>1169.50</ele>
        <time>2012-05-12T11:18:13Z</time>
      </trkpt>
      <trkpt lat="42.340660000" lon="-2.570719000">
        <ele>1169.50</ele>
        <time>2012-05-12T11:18:26Z</time>
      </trkpt>
      <trkpt lat="42.340661000" lon="-2.570723000">
        <ele>1169.60</ele>
        <time>2012-05-12T11:18:33Z</time>
      </trkpt>
      <trkpt lat="42.340661000" lon="-2.570728000">
        <ele>1169.60</ele>
        <time>2012-05-12T11:18:41Z</time>
      </trkpt>
      <trkpt lat="42.340661000" lon="-2.570733000">
        <ele>1169.70</ele>
        <time>2012-05-12T11:18:43Z</time>
      </trkpt>
      <trkpt lat="42.340663000" lon="-2.570734000">
        <ele>1169.80</ele>
        <time>2012-05-12T11:18:45Z</time>
      </trkpt>
      <trkpt lat="42.340670000" lon="-2.570749000">
        <ele>1169.90</ele>
        <time>2012-05-12T11:18:47Z</time>
      </trkpt>
      <trkpt lat="42.340670000" lon="-2.570754000">
        <ele>1170.00</ele>
        <time>2012-05-12T11:18:48Z</time>
      </trkpt>
      <trkpt lat="42.340670000" lon="-2.570756000">
        <ele>1170.10</ele>
        <time>2012-05-12T11:18:48Z</time>
      </trkpt>
      <trkpt lat="42.340668000" lon="-2.570758000">
        <ele>1170.20</ele>
        <time>2012-05-12T11:18:50Z</time>
      </trkpt>
      <trkpt lat="42.340666000" lon="-2.570758000">
        <ele>1170.20</ele>
        <time>2012-05-12T11:18:50Z</time>
      </trkpt>
      <trkpt lat="42.340666000" lon="-2.570758000">
        <ele>1170.20</ele>
        <time>2012-05-12T11:18:52Z</time>
      </trkpt>
      <trkpt lat="42.340666000" lon="-2.570759000">
        <ele>1170.30</ele>
        <time>2012-05-12T11:18:52Z</time>
      </trkpt>
      <trkpt lat="42.340668000" lon="-2.570766000">
        <ele>1170.40</ele>
        <time>2012-05-12T11:18:57Z</time>
      </trkpt>
      <trkpt lat="42.340666000" lon="-2.570774000">
        <ele>1170.50</ele>
        <time>2012-05-12T11:18:57Z</time>
      </trkpt>
      <trkpt lat="42.340665000" lon="-2.570784000">
        <ele>1170.70</ele>
        <time>2012-05-12T11:18:59Z</time>
      </trkpt>
      <trkpt lat="42.340665000" lon="-2.570789000">
        <ele>1170.90</ele>
        <time>2012-05-12T11:18:59Z</time>
      </trkpt>
      <trkpt lat="42.340666000" lon="-2.570793000">
        <ele>1171.00</ele>
        <time>2012-05-12T11:19:00Z</time>
      </trkpt>
      <trkpt lat="42.340665000" lon="-2.570798000">
        <ele>1171.20</ele>
        <time>2012-05-12T11:19:04Z</time>
      </trkpt>
      <trkpt lat="42.340665000" lon="-2.570804000">
        <ele>1171.40</ele>
        <time>2012-05-12T11:19:06Z</time>
      </trkpt>
      <trkpt lat="42.340665000" lon="-2.570816000">
        <ele>1171.50</ele>
        <time>2012-05-12T11:19:06Z</time>
      </trkpt>
      <trkpt lat="42.340681000" lon="-2.570878000">
        <ele>1172.50</ele>
        <time>2012-05-12T11:19:11Z</time>
      </trkpt>
      <trkpt lat="42.340683000" lon="-2.570893000">
        <ele>1172.70</ele>
        <time>2012-05-12T11:19:11Z</time>
      </trkpt>
      <trkpt lat="42.340718000" lon="-2.571003000">
        <ele>1174.60</ele>
        <time>2012-05-12T11:19:18Z</time>
      </trkpt>
      <trkpt lat="42.340753000" lon="-2.571119000">
        <ele>1176.50</ele>
        <time>2012-05-12T11:19:23Z</time>
      </trkpt>
      <trkpt lat="42.340761000" lon="-2.571138000">
        <ele>1176.70</ele>
        <time>2012-05-12T11:19:25Z</time>
      </trkpt>
      <trkpt lat="42.340773000" lon="-2.571176000">
        <ele>1177.20</ele>
        <time>2012-05-12T11:19:27Z</time>
      </trkpt>
      <trkpt lat="42.340923000" lon="-2.571529000">
        <ele>1176.90</ele>
        <time>2012-05-12T11:19:41Z</time>
      </trkpt>
      <trkpt lat="42.340978000" lon="-2.571751000">
        <ele>1175.90</ele>
        <time>2012-05-12T11:19:47Z</time>
      </trkpt>
      <trkpt lat="42.340981000" lon="-2.571781000">
        <ele>1175.90</ele>
        <time>2012-05-12T11:19:49Z</time>
      </trkpt>
      <trkpt lat="42.341001000" lon="-2.571868000">
        <ele>1175.50</ele>
        <time>2012-05-12T11:19:51Z</time>
      </trkpt>
      <trkpt lat="42.341011000" lon="-2.571969000">
        <ele>1175.40</ele>
        <time>2012-05-12T11:19:54Z</time>
      </trkpt>
      <trkpt lat="42.341011000" lon="-2.572041000">
        <ele>1175.50</ele>
        <time>2012-05-12T11:19:56Z</time>
      </trkpt>
      <trkpt lat="42.340998000" lon="-2.572114000">
        <ele>1176.00</ele>
        <time>2012-05-12T11:19:58Z</time>
      </trkpt>
      <trkpt lat="42.340938000" lon="-2.572276000">
        <ele>1177.60</ele>
        <time>2012-05-12T11:20:03Z</time>
      </trkpt>
      <trkpt lat="42.340825000" lon="-2.572549000">
        <ele>1181.60</ele>
        <time>2012-05-12T11:20:12Z</time>
      </trkpt>
      <trkpt lat="42.340818000" lon="-2.572588000">
        <ele>1181.70</ele>
        <time>2012-05-12T11:20:12Z</time>
      </trkpt>
      <trkpt lat="42.340773000" lon="-2.573258000">
        <ele>1182.40</ele>
        <time>2012-05-12T11:20:33Z</time>
      </trkpt>
      <trkpt lat="42.340735000" lon="-2.573478000">
        <ele>1183.80</ele>
        <time>2012-05-12T11:20:38Z</time>
      </trkpt>
      <trkpt lat="42.340655000" lon="-2.574531000">
        <ele>1191.50</ele>
        <time>2012-05-12T11:21:06Z</time>
      </trkpt>
      <trkpt lat="42.340673000" lon="-2.574621000">
        <ele>1192.00</ele>
        <time>2012-05-12T11:21:09Z</time>
      </trkpt>
      <trkpt lat="42.340686000" lon="-2.574651000">
        <ele>1192.30</ele>
        <time>2012-05-12T11:21:09Z</time>
      </trkpt>
      <trkpt lat="42.340708000" lon="-2.574716000">
        <ele>1193.10</ele>
        <time>2012-05-12T11:21:11Z</time>
      </trkpt>
      <trkpt lat="42.340781000" lon="-2.574834000">
        <ele>1194.20</ele>
        <time>2012-05-12T11:21:16Z</time>
      </trkpt>
      <trkpt lat="42.340803000" lon="-2.574858000">
        <ele>1194.40</ele>
        <time>2012-05-12T11:21:16Z</time>
      </trkpt>
      <trkpt lat="42.340891000" lon="-2.574909000">
        <ele>1194.30</ele>
        <time>2012-05-12T11:21:20Z</time>
      </trkpt>
      <trkpt lat="42.341205000" lon="-2.574964000">
        <ele>1190.10</ele>
        <time>2012-05-12T11:21:32Z</time>
      </trkpt>
      <trkpt lat="42.341293000" lon="-2.574963000">
        <ele>1188.80</ele>
        <time>2012-05-12T11:21:36Z</time>
      </trkpt>
      <trkpt lat="42.341360000" lon="-2.574968000">
        <ele>1188.30</ele>
        <time>2012-05-12T11:21:37Z</time>
      </trkpt>
      <trkpt lat="42.341798000" lon="-2.574931000">
        <ele>1184.30</ele>
        <time>2012-05-12T11:21:46Z</time>
      </trkpt>
      <trkpt lat="42.341870000" lon="-2.574934000">
        <ele>1183.80</ele>
        <time>2012-05-12T11:21:46Z</time>
      </trkpt>
      <trkpt lat="42.342135000" lon="-2.574899000">
        <ele>1181.00</ele>
        <time>2012-05-12T11:21:51Z</time>
      </trkpt>
      <trkpt lat="42.342188000" lon="-2.574879000">
        <ele>1179.90</ele>
        <time>2012-05-12T11:21:51Z</time>
      </trkpt>
      <trkpt lat="42.342236000" lon="-2.574873000">
        <ele>1178.90</ele>
        <time>2012-05-12T11:21:53Z</time>
      </trkpt>
      <trkpt lat="42.342465000" lon="-2.574883000">
        <ele>1176.30</ele>
        <time>2012-05-12T11:21:56Z</time>
      </trkpt>
      <trkpt lat="42.342535000" lon="-2.574883000">
        <ele>1175.60</ele>
        <time>2012-05-12T11:21:58Z</time>
      </trkpt>
      <trkpt lat="42.342963000" lon="-2.574759000">
        <ele>1168.70</ele>
        <time>2012-05-12T11:22:05Z</time>
      </trkpt>
      <trkpt lat="42.343026000" lon="-2.574759000">
        <ele>1167.80</ele>
        <time>2012-05-12T11:22:05Z</time>
      </trkpt>
      <trkpt lat="42.343448000" lon="-2.574823000">
        <ele>1162.70</ele>
        <time>2012-05-12T11:22:14Z</time>
      </trkpt>
      <trkpt lat="42.344001000" lon="-2.575151000">
        <ele>1154.50</ele>
        <time>2012-05-12T11:22:26Z</time>
      </trkpt>
      <trkpt lat="42.344048000" lon="-2.575191000">
        <ele>1153.80</ele>
        <time>2012-05-12T11:22:26Z</time>
      </trkpt>
      <trkpt lat="42.344333000" lon="-2.575481000">
        <ele>1146.50</ele>
        <time>2012-05-12T11:22:33Z</time>
      </trkpt>
      <trkpt lat="42.344390000" lon="-2.575509000">
        <ele>1144.80</ele>
        <time>2012-05-12T11:22:33Z</time>
      </trkpt>
      <trkpt lat="42.345021000" lon="-2.575619000">
        <ele>1126.10</ele>
        <time>2012-05-12T11:22:45Z</time>
      </trkpt>
      <trkpt lat="42.345326000" lon="-2.575511000">
        <ele>1116.60</ele>
        <time>2012-05-12T11:22:50Z</time>
      </trkpt>
      <trkpt lat="42.345336000" lon="-2.575511000">
        <ele>1115.90</ele>
        <time>2012-05-12T11:22:52Z</time>
      </trkpt>
      <trkpt lat="42.345341000" lon="-2.575509000">
        <ele>1115.50</ele>
        <time>2012-05-12T11:22:52Z</time>
      </trkpt>
      <trkpt lat="42.345343000" lon="-2.575509000">
        <ele>1115.20</ele>
        <time>2012-05-12T11:22:54Z</time>
      </trkpt>
      <trkpt lat="42.345345000" lon="-2.575511000">
        <ele>1115.00</ele>
        <time>2012-05-12T11:22:54Z</time>
      </trkpt>
      <trkpt lat="42.345346000" lon="-2.575511000">
        <ele>1114.90</ele>
        <time>2012-05-12T11:22:56Z</time>
      </trkpt>
      <trkpt lat="42.345350000" lon="-2.575511000">
        <ele>1114.80</ele>
        <time>2012-05-12T11:22:57Z</time>
      </trkpt>
      <trkpt lat="42.345351000" lon="-2.575511000">
        <ele>1114.70</ele>
        <time>2012-05-12T11:22:57Z</time>
      </trkpt>
      <trkpt lat="42.345353000" lon="-2.575511000">
        <ele>1114.60</ele>
        <time>2012-05-12T11:22:59Z</time>
      </trkpt>
      <trkpt lat="42.345355000" lon="-2.575511000">
        <ele>1114.60</ele>
        <time>2012-05-12T11:22:59Z</time>
      </trkpt>
      <trkpt lat="42.345356000" lon="-2.575509000">
        <ele>1114.50</ele>
        <time>2012-05-12T11:23:01Z</time>
      </trkpt>
      <trkpt lat="42.345365000" lon="-2.575509000">
        <ele>1114.40</ele>
        <time>2012-05-12T11:23:01Z</time>
      </trkpt>
      <trkpt lat="42.345366000" lon="-2.575509000">
        <ele>1114.30</ele>
        <time>2012-05-12T11:23:03Z</time>
      </trkpt>
      <trkpt lat="42.345368000" lon="-2.575508000">
        <ele>1114.20</ele>
        <time>2012-05-12T11:23:04Z</time>
      </trkpt>
      <trkpt lat="42.345366000" lon="-2.575508000">
        <ele>1114.20</ele>
        <time>2012-05-12T11:23:06Z</time>
      </trkpt>
      <trkpt lat="42.345366000" lon="-2.575514000">
        <ele>1114.20</ele>
        <time>2012-05-12T11:23:08Z</time>
      </trkpt>
      <trkpt lat="42.345366000" lon="-2.575516000">
        <ele>1114.10</ele>
        <time>2012-05-12T11:23:08Z</time>
      </trkpt>
      <trkpt lat="42.345368000" lon="-2.575519000">
        <ele>1114.10</ele>
        <time>2012-05-12T11:23:10Z</time>
      </trkpt>
      <trkpt lat="42.345365000" lon="-2.575524000">
        <ele>1114.10</ele>
        <time>2012-05-12T11:23:11Z</time>
      </trkpt>
      <trkpt lat="42.345365000" lon="-2.575524000">
        <ele>1114.10</ele>
        <time>2012-05-12T11:23:13Z</time>
      </trkpt>
      <trkpt lat="42.345366000" lon="-2.575526000">
        <ele>1114.10</ele>
        <time>2012-05-12T11:23:13Z</time>
      </trkpt>
      <trkpt lat="42.345366000" lon="-2.575528000">
        <ele>1114.10</ele>
        <time>2012-05-12T11:23:15Z</time>
      </trkpt>
      <trkpt lat="42.345368000" lon="-2.575529000">
        <ele>1114.10</ele>
        <time>2012-05-12T11:23:15Z</time>
      </trkpt>
      <trkpt lat="42.345368000" lon="-2.575533000">
        <ele>1114.10</ele>
        <time>2012-05-12T11:23:18Z</time>
      </trkpt>
      <trkpt lat="42.345365000" lon="-2.575544000">
        <ele>1114.10</ele>
        <time>2012-05-12T11:23:20Z</time>
      </trkpt>
      <trkpt lat="42.345361000" lon="-2.575559000">
        <ele>1114.20</ele>
        <time>2012-05-12T11:23:22Z</time>
      </trkpt>
      <trkpt lat="42.345361000" lon="-2.575569000">
        <ele>1114.20</ele>
        <time>2012-05-12T11:23:24Z</time>
      </trkpt>
      <trkpt lat="42.345363000" lon="-2.575586000">
        <ele>1114.10</ele>
        <time>2012-05-12T11:23:25Z</time>
      </trkpt>
      <trkpt lat="42.345366000" lon="-2.575596000">
        <ele>1114.00</ele>
        <time>2012-05-12T11:23:27Z</time>
      </trkpt>
      <trkpt lat="42.345368000" lon="-2.575606000">
        <ele>1114.00</ele>
        <time>2012-05-12T11:23:27Z</time>
      </trkpt>
      <trkpt lat="42.345371000" lon="-2.575616000">
        <ele>1113.90</ele>
        <time>2012-05-12T11:23:29Z</time>
      </trkpt>
      <trkpt lat="42.345371000" lon="-2.575626000">
        <ele>1113.80</ele>
        <time>2012-05-12T11:23:29Z</time>
      </trkpt>
      <trkpt lat="42.345373000" lon="-2.575634000">
        <ele>1113.70</ele>
        <time>2012-05-12T11:23:30Z</time>
      </trkpt>
      <trkpt lat="42.345371000" lon="-2.575638000">
        <ele>1113.70</ele>
        <time>2012-05-12T11:23:32Z</time>
      </trkpt>
      <trkpt lat="42.345370000" lon="-2.575648000">
        <ele>1113.70</ele>
        <time>2012-05-12T11:23:36Z</time>
      </trkpt>
      <trkpt lat="42.345371000" lon="-2.575654000">
        <ele>1113.70</ele>
        <time>2012-05-12T11:23:37Z</time>
      </trkpt>
      <trkpt lat="42.345373000" lon="-2.575661000">
        <ele>1113.60</ele>
        <time>2012-05-12T11:23:39Z</time>
      </trkpt>
      <trkpt lat="42.345375000" lon="-2.575671000">
        <ele>1113.60</ele>
        <time>2012-05-12T11:23:39Z</time>
      </trkpt>
      <trkpt lat="42.345376000" lon="-2.575678000">
        <ele>1113.50</ele>
        <time>2012-05-12T11:23:41Z</time>
      </trkpt>
      <trkpt lat="42.345376000" lon="-2.575686000">
        <ele>1113.50</ele>
        <time>2012-05-12T11:23:41Z</time>
      </trkpt>
      <trkpt lat="42.345373000" lon="-2.575694000">
        <ele>1113.50</ele>
        <time>2012-05-12T11:23:44Z</time>
      </trkpt>
      <trkpt lat="42.345373000" lon="-2.575704000">
        <ele>1113.50</ele>
        <time>2012-05-12T11:23:48Z</time>
      </trkpt>
      <trkpt lat="42.345366000" lon="-2.575718000">
        <ele>1113.60</ele>
        <time>2012-05-12T11:23:57Z</time>
      </trkpt>
      <trkpt lat="42.345363000" lon="-2.575719000">
        <ele>1113.70</ele>
        <time>2012-05-12T11:24:02Z</time>
      </trkpt>
      <trkpt lat="42.345361000" lon="-2.575719000">
        <ele>1113.70</ele>
        <time>2012-05-12T11:24:02Z</time>
      </trkpt>
      <trkpt lat="42.345361000" lon="-2.575719000">
        <ele>1113.70</ele>
        <time>2012-05-12T11:24:04Z</time>
      </trkpt>
      <trkpt lat="42.345360000" lon="-2.575719000">
        <ele>1113.80</ele>
        <time>2012-05-12T11:24:05Z</time>
      </trkpt>
      <trkpt lat="42.345363000" lon="-2.575719000">
        <ele>1113.80</ele>
        <time>2012-05-12T11:24:11Z</time>
      </trkpt>
      <trkpt lat="42.345363000" lon="-2.575716000">
        <ele>1113.80</ele>
        <time>2012-05-12T11:24:12Z</time>
      </trkpt>
      <trkpt lat="42.345363000" lon="-2.575716000">
        <ele>1113.80</ele>
        <time>2012-05-12T11:24:14Z</time>
      </trkpt>
      <trkpt lat="42.345363000" lon="-2.575713000">
        <ele>1113.70</ele>
        <time>2012-05-12T11:24:16Z</time>
      </trkpt>
      <trkpt lat="42.345361000" lon="-2.575713000">
        <ele>1113.80</ele>
        <time>2012-05-12T11:24:16Z</time>
      </trkpt>
      <trkpt lat="42.345361000" lon="-2.575696000">
        <ele>1113.80</ele>
        <time>2012-05-12T11:24:26Z</time>
      </trkpt>
      <trkpt lat="42.345360000" lon="-2.575696000">
        <ele>1113.90</ele>
        <time>2012-05-12T11:24:28Z</time>
      </trkpt>
      <trkpt lat="42.345360000" lon="-2.575694000">
        <ele>1113.90</ele>
        <time>2012-05-12T11:24:30Z</time>
      </trkpt>
      <trkpt lat="42.345355000" lon="-2.575689000">
        <ele>1114.00</ele>
        <time>2012-05-12T11:24:31Z</time>
      </trkpt>
      <trkpt lat="42.345353000" lon="-2.575688000">
        <ele>1114.00</ele>
        <time>2012-05-12T11:24:33Z</time>
      </trkpt>
      <trkpt lat="42.345353000" lon="-2.575688000">
        <ele>1114.00</ele>
        <time>2012-05-12T11:24:33Z</time>
      </trkpt>
      <trkpt lat="42.345355000" lon="-2.575688000">
        <ele>1114.10</ele>
        <time>2012-05-12T11:24:35Z</time>
      </trkpt>
      <trkpt lat="42.345355000" lon="-2.575686000">
        <ele>1114.10</ele>
        <time>2012-05-12T11:24:37Z</time>
      </trkpt>
      <trkpt lat="42.345356000" lon="-2.575686000">
        <ele>1114.00</ele>
        <time>2012-05-12T11:24:38Z</time>
      </trkpt>
      <trkpt lat="42.345358000" lon="-2.575686000">
        <ele>1114.00</ele>
        <time>2012-05-12T11:24:42Z</time>
      </trkpt>
      <trkpt lat="42.345358000" lon="-2.575688000">
        <ele>1114.00</ele>
        <time>2012-05-12T11:24:42Z</time>
      </trkpt>
      <trkpt lat="42.345360000" lon="-2.575688000">
        <ele>1113.90</ele>
        <time>2012-05-12T11:24:44Z</time>
      </trkpt>
      <trkpt lat="42.345361000" lon="-2.575696000">
        <ele>1113.90</ele>
        <time>2012-05-12T11:24:49Z</time>
      </trkpt>
      <trkpt lat="42.345361000" lon="-2.575698000">
        <ele>1113.80</ele>
        <time>2012-05-12T11:24:49Z</time>
      </trkpt>
      <trkpt lat="42.345361000" lon="-2.575711000">
        <ele>1113.80</ele>
        <time>2012-05-12T11:24:59Z</time>
      </trkpt>
      <trkpt lat="42.345360000" lon="-2.575716000">
        <ele>1113.80</ele>
        <time>2012-05-12T11:25:03Z</time>
      </trkpt>
      <trkpt lat="42.345358000" lon="-2.575716000">
        <ele>1113.90</ele>
        <time>2012-05-12T11:25:05Z</time>
      </trkpt>
      <trkpt lat="42.345355000" lon="-2.575751000">
        <ele>1113.90</ele>
        <time>2012-05-12T11:25:10Z</time>
      </trkpt>
      <trkpt lat="42.345323000" lon="-2.575958000">
        <ele>1114.20</ele>
        <time>2012-05-12T11:25:17Z</time>
      </trkpt>
      <trkpt lat="42.345223000" lon="-2.577811000">
        <ele>1110.00</ele>
        <time>2012-05-12T11:25:50Z</time>
      </trkpt>
      <trkpt lat="42.345228000" lon="-2.577893000">
        <ele>1110.00</ele>
        <time>2012-05-12T11:25:50Z</time>
      </trkpt>
      <trkpt lat="42.345198000" lon="-2.579483000">
        <ele>1118.00</ele>
        <time>2012-05-12T11:26:23Z</time>
      </trkpt>
      <trkpt lat="42.345190000" lon="-2.579543000">
        <ele>1118.70</ele>
        <time>2012-05-12T11:26:25Z</time>
      </trkpt>
      <trkpt lat="42.345195000" lon="-2.579616000">
        <ele>1119.10</ele>
        <time>2012-05-12T11:26:30Z</time>
      </trkpt>
      <trkpt lat="42.345195000" lon="-2.579633000">
        <ele>1119.10</ele>
        <time>2012-05-12T11:26:30Z</time>
      </trkpt>
      <trkpt lat="42.345185000" lon="-2.579684000">
        <ele>1119.50</ele>
        <time>2012-05-12T11:26:33Z</time>
      </trkpt>
      <trkpt lat="42.345165000" lon="-2.580089000">
        <ele>1121.40</ele>
        <time>2012-05-12T11:26:51Z</time>
      </trkpt>
      <trkpt lat="42.345166000" lon="-2.580109000">
        <ele>1121.40</ele>
        <time>2012-05-12T11:26:53Z</time>
      </trkpt>
      <trkpt lat="42.345181000" lon="-2.580354000">
        <ele>1121.80</ele>
        <time>2012-05-12T11:27:05Z</time>
      </trkpt>
      <trkpt lat="42.345178000" lon="-2.580479000">
        <ele>1121.90</ele>
        <time>2012-05-12T11:27:12Z</time>
      </trkpt>
      <trkpt lat="42.345175000" lon="-2.580496000">
        <ele>1121.80</ele>
        <time>2012-05-12T11:27:15Z</time>
      </trkpt>
      <trkpt lat="42.345173000" lon="-2.580504000">
        <ele>1121.80</ele>
        <time>2012-05-12T11:27:17Z</time>
      </trkpt>
      <trkpt lat="42.345176000" lon="-2.580516000">
        <ele>1121.70</ele>
        <time>2012-05-12T11:27:19Z</time>
      </trkpt>
      <trkpt lat="42.345178000" lon="-2.580518000">
        <ele>1121.60</ele>
        <time>2012-05-12T11:27:19Z</time>
      </trkpt>
      <trkpt lat="42.345176000" lon="-2.580521000">
        <ele>1121.60</ele>
        <time>2012-05-12T11:27:20Z</time>
      </trkpt>
      <trkpt lat="42.345176000" lon="-2.580531000">
        <ele>1121.60</ele>
        <time>2012-05-12T11:27:24Z</time>
      </trkpt>
      <trkpt lat="42.345176000" lon="-2.580533000">
        <ele>1121.50</ele>
        <time>2012-05-12T11:27:26Z</time>
      </trkpt>
      <trkpt lat="42.345175000" lon="-2.580538000">
        <ele>1121.50</ele>
        <time>2012-05-12T11:27:29Z</time>
      </trkpt>
      <trkpt lat="42.345173000" lon="-2.580538000">
        <ele>1121.60</ele>
        <time>2012-05-12T11:27:31Z</time>
      </trkpt>
      <trkpt lat="42.345168000" lon="-2.580554000">
        <ele>1121.60</ele>
        <time>2012-05-12T11:27:36Z</time>
      </trkpt>
      <trkpt lat="42.345168000" lon="-2.580563000">
        <ele>1121.60</ele>
        <time>2012-05-12T11:27:36Z</time>
      </trkpt>
      <trkpt lat="42.345170000" lon="-2.580574000">
        <ele>1121.50</ele>
        <time>2012-05-12T11:27:38Z</time>
      </trkpt>
      <trkpt lat="42.345173000" lon="-2.580623000">
        <ele>1121.20</ele>
        <time>2012-05-12T11:27:41Z</time>
      </trkpt>
      <trkpt lat="42.345175000" lon="-2.580651000">
        <ele>1121.00</ele>
        <time>2012-05-12T11:27:43Z</time>
      </trkpt>
      <trkpt lat="42.345178000" lon="-2.580663000">
        <ele>1120.90</ele>
        <time>2012-05-12T11:27:45Z</time>
      </trkpt>
      <trkpt lat="42.345181000" lon="-2.580691000">
        <ele>1120.70</ele>
        <time>2012-05-12T11:27:47Z</time>
      </trkpt>
      <trkpt lat="42.345185000" lon="-2.580703000">
        <ele>1120.50</ele>
        <time>2012-05-12T11:27:48Z</time>
      </trkpt>
      <trkpt lat="42.345188000" lon="-2.580729000">
        <ele>1120.30</ele>
        <time>2012-05-12T11:27:50Z</time>
      </trkpt>
      <trkpt lat="42.345190000" lon="-2.580764000">
        <ele>1120.00</ele>
        <time>2012-05-12T11:27:52Z</time>
      </trkpt>
      <trkpt lat="42.345190000" lon="-2.580778000">
        <ele>1119.90</ele>
        <time>2012-05-12T11:27:54Z</time>
      </trkpt>
      <trkpt lat="42.345190000" lon="-2.580796000">
        <ele>1119.80</ele>
        <time>2012-05-12T11:27:55Z</time>
      </trkpt>
      <trkpt lat="42.345191000" lon="-2.580803000">
        <ele>1119.70</ele>
        <time>2012-05-12T11:27:57Z</time>
      </trkpt>
      <trkpt lat="42.345193000" lon="-2.580808000">
        <ele>1119.60</ele>
        <time>2012-05-12T11:27:59Z</time>
      </trkpt>
      <trkpt lat="42.345193000" lon="-2.580811000">
        <ele>1119.60</ele>
        <time>2012-05-12T11:27:59Z</time>
      </trkpt>
      <trkpt lat="42.345195000" lon="-2.580821000">
        <ele>1119.50</ele>
        <time>2012-05-12T11:28:00Z</time>
      </trkpt>
      <trkpt lat="42.345200000" lon="-2.580866000">
        <ele>1119.20</ele>
        <time>2012-05-12T11:28:04Z</time>
      </trkpt>
      <trkpt lat="42.345203000" lon="-2.580936000">
        <ele>1118.70</ele>
        <time>2012-05-12T11:28:06Z</time>
      </trkpt>
      <trkpt lat="42.345176000" lon="-2.581178000">
        <ele>1118.00</ele>
        <time>2012-05-12T11:28:16Z</time>
      </trkpt>
      <trkpt lat="42.345178000" lon="-2.581221000">
        <ele>1117.80</ele>
        <time>2012-05-12T11:28:18Z</time>
      </trkpt>
      <trkpt lat="42.345176000" lon="-2.581244000">
        <ele>1117.70</ele>
        <time>2012-05-12T11:28:20Z</time>
      </trkpt>
      <trkpt lat="42.345163000" lon="-2.581294000">
        <ele>1117.80</ele>
        <time>2012-05-12T11:28:21Z</time>
      </trkpt>
      <trkpt lat="42.345153000" lon="-2.581316000">
        <ele>1117.90</ele>
        <time>2012-05-12T11:28:23Z</time>
      </trkpt>
      <trkpt lat="42.345128000" lon="-2.581356000">
        <ele>1118.30</ele>
        <time>2012-05-12T11:28:25Z</time>
      </trkpt>
      <trkpt lat="42.345100000" lon="-2.581419000">
        <ele>1118.80</ele>
        <time>2012-05-12T11:28:27Z</time>
      </trkpt>
      <trkpt lat="42.344808000" lon="-2.581873000">
        <ele>1123.70</ele>
        <time>2012-05-12T11:28:44Z</time>
      </trkpt>
      <trkpt lat="42.344793000" lon="-2.581889000">
        <ele>1123.90</ele>
        <time>2012-05-12T11:28:46Z</time>
      </trkpt>
      <trkpt lat="42.344781000" lon="-2.581909000">
        <ele>1124.00</ele>
        <time>2012-05-12T11:28:46Z</time>
      </trkpt>
      <trkpt lat="42.344696000" lon="-2.581998000">
        <ele>1125.20</ele>
        <time>2012-05-12T11:28:53Z</time>
      </trkpt>
      <trkpt lat="42.344683000" lon="-2.582008000">
        <ele>1125.30</ele>
        <time>2012-05-12T11:28:53Z</time>
      </trkpt>
      <trkpt lat="42.344653000" lon="-2.582019000">
        <ele>1125.80</ele>
        <time>2012-05-12T11:28:56Z</time>
      </trkpt>
      <trkpt lat="42.344641000" lon="-2.582029000">
        <ele>1125.90</ele>
        <time>2012-05-12T11:28:56Z</time>
      </trkpt>
      <trkpt lat="42.344590000" lon="-2.582058000">
        <ele>1126.70</ele>
        <time>2012-05-12T11:29:00Z</time>
      </trkpt>
      <trkpt lat="42.344518000" lon="-2.582086000">
        <ele>1128.60</ele>
        <time>2012-05-12T11:29:05Z</time>
      </trkpt>
      <trkpt lat="42.344516000" lon="-2.582089000">
        <ele>1128.80</ele>
        <time>2012-05-12T11:29:07Z</time>
      </trkpt>
      <trkpt lat="42.344511000" lon="-2.582094000">
        <ele>1128.90</ele>
        <time>2012-05-12T11:29:07Z</time>
      </trkpt>
      <trkpt lat="42.344506000" lon="-2.582098000">
        <ele>1129.10</ele>
        <time>2012-05-12T11:29:08Z</time>
      </trkpt>
      <trkpt lat="42.344503000" lon="-2.582101000">
        <ele>1129.20</ele>
        <time>2012-05-12T11:29:10Z</time>
      </trkpt>
      <trkpt lat="42.344501000" lon="-2.582104000">
        <ele>1129.40</ele>
        <time>2012-05-12T11:29:10Z</time>
      </trkpt>
      <trkpt lat="42.344498000" lon="-2.582108000">
        <ele>1129.50</ele>
        <time>2012-05-12T11:29:12Z</time>
      </trkpt>
      <trkpt lat="42.344496000" lon="-2.582111000">
        <ele>1129.60</ele>
        <time>2012-05-12T11:29:12Z</time>
      </trkpt>
      <trkpt lat="42.344491000" lon="-2.582116000">
        <ele>1129.70</ele>
        <time>2012-05-12T11:29:14Z</time>
      </trkpt>
      <trkpt lat="42.344486000" lon="-2.582118000">
        <ele>1129.90</ele>
        <time>2012-05-12T11:29:14Z</time>
      </trkpt>
      <trkpt lat="42.344483000" lon="-2.582121000">
        <ele>1130.00</ele>
        <time>2012-05-12T11:29:15Z</time>
      </trkpt>
      <trkpt lat="42.344473000" lon="-2.582126000">
        <ele>1130.30</ele>
        <time>2012-05-12T11:29:17Z</time>
      </trkpt>
      <trkpt lat="42.344418000" lon="-2.582143000">
        <ele>1132.00</ele>
        <time>2012-05-12T11:29:22Z</time>
      </trkpt>
      <trkpt lat="42.344415000" lon="-2.582146000">
        <ele>1132.20</ele>
        <time>2012-05-12T11:29:24Z</time>
      </trkpt>
      <trkpt lat="42.344405000" lon="-2.582154000">
        <ele>1132.50</ele>
        <time>2012-05-12T11:29:26Z</time>
      </trkpt>
      <trkpt lat="42.344396000" lon="-2.582159000">
        <ele>1132.80</ele>
        <time>2012-05-12T11:29:26Z</time>
      </trkpt>
      <trkpt lat="42.344388000" lon="-2.582164000">
        <ele>1133.00</ele>
        <time>2012-05-12T11:29:28Z</time>
      </trkpt>
      <trkpt lat="42.344355000" lon="-2.582176000">
        <ele>1134.20</ele>
        <time>2012-05-12T11:29:33Z</time>
      </trkpt>
      <trkpt lat="42.344335000" lon="-2.582176000">
        <ele>1134.70</ele>
        <time>2012-05-12T11:29:36Z</time>
      </trkpt>
      <trkpt lat="42.344323000" lon="-2.582178000">
        <ele>1135.00</ele>
        <time>2012-05-12T11:29:36Z</time>
      </trkpt>
      <trkpt lat="42.344266000" lon="-2.582189000">
        <ele>1136.50</ele>
        <time>2012-05-12T11:29:40Z</time>
      </trkpt>
      <trkpt lat="42.344178000" lon="-2.582186000">
        <ele>1138.90</ele>
        <time>2012-05-12T11:29:45Z</time>
      </trkpt>
      <trkpt lat="42.344160000" lon="-2.582189000">
        <ele>1139.40</ele>
        <time>2012-05-12T11:29:47Z</time>
      </trkpt>
      <trkpt lat="42.344061000" lon="-2.582189000">
        <ele>1142.10</ele>
        <time>2012-05-12T11:29:52Z</time>
      </trkpt>
      <trkpt lat="42.344020000" lon="-2.582196000">
        <ele>1143.30</ele>
        <time>2012-05-12T11:29:54Z</time>
      </trkpt>
      <trkpt lat="42.343955000" lon="-2.582219000">
        <ele>1145.40</ele>
        <time>2012-05-12T11:29:57Z</time>
      </trkpt>
      <trkpt lat="42.343941000" lon="-2.582221000">
        <ele>1145.80</ele>
        <time>2012-05-12T11:29:59Z</time>
      </trkpt>
      <trkpt lat="42.343926000" lon="-2.582226000">
        <ele>1146.10</ele>
        <time>2012-05-12T11:29:59Z</time>
      </trkpt>
      <trkpt lat="42.343885000" lon="-2.582261000">
        <ele>1147.70</ele>
        <time>2012-05-12T11:30:02Z</time>
      </trkpt>
      <trkpt lat="42.343871000" lon="-2.582276000">
        <ele>1148.10</ele>
        <time>2012-05-12T11:30:04Z</time>
      </trkpt>
      <trkpt lat="42.343863000" lon="-2.582289000">
        <ele>1148.50</ele>
        <time>2012-05-12T11:30:04Z</time>
      </trkpt>
      <trkpt lat="42.343856000" lon="-2.582309000">
        <ele>1148.90</ele>
        <time>2012-05-12T11:30:06Z</time>
      </trkpt>
      <trkpt lat="42.343851000" lon="-2.582336000">
        <ele>1149.30</ele>
        <time>2012-05-12T11:30:06Z</time>
      </trkpt>
      <trkpt lat="42.343850000" lon="-2.582389000">
        <ele>1149.80</ele>
        <time>2012-05-12T11:30:09Z</time>
      </trkpt>
      <trkpt lat="42.343858000" lon="-2.582429000">
        <ele>1150.00</ele>
        <time>2012-05-12T11:30:11Z</time>
      </trkpt>
      <trkpt lat="42.343901000" lon="-2.582501000">
        <ele>1149.70</ele>
        <time>2012-05-12T11:30:15Z</time>
      </trkpt>
      <trkpt lat="42.343980000" lon="-2.582603000">
        <ele>1148.40</ele>
        <time>2012-05-12T11:30:20Z</time>
      </trkpt>
      <trkpt lat="42.344091000" lon="-2.582768000">
        <ele>1146.90</ele>
        <time>2012-05-12T11:30:29Z</time>
      </trkpt>
      <trkpt lat="42.344108000" lon="-2.582786000">
        <ele>1146.60</ele>
        <time>2012-05-12T11:30:30Z</time>
      </trkpt>
      <trkpt lat="42.344155000" lon="-2.582858000">
        <ele>1146.00</ele>
        <time>2012-05-12T11:30:32Z</time>
      </trkpt>
      <trkpt lat="42.344178000" lon="-2.582914000">
        <ele>1145.80</ele>
        <time>2012-05-12T11:30:34Z</time>
      </trkpt>
      <trkpt lat="42.344375000" lon="-2.583236000">
        <ele>1143.40</ele>
        <time>2012-05-12T11:30:44Z</time>
      </trkpt>
      <trkpt lat="42.344438000" lon="-2.583296000">
        <ele>1142.40</ele>
        <time>2012-05-12T11:30:46Z</time>
      </trkpt>
      <trkpt lat="42.344558000" lon="-2.583378000">
        <ele>1140.10</ele>
        <time>2012-05-12T11:30:49Z</time>
      </trkpt>
      <trkpt lat="42.344608000" lon="-2.583431000">
        <ele>1139.10</ele>
        <time>2012-05-12T11:30:51Z</time>
      </trkpt>
      <trkpt lat="42.344631000" lon="-2.583464000">
        <ele>1138.70</ele>
        <time>2012-05-12T11:30:53Z</time>
      </trkpt>
      <trkpt lat="42.344663000" lon="-2.583533000">
        <ele>1138.30</ele>
        <time>2012-05-12T11:30:55Z</time>
      </trkpt>
      <trkpt lat="42.344671000" lon="-2.583566000">
        <ele>1138.20</ele>
        <time>2012-05-12T11:30:55Z</time>
      </trkpt>
      <trkpt lat="42.344690000" lon="-2.583673000">
        <ele>1138.30</ele>
        <time>2012-05-12T11:30:58Z</time>
      </trkpt>
      <trkpt lat="42.344685000" lon="-2.583791000">
        <ele>1138.90</ele>
        <time>2012-05-12T11:31:02Z</time>
      </trkpt>
      <trkpt lat="42.344680000" lon="-2.583826000">
        <ele>1139.00</ele>
        <time>2012-05-12T11:31:02Z</time>
      </trkpt>
      <trkpt lat="42.344641000" lon="-2.583961000">
        <ele>1140.20</ele>
        <time>2012-05-12T11:31:07Z</time>
      </trkpt>
      <trkpt lat="42.344631000" lon="-2.584081000">
        <ele>1141.00</ele>
        <time>2012-05-12T11:31:10Z</time>
      </trkpt>
      <trkpt lat="42.344651000" lon="-2.584274000">
        <ele>1141.60</ele>
        <time>2012-05-12T11:31:14Z</time>
      </trkpt>
      <trkpt lat="42.344651000" lon="-2.584308000">
        <ele>1141.70</ele>
        <time>2012-05-12T11:31:16Z</time>
      </trkpt>
      <trkpt lat="42.344663000" lon="-2.584399000">
        <ele>1141.90</ele>
        <time>2012-05-12T11:31:19Z</time>
      </trkpt>
      <trkpt lat="42.344663000" lon="-2.584424000">
        <ele>1142.00</ele>
        <time>2012-05-12T11:31:19Z</time>
      </trkpt>
      <trkpt lat="42.344660000" lon="-2.584448000">
        <ele>1142.10</ele>
        <time>2012-05-12T11:31:21Z</time>
      </trkpt>
      <trkpt lat="42.344660000" lon="-2.584473000">
        <ele>1142.20</ele>
        <time>2012-05-12T11:31:21Z</time>
      </trkpt>
      <trkpt lat="42.344735000" lon="-2.584813000">
        <ele>1142.50</ele>
        <time>2012-05-12T11:31:31Z</time>
      </trkpt>
      <trkpt lat="42.344745000" lon="-2.584918000">
        <ele>1142.80</ele>
        <time>2012-05-12T11:31:35Z</time>
      </trkpt>
      <trkpt lat="42.344776000" lon="-2.585086000">
        <ele>1143.00</ele>
        <time>2012-05-12T11:31:40Z</time>
      </trkpt>
      <trkpt lat="42.344850000" lon="-2.585333000">
        <ele>1142.80</ele>
        <time>2012-05-12T11:31:47Z</time>
      </trkpt>
      <trkpt lat="42.344855000" lon="-2.585369000">
        <ele>1142.90</ele>
        <time>2012-05-12T11:31:47Z</time>
      </trkpt>
      <trkpt lat="42.344858000" lon="-2.585466000">
        <ele>1143.10</ele>
        <time>2012-05-12T11:31:50Z</time>
      </trkpt>
      <trkpt lat="42.344843000" lon="-2.585599000">
        <ele>1143.80</ele>
        <time>2012-05-12T11:31:54Z</time>
      </trkpt>
      <trkpt lat="42.344845000" lon="-2.585633000">
        <ele>1144.00</ele>
        <time>2012-05-12T11:31:56Z</time>
      </trkpt>
      <trkpt lat="42.344833000" lon="-2.585848000">
        <ele>1145.10</ele>
        <time>2012-05-12T11:32:01Z</time>
      </trkpt>
      <trkpt lat="42.344856000" lon="-2.586081000">
        <ele>1145.90</ele>
        <time>2012-05-12T11:32:08Z</time>
      </trkpt>
      <trkpt lat="42.344853000" lon="-2.586114000">
        <ele>1145.90</ele>
        <time>2012-05-12T11:32:10Z</time>
      </trkpt>
      <trkpt lat="42.344798000" lon="-2.586691000">
        <ele>1149.30</ele>
        <time>2012-05-12T11:32:27Z</time>
      </trkpt>
      <trkpt lat="42.344778000" lon="-2.586778000">
        <ele>1150.00</ele>
        <time>2012-05-12T11:32:30Z</time>
      </trkpt>
      <trkpt lat="42.344761000" lon="-2.586833000">
        <ele>1150.50</ele>
        <time>2012-05-12T11:32:32Z</time>
      </trkpt>
      <trkpt lat="42.344761000" lon="-2.586858000">
        <ele>1150.60</ele>
        <time>2012-05-12T11:32:34Z</time>
      </trkpt>
      <trkpt lat="42.344753000" lon="-2.586921000">
        <ele>1151.10</ele>
        <time>2012-05-12T11:32:36Z</time>
      </trkpt>
      <trkpt lat="42.344748000" lon="-2.586941000">
        <ele>1151.30</ele>
        <time>2012-05-12T11:32:39Z</time>
      </trkpt>
      <trkpt lat="42.344743000" lon="-2.586956000">
        <ele>1151.50</ele>
        <time>2012-05-12T11:32:41Z</time>
      </trkpt>
      <trkpt lat="42.344726000" lon="-2.586989000">
        <ele>1151.90</ele>
        <time>2012-05-12T11:32:44Z</time>
      </trkpt>
      <trkpt lat="42.344685000" lon="-2.587126000">
        <ele>1153.10</ele>
        <time>2012-05-12T11:32:50Z</time>
      </trkpt>
      <trkpt lat="42.344693000" lon="-2.587319000">
        <ele>1154.80</ele>
        <time>2012-05-12T11:32:55Z</time>
      </trkpt>
      <trkpt lat="42.344711000" lon="-2.587393000">
        <ele>1155.50</ele>
        <time>2012-05-12T11:32:58Z</time>
      </trkpt>
      <trkpt lat="42.344731000" lon="-2.587428000">
        <ele>1155.70</ele>
        <time>2012-05-12T11:32:58Z</time>
      </trkpt>
      <trkpt lat="42.344785000" lon="-2.587483000">
        <ele>1155.90</ele>
        <time>2012-05-12T11:33:00Z</time>
      </trkpt>
      <trkpt lat="42.344810000" lon="-2.587491000">
        <ele>1155.80</ele>
        <time>2012-05-12T11:33:02Z</time>
      </trkpt>
      <trkpt lat="42.344921000" lon="-2.587459000">
        <ele>1154.60</ele>
        <time>2012-05-12T11:33:05Z</time>
      </trkpt>
      <trkpt lat="42.345060000" lon="-2.587388000">
        <ele>1152.20</ele>
        <time>2012-05-12T11:33:09Z</time>
      </trkpt>
      <trkpt lat="42.345310000" lon="-2.587308000">
        <ele>1147.70</ele>
        <time>2012-05-12T11:33:14Z</time>
      </trkpt>
      <trkpt lat="42.345358000" lon="-2.587279000">
        <ele>1147.10</ele>
        <time>2012-05-12T11:33:16Z</time>
      </trkpt>
      <trkpt lat="42.346168000" lon="-2.586553000">
        <ele>1133.10</ele>
        <time>2012-05-12T11:33:31Z</time>
      </trkpt>
      <trkpt lat="42.346231000" lon="-2.586504000">
        <ele>1131.60</ele>
        <time>2012-05-12T11:33:33Z</time>
      </trkpt>
      <trkpt lat="42.346285000" lon="-2.586446000">
        <ele>1130.00</ele>
        <time>2012-05-12T11:33:33Z</time>
      </trkpt>
      <trkpt lat="42.346670000" lon="-2.585969000">
        <ele>1120.90</ele>
        <time>2012-05-12T11:33:40Z</time>
      </trkpt>
      <trkpt lat="42.346730000" lon="-2.585916000">
        <ele>1119.90</ele>
        <time>2012-05-12T11:33:42Z</time>
      </trkpt>
      <trkpt lat="42.346795000" lon="-2.585876000">
        <ele>1119.00</ele>
        <time>2012-05-12T11:33:42Z</time>
      </trkpt>
      <trkpt lat="42.346931000" lon="-2.585849000">
        <ele>1117.70</ele>
        <time>2012-05-12T11:33:45Z</time>
      </trkpt>
      <trkpt lat="42.347058000" lon="-2.585883000">
        <ele>1117.10</ele>
        <time>2012-05-12T11:33:47Z</time>
      </trkpt>
      <trkpt lat="42.347283000" lon="-2.586024000">
        <ele>1116.40</ele>
        <time>2012-05-12T11:33:51Z</time>
      </trkpt>
      <trkpt lat="42.347355000" lon="-2.586051000">
        <ele>1116.00</ele>
        <time>2012-05-12T11:33:52Z</time>
      </trkpt>
      <trkpt lat="42.347736000" lon="-2.586103000">
        <ele>1111.40</ele>
        <time>2012-05-12T11:33:58Z</time>
      </trkpt>
      <trkpt lat="42.347741000" lon="-2.586104000">
        <ele>1111.00</ele>
        <time>2012-05-12T11:33:59Z</time>
      </trkpt>
      <trkpt lat="42.347743000" lon="-2.586104000">
        <ele>1110.90</ele>
        <time>2012-05-12T11:34:01Z</time>
      </trkpt>
      <trkpt lat="42.347743000" lon="-2.586104000">
        <ele>1110.90</ele>
        <time>2012-05-12T11:34:01Z</time>
      </trkpt>
      <trkpt lat="42.347745000" lon="-2.586106000">
        <ele>1110.80</ele>
        <time>2012-05-12T11:34:03Z</time>
      </trkpt>
      <trkpt lat="42.347745000" lon="-2.586113000">
        <ele>1110.80</ele>
        <time>2012-05-12T11:34:06Z</time>
      </trkpt>
      <trkpt lat="42.347743000" lon="-2.586116000">
        <ele>1110.90</ele>
        <time>2012-05-12T11:34:08Z</time>
      </trkpt>
      <trkpt lat="42.347741000" lon="-2.586118000">
        <ele>1110.90</ele>
        <time>2012-05-12T11:34:08Z</time>
      </trkpt>
      <trkpt lat="42.347741000" lon="-2.586121000">
        <ele>1110.90</ele>
        <time>2012-05-12T11:34:10Z</time>
      </trkpt>
      <trkpt lat="42.347740000" lon="-2.586124000">
        <ele>1111.00</ele>
        <time>2012-05-12T11:34:10Z</time>
      </trkpt>
      <trkpt lat="42.347736000" lon="-2.586128000">
        <ele>1111.10</ele>
        <time>2012-05-12T11:34:12Z</time>
      </trkpt>
      <trkpt lat="42.347735000" lon="-2.586131000">
        <ele>1111.10</ele>
        <time>2012-05-12T11:34:13Z</time>
      </trkpt>
      <trkpt lat="42.347733000" lon="-2.586134000">
        <ele>1111.20</ele>
        <time>2012-05-12T11:34:13Z</time>
      </trkpt>
      <trkpt lat="42.347731000" lon="-2.586138000">
        <ele>1111.20</ele>
        <time>2012-05-12T11:34:15Z</time>
      </trkpt>
      <trkpt lat="42.347730000" lon="-2.586141000">
        <ele>1111.30</ele>
        <time>2012-05-12T11:34:15Z</time>
      </trkpt>
      <trkpt lat="42.347726000" lon="-2.586144000">
        <ele>1111.30</ele>
        <time>2012-05-12T11:34:17Z</time>
      </trkpt>
      <trkpt lat="42.347725000" lon="-2.586146000">
        <ele>1111.40</ele>
        <time>2012-05-12T11:34:17Z</time>
      </trkpt>
      <trkpt lat="42.347723000" lon="-2.586148000">
        <ele>1111.50</ele>
        <time>2012-05-12T11:34:18Z</time>
      </trkpt>
      <trkpt lat="42.347721000" lon="-2.586151000">
        <ele>1111.50</ele>
        <time>2012-05-12T11:34:20Z</time>
      </trkpt>
      <trkpt lat="42.347720000" lon="-2.586146000">
        <ele>1111.60</ele>
        <time>2012-05-12T11:34:20Z</time>
      </trkpt>
      <trkpt lat="42.347721000" lon="-2.586139000">
        <ele>1111.50</ele>
        <time>2012-05-12T11:34:22Z</time>
      </trkpt>
      <trkpt lat="42.347721000" lon="-2.586138000">
        <ele>1111.50</ele>
        <time>2012-05-12T11:34:22Z</time>
      </trkpt>
      <trkpt lat="42.347726000" lon="-2.586138000">
        <ele>1111.40</ele>
        <time>2012-05-12T11:34:24Z</time>
      </trkpt>
      <trkpt lat="42.347726000" lon="-2.586141000">
        <ele>1111.40</ele>
        <time>2012-05-12T11:34:24Z</time>
      </trkpt>
      <trkpt lat="42.347726000" lon="-2.586134000">
        <ele>1111.40</ele>
        <time>2012-05-12T11:34:29Z</time>
      </trkpt>
      <trkpt lat="42.347728000" lon="-2.586133000">
        <ele>1111.30</ele>
        <time>2012-05-12T11:34:31Z</time>
      </trkpt>
      <trkpt lat="42.347728000" lon="-2.586131000">
        <ele>1111.30</ele>
        <time>2012-05-12T11:34:31Z</time>
      </trkpt>
      <trkpt lat="42.347730000" lon="-2.586129000">
        <ele>1111.30</ele>
        <time>2012-05-12T11:34:32Z</time>
      </trkpt>
      <trkpt lat="42.347731000" lon="-2.586128000">
        <ele>1111.20</ele>
        <time>2012-05-12T11:34:34Z</time>
      </trkpt>
      <trkpt lat="42.347735000" lon="-2.586124000">
        <ele>1111.20</ele>
        <time>2012-05-12T11:34:38Z</time>
      </trkpt>
      <trkpt lat="42.347735000" lon="-2.586124000">
        <ele>1111.20</ele>
        <time>2012-05-12T11:34:38Z</time>
      </trkpt>
      <trkpt lat="42.347738000" lon="-2.586123000">
        <ele>1111.10</ele>
        <time>2012-05-12T11:34:41Z</time>
      </trkpt>
      <trkpt lat="42.347740000" lon="-2.586121000">
        <ele>1111.00</ele>
        <time>2012-05-12T11:34:43Z</time>
      </trkpt>
      <trkpt lat="42.347741000" lon="-2.586118000">
        <ele>1111.00</ele>
        <time>2012-05-12T11:34:46Z</time>
      </trkpt>
      <trkpt lat="42.347743000" lon="-2.586116000">
        <ele>1110.90</ele>
        <time>2012-05-12T11:34:46Z</time>
      </trkpt>
      <trkpt lat="42.347743000" lon="-2.586114000">
        <ele>1110.90</ele>
        <time>2012-05-12T11:34:48Z</time>
      </trkpt>
      <trkpt lat="42.347745000" lon="-2.586113000">
        <ele>1110.90</ele>
        <time>2012-05-12T11:34:50Z</time>
      </trkpt>
      <trkpt lat="42.347745000" lon="-2.586111000">
        <ele>1110.80</ele>
        <time>2012-05-12T11:34:52Z</time>
      </trkpt>
      <trkpt lat="42.347745000" lon="-2.586104000">
        <ele>1110.80</ele>
        <time>2012-05-12T11:34:55Z</time>
      </trkpt>
      <trkpt lat="42.347745000" lon="-2.586101000">
        <ele>1110.70</ele>
        <time>2012-05-12T11:34:57Z</time>
      </trkpt>
      <trkpt lat="42.347746000" lon="-2.586099000">
        <ele>1110.70</ele>
        <time>2012-05-12T11:34:57Z</time>
      </trkpt>
      <trkpt lat="42.347743000" lon="-2.586099000">
        <ele>1110.70</ele>
        <time>2012-05-12T11:35:00Z</time>
      </trkpt>
      <trkpt lat="42.347743000" lon="-2.586101000">
        <ele>1110.70</ele>
        <time>2012-05-12T11:35:02Z</time>
      </trkpt>
      <trkpt lat="42.347741000" lon="-2.586103000">
        <ele>1110.70</ele>
        <time>2012-05-12T11:35:02Z</time>
      </trkpt>
      <trkpt lat="42.347741000" lon="-2.586101000">
        <ele>1110.80</ele>
        <time>2012-05-12T11:35:04Z</time>
      </trkpt>
      <trkpt lat="42.347741000" lon="-2.586103000">
        <ele>1110.80</ele>
        <time>2012-05-12T11:35:04Z</time>
      </trkpt>
      <trkpt lat="42.347736000" lon="-2.586106000">
        <ele>1110.80</ele>
        <time>2012-05-12T11:35:09Z</time>
      </trkpt>
      <trkpt lat="42.347735000" lon="-2.586109000">
        <ele>1110.90</ele>
        <time>2012-05-12T11:35:09Z</time>
      </trkpt>
      <trkpt lat="42.347733000" lon="-2.586111000">
        <ele>1110.90</ele>
        <time>2012-05-12T11:35:11Z</time>
      </trkpt>
      <trkpt lat="42.347730000" lon="-2.586113000">
        <ele>1111.00</ele>
        <time>2012-05-12T11:35:11Z</time>
      </trkpt>
      <trkpt lat="42.347728000" lon="-2.586116000">
        <ele>1111.00</ele>
        <time>2012-05-12T11:35:12Z</time>
      </trkpt>
      <trkpt lat="42.347720000" lon="-2.586126000">
        <ele>1111.30</ele>
        <time>2012-05-12T11:35:16Z</time>
      </trkpt>
      <trkpt lat="42.347718000" lon="-2.586128000">
        <ele>1111.30</ele>
        <time>2012-05-12T11:35:16Z</time>
      </trkpt>
      <trkpt lat="42.347716000" lon="-2.586133000">
        <ele>1111.40</ele>
        <time>2012-05-12T11:35:18Z</time>
      </trkpt>
      <trkpt lat="42.347713000" lon="-2.586136000">
        <ele>1111.40</ele>
        <time>2012-05-12T11:35:18Z</time>
      </trkpt>
      <trkpt lat="42.347710000" lon="-2.586141000">
        <ele>1111.50</ele>
        <time>2012-05-12T11:35:19Z</time>
      </trkpt>
      <trkpt lat="42.347706000" lon="-2.586144000">
        <ele>1111.60</ele>
        <time>2012-05-12T11:35:21Z</time>
      </trkpt>
      <trkpt lat="42.347703000" lon="-2.586151000">
        <ele>1111.70</ele>
        <time>2012-05-12T11:35:21Z</time>
      </trkpt>
      <trkpt lat="42.347700000" lon="-2.586158000">
        <ele>1111.90</ele>
        <time>2012-05-12T11:35:23Z</time>
      </trkpt>
      <trkpt lat="42.347693000" lon="-2.586168000">
        <ele>1112.10</ele>
        <time>2012-05-12T11:35:25Z</time>
      </trkpt>
      <trkpt lat="42.347691000" lon="-2.586171000">
        <ele>1112.20</ele>
        <time>2012-05-12T11:35:25Z</time>
      </trkpt>
      <trkpt lat="42.347690000" lon="-2.586173000">
        <ele>1112.20</ele>
        <time>2012-05-12T11:35:26Z</time>
      </trkpt>
      <trkpt lat="42.347688000" lon="-2.586176000">
        <ele>1112.30</ele>
        <time>2012-05-12T11:35:28Z</time>
      </trkpt>
      <trkpt lat="42.347686000" lon="-2.586176000">
        <ele>1112.30</ele>
        <time>2012-05-12T11:35:28Z</time>
      </trkpt>
      <trkpt lat="42.347686000" lon="-2.586176000">
        <ele>1112.30</ele>
        <time>2012-05-12T11:35:30Z</time>
      </trkpt>
      <trkpt lat="42.347686000" lon="-2.586173000">
        <ele>1112.40</ele>
        <time>2012-05-12T11:35:32Z</time>
      </trkpt>
      <trkpt lat="42.347686000" lon="-2.586169000">
        <ele>1112.30</ele>
        <time>2012-05-12T11:35:33Z</time>
      </trkpt>
      <trkpt lat="42.347688000" lon="-2.586168000">
        <ele>1112.30</ele>
        <time>2012-05-12T11:35:33Z</time>
      </trkpt>
      <trkpt lat="42.347688000" lon="-2.586164000">
        <ele>1112.30</ele>
        <time>2012-05-12T11:35:35Z</time>
      </trkpt>
      <trkpt lat="42.347688000" lon="-2.586159000">
        <ele>1112.20</ele>
        <time>2012-05-12T11:35:35Z</time>
      </trkpt>
      <trkpt lat="42.347690000" lon="-2.586156000">
        <ele>1112.20</ele>
        <time>2012-05-12T11:35:37Z</time>
      </trkpt>
      <trkpt lat="42.347691000" lon="-2.586151000">
        <ele>1112.10</ele>
        <time>2012-05-12T11:35:37Z</time>
      </trkpt>
      <trkpt lat="42.347693000" lon="-2.586148000">
        <ele>1112.10</ele>
        <time>2012-05-12T11:35:39Z</time>
      </trkpt>
      <trkpt lat="42.347695000" lon="-2.586143000">
        <ele>1112.00</ele>
        <time>2012-05-12T11:35:40Z</time>
      </trkpt>
      <trkpt lat="42.347696000" lon="-2.586139000">
        <ele>1111.90</ele>
        <time>2012-05-12T11:35:40Z</time>
      </trkpt>
      <trkpt lat="42.347703000" lon="-2.586129000">
        <ele>1111.70</ele>
        <time>2012-05-12T11:35:42Z</time>
      </trkpt>
      <trkpt lat="42.347706000" lon="-2.586126000">
        <ele>1111.60</ele>
        <time>2012-05-12T11:35:44Z</time>
      </trkpt>
      <trkpt lat="42.347708000" lon="-2.586121000">
        <ele>1111.60</ele>
        <time>2012-05-12T11:35:44Z</time>
      </trkpt>
      <trkpt lat="42.347711000" lon="-2.586118000">
        <ele>1111.50</ele>
        <time>2012-05-12T11:35:46Z</time>
      </trkpt>
      <trkpt lat="42.347715000" lon="-2.586114000">
        <ele>1111.40</ele>
        <time>2012-05-12T11:35:47Z</time>
      </trkpt>
      <trkpt lat="42.347716000" lon="-2.586111000">
        <ele>1111.30</ele>
        <time>2012-05-12T11:35:47Z</time>
      </trkpt>
      <trkpt lat="42.347720000" lon="-2.586108000">
        <ele>1111.20</ele>
        <time>2012-05-12T11:35:49Z</time>
      </trkpt>
      <trkpt lat="42.347723000" lon="-2.586106000">
        <ele>1111.20</ele>
        <time>2012-05-12T11:35:49Z</time>
      </trkpt>
      <trkpt lat="42.347726000" lon="-2.586103000">
        <ele>1111.10</ele>
        <time>2012-05-12T11:35:51Z</time>
      </trkpt>
      <trkpt lat="42.347730000" lon="-2.586101000">
        <ele>1111.00</ele>
        <time>2012-05-12T11:35:51Z</time>
      </trkpt>
      <trkpt lat="42.347733000" lon="-2.586099000">
        <ele>1110.90</ele>
        <time>2012-05-12T11:35:53Z</time>
      </trkpt>
      <trkpt lat="42.347735000" lon="-2.586098000">
        <ele>1110.90</ele>
        <time>2012-05-12T11:35:54Z</time>
      </trkpt>
      <trkpt lat="42.347738000" lon="-2.586096000">
        <ele>1110.80</ele>
        <time>2012-05-12T11:35:54Z</time>
      </trkpt>
      <trkpt lat="42.347741000" lon="-2.586096000">
        <ele>1110.80</ele>
        <time>2012-05-12T11:35:56Z</time>
      </trkpt>
      <trkpt lat="42.347743000" lon="-2.586094000">
        <ele>1110.70</ele>
        <time>2012-05-12T11:35:56Z</time>
      </trkpt>
      <trkpt lat="42.347746000" lon="-2.586093000">
        <ele>1110.70</ele>
        <time>2012-05-12T11:35:58Z</time>
      </trkpt>
      <trkpt lat="42.347750000" lon="-2.586091000">
        <ele>1110.60</ele>
        <time>2012-05-12T11:35:58Z</time>
      </trkpt>
      <trkpt lat="42.347751000" lon="-2.586089000">
        <ele>1110.60</ele>
        <time>2012-05-12T11:36:00Z</time>
      </trkpt>
      <trkpt lat="42.347753000" lon="-2.586088000">
        <ele>1110.50</ele>
        <time>2012-05-12T11:36:01Z</time>
      </trkpt>
      <trkpt lat="42.347756000" lon="-2.586088000">
        <ele>1110.50</ele>
        <time>2012-05-12T11:36:01Z</time>
      </trkpt>
      <trkpt lat="42.347758000" lon="-2.586086000">
        <ele>1110.40</ele>
        <time>2012-05-12T11:36:03Z</time>
      </trkpt>
      <trkpt lat="42.347760000" lon="-2.586084000">
        <ele>1110.40</ele>
        <time>2012-05-12T11:36:03Z</time>
      </trkpt>
      <trkpt lat="42.347761000" lon="-2.586084000">
        <ele>1110.30</ele>
        <time>2012-05-12T11:36:05Z</time>
      </trkpt>
      <trkpt lat="42.347766000" lon="-2.586083000">
        <ele>1110.30</ele>
        <time>2012-05-12T11:36:06Z</time>
      </trkpt>
      <trkpt lat="42.347768000" lon="-2.586083000">
        <ele>1110.20</ele>
        <time>2012-05-12T11:36:08Z</time>
      </trkpt>
      <trkpt lat="42.347771000" lon="-2.586083000">
        <ele>1110.20</ele>
        <time>2012-05-12T11:36:10Z</time>
      </trkpt>
      <trkpt lat="42.347773000" lon="-2.586083000">
        <ele>1110.10</ele>
        <time>2012-05-12T11:36:10Z</time>
      </trkpt>
      <trkpt lat="42.347778000" lon="-2.586083000">
        <ele>1110.10</ele>
        <time>2012-05-12T11:36:13Z</time>
      </trkpt>
      <trkpt lat="42.347780000" lon="-2.586084000">
        <ele>1110.10</ele>
        <time>2012-05-12T11:36:15Z</time>
      </trkpt>
      <trkpt lat="42.347780000" lon="-2.586084000">
        <ele>1110.10</ele>
        <time>2012-05-12T11:36:15Z</time>
      </trkpt>
      <trkpt lat="42.347786000" lon="-2.586084000">
        <ele>1110.00</ele>
        <time>2012-05-12T11:36:22Z</time>
      </trkpt>
      <trkpt lat="42.347788000" lon="-2.586084000">
        <ele>1109.90</ele>
        <time>2012-05-12T11:36:24Z</time>
      </trkpt>
      <trkpt lat="42.347790000" lon="-2.586084000">
        <ele>1109.90</ele>
        <time>2012-05-12T11:36:26Z</time>
      </trkpt>
      <trkpt lat="42.347791000" lon="-2.586086000">
        <ele>1109.90</ele>
        <time>2012-05-12T11:36:29Z</time>
      </trkpt>
      <trkpt lat="42.347791000" lon="-2.586084000">
        <ele>1109.90</ele>
        <time>2012-05-12T11:36:31Z</time>
      </trkpt>
      <trkpt lat="42.347793000" lon="-2.586083000">
        <ele>1109.90</ele>
        <time>2012-05-12T11:36:33Z</time>
      </trkpt>
      <trkpt lat="42.347795000" lon="-2.586083000">
        <ele>1109.80</ele>
        <time>2012-05-12T11:36:34Z</time>
      </trkpt>
      <trkpt lat="42.347796000" lon="-2.586079000">
        <ele>1109.80</ele>
        <time>2012-05-12T11:36:36Z</time>
      </trkpt>
      <trkpt lat="42.347798000" lon="-2.586079000">
        <ele>1109.80</ele>
        <time>2012-05-12T11:36:38Z</time>
      </trkpt>
      <trkpt lat="42.347798000" lon="-2.586078000">
        <ele>1109.70</ele>
        <time>2012-05-12T11:36:38Z</time>
      </trkpt>
      <trkpt lat="42.347798000" lon="-2.586076000">
        <ele>1109.70</ele>
        <time>2012-05-12T11:36:40Z</time>
      </trkpt>
      <trkpt lat="42.347800000" lon="-2.586074000">
        <ele>1109.70</ele>
        <time>2012-05-12T11:36:41Z</time>
      </trkpt>
      <trkpt lat="42.347800000" lon="-2.586073000">
        <ele>1109.70</ele>
        <time>2012-05-12T11:36:41Z</time>
      </trkpt>
      <trkpt lat="42.347800000" lon="-2.586071000">
        <ele>1109.60</ele>
        <time>2012-05-12T11:36:43Z</time>
      </trkpt>
      <trkpt lat="42.347801000" lon="-2.586064000">
        <ele>1109.60</ele>
        <time>2012-05-12T11:36:47Z</time>
      </trkpt>
      <trkpt lat="42.347801000" lon="-2.586063000">
        <ele>1109.50</ele>
        <time>2012-05-12T11:36:48Z</time>
      </trkpt>
      <trkpt lat="42.347801000" lon="-2.586058000">
        <ele>1109.50</ele>
        <time>2012-05-12T11:36:50Z</time>
      </trkpt>
      <trkpt lat="42.347801000" lon="-2.586056000">
        <ele>1109.40</ele>
        <time>2012-05-12T11:36:52Z</time>
      </trkpt>
      <trkpt lat="42.347800000" lon="-2.586051000">
        <ele>1109.40</ele>
        <time>2012-05-12T11:36:57Z</time>
      </trkpt>
      <trkpt lat="42.347798000" lon="-2.586051000">
        <ele>1109.40</ele>
        <time>2012-05-12T11:36:59Z</time>
      </trkpt>
      <trkpt lat="42.347796000" lon="-2.586054000">
        <ele>1109.40</ele>
        <time>2012-05-12T11:37:02Z</time>
      </trkpt>
      <trkpt lat="42.347796000" lon="-2.586054000">
        <ele>1109.40</ele>
        <time>2012-05-12T11:37:02Z</time>
      </trkpt>
      <trkpt lat="42.347793000" lon="-2.586059000">
        <ele>1109.50</ele>
        <time>2012-05-12T11:37:04Z</time>
      </trkpt>
      <trkpt lat="42.347793000" lon="-2.586061000">
        <ele>1109.60</ele>
        <time>2012-05-12T11:37:06Z</time>
      </trkpt>
      <trkpt lat="42.347790000" lon="-2.586064000">
        <ele>1109.60</ele>
        <time>2012-05-12T11:37:09Z</time>
      </trkpt>
      <trkpt lat="42.347790000" lon="-2.586064000">
        <ele>1109.60</ele>
        <time>2012-05-12T11:37:09Z</time>
      </trkpt>
      <trkpt lat="42.347790000" lon="-2.586066000">
        <ele>1109.70</ele>
        <time>2012-05-12T11:37:11Z</time>
      </trkpt>
      <trkpt lat="42.347788000" lon="-2.586066000">
        <ele>1109.70</ele>
        <time>2012-05-12T11:37:13Z</time>
      </trkpt>
      <trkpt lat="42.347790000" lon="-2.586061000">
        <ele>1109.70</ele>
        <time>2012-05-12T11:37:18Z</time>
      </trkpt>
      <trkpt lat="42.347791000" lon="-2.586059000">
        <ele>1109.60</ele>
        <time>2012-05-12T11:37:18Z</time>
      </trkpt>
      <trkpt lat="42.347793000" lon="-2.586056000">
        <ele>1109.60</ele>
        <time>2012-05-12T11:37:20Z</time>
      </trkpt>
      <trkpt lat="42.347795000" lon="-2.586054000">
        <ele>1109.50</ele>
        <time>2012-05-12T11:37:21Z</time>
      </trkpt>
      <trkpt lat="42.347796000" lon="-2.586049000">
        <ele>1109.50</ele>
        <time>2012-05-12T11:37:23Z</time>
      </trkpt>
      <trkpt lat="42.347798000" lon="-2.586048000">
        <ele>1109.40</ele>
        <time>2012-05-12T11:37:23Z</time>
      </trkpt>
      <trkpt lat="42.347798000" lon="-2.586044000">
        <ele>1109.40</ele>
        <time>2012-05-12T11:37:25Z</time>
      </trkpt>
      <trkpt lat="42.347800000" lon="-2.586043000">
        <ele>1109.30</ele>
        <time>2012-05-12T11:37:25Z</time>
      </trkpt>
      <trkpt lat="42.347801000" lon="-2.586038000">
        <ele>1109.30</ele>
        <time>2012-05-12T11:37:28Z</time>
      </trkpt>
      <trkpt lat="42.347803000" lon="-2.586036000">
        <ele>1109.20</ele>
        <time>2012-05-12T11:37:30Z</time>
      </trkpt>
      <trkpt lat="42.347803000" lon="-2.586034000">
        <ele>1109.20</ele>
        <time>2012-05-12T11:37:30Z</time>
      </trkpt>
      <trkpt lat="42.347805000" lon="-2.586033000">
        <ele>1109.10</ele>
        <time>2012-05-12T11:37:32Z</time>
      </trkpt>
      <trkpt lat="42.347806000" lon="-2.586031000">
        <ele>1109.10</ele>
        <time>2012-05-12T11:37:35Z</time>
      </trkpt>
      <trkpt lat="42.347808000" lon="-2.586031000">
        <ele>1109.10</ele>
        <time>2012-05-12T11:37:37Z</time>
      </trkpt>
      <trkpt lat="42.347808000" lon="-2.586029000">
        <ele>1109.10</ele>
        <time>2012-05-12T11:37:37Z</time>
      </trkpt>
      <trkpt lat="42.347810000" lon="-2.586029000">
        <ele>1109.00</ele>
        <time>2012-05-12T11:37:39Z</time>
      </trkpt>
      <trkpt lat="42.347825000" lon="-2.586025000">
        <ele>1108.00</ele>
        <time>2012-05-12T11:37:44Z</time>
      </trkpt>
      <trkpt lat="42.347812000" lon="-2.586004000">
        <ele>1108.00</ele>
        <time>2012-05-12T11:37:48Z</time>
      </trkpt>
      <trkpt lat="42.347808000" lon="-2.585972000">
        <ele>1108.00</ele>
        <time>2012-05-12T11:37:51Z</time>
      </trkpt>
      <trkpt lat="42.347811000" lon="-2.585941000">
        <ele>1107.00</ele>
        <time>2012-05-12T11:37:56Z</time>
      </trkpt>
      <trkpt lat="42.347822000" lon="-2.585895000">
        <ele>1107.00</ele>
        <time>2012-05-12T11:38:00Z</time>
      </trkpt>
      <trkpt lat="42.347821000" lon="-2.585884000">
        <ele>1107.30</ele>
        <time>2012-05-12T11:38:01Z</time>
      </trkpt>
      <trkpt lat="42.347796000" lon="-2.585877000">
        <ele>1107.00</ele>
        <time>2012-05-12T11:38:05Z</time>
      </trkpt>
      <trkpt lat="42.347781000" lon="-2.585799000">
        <ele>1106.00</ele>
        <time>2012-05-12T11:38:08Z</time>
      </trkpt>
      <trkpt lat="42.347791000" lon="-2.585719000">
        <ele>1105.00</ele>
        <time>2012-05-12T11:38:12Z</time>
      </trkpt>
      <trkpt lat="42.347793000" lon="-2.585636000">
        <ele>1104.00</ele>
        <time>2012-05-12T11:38:17Z</time>
      </trkpt>
      <trkpt lat="42.347781000" lon="-2.585549000">
        <ele>1104.10</ele>
        <time>2012-05-12T11:38:22Z</time>
      </trkpt>
      <trkpt lat="42.347783000" lon="-2.585641000">
        <ele>1104.30</ele>
        <time>2012-05-12T11:38:24Z</time>
      </trkpt>
      <trkpt lat="42.347780000" lon="-2.585761000">
        <ele>1105.60</ele>
        <time>2012-05-12T11:38:26Z</time>
      </trkpt>
      <trkpt lat="42.347775000" lon="-2.585799000">
        <ele>1106.20</ele>
        <time>2012-05-12T11:38:26Z</time>
      </trkpt>
      <trkpt lat="42.347771000" lon="-2.585834000">
        <ele>1106.70</ele>
        <time>2012-05-12T11:38:28Z</time>
      </trkpt>
      <trkpt lat="42.347768000" lon="-2.585864000">
        <ele>1107.10</ele>
        <time>2012-05-12T11:38:29Z</time>
      </trkpt>
      <trkpt lat="42.347760000" lon="-2.585884000">
        <ele>1107.50</ele>
        <time>2012-05-12T11:38:29Z</time>
      </trkpt>
      <trkpt lat="42.347753000" lon="-2.585901000">
        <ele>1107.90</ele>
        <time>2012-05-12T11:38:31Z</time>
      </trkpt>
      <trkpt lat="42.347746000" lon="-2.585918000">
        <ele>1108.20</ele>
        <time>2012-05-12T11:38:31Z</time>
      </trkpt>
      <trkpt lat="42.347741000" lon="-2.585931000">
        <ele>1108.40</ele>
        <time>2012-05-12T11:38:33Z</time>
      </trkpt>
      <trkpt lat="42.347736000" lon="-2.585944000">
        <ele>1108.70</ele>
        <time>2012-05-12T11:38:33Z</time>
      </trkpt>
      <trkpt lat="42.347731000" lon="-2.585954000">
        <ele>1108.90</ele>
        <time>2012-05-12T11:38:35Z</time>
      </trkpt>
      <trkpt lat="42.347735000" lon="-2.585948000">
        <ele>1109.00</ele>
        <time>2012-05-12T11:38:36Z</time>
      </trkpt>
      <trkpt lat="42.347736000" lon="-2.585944000">
        <ele>1109.00</ele>
        <time>2012-05-12T11:38:38Z</time>
      </trkpt>
      <trkpt lat="42.347738000" lon="-2.585944000">
        <ele>1109.00</ele>
        <time>2012-05-12T11:38:38Z</time>
      </trkpt>
      <trkpt lat="42.347733000" lon="-2.585944000">
        <ele>1109.00</ele>
        <time>2012-05-12T11:38:45Z</time>
      </trkpt>
      <trkpt lat="42.347733000" lon="-2.585946000">
        <ele>1109.10</ele>
        <time>2012-05-12T11:38:45Z</time>
      </trkpt>
      <trkpt lat="42.347731000" lon="-2.585946000">
        <ele>1109.10</ele>
        <time>2012-05-12T11:38:47Z</time>
      </trkpt>
      <trkpt lat="42.347735000" lon="-2.585946000">
        <ele>1109.10</ele>
        <time>2012-05-12T11:38:48Z</time>
      </trkpt>
      <trkpt lat="42.347730000" lon="-2.585946000">
        <ele>1109.10</ele>
        <time>2012-05-12T11:38:50Z</time>
      </trkpt>
      <trkpt lat="42.347726000" lon="-2.585948000">
        <ele>1109.10</ele>
        <time>2012-05-12T11:38:52Z</time>
      </trkpt>
      <trkpt lat="42.347725000" lon="-2.585948000">
        <ele>1109.20</ele>
        <time>2012-05-12T11:38:52Z</time>
      </trkpt>
      <trkpt lat="42.347721000" lon="-2.585948000">
        <ele>1109.20</ele>
        <time>2012-05-12T11:38:59Z</time>
      </trkpt>
      <trkpt lat="42.347720000" lon="-2.585948000">
        <ele>1109.30</ele>
        <time>2012-05-12T11:39:01Z</time>
      </trkpt>
      <trkpt lat="42.347721000" lon="-2.585948000">
        <ele>1109.30</ele>
        <time>2012-05-12T11:39:04Z</time>
      </trkpt>
      <trkpt lat="42.347723000" lon="-2.585949000">
        <ele>1109.20</ele>
        <time>2012-05-12T11:39:04Z</time>
      </trkpt>
      <trkpt lat="42.347725000" lon="-2.585949000">
        <ele>1109.20</ele>
        <time>2012-05-12T11:39:06Z</time>
      </trkpt>
      <trkpt lat="42.347728000" lon="-2.585953000">
        <ele>1109.20</ele>
        <time>2012-05-12T11:39:08Z</time>
      </trkpt>
      <trkpt lat="42.347735000" lon="-2.585956000">
        <ele>1109.20</ele>
        <time>2012-05-12T11:39:09Z</time>
      </trkpt>
      <trkpt lat="42.347736000" lon="-2.585959000">
        <ele>1109.20</ele>
        <time>2012-05-12T11:39:11Z</time>
      </trkpt>
      <trkpt lat="42.347738000" lon="-2.585974000">
        <ele>1109.30</ele>
        <time>2012-05-12T11:39:13Z</time>
      </trkpt>
      <trkpt lat="42.347738000" lon="-2.585996000">
        <ele>1109.50</ele>
        <time>2012-05-12T11:39:16Z</time>
      </trkpt>
      <trkpt lat="42.347736000" lon="-2.586003000">
        <ele>1109.60</ele>
        <time>2012-05-12T11:39:16Z</time>
      </trkpt>
      <trkpt lat="42.347735000" lon="-2.586006000">
        <ele>1109.70</ele>
        <time>2012-05-12T11:39:18Z</time>
      </trkpt>
      <trkpt lat="42.347735000" lon="-2.586011000">
        <ele>1109.70</ele>
        <time>2012-05-12T11:39:18Z</time>
      </trkpt>
      <trkpt lat="42.347740000" lon="-2.586018000">
        <ele>1109.80</ele>
        <time>2012-05-12T11:39:20Z</time>
      </trkpt>
      <trkpt lat="42.347738000" lon="-2.586019000">
        <ele>1109.80</ele>
        <time>2012-05-12T11:39:23Z</time>
      </trkpt>
      <trkpt lat="42.347740000" lon="-2.586023000">
        <ele>1109.80</ele>
        <time>2012-05-12T11:39:23Z</time>
      </trkpt>
      <trkpt lat="42.347740000" lon="-2.586021000">
        <ele>1109.90</ele>
        <time>2012-05-12T11:39:25Z</time>
      </trkpt>
      <trkpt lat="42.347746000" lon="-2.586039000">
        <ele>1109.90</ele>
        <time>2012-05-12T11:39:32Z</time>
      </trkpt>
      <trkpt lat="42.347750000" lon="-2.586043000">
        <ele>1110.00</ele>
        <time>2012-05-12T11:39:34Z</time>
      </trkpt>
      <trkpt lat="42.347751000" lon="-2.586043000">
        <ele>1110.00</ele>
        <time>2012-05-12T11:39:34Z</time>
      </trkpt>
      <trkpt lat="42.347753000" lon="-2.586044000">
        <ele>1109.90</ele>
        <time>2012-05-12T11:39:35Z</time>
      </trkpt>
      <trkpt lat="42.347753000" lon="-2.586048000">
        <ele>1110.00</ele>
        <time>2012-05-12T11:39:37Z</time>
      </trkpt>
      <trkpt lat="42.347758000" lon="-2.586061000">
        <ele>1110.00</ele>
        <time>2012-05-12T11:39:41Z</time>
      </trkpt>
      <trkpt lat="42.347758000" lon="-2.586061000">
        <ele>1110.00</ele>
        <time>2012-05-12T11:39:42Z</time>
      </trkpt>
      <trkpt lat="42.347760000" lon="-2.586061000">
        <ele>1110.10</ele>
        <time>2012-05-12T11:39:44Z</time>
      </trkpt>
      <trkpt lat="42.347760000" lon="-2.586063000">
        <ele>1110.10</ele>
        <time>2012-05-12T11:39:44Z</time>
      </trkpt>
      <trkpt lat="42.347758000" lon="-2.586064000">
        <ele>1110.10</ele>
        <time>2012-05-12T11:39:48Z</time>
      </trkpt>
      <trkpt lat="42.347758000" lon="-2.586069000">
        <ele>1110.10</ele>
        <time>2012-05-12T11:39:51Z</time>
      </trkpt>
      <trkpt lat="42.347758000" lon="-2.586069000">
        <ele>1110.10</ele>
        <time>2012-05-12T11:39:51Z</time>
      </trkpt>
      <trkpt lat="42.347756000" lon="-2.586071000">
        <ele>1110.20</ele>
        <time>2012-05-12T11:39:53Z</time>
      </trkpt>
      <trkpt lat="42.347756000" lon="-2.586078000">
        <ele>1110.20</ele>
        <time>2012-05-12T11:39:55Z</time>
      </trkpt>
      <trkpt lat="42.347756000" lon="-2.586079000">
        <ele>1110.30</ele>
        <time>2012-05-12T11:39:56Z</time>
      </trkpt>
      <trkpt lat="42.347755000" lon="-2.586083000">
        <ele>1110.30</ele>
        <time>2012-05-12T11:39:58Z</time>
      </trkpt>
      <trkpt lat="42.347753000" lon="-2.586083000">
        <ele>1110.40</ele>
        <time>2012-05-12T11:40:00Z</time>
      </trkpt>
      <trkpt lat="42.347751000" lon="-2.586084000">
        <ele>1110.40</ele>
        <time>2012-05-12T11:40:00Z</time>
      </trkpt>
      <trkpt lat="42.347750000" lon="-2.586086000">
        <ele>1110.40</ele>
        <time>2012-05-12T11:40:02Z</time>
      </trkpt>
      <trkpt lat="42.347748000" lon="-2.586089000">
        <ele>1110.50</ele>
        <time>2012-05-12T11:40:03Z</time>
      </trkpt>
      <trkpt lat="42.347746000" lon="-2.586093000">
        <ele>1110.50</ele>
        <time>2012-05-12T11:40:05Z</time>
      </trkpt>
      <trkpt lat="42.347745000" lon="-2.586096000">
        <ele>1110.60</ele>
        <time>2012-05-12T11:40:07Z</time>
      </trkpt>
      <trkpt lat="42.347745000" lon="-2.586099000">
        <ele>1110.60</ele>
        <time>2012-05-12T11:40:07Z</time>
      </trkpt>
      <trkpt lat="42.347746000" lon="-2.586104000">
        <ele>1110.70</ele>
        <time>2012-05-12T11:40:10Z</time>
      </trkpt>
      <trkpt lat="42.347748000" lon="-2.586103000">
        <ele>1110.70</ele>
        <time>2012-05-12T11:40:12Z</time>
      </trkpt>
      <trkpt lat="42.347748000" lon="-2.586101000">
        <ele>1110.70</ele>
        <time>2012-05-12T11:40:12Z</time>
      </trkpt>
      <trkpt lat="42.347750000" lon="-2.586101000">
        <ele>1110.70</ele>
        <time>2012-05-12T11:40:14Z</time>
      </trkpt>
      <trkpt lat="42.347750000" lon="-2.586106000">
        <ele>1110.70</ele>
        <time>2012-05-12T11:40:17Z</time>
      </trkpt>
      <trkpt lat="42.347748000" lon="-2.586109000">
        <ele>1110.70</ele>
        <time>2012-05-12T11:40:21Z</time>
      </trkpt>
      <trkpt lat="42.347755000" lon="-2.586111000">
        <ele>1110.70</ele>
        <time>2012-05-12T11:40:24Z</time>
      </trkpt>
      <trkpt lat="42.347765000" lon="-2.586109000">
        <ele>1110.70</ele>
        <time>2012-05-12T11:40:26Z</time>
      </trkpt>
      <trkpt lat="42.347806000" lon="-2.586128000">
        <ele>1110.40</ele>
        <time>2012-05-12T11:40:28Z</time>
      </trkpt>
      <trkpt lat="42.347841000" lon="-2.586133000">
        <ele>1110.10</ele>
        <time>2012-05-12T11:40:28Z</time>
      </trkpt>
      <trkpt lat="42.347883000" lon="-2.586133000">
        <ele>1109.70</ele>
        <time>2012-05-12T11:40:29Z</time>
      </trkpt>
      <trkpt lat="42.348125000" lon="-2.586146000">
        <ele>1106.30</ele>
        <time>2012-05-12T11:40:33Z</time>
      </trkpt>
      <trkpt lat="42.348918000" lon="-2.586066000">
        <ele>1092.10</ele>
        <time>2012-05-12T11:40:45Z</time>
      </trkpt>
      <trkpt lat="42.354526000" lon="-2.584468000">
        <ele>995.00</ele>
        <time>2012-05-12T11:41:57Z</time>
      </trkpt>
      <trkpt lat="42.354593000" lon="-2.584424000">
        <ele>994.60</ele>
        <time>2012-05-12T11:41:58Z</time>
      </trkpt>
      <trkpt lat="42.354935000" lon="-2.584069000">
        <ele>992.50</ele>
        <time>2012-05-12T11:42:04Z</time>
      </trkpt>
      <trkpt lat="42.355151000" lon="-2.583953000">
        <ele>990.90</ele>
        <time>2012-05-12T11:42:07Z</time>
      </trkpt>
      <trkpt lat="42.355653000" lon="-2.583726000">
        <ele>984.80</ele>
        <time>2012-05-12T11:42:17Z</time>
      </trkpt>
      <trkpt lat="42.355680000" lon="-2.583708000">
        <ele>984.40</ele>
        <time>2012-05-12T11:42:19Z</time>
      </trkpt>
      <trkpt lat="42.355726000" lon="-2.583663000">
        <ele>984.00</ele>
        <time>2012-05-12T11:42:21Z</time>
      </trkpt>
      <trkpt lat="42.355868000" lon="-2.583554000">
        <ele>982.70</ele>
        <time>2012-05-12T11:42:26Z</time>
      </trkpt>
      <trkpt lat="42.356083000" lon="-2.583476000">
        <ele>980.10</ele>
        <time>2012-05-12T11:42:30Z</time>
      </trkpt>
      <trkpt lat="42.356411000" lon="-2.583424000">
        <ele>975.60</ele>
        <time>2012-05-12T11:42:35Z</time>
      </trkpt>
      <trkpt lat="42.357283000" lon="-2.582851000">
        <ele>964.90</ele>
        <time>2012-05-12T11:42:49Z</time>
      </trkpt>
      <trkpt lat="42.357333000" lon="-2.582806000">
        <ele>963.70</ele>
        <time>2012-05-12T11:42:51Z</time>
      </trkpt>
      <trkpt lat="42.357378000" lon="-2.582753000">
        <ele>962.60</ele>
        <time>2012-05-12T11:42:52Z</time>
      </trkpt>
      <trkpt lat="42.357415000" lon="-2.582684000">
        <ele>961.50</ele>
        <time>2012-05-12T11:42:52Z</time>
      </trkpt>
      <trkpt lat="42.357436000" lon="-2.582609000">
        <ele>960.70</ele>
        <time>2012-05-12T11:42:54Z</time>
      </trkpt>
      <trkpt lat="42.357445000" lon="-2.582531000">
        <ele>960.20</ele>
        <time>2012-05-12T11:42:54Z</time>
      </trkpt>
      <trkpt lat="42.357441000" lon="-2.582458000">
        <ele>959.90</ele>
        <time>2012-05-12T11:42:56Z</time>
      </trkpt>
      <trkpt lat="42.357366000" lon="-2.582259000">
        <ele>960.60</ele>
        <time>2012-05-12T11:42:59Z</time>
      </trkpt>
      <trkpt lat="42.357358000" lon="-2.582223000">
        <ele>960.70</ele>
        <time>2012-05-12T11:43:01Z</time>
      </trkpt>
      <trkpt lat="42.357355000" lon="-2.582191000">
        <ele>961.00</ele>
        <time>2012-05-12T11:43:01Z</time>
      </trkpt>
      <trkpt lat="42.357360000" lon="-2.582134000">
        <ele>961.00</ele>
        <time>2012-05-12T11:43:03Z</time>
      </trkpt>
      <trkpt lat="42.357368000" lon="-2.582109000">
        <ele>960.90</ele>
        <time>2012-05-12T11:43:05Z</time>
      </trkpt>
      <trkpt lat="42.357376000" lon="-2.582104000">
        <ele>960.80</ele>
        <time>2012-05-12T11:43:06Z</time>
      </trkpt>
      <trkpt lat="42.357381000" lon="-2.582101000">
        <ele>960.70</ele>
        <time>2012-05-12T11:43:06Z</time>
      </trkpt>
      <trkpt lat="42.357386000" lon="-2.582094000">
        <ele>960.60</ele>
        <time>2012-05-12T11:43:08Z</time>
      </trkpt>
      <trkpt lat="42.357396000" lon="-2.582079000">
        <ele>960.30</ele>
        <time>2012-05-12T11:43:10Z</time>
      </trkpt>
      <trkpt lat="42.357406000" lon="-2.582073000">
        <ele>960.10</ele>
        <time>2012-05-12T11:43:12Z</time>
      </trkpt>
      <trkpt lat="42.357415000" lon="-2.582071000">
        <ele>959.90</ele>
        <time>2012-05-12T11:43:13Z</time>
      </trkpt>
      <trkpt lat="42.357418000" lon="-2.582066000">
        <ele>959.80</ele>
        <time>2012-05-12T11:43:13Z</time>
      </trkpt>
      <trkpt lat="42.357421000" lon="-2.582061000">
        <ele>959.60</ele>
        <time>2012-05-12T11:43:15Z</time>
      </trkpt>
      <trkpt lat="42.357425000" lon="-2.582059000">
        <ele>959.50</ele>
        <time>2012-05-12T11:43:15Z</time>
      </trkpt>
      <trkpt lat="42.357431000" lon="-2.582056000">
        <ele>959.30</ele>
        <time>2012-05-12T11:43:17Z</time>
      </trkpt>
      <trkpt lat="42.357435000" lon="-2.582054000">
        <ele>959.30</ele>
        <time>2012-05-12T11:43:18Z</time>
      </trkpt>
      <trkpt lat="42.357436000" lon="-2.582053000">
        <ele>959.20</ele>
        <time>2012-05-12T11:43:20Z</time>
      </trkpt>
      <trkpt lat="42.357440000" lon="-2.582051000">
        <ele>959.10</ele>
        <time>2012-05-12T11:43:20Z</time>
      </trkpt>
      <trkpt lat="42.357443000" lon="-2.582049000">
        <ele>959.00</ele>
        <time>2012-05-12T11:43:22Z</time>
      </trkpt>
      <trkpt lat="42.357445000" lon="-2.582048000">
        <ele>959.00</ele>
        <time>2012-05-12T11:43:22Z</time>
      </trkpt>
      <trkpt lat="42.357446000" lon="-2.582046000">
        <ele>958.90</ele>
        <time>2012-05-12T11:43:24Z</time>
      </trkpt>
      <trkpt lat="42.357450000" lon="-2.582046000">
        <ele>958.80</ele>
        <time>2012-05-12T11:43:24Z</time>
      </trkpt>
      <trkpt lat="42.357451000" lon="-2.582044000">
        <ele>958.80</ele>
        <time>2012-05-12T11:43:25Z</time>
      </trkpt>
      <trkpt lat="42.357453000" lon="-2.582044000">
        <ele>958.70</ele>
        <time>2012-05-12T11:43:27Z</time>
      </trkpt>
      <trkpt lat="42.357455000" lon="-2.582043000">
        <ele>958.70</ele>
        <time>2012-05-12T11:43:27Z</time>
      </trkpt>
      <trkpt lat="42.357456000" lon="-2.582041000">
        <ele>958.60</ele>
        <time>2012-05-12T11:43:29Z</time>
      </trkpt>
      <trkpt lat="42.357458000" lon="-2.582041000">
        <ele>958.60</ele>
        <time>2012-05-12T11:43:29Z</time>
      </trkpt>
      <trkpt lat="42.357460000" lon="-2.582039000">
        <ele>958.50</ele>
        <time>2012-05-12T11:43:31Z</time>
      </trkpt>
      <trkpt lat="42.357463000" lon="-2.582039000">
        <ele>958.50</ele>
        <time>2012-05-12T11:43:32Z</time>
      </trkpt>
      <trkpt lat="42.357463000" lon="-2.582039000">
        <ele>958.50</ele>
        <time>2012-05-12T11:43:34Z</time>
      </trkpt>
      <trkpt lat="42.357466000" lon="-2.582038000">
        <ele>958.40</ele>
        <time>2012-05-12T11:43:36Z</time>
      </trkpt>
      <trkpt lat="42.357470000" lon="-2.582038000">
        <ele>958.30</ele>
        <time>2012-05-12T11:43:36Z</time>
      </trkpt>
      <trkpt lat="42.357471000" lon="-2.582036000">
        <ele>958.30</ele>
        <time>2012-05-12T11:43:38Z</time>
      </trkpt>
      <trkpt lat="42.357473000" lon="-2.582034000">
        <ele>958.20</ele>
        <time>2012-05-12T11:43:38Z</time>
      </trkpt>
      <trkpt lat="42.357475000" lon="-2.582033000">
        <ele>958.20</ele>
        <time>2012-05-12T11:43:39Z</time>
      </trkpt>
      <trkpt lat="42.357476000" lon="-2.582033000">
        <ele>958.10</ele>
        <time>2012-05-12T11:43:41Z</time>
      </trkpt>
      <trkpt lat="42.357478000" lon="-2.582033000">
        <ele>958.10</ele>
        <time>2012-05-12T11:43:41Z</time>
      </trkpt>
      <trkpt lat="42.357480000" lon="-2.582033000">
        <ele>958.00</ele>
        <time>2012-05-12T11:43:43Z</time>
      </trkpt>
      <trkpt lat="42.357481000" lon="-2.582031000">
        <ele>958.00</ele>
        <time>2012-05-12T11:43:45Z</time>
      </trkpt>
      <trkpt lat="42.357483000" lon="-2.582031000">
        <ele>958.00</ele>
        <time>2012-05-12T11:43:46Z</time>
      </trkpt>
      <trkpt lat="42.357483000" lon="-2.582031000">
        <ele>958.00</ele>
        <time>2012-05-12T11:43:46Z</time>
      </trkpt>
      <trkpt lat="42.357486000" lon="-2.582029000">
        <ele>957.90</ele>
        <time>2012-05-12T11:43:48Z</time>
      </trkpt>
      <trkpt lat="42.357488000" lon="-2.582029000">
        <ele>957.80</ele>
        <time>2012-05-12T11:43:48Z</time>
      </trkpt>
      <trkpt lat="42.357491000" lon="-2.582028000">
        <ele>957.80</ele>
        <time>2012-05-12T11:43:50Z</time>
      </trkpt>
      <trkpt lat="42.357493000" lon="-2.582028000">
        <ele>957.70</ele>
        <time>2012-05-12T11:43:50Z</time>
      </trkpt>
      <trkpt lat="42.357495000" lon="-2.582028000">
        <ele>957.70</ele>
        <time>2012-05-12T11:43:52Z</time>
      </trkpt>
      <trkpt lat="42.357496000" lon="-2.582028000">
        <ele>957.60</ele>
        <time>2012-05-12T11:43:53Z</time>
      </trkpt>
      <trkpt lat="42.357498000" lon="-2.582026000">
        <ele>957.60</ele>
        <time>2012-05-12T11:43:53Z</time>
      </trkpt>
      <trkpt lat="42.357500000" lon="-2.582026000">
        <ele>957.60</ele>
        <time>2012-05-12T11:43:55Z</time>
      </trkpt>
      <trkpt lat="42.357501000" lon="-2.582026000">
        <ele>957.50</ele>
        <time>2012-05-12T11:43:55Z</time>
      </trkpt>
      <trkpt lat="42.357505000" lon="-2.582026000">
        <ele>957.50</ele>
        <time>2012-05-12T11:43:57Z</time>
      </trkpt>
      <trkpt lat="42.357506000" lon="-2.582026000">
        <ele>957.40</ele>
        <time>2012-05-12T11:43:59Z</time>
      </trkpt>
      <trkpt lat="42.357508000" lon="-2.582026000">
        <ele>957.40</ele>
        <time>2012-05-12T11:44:00Z</time>
      </trkpt>
      <trkpt lat="42.357510000" lon="-2.582026000">
        <ele>957.30</ele>
        <time>2012-05-12T11:44:00Z</time>
      </trkpt>
      <trkpt lat="42.357513000" lon="-2.582026000">
        <ele>957.30</ele>
        <time>2012-05-12T11:44:02Z</time>
      </trkpt>
      <trkpt lat="42.357515000" lon="-2.582026000">
        <ele>957.20</ele>
        <time>2012-05-12T11:44:02Z</time>
      </trkpt>
      <trkpt lat="42.357518000" lon="-2.582024000">
        <ele>957.20</ele>
        <time>2012-05-12T11:44:04Z</time>
      </trkpt>
      <trkpt lat="42.357520000" lon="-2.582024000">
        <ele>957.10</ele>
        <time>2012-05-12T11:44:04Z</time>
      </trkpt>
      <trkpt lat="42.357521000" lon="-2.582024000">
        <ele>957.10</ele>
        <time>2012-05-12T11:44:07Z</time>
      </trkpt>
      <trkpt lat="42.357523000" lon="-2.582024000">
        <ele>957.00</ele>
        <time>2012-05-12T11:44:07Z</time>
      </trkpt>
      <trkpt lat="42.357525000" lon="-2.582026000">
        <ele>957.00</ele>
        <time>2012-05-12T11:44:09Z</time>
      </trkpt>
      <trkpt lat="42.357526000" lon="-2.582026000">
        <ele>957.00</ele>
        <time>2012-05-12T11:44:09Z</time>
      </trkpt>
      <trkpt lat="42.357530000" lon="-2.582026000">
        <ele>956.90</ele>
        <time>2012-05-12T11:44:11Z</time>
      </trkpt>
      <trkpt lat="42.357531000" lon="-2.582026000">
        <ele>956.90</ele>
        <time>2012-05-12T11:44:14Z</time>
      </trkpt>
      <trkpt lat="42.357533000" lon="-2.582028000">
        <ele>956.80</ele>
        <time>2012-05-12T11:44:14Z</time>
      </trkpt>
      <trkpt lat="42.357536000" lon="-2.582029000">
        <ele>956.80</ele>
        <time>2012-05-12T11:44:18Z</time>
      </trkpt>
      <trkpt lat="42.357538000" lon="-2.582029000">
        <ele>956.70</ele>
        <time>2012-05-12T11:44:18Z</time>
      </trkpt>
      <trkpt lat="42.357543000" lon="-2.582034000">
        <ele>956.70</ele>
        <time>2012-05-12T11:44:23Z</time>
      </trkpt>
      <trkpt lat="42.357545000" lon="-2.582036000">
        <ele>956.60</ele>
        <time>2012-05-12T11:44:25Z</time>
      </trkpt>
      <trkpt lat="42.357550000" lon="-2.582039000">
        <ele>956.60</ele>
        <time>2012-05-12T11:44:28Z</time>
      </trkpt>
      <trkpt lat="42.357553000" lon="-2.582039000">
        <ele>956.50</ele>
        <time>2012-05-12T11:44:28Z</time>
      </trkpt>
      <trkpt lat="42.357555000" lon="-2.582041000">
        <ele>956.50</ele>
        <time>2012-05-12T11:44:30Z</time>
      </trkpt>
      <trkpt lat="42.357556000" lon="-2.582041000">
        <ele>956.40</ele>
        <time>2012-05-12T11:44:30Z</time>
      </trkpt>
      <trkpt lat="42.357560000" lon="-2.582041000">
        <ele>956.40</ele>
        <time>2012-05-12T11:44:32Z</time>
      </trkpt>
      <trkpt lat="42.357561000" lon="-2.582041000">
        <ele>956.30</ele>
        <time>2012-05-12T11:44:33Z</time>
      </trkpt>
      <trkpt lat="42.357563000" lon="-2.582041000">
        <ele>956.30</ele>
        <time>2012-05-12T11:44:33Z</time>
      </trkpt>
      <trkpt lat="42.357563000" lon="-2.582043000">
        <ele>956.30</ele>
        <time>2012-05-12T11:44:35Z</time>
      </trkpt>
      <trkpt lat="42.357566000" lon="-2.582041000">
        <ele>956.20</ele>
        <time>2012-05-12T11:44:35Z</time>
      </trkpt>
      <trkpt lat="42.357570000" lon="-2.582041000">
        <ele>956.20</ele>
        <time>2012-05-12T11:44:37Z</time>
      </trkpt>
      <trkpt lat="42.357570000" lon="-2.582041000">
        <ele>956.20</ele>
        <time>2012-05-12T11:44:39Z</time>
      </trkpt>
      <trkpt lat="42.357573000" lon="-2.582041000">
        <ele>956.10</ele>
        <time>2012-05-12T11:44:44Z</time>
      </trkpt>
      <trkpt lat="42.357573000" lon="-2.582041000">
        <ele>956.10</ele>
        <time>2012-05-12T11:44:46Z</time>
      </trkpt>
      <trkpt lat="42.357571000" lon="-2.582041000">
        <ele>956.10</ele>
        <time>2012-05-12T11:44:47Z</time>
      </trkpt>
      <trkpt lat="42.357570000" lon="-2.582044000">
        <ele>956.10</ele>
        <time>2012-05-12T11:44:51Z</time>
      </trkpt>
      <trkpt lat="42.357568000" lon="-2.582044000">
        <ele>956.10</ele>
        <time>2012-05-12T11:44:51Z</time>
      </trkpt>
      <trkpt lat="42.357568000" lon="-2.582044000">
        <ele>956.10</ele>
        <time>2012-05-12T11:44:53Z</time>
      </trkpt>
      <trkpt lat="42.357566000" lon="-2.582046000">
        <ele>956.20</ele>
        <time>2012-05-12T11:44:54Z</time>
      </trkpt>
      <trkpt lat="42.357565000" lon="-2.582046000">
        <ele>956.20</ele>
        <time>2012-05-12T11:44:58Z</time>
      </trkpt>
      <trkpt lat="42.357563000" lon="-2.582046000">
        <ele>956.30</ele>
        <time>2012-05-12T11:45:00Z</time>
      </trkpt>
      <trkpt lat="42.357561000" lon="-2.582046000">
        <ele>956.30</ele>
        <time>2012-05-12T11:45:01Z</time>
      </trkpt>
      <trkpt lat="42.357560000" lon="-2.582044000">
        <ele>956.30</ele>
        <time>2012-05-12T11:45:03Z</time>
      </trkpt>
      <trkpt lat="42.357560000" lon="-2.582043000">
        <ele>956.30</ele>
        <time>2012-05-12T11:45:05Z</time>
      </trkpt>
      <trkpt lat="42.357558000" lon="-2.582043000">
        <ele>956.40</ele>
        <time>2012-05-12T11:45:06Z</time>
      </trkpt>
      <trkpt lat="42.357560000" lon="-2.582043000">
        <ele>956.40</ele>
        <time>2012-05-12T11:45:12Z</time>
      </trkpt>
      <trkpt lat="42.357561000" lon="-2.582043000">
        <ele>956.30</ele>
        <time>2012-05-12T11:45:13Z</time>
      </trkpt>
      <trkpt lat="42.357565000" lon="-2.582043000">
        <ele>956.30</ele>
        <time>2012-05-12T11:45:15Z</time>
      </trkpt>
      <trkpt lat="42.357566000" lon="-2.582043000">
        <ele>956.20</ele>
        <time>2012-05-12T11:45:17Z</time>
      </trkpt>
      <trkpt lat="42.357570000" lon="-2.582041000">
        <ele>956.20</ele>
        <time>2012-05-12T11:45:19Z</time>
      </trkpt>
      <trkpt lat="42.357571000" lon="-2.582041000">
        <ele>956.10</ele>
        <time>2012-05-12T11:45:19Z</time>
      </trkpt>
      <trkpt lat="42.357575000" lon="-2.582041000">
        <ele>956.10</ele>
        <time>2012-05-12T11:45:22Z</time>
      </trkpt>
      <trkpt lat="42.357576000" lon="-2.582041000">
        <ele>956.00</ele>
        <time>2012-05-12T11:45:22Z</time>
      </trkpt>
      <trkpt lat="42.357578000" lon="-2.582043000">
        <ele>956.00</ele>
        <time>2012-05-12T11:45:24Z</time>
      </trkpt>
      <trkpt lat="42.357581000" lon="-2.582043000">
        <ele>955.90</ele>
        <time>2012-05-12T11:45:24Z</time>
      </trkpt>
      <trkpt lat="42.357585000" lon="-2.582043000">
        <ele>955.90</ele>
        <time>2012-05-12T11:45:26Z</time>
      </trkpt>
      <trkpt lat="42.357586000" lon="-2.582043000">
        <ele>955.80</ele>
        <time>2012-05-12T11:45:27Z</time>
      </trkpt>
      <trkpt lat="42.357590000" lon="-2.582044000">
        <ele>955.80</ele>
        <time>2012-05-12T11:45:29Z</time>
      </trkpt>
      <trkpt lat="42.357591000" lon="-2.582044000">
        <ele>955.70</ele>
        <time>2012-05-12T11:45:29Z</time>
      </trkpt>
      <trkpt lat="42.357593000" lon="-2.582044000">
        <ele>955.70</ele>
        <time>2012-05-12T11:45:31Z</time>
      </trkpt>
      <trkpt lat="42.357595000" lon="-2.582044000">
        <ele>955.60</ele>
        <time>2012-05-12T11:45:31Z</time>
      </trkpt>
      <trkpt lat="42.357596000" lon="-2.582046000">
        <ele>955.60</ele>
        <time>2012-05-12T11:45:33Z</time>
      </trkpt>
      <trkpt lat="42.357598000" lon="-2.582046000">
        <ele>955.60</ele>
        <time>2012-05-12T11:45:34Z</time>
      </trkpt>
      <trkpt lat="42.357600000" lon="-2.582046000">
        <ele>955.50</ele>
        <time>2012-05-12T11:45:34Z</time>
      </trkpt>
      <trkpt lat="42.357605000" lon="-2.582054000">
        <ele>955.50</ele>
        <time>2012-05-12T11:45:36Z</time>
      </trkpt>
      <trkpt lat="42.357718000" lon="-2.582198000">
        <ele>953.90</ele>
        <time>2012-05-12T11:45:43Z</time>
      </trkpt>
      <trkpt lat="42.357843000" lon="-2.582321000">
        <ele>951.60</ele>
        <time>2012-05-12T11:45:47Z</time>
      </trkpt>
      <trkpt lat="42.357958000" lon="-2.582493000">
        <ele>949.00</ele>
        <time>2012-05-12T11:45:50Z</time>
      </trkpt>
      <trkpt lat="42.358026000" lon="-2.582768000">
        <ele>946.40</ele>
        <time>2012-05-12T11:45:54Z</time>
      </trkpt>
      <trkpt lat="42.358030000" lon="-2.582914000">
        <ele>946.00</ele>
        <time>2012-05-12T11:45:55Z</time>
      </trkpt>
      <trkpt lat="42.357985000" lon="-2.583166000">
        <ele>945.00</ele>
        <time>2012-05-12T11:45:59Z</time>
      </trkpt>
      <trkpt lat="42.357978000" lon="-2.583251000">
        <ele>944.50</ele>
        <time>2012-05-12T11:45:59Z</time>
      </trkpt>
      <trkpt lat="42.357985000" lon="-2.583333000">
        <ele>943.80</ele>
        <time>2012-05-12T11:46:00Z</time>
      </trkpt>
      <trkpt lat="42.358008000" lon="-2.583408000">
        <ele>942.80</ele>
        <time>2012-05-12T11:46:02Z</time>
      </trkpt>
      <trkpt lat="42.358048000" lon="-2.583473000">
        <ele>941.50</ele>
        <time>2012-05-12T11:46:02Z</time>
      </trkpt>
      <trkpt lat="42.358480000" lon="-2.583921000">
        <ele>928.20</ele>
        <time>2012-05-12T11:46:11Z</time>
      </trkpt>
      <trkpt lat="42.358531000" lon="-2.583991000">
        <ele>927.00</ele>
        <time>2012-05-12T11:46:11Z</time>
      </trkpt>
      <trkpt lat="42.358706000" lon="-2.584156000">
        <ele>920.00</ele>
        <time>2012-05-12T11:46:14Z</time>
      </trkpt>
      <trkpt lat="42.358841000" lon="-2.584224000">
        <ele>916.60</ele>
        <time>2012-05-12T11:46:16Z</time>
      </trkpt>
      <trkpt lat="42.358961000" lon="-2.584258000">
        <ele>914.10</ele>
        <time>2012-05-12T11:46:18Z</time>
      </trkpt>
      <trkpt lat="42.359005000" lon="-2.584258000">
        <ele>913.30</ele>
        <time>2012-05-12T11:46:20Z</time>
      </trkpt>
      <trkpt lat="42.359040000" lon="-2.584239000">
        <ele>912.80</ele>
        <time>2012-05-12T11:46:21Z</time>
      </trkpt>
      <trkpt lat="42.359143000" lon="-2.584134000">
        <ele>912.40</ele>
        <time>2012-05-12T11:46:23Z</time>
      </trkpt>
      <trkpt lat="42.359276000" lon="-2.583866000">
        <ele>913.50</ele>
        <time>2012-05-12T11:46:28Z</time>
      </trkpt>
      <trkpt lat="42.359401000" lon="-2.583489000">
        <ele>914.00</ele>
        <time>2012-05-12T11:46:32Z</time>
      </trkpt>
      <trkpt lat="42.359423000" lon="-2.583443000">
        <ele>913.80</ele>
        <time>2012-05-12T11:46:34Z</time>
      </trkpt>
      <trkpt lat="42.359451000" lon="-2.583411000">
        <ele>913.50</ele>
        <time>2012-05-12T11:46:35Z</time>
      </trkpt>
      <trkpt lat="42.359493000" lon="-2.583399000">
        <ele>913.00</ele>
        <time>2012-05-12T11:46:35Z</time>
      </trkpt>
      <trkpt lat="42.359536000" lon="-2.583413000">
        <ele>912.40</ele>
        <time>2012-05-12T11:46:37Z</time>
      </trkpt>
      <trkpt lat="42.359570000" lon="-2.583443000">
        <ele>911.90</ele>
        <time>2012-05-12T11:46:37Z</time>
      </trkpt>
      <trkpt lat="42.359600000" lon="-2.583489000">
        <ele>911.30</ele>
        <time>2012-05-12T11:46:39Z</time>
      </trkpt>
      <trkpt lat="42.359718000" lon="-2.583738000">
        <ele>909.30</ele>
        <time>2012-05-12T11:46:42Z</time>
      </trkpt>
      <trkpt lat="42.359753000" lon="-2.583771000">
        <ele>908.70</ele>
        <time>2012-05-12T11:46:44Z</time>
      </trkpt>
      <trkpt lat="42.359791000" lon="-2.583791000">
        <ele>908.00</ele>
        <time>2012-05-12T11:46:44Z</time>
      </trkpt>
      <trkpt lat="42.359836000" lon="-2.583788000">
        <ele>907.30</ele>
        <time>2012-05-12T11:46:46Z</time>
      </trkpt>
      <trkpt lat="42.359931000" lon="-2.583746000">
        <ele>905.90</ele>
        <time>2012-05-12T11:46:48Z</time>
      </trkpt>
      <trkpt lat="42.360041000" lon="-2.583601000">
        <ele>904.00</ele>
        <time>2012-05-12T11:46:51Z</time>
      </trkpt>
      <trkpt lat="42.360183000" lon="-2.583289000">
        <ele>901.20</ele>
        <time>2012-05-12T11:46:56Z</time>
      </trkpt>
      <trkpt lat="42.360525000" lon="-2.581966000">
        <ele>891.60</ele>
        <time>2012-05-12T11:47:08Z</time>
      </trkpt>
      <trkpt lat="42.360730000" lon="-2.581413000">
        <ele>884.80</ele>
        <time>2012-05-12T11:47:14Z</time>
      </trkpt>
      <trkpt lat="42.360745000" lon="-2.581324000">
        <ele>884.30</ele>
        <time>2012-05-12T11:47:15Z</time>
      </trkpt>
      <trkpt lat="42.360751000" lon="-2.580828000">
        <ele>881.40</ele>
        <time>2012-05-12T11:47:21Z</time>
      </trkpt>
      <trkpt lat="42.360706000" lon="-2.580571000">
        <ele>881.00</ele>
        <time>2012-05-12T11:47:24Z</time>
      </trkpt>
      <trkpt lat="42.360683000" lon="-2.580501000">
        <ele>881.00</ele>
        <time>2012-05-12T11:47:24Z</time>
      </trkpt>
      <trkpt lat="42.360131000" lon="-2.579801000">
        <ele>885.20</ele>
        <time>2012-05-12T11:47:38Z</time>
      </trkpt>
      <trkpt lat="42.359681000" lon="-2.579336000">
        <ele>891.30</ele>
        <time>2012-05-12T11:47:48Z</time>
      </trkpt>
      <trkpt lat="42.359625000" lon="-2.579259000">
        <ele>892.10</ele>
        <time>2012-05-12T11:47:50Z</time>
      </trkpt>
      <trkpt lat="42.359606000" lon="-2.579224000">
        <ele>892.40</ele>
        <time>2012-05-12T11:47:52Z</time>
      </trkpt>
      <trkpt lat="42.359601000" lon="-2.579184000">
        <ele>892.50</ele>
        <time>2012-05-12T11:47:52Z</time>
      </trkpt>
      <trkpt lat="42.359605000" lon="-2.579141000">
        <ele>892.40</ele>
        <time>2012-05-12T11:47:54Z</time>
      </trkpt>
      <trkpt lat="42.359621000" lon="-2.579098000">
        <ele>892.00</ele>
        <time>2012-05-12T11:47:54Z</time>
      </trkpt>
      <trkpt lat="42.359648000" lon="-2.579053000">
        <ele>891.40</ele>
        <time>2012-05-12T11:47:55Z</time>
      </trkpt>
      <trkpt lat="42.359761000" lon="-2.578921000">
        <ele>888.30</ele>
        <time>2012-05-12T11:47:59Z</time>
      </trkpt>
      <trkpt lat="42.359946000" lon="-2.578761000">
        <ele>882.40</ele>
        <time>2012-05-12T11:48:04Z</time>
      </trkpt>
      <trkpt lat="42.360178000" lon="-2.578648000">
        <ele>876.30</ele>
        <time>2012-05-12T11:48:09Z</time>
      </trkpt>
      <trkpt lat="42.360798000" lon="-2.578071000">
        <ele>861.30</ele>
        <time>2012-05-12T11:48:20Z</time>
      </trkpt>
      <trkpt lat="42.360868000" lon="-2.578024000">
        <ele>860.30</ele>
        <time>2012-05-12T11:48:20Z</time>
      </trkpt>
      <trkpt lat="42.361860000" lon="-2.577811000">
        <ele>840.00</ele>
        <time>2012-05-12T11:48:34Z</time>
      </trkpt>
      <trkpt lat="42.361921000" lon="-2.577814000">
        <ele>838.90</ele>
        <time>2012-05-12T11:48:36Z</time>
      </trkpt>
      <trkpt lat="42.362478000" lon="-2.578021000">
        <ele>829.20</ele>
        <time>2012-05-12T11:48:44Z</time>
      </trkpt>
      <trkpt lat="42.362535000" lon="-2.578029000">
        <ele>828.10</ele>
        <time>2012-05-12T11:48:44Z</time>
      </trkpt>
      <trkpt lat="42.362743000" lon="-2.578009000">
        <ele>823.80</ele>
        <time>2012-05-12T11:48:48Z</time>
      </trkpt>
      <trkpt lat="42.362788000" lon="-2.578018000">
        <ele>822.90</ele>
        <time>2012-05-12T11:48:49Z</time>
      </trkpt>
      <trkpt lat="42.362913000" lon="-2.578098000">
        <ele>820.80</ele>
        <time>2012-05-12T11:48:53Z</time>
      </trkpt>
      <trkpt lat="42.362943000" lon="-2.578103000">
        <ele>820.30</ele>
        <time>2012-05-12T11:48:55Z</time>
      </trkpt>
      <trkpt lat="42.362976000" lon="-2.578101000">
        <ele>819.80</ele>
        <time>2012-05-12T11:48:55Z</time>
      </trkpt>
      <trkpt lat="42.363075000" lon="-2.578074000">
        <ele>817.90</ele>
        <time>2012-05-12T11:48:58Z</time>
      </trkpt>
      <trkpt lat="42.363106000" lon="-2.578074000">
        <ele>817.30</ele>
        <time>2012-05-12T11:49:00Z</time>
      </trkpt>
      <trkpt lat="42.363138000" lon="-2.578084000">
        <ele>816.70</ele>
        <time>2012-05-12T11:49:00Z</time>
      </trkpt>
      <trkpt lat="42.363165000" lon="-2.578109000">
        <ele>816.30</ele>
        <time>2012-05-12T11:49:02Z</time>
      </trkpt>
      <trkpt lat="42.363181000" lon="-2.578138000">
        <ele>815.90</ele>
        <time>2012-05-12T11:49:02Z</time>
      </trkpt>
      <trkpt lat="42.363193000" lon="-2.578173000">
        <ele>815.70</ele>
        <time>2012-05-12T11:49:03Z</time>
      </trkpt>
      <trkpt lat="42.363198000" lon="-2.578248000">
        <ele>815.60</ele>
        <time>2012-05-12T11:49:05Z</time>
      </trkpt>
      <trkpt lat="42.363196000" lon="-2.578289000">
        <ele>815.70</ele>
        <time>2012-05-12T11:49:07Z</time>
      </trkpt>
      <trkpt lat="42.363185000" lon="-2.578366000">
        <ele>816.20</ele>
        <time>2012-05-12T11:49:09Z</time>
      </trkpt>
      <trkpt lat="42.363181000" lon="-2.578454000">
        <ele>816.70</ele>
        <time>2012-05-12T11:49:10Z</time>
      </trkpt>
      <trkpt lat="42.363185000" lon="-2.578504000">
        <ele>816.90</ele>
        <time>2012-05-12T11:49:12Z</time>
      </trkpt>
      <trkpt lat="42.363195000" lon="-2.578556000">
        <ele>817.00</ele>
        <time>2012-05-12T11:49:12Z</time>
      </trkpt>
      <trkpt lat="42.363273000" lon="-2.578713000">
        <ele>815.80</ele>
        <time>2012-05-12T11:49:16Z</time>
      </trkpt>
      <trkpt lat="42.364225000" lon="-2.580173000">
        <ele>789.30</ele>
        <time>2012-05-12T11:49:40Z</time>
      </trkpt>
      <trkpt lat="42.364275000" lon="-2.580229000">
        <ele>788.60</ele>
        <time>2012-05-12T11:49:40Z</time>
      </trkpt>
      <trkpt lat="42.365388000" lon="-2.580994000">
        <ele>771.40</ele>
        <time>2012-05-12T11:49:57Z</time>
      </trkpt>
      <trkpt lat="42.366280000" lon="-2.581344000">
        <ele>760.00</ele>
        <time>2012-05-12T11:50:10Z</time>
      </trkpt>
      <trkpt lat="42.366536000" lon="-2.581483000">
        <ele>760.20</ele>
        <time>2012-05-12T11:50:20Z</time>
      </trkpt>
      <trkpt lat="42.366623000" lon="-2.581499000">
        <ele>759.80</ele>
        <time>2012-05-12T11:50:24Z</time>
      </trkpt>
      <trkpt lat="42.366661000" lon="-2.581498000">
        <ele>759.60</ele>
        <time>2012-05-12T11:50:25Z</time>
      </trkpt>
      <trkpt lat="42.366698000" lon="-2.581499000">
        <ele>759.30</ele>
        <time>2012-05-12T11:50:25Z</time>
      </trkpt>
      <trkpt lat="42.366843000" lon="-2.581486000">
        <ele>757.90</ele>
        <time>2012-05-12T11:50:29Z</time>
      </trkpt>
      <trkpt lat="42.366931000" lon="-2.581491000">
        <ele>757.00</ele>
        <time>2012-05-12T11:50:32Z</time>
      </trkpt>
      <trkpt lat="42.366963000" lon="-2.581488000">
        <ele>756.70</ele>
        <time>2012-05-12T11:50:34Z</time>
      </trkpt>
      <trkpt lat="42.367828000" lon="-2.581098000">
        <ele>747.00</ele>
        <time>2012-05-12T11:50:55Z</time>
      </trkpt>
      <trkpt lat="42.367870000" lon="-2.581088000">
        <ele>746.90</ele>
        <time>2012-05-12T11:50:57Z</time>
      </trkpt>
      <trkpt lat="42.368335000" lon="-2.581053000">
        <ele>742.90</ele>
        <time>2012-05-12T11:51:07Z</time>
      </trkpt>
      <trkpt lat="42.368513000" lon="-2.581036000">
        <ele>741.10</ele>
        <time>2012-05-12T11:51:11Z</time>
      </trkpt>
      <trkpt lat="42.368608000" lon="-2.581001000">
        <ele>740.40</ele>
        <time>2012-05-12T11:51:14Z</time>
      </trkpt>
      <trkpt lat="42.368755000" lon="-2.580868000">
        <ele>740.30</ele>
        <time>2012-05-12T11:51:17Z</time>
      </trkpt>
      <trkpt lat="42.369035000" lon="-2.580454000">
        <ele>741.90</ele>
        <time>2012-05-12T11:51:24Z</time>
      </trkpt>
      <trkpt lat="42.369086000" lon="-2.580403000">
        <ele>741.90</ele>
        <time>2012-05-12T11:51:26Z</time>
      </trkpt>
      <trkpt lat="42.369146000" lon="-2.580361000">
        <ele>741.90</ele>
        <time>2012-05-12T11:51:26Z</time>
      </trkpt>
      <trkpt lat="42.369215000" lon="-2.580329000">
        <ele>741.70</ele>
        <time>2012-05-12T11:51:28Z</time>
      </trkpt>
      <trkpt lat="42.369601000" lon="-2.580279000">
        <ele>738.00</ele>
        <time>2012-05-12T11:51:33Z</time>
      </trkpt>
      <trkpt lat="42.369666000" lon="-2.580254000">
        <ele>737.40</ele>
        <time>2012-05-12T11:51:33Z</time>
      </trkpt>
      <trkpt lat="42.369915000" lon="-2.580099000">
        <ele>737.20</ele>
        <time>2012-05-12T11:51:37Z</time>
      </trkpt>
      <trkpt lat="42.370661000" lon="-2.579786000">
        <ele>733.80</ele>
        <time>2012-05-12T11:51:47Z</time>
      </trkpt>
      <trkpt lat="42.370816000" lon="-2.579774000">
        <ele>731.70</ele>
        <time>2012-05-12T11:51:49Z</time>
      </trkpt>
      <trkpt lat="42.371008000" lon="-2.579788000">
        <ele>728.30</ele>
        <time>2012-05-12T11:51:52Z</time>
      </trkpt>
      <trkpt lat="42.371061000" lon="-2.579781000">
        <ele>727.30</ele>
        <time>2012-05-12T11:51:54Z</time>
      </trkpt>
      <trkpt lat="42.371111000" lon="-2.579759000">
        <ele>726.40</ele>
        <time>2012-05-12T11:51:54Z</time>
      </trkpt>
      <trkpt lat="42.371401000" lon="-2.579461000">
        <ele>723.90</ele>
        <time>2012-05-12T11:52:01Z</time>
      </trkpt>
      <trkpt lat="42.371436000" lon="-2.579443000">
        <ele>723.90</ele>
        <time>2012-05-12T11:52:03Z</time>
      </trkpt>
      <trkpt lat="42.371466000" lon="-2.579451000">
        <ele>723.60</ele>
        <time>2012-05-12T11:52:03Z</time>
      </trkpt>
      <trkpt lat="42.371490000" lon="-2.579479000">
        <ele>723.10</ele>
        <time>2012-05-12T11:52:05Z</time>
      </trkpt>
      <trkpt lat="42.371506000" lon="-2.579519000">
        <ele>722.40</ele>
        <time>2012-05-12T11:52:06Z</time>
      </trkpt>
      <trkpt lat="42.371513000" lon="-2.579566000">
        <ele>721.70</ele>
        <time>2012-05-12T11:52:06Z</time>
      </trkpt>
      <trkpt lat="42.371515000" lon="-2.579613000">
        <ele>721.10</ele>
        <time>2012-05-12T11:52:08Z</time>
      </trkpt>
      <trkpt lat="42.371506000" lon="-2.579709000">
        <ele>720.40</ele>
        <time>2012-05-12T11:52:10Z</time>
      </trkpt>
      <trkpt lat="42.371513000" lon="-2.579796000">
        <ele>720.00</ele>
        <time>2012-05-12T11:52:11Z</time>
      </trkpt>
      <trkpt lat="42.371535000" lon="-2.579858000">
        <ele>719.50</ele>
        <time>2012-05-12T11:52:13Z</time>
      </trkpt>
      <trkpt lat="42.371565000" lon="-2.579918000">
        <ele>719.00</ele>
        <time>2012-05-12T11:52:15Z</time>
      </trkpt>
      <trkpt lat="42.371593000" lon="-2.580124000">
        <ele>718.00</ele>
        <time>2012-05-12T11:52:20Z</time>
      </trkpt>
      <trkpt lat="42.371625000" lon="-2.580533000">
        <ele>717.30</ele>
        <time>2012-05-12T11:52:31Z</time>
      </trkpt>
      <trkpt lat="42.371630000" lon="-2.580558000">
        <ele>717.40</ele>
        <time>2012-05-12T11:52:31Z</time>
      </trkpt>
      <trkpt lat="42.371646000" lon="-2.580618000">
        <ele>717.70</ele>
        <time>2012-05-12T11:52:34Z</time>
      </trkpt>
      <trkpt lat="42.371655000" lon="-2.580634000">
        <ele>717.70</ele>
        <time>2012-05-12T11:52:36Z</time>
      </trkpt>
      <trkpt lat="42.371668000" lon="-2.580651000">
        <ele>717.80</ele>
        <time>2012-05-12T11:52:36Z</time>
      </trkpt>
      <trkpt lat="42.371691000" lon="-2.580659000">
        <ele>717.80</ele>
        <time>2012-05-12T11:52:38Z</time>
      </trkpt>
      <trkpt lat="42.372243000" lon="-2.580536000">
        <ele>714.30</ele>
        <time>2012-05-12T11:52:50Z</time>
      </trkpt>
      <trkpt lat="42.372270000" lon="-2.580521000">
        <ele>714.20</ele>
        <time>2012-05-12T11:52:52Z</time>
      </trkpt>
      <trkpt lat="42.372295000" lon="-2.580498000">
        <ele>714.00</ele>
        <time>2012-05-12T11:52:53Z</time>
      </trkpt>
      <trkpt lat="42.372453000" lon="-2.580146000">
        <ele>712.80</ele>
        <time>2012-05-12T11:53:02Z</time>
      </trkpt>
      <trkpt lat="42.372460000" lon="-2.580123000">
        <ele>712.80</ele>
        <time>2012-05-12T11:53:04Z</time>
      </trkpt>
      <trkpt lat="42.372470000" lon="-2.580099000">
        <ele>712.70</ele>
        <time>2012-05-12T11:53:04Z</time>
      </trkpt>
      <trkpt lat="42.372485000" lon="-2.580076000">
        <ele>712.70</ele>
        <time>2012-05-12T11:53:05Z</time>
      </trkpt>
      <trkpt lat="42.372515000" lon="-2.580046000">
        <ele>712.50</ele>
        <time>2012-05-12T11:53:07Z</time>
      </trkpt>
      <trkpt lat="42.372561000" lon="-2.580014000">
        <ele>712.40</ele>
        <time>2012-05-12T11:53:11Z</time>
      </trkpt>
      <trkpt lat="42.372576000" lon="-2.580009000">
        <ele>712.30</ele>
        <time>2012-05-12T11:53:11Z</time>
      </trkpt>
      <trkpt lat="42.372591000" lon="-2.580009000">
        <ele>712.30</ele>
        <time>2012-05-12T11:53:12Z</time>
      </trkpt>
      <trkpt lat="42.372645000" lon="-2.580019000">
        <ele>712.20</ele>
        <time>2012-05-12T11:53:16Z</time>
      </trkpt>
      <trkpt lat="42.372668000" lon="-2.580013000">
        <ele>712.10</ele>
        <time>2012-05-12T11:53:16Z</time>
      </trkpt>
      <trkpt lat="42.372708000" lon="-2.579966000">
        <ele>712.00</ele>
        <time>2012-05-12T11:53:18Z</time>
      </trkpt>
      <trkpt lat="42.374318000" lon="-2.577174000">
        <ele>695.40</ele>
        <time>2012-05-12T11:53:56Z</time>
      </trkpt>
      <trkpt lat="42.374485000" lon="-2.577009000">
        <ele>694.00</ele>
        <time>2012-05-12T11:53:58Z</time>
      </trkpt>
      <trkpt lat="42.374683000" lon="-2.576893000">
        <ele>692.90</ele>
        <time>2012-05-12T11:54:01Z</time>
      </trkpt>
      <trkpt lat="42.375231000" lon="-2.576684000">
        <ele>691.40</ele>
        <time>2012-05-12T11:54:08Z</time>
      </trkpt>
      <trkpt lat="42.375308000" lon="-2.576639000">
        <ele>691.20</ele>
        <time>2012-05-12T11:54:10Z</time>
      </trkpt>
      <trkpt lat="42.375750000" lon="-2.576203000">
        <ele>690.10</ele>
        <time>2012-05-12T11:54:19Z</time>
      </trkpt>
      <trkpt lat="42.376076000" lon="-2.575663000">
        <ele>686.80</ele>
        <time>2012-05-12T11:54:26Z</time>
      </trkpt>
      <trkpt lat="42.376693000" lon="-2.574349000">
        <ele>678.50</ele>
        <time>2012-05-12T11:54:38Z</time>
      </trkpt>
      <trkpt lat="42.377006000" lon="-2.573894000">
        <ele>675.30</ele>
        <time>2012-05-12T11:54:43Z</time>
      </trkpt>
      <trkpt lat="42.377178000" lon="-2.573523000">
        <ele>673.10</ele>
        <time>2012-05-12T11:54:45Z</time>
      </trkpt>
      <trkpt lat="42.377288000" lon="-2.573194000">
        <ele>671.70</ele>
        <time>2012-05-12T11:54:48Z</time>
      </trkpt>
      <trkpt lat="42.377341000" lon="-2.573108000">
        <ele>671.20</ele>
        <time>2012-05-12T11:54:50Z</time>
      </trkpt>
      <trkpt lat="42.377630000" lon="-2.572828000">
        <ele>668.10</ele>
        <time>2012-05-12T11:54:54Z</time>
      </trkpt>
      <trkpt lat="42.378048000" lon="-2.572258000">
        <ele>663.30</ele>
        <time>2012-05-12T11:54:59Z</time>
      </trkpt>
      <trkpt lat="42.378161000" lon="-2.572033000">
        <ele>662.20</ele>
        <time>2012-05-12T11:55:02Z</time>
      </trkpt>
      <trkpt lat="42.378570000" lon="-2.570934000">
        <ele>660.10</ele>
        <time>2012-05-12T11:55:11Z</time>
      </trkpt>
      <trkpt lat="42.378626000" lon="-2.570826000">
        <ele>659.90</ele>
        <time>2012-05-12T11:55:11Z</time>
      </trkpt>
      <trkpt lat="42.378696000" lon="-2.570734000">
        <ele>659.40</ele>
        <time>2012-05-12T11:55:13Z</time>
      </trkpt>
      <trkpt lat="42.378926000" lon="-2.570491000">
        <ele>657.80</ele>
        <time>2012-05-12T11:55:16Z</time>
      </trkpt>
      <trkpt lat="42.379861000" lon="-2.568736000">
        <ele>648.00</ele>
        <time>2012-05-12T11:55:30Z</time>
      </trkpt>
      <trkpt lat="42.380008000" lon="-2.568231000">
        <ele>645.20</ele>
        <time>2012-05-12T11:55:35Z</time>
      </trkpt>
      <trkpt lat="42.380043000" lon="-2.567984000">
        <ele>644.20</ele>
        <time>2012-05-12T11:55:37Z</time>
      </trkpt>
      <trkpt lat="42.380230000" lon="-2.567463000">
        <ele>642.40</ele>
        <time>2012-05-12T11:55:42Z</time>
      </trkpt>
      <trkpt lat="42.380273000" lon="-2.567401000">
        <ele>642.00</ele>
        <time>2012-05-12T11:55:42Z</time>
      </trkpt>
      <trkpt lat="42.380331000" lon="-2.567363000">
        <ele>641.30</ele>
        <time>2012-05-12T11:55:44Z</time>
      </trkpt>
      <trkpt lat="42.380535000" lon="-2.567283000">
        <ele>639.30</ele>
        <time>2012-05-12T11:55:46Z</time>
      </trkpt>
      <trkpt lat="42.380586000" lon="-2.567236000">
        <ele>638.90</ele>
        <time>2012-05-12T11:55:48Z</time>
      </trkpt>
      <trkpt lat="42.380618000" lon="-2.567176000">
        <ele>638.60</ele>
        <time>2012-05-12T11:55:49Z</time>
      </trkpt>
      <trkpt lat="42.380630000" lon="-2.567103000">
        <ele>638.30</ele>
        <time>2012-05-12T11:55:49Z</time>
      </trkpt>
      <trkpt lat="42.380571000" lon="-2.566238000">
        <ele>638.30</ele>
        <time>2012-05-12T11:55:58Z</time>
      </trkpt>
      <trkpt lat="42.380588000" lon="-2.565879000">
        <ele>638.30</ele>
        <time>2012-05-12T11:56:00Z</time>
      </trkpt>
      <trkpt lat="42.380611000" lon="-2.565776000">
        <ele>638.10</ele>
        <time>2012-05-12T11:56:01Z</time>
      </trkpt>
      <trkpt lat="42.380790000" lon="-2.565208000">
        <ele>636.40</ele>
        <time>2012-05-12T11:56:07Z</time>
      </trkpt>
      <trkpt lat="42.380850000" lon="-2.564796000">
        <ele>635.80</ele>
        <time>2012-05-12T11:56:12Z</time>
      </trkpt>
      <trkpt lat="42.381135000" lon="-2.564046000">
        <ele>632.80</ele>
        <time>2012-05-12T11:56:19Z</time>
      </trkpt>
      <trkpt lat="42.381161000" lon="-2.563941000">
        <ele>632.60</ele>
        <time>2012-05-12T11:56:21Z</time>
      </trkpt>
      <trkpt lat="42.382098000" lon="-2.562334000">
        <ele>623.10</ele>
        <time>2012-05-12T11:56:38Z</time>
      </trkpt>
      <trkpt lat="42.382595000" lon="-2.560946000">
        <ele>615.30</ele>
        <time>2012-05-12T11:56:48Z</time>
      </trkpt>
      <trkpt lat="42.382651000" lon="-2.560526000">
        <ele>613.50</ele>
        <time>2012-05-12T11:56:52Z</time>
      </trkpt>
      <trkpt lat="42.382663000" lon="-2.559754000">
        <ele>609.90</ele>
        <time>2012-05-12T11:56:57Z</time>
      </trkpt>
      <trkpt lat="42.382653000" lon="-2.559649000">
        <ele>609.40</ele>
        <time>2012-05-12T11:56:59Z</time>
      </trkpt>
      <trkpt lat="42.382630000" lon="-2.559548000">
        <ele>608.80</ele>
        <time>2012-05-12T11:56:59Z</time>
      </trkpt>
      <trkpt lat="42.382471000" lon="-2.559158000">
        <ele>607.60</ele>
        <time>2012-05-12T11:57:04Z</time>
      </trkpt>
      <trkpt lat="42.382451000" lon="-2.559048000">
        <ele>607.30</ele>
        <time>2012-05-12T11:57:04Z</time>
      </trkpt>
      <trkpt lat="42.382446000" lon="-2.558934000">
        <ele>606.90</ele>
        <time>2012-05-12T11:57:06Z</time>
      </trkpt>
      <trkpt lat="42.382498000" lon="-2.558153000">
        <ele>605.10</ele>
        <time>2012-05-12T11:57:13Z</time>
      </trkpt>
      <trkpt lat="42.382548000" lon="-2.557781000">
        <ele>604.50</ele>
        <time>2012-05-12T11:57:16Z</time>
      </trkpt>
      <trkpt lat="42.382548000" lon="-2.557698000">
        <ele>604.40</ele>
        <time>2012-05-12T11:57:18Z</time>
      </trkpt>
      <trkpt lat="42.382538000" lon="-2.557614000">
        <ele>604.30</ele>
        <time>2012-05-12T11:57:18Z</time>
      </trkpt>
      <trkpt lat="42.382518000" lon="-2.557539000">
        <ele>604.30</ele>
        <time>2012-05-12T11:57:20Z</time>
      </trkpt>
      <trkpt lat="42.382078000" lon="-2.556744000">
        <ele>606.20</ele>
        <time>2012-05-12T11:57:37Z</time>
      </trkpt>
      <trkpt lat="42.382058000" lon="-2.556696000">
        <ele>606.40</ele>
        <time>2012-05-12T11:57:37Z</time>
      </trkpt>
      <trkpt lat="42.381831000" lon="-2.555931000">
        <ele>609.60</ele>
        <time>2012-05-12T11:57:55Z</time>
      </trkpt>
      <trkpt lat="42.381616000" lon="-2.555509000">
        <ele>610.10</ele>
        <time>2012-05-12T11:58:05Z</time>
      </trkpt>
      <trkpt lat="42.381486000" lon="-2.555326000">
        <ele>610.70</ele>
        <time>2012-05-12T11:58:14Z</time>
      </trkpt>
      <trkpt lat="42.381485000" lon="-2.555303000">
        <ele>610.70</ele>
        <time>2012-05-12T11:58:16Z</time>
      </trkpt>
      <trkpt lat="42.381491000" lon="-2.555278000">
        <ele>610.70</ele>
        <time>2012-05-12T11:58:17Z</time>
      </trkpt>
      <trkpt lat="42.381521000" lon="-2.555224000">
        <ele>610.50</ele>
        <time>2012-05-12T11:58:19Z</time>
      </trkpt>
      <trkpt lat="42.382221000" lon="-2.554208000">
        <ele>605.90</ele>
        <time>2012-05-12T11:58:42Z</time>
      </trkpt>
      <trkpt lat="42.382245000" lon="-2.554161000">
        <ele>605.70</ele>
        <time>2012-05-12T11:58:42Z</time>
      </trkpt>
      <trkpt lat="42.382260000" lon="-2.554118000">
        <ele>605.40</ele>
        <time>2012-05-12T11:58:43Z</time>
      </trkpt>
      <trkpt lat="42.382271000" lon="-2.554043000">
        <ele>605.20</ele>
        <time>2012-05-12T11:58:45Z</time>
      </trkpt>
      <trkpt lat="42.382263000" lon="-2.553971000">
        <ele>605.10</ele>
        <time>2012-05-12T11:58:47Z</time>
      </trkpt>
      <trkpt lat="42.382245000" lon="-2.553898000">
        <ele>605.10</ele>
        <time>2012-05-12T11:58:52Z</time>
      </trkpt>
      <trkpt lat="42.382240000" lon="-2.553899000">
        <ele>605.10</ele>
        <time>2012-05-12T11:58:54Z</time>
      </trkpt>
      <trkpt lat="42.382235000" lon="-2.553904000">
        <ele>605.10</ele>
        <time>2012-05-12T11:58:56Z</time>
      </trkpt>
      <trkpt lat="42.382233000" lon="-2.553908000">
        <ele>605.20</ele>
        <time>2012-05-12T11:58:57Z</time>
      </trkpt>
      <trkpt lat="42.382220000" lon="-2.553918000">
        <ele>605.20</ele>
        <time>2012-05-12T11:58:59Z</time>
      </trkpt>
      <trkpt lat="42.382218000" lon="-2.553921000">
        <ele>605.30</ele>
        <time>2012-05-12T11:59:01Z</time>
      </trkpt>
      <trkpt lat="42.382213000" lon="-2.553928000">
        <ele>605.30</ele>
        <time>2012-05-12T11:59:03Z</time>
      </trkpt>
      <trkpt lat="42.382206000" lon="-2.553934000">
        <ele>605.30</ele>
        <time>2012-05-12T11:59:04Z</time>
      </trkpt>
      <trkpt lat="42.382205000" lon="-2.553939000">
        <ele>605.40</ele>
        <time>2012-05-12T11:59:06Z</time>
      </trkpt>
      <trkpt lat="42.382198000" lon="-2.553946000">
        <ele>605.40</ele>
        <time>2012-05-12T11:59:08Z</time>
      </trkpt>
      <trkpt lat="42.382193000" lon="-2.553954000">
        <ele>605.40</ele>
        <time>2012-05-12T11:59:10Z</time>
      </trkpt>
      <trkpt lat="42.382190000" lon="-2.553958000">
        <ele>605.50</ele>
        <time>2012-05-12T11:59:11Z</time>
      </trkpt>
      <trkpt lat="42.382186000" lon="-2.553961000">
        <ele>605.50</ele>
        <time>2012-05-12T11:59:11Z</time>
      </trkpt>
      <trkpt lat="42.382181000" lon="-2.553969000">
        <ele>605.50</ele>
        <time>2012-05-12T11:59:13Z</time>
      </trkpt>
      <trkpt lat="42.382178000" lon="-2.553973000">
        <ele>605.60</ele>
        <time>2012-05-12T11:59:15Z</time>
      </trkpt>
      <trkpt lat="42.382171000" lon="-2.553984000">
        <ele>605.60</ele>
        <time>2012-05-12T11:59:18Z</time>
      </trkpt>
      <trkpt lat="42.382170000" lon="-2.553988000">
        <ele>605.60</ele>
        <time>2012-05-12T11:59:18Z</time>
      </trkpt>
      <trkpt lat="42.382166000" lon="-2.553989000">
        <ele>605.70</ele>
        <time>2012-05-12T11:59:20Z</time>
      </trkpt>
      <trkpt lat="42.382153000" lon="-2.554003000">
        <ele>605.70</ele>
        <time>2012-05-12T11:59:24Z</time>
      </trkpt>
      <trkpt lat="42.382151000" lon="-2.554008000">
        <ele>605.80</ele>
        <time>2012-05-12T11:59:25Z</time>
      </trkpt>
      <trkpt lat="42.382148000" lon="-2.554009000">
        <ele>605.80</ele>
        <time>2012-05-12T11:59:25Z</time>
      </trkpt>
      <trkpt lat="42.382141000" lon="-2.554016000">
        <ele>605.80</ele>
        <time>2012-05-12T11:59:27Z</time>
      </trkpt>
      <trkpt lat="42.382138000" lon="-2.554019000">
        <ele>605.90</ele>
        <time>2012-05-12T11:59:29Z</time>
      </trkpt>
      <trkpt lat="42.382131000" lon="-2.554026000">
        <ele>605.90</ele>
        <time>2012-05-12T11:59:32Z</time>
      </trkpt>
      <trkpt lat="42.382128000" lon="-2.554028000">
        <ele>606.00</ele>
        <time>2012-05-12T11:59:32Z</time>
      </trkpt>
      <trkpt lat="42.382126000" lon="-2.554031000">
        <ele>606.00</ele>
        <time>2012-05-12T11:59:34Z</time>
      </trkpt>
      <trkpt lat="42.382123000" lon="-2.554033000">
        <ele>606.00</ele>
        <time>2012-05-12T11:59:34Z</time>
      </trkpt>
      <trkpt lat="42.382121000" lon="-2.554031000">
        <ele>606.00</ele>
        <time>2012-05-12T11:59:36Z</time>
      </trkpt>
      <trkpt lat="42.382123000" lon="-2.554033000">
        <ele>606.00</ele>
        <time>2012-05-12T11:59:36Z</time>
      </trkpt>
      <trkpt lat="42.382118000" lon="-2.554041000">
        <ele>606.00</ele>
        <time>2012-05-12T11:59:39Z</time>
      </trkpt>
      <trkpt lat="42.382115000" lon="-2.554043000">
        <ele>606.10</ele>
        <time>2012-05-12T11:59:41Z</time>
      </trkpt>
      <trkpt lat="42.382111000" lon="-2.554048000">
        <ele>606.10</ele>
        <time>2012-05-12T11:59:41Z</time>
      </trkpt>
      <trkpt lat="42.382118000" lon="-2.554059000">
        <ele>606.10</ele>
        <time>2012-05-12T11:59:44Z</time>
      </trkpt>
      <trkpt lat="42.382113000" lon="-2.554068000">
        <ele>606.10</ele>
        <time>2012-05-12T11:59:48Z</time>
      </trkpt>
      <trkpt lat="42.382111000" lon="-2.554069000">
        <ele>606.10</ele>
        <time>2012-05-12T11:59:50Z</time>
      </trkpt>
      <trkpt lat="42.382110000" lon="-2.554073000">
        <ele>606.10</ele>
        <time>2012-05-12T11:59:50Z</time>
      </trkpt>
      <trkpt lat="42.382108000" lon="-2.554074000">
        <ele>606.10</ele>
        <time>2012-05-12T11:59:51Z</time>
      </trkpt>
      <trkpt lat="42.382106000" lon="-2.554076000">
        <ele>606.20</ele>
        <time>2012-05-12T11:59:53Z</time>
      </trkpt>
      <trkpt lat="42.382103000" lon="-2.554081000">
        <ele>606.20</ele>
        <time>2012-05-12T11:59:55Z</time>
      </trkpt>
      <trkpt lat="42.382103000" lon="-2.554084000">
        <ele>606.20</ele>
        <time>2012-05-12T11:59:55Z</time>
      </trkpt>
      <trkpt lat="42.382098000" lon="-2.554091000">
        <ele>606.20</ele>
        <time>2012-05-12T11:59:58Z</time>
      </trkpt>
      <trkpt lat="42.382096000" lon="-2.554094000">
        <ele>606.30</ele>
        <time>2012-05-12T12:00:00Z</time>
      </trkpt>
      <trkpt lat="42.382095000" lon="-2.554098000">
        <ele>606.30</ele>
        <time>2012-05-12T12:00:02Z</time>
      </trkpt>
      <trkpt lat="42.382093000" lon="-2.554098000">
        <ele>606.30</ele>
        <time>2012-05-12T12:00:02Z</time>
      </trkpt>
      <trkpt lat="42.382090000" lon="-2.554104000">
        <ele>606.30</ele>
        <time>2012-05-12T12:00:07Z</time>
      </trkpt>
      <trkpt lat="42.382088000" lon="-2.554104000">
        <ele>606.30</ele>
        <time>2012-05-12T12:00:07Z</time>
      </trkpt>
      <trkpt lat="42.382086000" lon="-2.554108000">
        <ele>606.30</ele>
        <time>2012-05-12T12:00:09Z</time>
      </trkpt>
      <trkpt lat="42.382086000" lon="-2.554109000">
        <ele>606.40</ele>
        <time>2012-05-12T12:00:11Z</time>
      </trkpt>
      <trkpt lat="42.382081000" lon="-2.554118000">
        <ele>606.40</ele>
        <time>2012-05-12T12:00:16Z</time>
      </trkpt>
      <trkpt lat="42.382080000" lon="-2.554123000">
        <ele>606.40</ele>
        <time>2012-05-12T12:00:19Z</time>
      </trkpt>
      <trkpt lat="42.382078000" lon="-2.554124000">
        <ele>606.40</ele>
        <time>2012-05-12T12:00:19Z</time>
      </trkpt>
      <trkpt lat="42.382076000" lon="-2.554154000">
        <ele>606.40</ele>
        <time>2012-05-12T12:00:23Z</time>
      </trkpt>
      <trkpt lat="42.382073000" lon="-2.554156000">
        <ele>606.50</ele>
        <time>2012-05-12T12:00:23Z</time>
      </trkpt>
      <trkpt lat="42.382068000" lon="-2.554159000">
        <ele>606.50</ele>
        <time>2012-05-12T12:00:24Z</time>
      </trkpt>
      <trkpt lat="42.382070000" lon="-2.554158000">
        <ele>606.50</ele>
        <time>2012-05-12T12:00:26Z</time>
      </trkpt>
      <trkpt lat="42.382077000" lon="-2.554154000">
        <ele>606.00</ele>
        <time>2012-05-12T12:00:30Z</time>
      </trkpt>
      <trkpt lat="42.382081000" lon="-2.554154000">
        <ele>606.50</ele>
        <time>2012-05-12T12:00:33Z</time>
      </trkpt>
      <trkpt lat="42.382083000" lon="-2.554156000">
        <ele>606.40</ele>
        <time>2012-05-12T12:00:33Z</time>
      </trkpt>
      <trkpt lat="42.382086000" lon="-2.554156000">
        <ele>606.40</ele>
        <time>2012-05-12T12:00:35Z</time>
      </trkpt>
      <trkpt lat="42.382085000" lon="-2.554161000">
        <ele>606.40</ele>
        <time>2012-05-12T12:00:37Z</time>
      </trkpt>
      <trkpt lat="42.382088000" lon="-2.554164000">
        <ele>606.40</ele>
        <time>2012-05-12T12:00:38Z</time>
      </trkpt>
      <trkpt lat="42.382088000" lon="-2.554168000">
        <ele>606.40</ele>
        <time>2012-05-12T12:00:40Z</time>
      </trkpt>
      <trkpt lat="42.382091000" lon="-2.554169000">
        <ele>606.40</ele>
        <time>2012-05-12T12:00:40Z</time>
      </trkpt>
      <trkpt lat="42.382100000" lon="-2.554169000">
        <ele>606.40</ele>
        <time>2012-05-12T12:00:42Z</time>
      </trkpt>
      <trkpt lat="42.382101000" lon="-2.554166000">
        <ele>606.30</ele>
        <time>2012-05-12T12:00:44Z</time>
      </trkpt>
      <trkpt lat="42.382101000" lon="-2.554163000">
        <ele>606.30</ele>
        <time>2012-05-12T12:00:45Z</time>
      </trkpt>
      <trkpt lat="42.382106000" lon="-2.554159000">
        <ele>606.30</ele>
        <time>2012-05-12T12:00:47Z</time>
      </trkpt>
      <trkpt lat="42.382110000" lon="-2.554161000">
        <ele>606.30</ele>
        <time>2012-05-12T12:00:49Z</time>
      </trkpt>
      <trkpt lat="42.382113000" lon="-2.554163000">
        <ele>606.20</ele>
        <time>2012-05-12T12:00:51Z</time>
      </trkpt>
      <trkpt lat="42.382121000" lon="-2.554161000">
        <ele>606.20</ele>
        <time>2012-05-12T12:00:54Z</time>
      </trkpt>
      <trkpt lat="42.382121000" lon="-2.554163000">
        <ele>606.20</ele>
        <time>2012-05-12T12:00:56Z</time>
      </trkpt>
      <trkpt lat="42.382125000" lon="-2.554164000">
        <ele>606.20</ele>
        <time>2012-05-12T12:00:59Z</time>
      </trkpt>
      <trkpt lat="42.382125000" lon="-2.554164000">
        <ele>606.20</ele>
        <time>2012-05-12T12:01:01Z</time>
      </trkpt>
      <trkpt lat="42.382133000" lon="-2.554163000">
        <ele>606.10</ele>
        <time>2012-05-12T12:01:06Z</time>
      </trkpt>
      <trkpt lat="42.382133000" lon="-2.554159000">
        <ele>606.10</ele>
        <time>2012-05-12T12:01:08Z</time>
      </trkpt>
      <trkpt lat="42.382140000" lon="-2.554168000">
        <ele>606.10</ele>
        <time>2012-05-12T12:01:13Z</time>
      </trkpt>
      <trkpt lat="42.382140000" lon="-2.554166000">
        <ele>606.10</ele>
        <time>2012-05-12T12:01:13Z</time>
      </trkpt>
      <trkpt lat="42.382140000" lon="-2.554166000">
        <ele>606.10</ele>
        <time>2012-05-12T12:01:15Z</time>
      </trkpt>
      <trkpt lat="42.382138000" lon="-2.554164000">
        <ele>606.00</ele>
        <time>2012-05-12T12:01:15Z</time>
      </trkpt>
      <trkpt lat="42.382138000" lon="-2.554163000">
        <ele>606.10</ele>
        <time>2012-05-12T12:01:17Z</time>
      </trkpt>
      <trkpt lat="42.382131000" lon="-2.554154000">
        <ele>606.10</ele>
        <time>2012-05-12T12:01:18Z</time>
      </trkpt>
      <trkpt lat="42.382115000" lon="-2.554143000">
        <ele>606.10</ele>
        <time>2012-05-12T12:01:20Z</time>
      </trkpt>
      <trkpt lat="42.382106000" lon="-2.554134000">
        <ele>606.20</ele>
        <time>2012-05-12T12:01:22Z</time>
      </trkpt>
      <trkpt lat="42.382100000" lon="-2.554126000">
        <ele>606.20</ele>
        <time>2012-05-12T12:01:22Z</time>
      </trkpt>
      <trkpt lat="42.382095000" lon="-2.554121000">
        <ele>606.30</ele>
        <time>2012-05-12T12:01:24Z</time>
      </trkpt>
      <trkpt lat="42.382078000" lon="-2.554106000">
        <ele>606.30</ele>
        <time>2012-05-12T12:01:25Z</time>
      </trkpt>
      <trkpt lat="42.382071000" lon="-2.554098000">
        <ele>606.40</ele>
        <time>2012-05-12T12:01:27Z</time>
      </trkpt>
      <trkpt lat="42.382058000" lon="-2.554084000">
        <ele>606.40</ele>
        <time>2012-05-12T12:01:29Z</time>
      </trkpt>
      <trkpt lat="42.382063000" lon="-2.554091000">
        <ele>606.40</ele>
        <time>2012-05-12T12:01:31Z</time>
      </trkpt>
      <trkpt lat="42.382090000" lon="-2.554113000">
        <ele>606.40</ele>
        <time>2012-05-12T12:01:34Z</time>
      </trkpt>
      <trkpt lat="42.382098000" lon="-2.554121000">
        <ele>606.30</ele>
        <time>2012-05-12T12:01:34Z</time>
      </trkpt>
      <trkpt lat="42.382111000" lon="-2.554131000">
        <ele>606.30</ele>
        <time>2012-05-12T12:01:36Z</time>
      </trkpt>
      <trkpt lat="42.382123000" lon="-2.554143000">
        <ele>606.20</ele>
        <time>2012-05-12T12:01:36Z</time>
      </trkpt>
      <trkpt lat="42.382135000" lon="-2.554151000">
        <ele>606.20</ele>
        <time>2012-05-12T12:01:38Z</time>
      </trkpt>
      <trkpt lat="42.382136000" lon="-2.554154000">
        <ele>606.10</ele>
        <time>2012-05-12T12:01:38Z</time>
      </trkpt>
      <trkpt lat="42.382140000" lon="-2.554158000">
        <ele>606.10</ele>
        <time>2012-05-12T12:01:39Z</time>
      </trkpt>
      <trkpt lat="42.382143000" lon="-2.554159000">
        <ele>606.00</ele>
        <time>2012-05-12T12:01:41Z</time>
      </trkpt>
      <trkpt lat="42.382155000" lon="-2.554163000">
        <ele>606.00</ele>
        <time>2012-05-12T12:01:43Z</time>
      </trkpt>
      <trkpt lat="42.382160000" lon="-2.554166000">
        <ele>605.90</ele>
        <time>2012-05-12T12:01:43Z</time>
      </trkpt>
      <trkpt lat="42.382171000" lon="-2.554174000">
        <ele>605.90</ele>
        <time>2012-05-12T12:01:46Z</time>
      </trkpt>
      <trkpt lat="42.382175000" lon="-2.554178000">
        <ele>605.80</ele>
        <time>2012-05-12T12:01:46Z</time>
      </trkpt>
      <trkpt lat="42.382186000" lon="-2.554178000">
        <ele>605.80</ele>
        <time>2012-05-12T12:01:50Z</time>
      </trkpt>
      <trkpt lat="42.382190000" lon="-2.554178000">
        <ele>605.70</ele>
        <time>2012-05-12T12:01:50Z</time>
      </trkpt>
      <trkpt lat="42.382191000" lon="-2.554181000">
        <ele>605.70</ele>
        <time>2012-05-12T12:01:52Z</time>
      </trkpt>
      <trkpt lat="42.382195000" lon="-2.554183000">
        <ele>605.70</ele>
        <time>2012-05-12T12:01:53Z</time>
      </trkpt>
      <trkpt lat="42.382186000" lon="-2.554171000">
        <ele>605.70</ele>
        <time>2012-05-12T12:01:55Z</time>
      </trkpt>
      <trkpt lat="42.382185000" lon="-2.554166000">
        <ele>605.70</ele>
        <time>2012-05-12T12:01:55Z</time>
      </trkpt>
      <trkpt lat="42.382181000" lon="-2.554163000">
        <ele>605.70</ele>
        <time>2012-05-12T12:01:57Z</time>
      </trkpt>
      <trkpt lat="42.382181000" lon="-2.554149000">
        <ele>605.70</ele>
        <time>2012-05-12T12:02:00Z</time>
      </trkpt>
      <trkpt lat="42.382183000" lon="-2.554148000">
        <ele>605.70</ele>
        <time>2012-05-12T12:02:02Z</time>
      </trkpt>
      <trkpt lat="42.382183000" lon="-2.554144000">
        <ele>605.70</ele>
        <time>2012-05-12T12:02:04Z</time>
      </trkpt>
      <trkpt lat="42.382185000" lon="-2.554141000">
        <ele>605.70</ele>
        <time>2012-05-12T12:02:04Z</time>
      </trkpt>
      <trkpt lat="42.382185000" lon="-2.554134000">
        <ele>605.70</ele>
        <time>2012-05-12T12:02:07Z</time>
      </trkpt>
      <trkpt lat="42.382183000" lon="-2.554134000">
        <ele>605.70</ele>
        <time>2012-05-12T12:02:09Z</time>
      </trkpt>
      <trkpt lat="42.382180000" lon="-2.554129000">
        <ele>605.70</ele>
        <time>2012-05-12T12:02:12Z</time>
      </trkpt>
      <trkpt lat="42.382180000" lon="-2.554126000">
        <ele>605.70</ele>
        <time>2012-05-12T12:02:16Z</time>
      </trkpt>
      <trkpt lat="42.382178000" lon="-2.554126000">
        <ele>605.70</ele>
        <time>2012-05-12T12:02:16Z</time>
      </trkpt>
      <trkpt lat="42.382178000" lon="-2.554124000">
        <ele>605.70</ele>
        <time>2012-05-12T12:02:18Z</time>
      </trkpt>
      <trkpt lat="42.382175000" lon="-2.554123000">
        <ele>605.70</ele>
        <time>2012-05-12T12:02:21Z</time>
      </trkpt>
      <trkpt lat="42.382173000" lon="-2.554119000">
        <ele>605.80</ele>
        <time>2012-05-12T12:02:23Z</time>
      </trkpt>
      <trkpt lat="42.382171000" lon="-2.554119000">
        <ele>605.80</ele>
        <time>2012-05-12T12:02:25Z</time>
      </trkpt>
      <trkpt lat="42.382173000" lon="-2.554119000">
        <ele>605.80</ele>
        <time>2012-05-12T12:02:25Z</time>
      </trkpt>
      <trkpt lat="42.382166000" lon="-2.554126000">
        <ele>605.80</ele>
        <time>2012-05-12T12:02:28Z</time>
      </trkpt>
      <trkpt lat="42.382166000" lon="-2.554128000">
        <ele>605.80</ele>
        <time>2012-05-12T12:02:28Z</time>
      </trkpt>
      <trkpt lat="42.382163000" lon="-2.554129000">
        <ele>605.80</ele>
        <time>2012-05-12T12:02:30Z</time>
      </trkpt>
      <trkpt lat="42.382160000" lon="-2.554133000">
        <ele>605.80</ele>
        <time>2012-05-12T12:02:32Z</time>
      </trkpt>
      <trkpt lat="42.382160000" lon="-2.554134000">
        <ele>605.90</ele>
        <time>2012-05-12T12:02:33Z</time>
      </trkpt>
      <trkpt lat="42.382150000" lon="-2.554131000">
        <ele>605.90</ele>
        <time>2012-05-12T12:02:37Z</time>
      </trkpt>
      <trkpt lat="42.382146000" lon="-2.554133000">
        <ele>605.90</ele>
        <time>2012-05-12T12:02:37Z</time>
      </trkpt>
      <trkpt lat="42.382145000" lon="-2.554133000">
        <ele>606.00</ele>
        <time>2012-05-12T12:02:39Z</time>
      </trkpt>
      <trkpt lat="42.382140000" lon="-2.554134000">
        <ele>606.00</ele>
        <time>2012-05-12T12:02:40Z</time>
      </trkpt>
      <trkpt lat="42.382133000" lon="-2.554138000">
        <ele>606.00</ele>
        <time>2012-05-12T12:02:42Z</time>
      </trkpt>
      <trkpt lat="42.382120000" lon="-2.554131000">
        <ele>606.10</ele>
        <time>2012-05-12T12:02:47Z</time>
      </trkpt>
      <trkpt lat="42.382113000" lon="-2.554131000">
        <ele>606.10</ele>
        <time>2012-05-12T12:02:47Z</time>
      </trkpt>
      <trkpt lat="42.382108000" lon="-2.554129000">
        <ele>606.20</ele>
        <time>2012-05-12T12:02:49Z</time>
      </trkpt>
      <trkpt lat="42.382093000" lon="-2.554128000">
        <ele>606.20</ele>
        <time>2012-05-12T12:02:51Z</time>
      </trkpt>
      <trkpt lat="42.382085000" lon="-2.554123000">
        <ele>606.30</ele>
        <time>2012-05-12T12:02:51Z</time>
      </trkpt>
      <trkpt lat="42.382081000" lon="-2.554118000">
        <ele>606.40</ele>
        <time>2012-05-12T12:02:53Z</time>
      </trkpt>
      <trkpt lat="42.382071000" lon="-2.554118000">
        <ele>606.40</ele>
        <time>2012-05-12T12:02:54Z</time>
      </trkpt>
      <trkpt lat="42.382076000" lon="-2.554109000">
        <ele>606.40</ele>
        <time>2012-05-12T12:02:56Z</time>
      </trkpt>
      <trkpt lat="42.382081000" lon="-2.554106000">
        <ele>606.40</ele>
        <time>2012-05-12T12:02:58Z</time>
      </trkpt>
      <trkpt lat="42.382088000" lon="-2.554096000">
        <ele>606.40</ele>
        <time>2012-05-12T12:02:58Z</time>
      </trkpt>
      <trkpt lat="42.382093000" lon="-2.554093000">
        <ele>606.30</ele>
        <time>2012-05-12T12:02:59Z</time>
      </trkpt>
      <trkpt lat="42.382083000" lon="-2.554071000">
        <ele>606.30</ele>
        <time>2012-05-12T12:03:03Z</time>
      </trkpt>
      <trkpt lat="42.382071000" lon="-2.554051000">
        <ele>606.30</ele>
        <time>2012-05-12T12:03:05Z</time>
      </trkpt>
      <trkpt lat="42.382070000" lon="-2.554043000">
        <ele>606.30</ele>
        <time>2012-05-12T12:03:05Z</time>
      </trkpt>
      <trkpt lat="42.382075000" lon="-2.554038000">
        <ele>606.30</ele>
        <time>2012-05-12T12:03:06Z</time>
      </trkpt>
      <trkpt lat="42.382076000" lon="-2.554033000">
        <ele>606.30</ele>
        <time>2012-05-12T12:03:08Z</time>
      </trkpt>
      <trkpt lat="42.382081000" lon="-2.554024000">
        <ele>606.30</ele>
        <time>2012-05-12T12:03:08Z</time>
      </trkpt>
      <trkpt lat="42.382088000" lon="-2.554016000">
        <ele>606.30</ele>
        <time>2012-05-12T12:03:10Z</time>
      </trkpt>
      <trkpt lat="42.382088000" lon="-2.554013000">
        <ele>606.20</ele>
        <time>2012-05-12T12:03:12Z</time>
      </trkpt>
      <trkpt lat="42.382088000" lon="-2.554008000">
        <ele>606.20</ele>
        <time>2012-05-12T12:03:13Z</time>
      </trkpt>
      <trkpt lat="42.382090000" lon="-2.554006000">
        <ele>606.20</ele>
        <time>2012-05-12T12:03:15Z</time>
      </trkpt>
      <trkpt lat="42.382090000" lon="-2.554003000">
        <ele>606.20</ele>
        <time>2012-05-12T12:03:17Z</time>
      </trkpt>
      <trkpt lat="42.382080000" lon="-2.553998000">
        <ele>606.20</ele>
        <time>2012-05-12T12:03:20Z</time>
      </trkpt>
      <trkpt lat="42.382078000" lon="-2.553998000">
        <ele>606.30</ele>
        <time>2012-05-12T12:03:22Z</time>
      </trkpt>
      <trkpt lat="42.382076000" lon="-2.553999000">
        <ele>606.30</ele>
        <time>2012-05-12T12:03:22Z</time>
      </trkpt>
      <trkpt lat="42.382075000" lon="-2.554003000">
        <ele>606.30</ele>
        <time>2012-05-12T12:03:26Z</time>
      </trkpt>
      <trkpt lat="42.382073000" lon="-2.554003000">
        <ele>606.30</ele>
        <time>2012-05-12T12:03:31Z</time>
      </trkpt>
      <trkpt lat="42.382073000" lon="-2.553998000">
        <ele>606.30</ele>
        <time>2012-05-12T12:03:38Z</time>
      </trkpt>
      <trkpt lat="42.382078000" lon="-2.553989000">
        <ele>606.30</ele>
        <time>2012-05-12T12:03:48Z</time>
      </trkpt>
      <trkpt lat="42.382080000" lon="-2.553989000">
        <ele>606.30</ele>
        <time>2012-05-12T12:03:48Z</time>
      </trkpt>
      <trkpt lat="42.382081000" lon="-2.553989000">
        <ele>606.20</ele>
        <time>2012-05-12T12:03:50Z</time>
      </trkpt>
      <trkpt lat="42.382086000" lon="-2.553989000">
        <ele>606.20</ele>
        <time>2012-05-12T12:03:52Z</time>
      </trkpt>
      <trkpt lat="42.382091000" lon="-2.553986000">
        <ele>606.20</ele>
        <time>2012-05-12T12:03:57Z</time>
      </trkpt>
      <trkpt lat="42.382091000" lon="-2.553984000">
        <ele>606.20</ele>
        <time>2012-05-12T12:03:59Z</time>
      </trkpt>
      <trkpt lat="42.382093000" lon="-2.553984000">
        <ele>606.20</ele>
        <time>2012-05-12T12:03:59Z</time>
      </trkpt>
      <trkpt lat="42.382093000" lon="-2.553981000">
        <ele>606.20</ele>
        <time>2012-05-12T12:04:02Z</time>
      </trkpt>
      <trkpt lat="42.382095000" lon="-2.553979000">
        <ele>606.20</ele>
        <time>2012-05-12T12:04:04Z</time>
      </trkpt>
      <trkpt lat="42.382095000" lon="-2.553978000">
        <ele>606.20</ele>
        <time>2012-05-12T12:04:04Z</time>
      </trkpt>
      <trkpt lat="42.382095000" lon="-2.553976000">
        <ele>606.10</ele>
        <time>2012-05-12T12:04:06Z</time>
      </trkpt>
      <trkpt lat="42.382096000" lon="-2.553966000">
        <ele>606.10</ele>
        <time>2012-05-12T12:04:13Z</time>
      </trkpt>
      <trkpt lat="42.382093000" lon="-2.553963000">
        <ele>606.10</ele>
        <time>2012-05-12T12:04:16Z</time>
      </trkpt>
      <trkpt lat="42.382083000" lon="-2.553953000">
        <ele>606.20</ele>
        <time>2012-05-12T12:04:18Z</time>
      </trkpt>
      <trkpt lat="42.382073000" lon="-2.553933000">
        <ele>606.20</ele>
        <time>2012-05-12T12:04:18Z</time>
      </trkpt>
      <trkpt lat="42.381888000" lon="-2.553424000">
        <ele>604.10</ele>
        <time>2012-05-12T12:04:32Z</time>
      </trkpt>
      <trkpt lat="42.381835000" lon="-2.553171000">
        <ele>602.10</ele>
        <time>2012-05-12T12:04:35Z</time>
      </trkpt>
      <trkpt lat="42.381813000" lon="-2.553109000">
        <ele>601.60</ele>
        <time>2012-05-12T12:04:37Z</time>
      </trkpt>
      <trkpt lat="42.381780000" lon="-2.553054000">
        <ele>601.20</ele>
        <time>2012-05-12T12:04:37Z</time>
      </trkpt>
      <trkpt lat="42.381696000" lon="-2.552966000">
        <ele>600.60</ele>
        <time>2012-05-12T12:04:39Z</time>
      </trkpt>
      <trkpt lat="42.381658000" lon="-2.552913000">
        <ele>600.30</ele>
        <time>2012-05-12T12:04:41Z</time>
      </trkpt>
      <trkpt lat="42.381631000" lon="-2.552848000">
        <ele>600.10</ele>
        <time>2012-05-12T12:04:42Z</time>
      </trkpt>
      <trkpt lat="42.381628000" lon="-2.552774000">
        <ele>599.80</ele>
        <time>2012-05-12T12:04:42Z</time>
      </trkpt>
      <trkpt lat="42.381646000" lon="-2.552703000">
        <ele>599.40</ele>
        <time>2012-05-12T12:04:44Z</time>
      </trkpt>
      <trkpt lat="42.381681000" lon="-2.552638000">
        <ele>598.90</ele>
        <time>2012-05-12T12:04:44Z</time>
      </trkpt>
      <trkpt lat="42.382106000" lon="-2.552218000">
        <ele>594.50</ele>
        <time>2012-05-12T12:04:53Z</time>
      </trkpt>
      <trkpt lat="42.382270000" lon="-2.551916000">
        <ele>592.40</ele>
        <time>2012-05-12T12:04:56Z</time>
      </trkpt>
      <trkpt lat="42.382288000" lon="-2.551853000">
        <ele>592.30</ele>
        <time>2012-05-12T12:04:58Z</time>
      </trkpt>
      <trkpt lat="42.382290000" lon="-2.551794000">
        <ele>591.90</ele>
        <time>2012-05-12T12:04:58Z</time>
      </trkpt>
      <trkpt lat="42.382278000" lon="-2.551739000">
        <ele>591.70</ele>
        <time>2012-05-12T12:05:00Z</time>
      </trkpt>
      <trkpt lat="42.382253000" lon="-2.551691000">
        <ele>591.70</ele>
        <time>2012-05-12T12:05:00Z</time>
      </trkpt>
      <trkpt lat="42.382221000" lon="-2.551649000">
        <ele>591.70</ele>
        <time>2012-05-12T12:05:01Z</time>
      </trkpt>
      <trkpt lat="42.382080000" lon="-2.551534000">
        <ele>592.10</ele>
        <time>2012-05-12T12:05:05Z</time>
      </trkpt>
      <trkpt lat="42.382021000" lon="-2.551461000">
        <ele>592.40</ele>
        <time>2012-05-12T12:05:07Z</time>
      </trkpt>
      <trkpt lat="42.381981000" lon="-2.551359000">
        <ele>592.60</ele>
        <time>2012-05-12T12:05:10Z</time>
      </trkpt>
      <trkpt lat="42.381948000" lon="-2.551178000">
        <ele>592.60</ele>
        <time>2012-05-12T12:05:12Z</time>
      </trkpt>
      <trkpt lat="42.381656000" lon="-2.550468000">
        <ele>593.50</ele>
        <time>2012-05-12T12:05:24Z</time>
      </trkpt>
      <trkpt lat="42.381641000" lon="-2.550404000">
        <ele>593.50</ele>
        <time>2012-05-12T12:05:26Z</time>
      </trkpt>
      <trkpt lat="42.381645000" lon="-2.550341000">
        <ele>593.50</ele>
        <time>2012-05-12T12:05:26Z</time>
      </trkpt>
      <trkpt lat="42.381671000" lon="-2.550284000">
        <ele>593.40</ele>
        <time>2012-05-12T12:05:28Z</time>
      </trkpt>
      <trkpt lat="42.381791000" lon="-2.550103000">
        <ele>592.40</ele>
        <time>2012-05-12T12:05:31Z</time>
      </trkpt>
      <trkpt lat="42.381861000" lon="-2.549943000">
        <ele>591.60</ele>
        <time>2012-05-12T12:05:33Z</time>
      </trkpt>
      <trkpt lat="42.382176000" lon="-2.548729000">
        <ele>588.60</ele>
        <time>2012-05-12T12:05:45Z</time>
      </trkpt>
      <trkpt lat="42.382198000" lon="-2.547936000">
        <ele>590.00</ele>
        <time>2012-05-12T12:05:57Z</time>
      </trkpt>
      <trkpt lat="42.381658000" lon="-2.544504000">
        <ele>596.90</ele>
        <time>2012-05-12T12:06:46Z</time>
      </trkpt>
      <trkpt lat="42.381663000" lon="-2.544441000">
        <ele>596.90</ele>
        <time>2012-05-12T12:06:48Z</time>
      </trkpt>
      <trkpt lat="42.381680000" lon="-2.544379000">
        <ele>596.80</ele>
        <time>2012-05-12T12:06:48Z</time>
      </trkpt>
      <trkpt lat="42.381961000" lon="-2.543801000">
        <ele>594.60</ele>
        <time>2012-05-12T12:06:56Z</time>
      </trkpt>
      <trkpt lat="42.382130000" lon="-2.543241000">
        <ele>592.10</ele>
        <time>2012-05-12T12:07:02Z</time>
      </trkpt>
      <trkpt lat="42.382186000" lon="-2.542838000">
        <ele>590.60</ele>
        <time>2012-05-12T12:07:05Z</time>
      </trkpt>
      <trkpt lat="42.382315000" lon="-2.542418000">
        <ele>588.80</ele>
        <time>2012-05-12T12:07:07Z</time>
      </trkpt>
      <trkpt lat="42.382941000" lon="-2.540941000">
        <ele>573.50</ele>
        <time>2012-05-12T12:07:17Z</time>
      </trkpt>
      <trkpt lat="42.383010000" lon="-2.540826000">
        <ele>571.70</ele>
        <time>2012-05-12T12:07:19Z</time>
      </trkpt>
      <trkpt lat="42.383091000" lon="-2.540729000">
        <ele>570.10</ele>
        <time>2012-05-12T12:07:19Z</time>
      </trkpt>
      <trkpt lat="42.383611000" lon="-2.540374000">
        <ele>564.30</ele>
        <time>2012-05-12T12:07:24Z</time>
      </trkpt>
      <trkpt lat="42.384008000" lon="-2.539934000">
        <ele>557.50</ele>
        <time>2012-05-12T12:07:28Z</time>
      </trkpt>
      <trkpt lat="42.384171000" lon="-2.539661000">
        <ele>553.20</ele>
        <time>2012-05-12T12:07:31Z</time>
      </trkpt>
      <trkpt lat="42.384471000" lon="-2.538676000">
        <ele>543.00</ele>
        <time>2012-05-12T12:07:36Z</time>
      </trkpt>
      <trkpt lat="42.384648000" lon="-2.538209000">
        <ele>539.40</ele>
        <time>2012-05-12T12:07:40Z</time>
      </trkpt>
      <trkpt lat="42.384751000" lon="-2.537526000">
        <ele>535.50</ele>
        <time>2012-05-12T12:07:43Z</time>
      </trkpt>
      <trkpt lat="42.384786000" lon="-2.537394000">
        <ele>534.80</ele>
        <time>2012-05-12T12:07:45Z</time>
      </trkpt>
      <trkpt lat="42.384836000" lon="-2.537291000">
        <ele>534.20</ele>
        <time>2012-05-12T12:07:45Z</time>
      </trkpt>
      <trkpt lat="42.384905000" lon="-2.537218000">
        <ele>533.60</ele>
        <time>2012-05-12T12:07:47Z</time>
      </trkpt>
      <trkpt lat="42.385625000" lon="-2.536853000">
        <ele>529.00</ele>
        <time>2012-05-12T12:07:54Z</time>
      </trkpt>
      <trkpt lat="42.385706000" lon="-2.536793000">
        <ele>528.60</ele>
        <time>2012-05-12T12:07:56Z</time>
      </trkpt>
      <trkpt lat="42.386085000" lon="-2.536358000">
        <ele>525.90</ele>
        <time>2012-05-12T12:08:01Z</time>
      </trkpt>
      <trkpt lat="42.386166000" lon="-2.536208000">
        <ele>525.60</ele>
        <time>2012-05-12T12:08:04Z</time>
      </trkpt>
      <trkpt lat="42.386286000" lon="-2.536083000">
        <ele>525.40</ele>
        <time>2012-05-12T12:08:06Z</time>
      </trkpt>
      <trkpt lat="42.386378000" lon="-2.535941000">
        <ele>525.30</ele>
        <time>2012-05-12T12:08:08Z</time>
      </trkpt>
      <trkpt lat="42.386408000" lon="-2.535864000">
        <ele>525.40</ele>
        <time>2012-05-12T12:08:08Z</time>
      </trkpt>
      <trkpt lat="42.386421000" lon="-2.535788000">
        <ele>525.40</ele>
        <time>2012-05-12T12:08:10Z</time>
      </trkpt>
      <trkpt lat="42.386438000" lon="-2.535424000">
        <ele>526.20</ele>
        <time>2012-05-12T12:08:17Z</time>
      </trkpt>
      <trkpt lat="42.386471000" lon="-2.535326000">
        <ele>526.50</ele>
        <time>2012-05-12T12:08:20Z</time>
      </trkpt>
      <trkpt lat="42.386901000" lon="-2.534446000">
        <ele>527.50</ele>
        <time>2012-05-12T12:08:41Z</time>
      </trkpt>
      <trkpt lat="42.387701000" lon="-2.533456000">
        <ele>528.60</ele>
        <time>2012-05-12T12:09:07Z</time>
      </trkpt>
      <trkpt lat="42.387731000" lon="-2.533428000">
        <ele>528.70</ele>
        <time>2012-05-12T12:09:09Z</time>
      </trkpt>
      <trkpt lat="42.388138000" lon="-2.533198000">
        <ele>532.20</ele>
        <time>2012-05-12T12:09:21Z</time>
      </trkpt>
      <trkpt lat="42.388188000" lon="-2.533156000">
        <ele>533.00</ele>
        <time>2012-05-12T12:09:23Z</time>
      </trkpt>
      <trkpt lat="42.388210000" lon="-2.533131000">
        <ele>533.40</ele>
        <time>2012-05-12T12:09:24Z</time>
      </trkpt>
      <trkpt lat="42.388226000" lon="-2.533104000">
        <ele>533.80</ele>
        <time>2012-05-12T12:09:26Z</time>
      </trkpt>
      <trkpt lat="42.388240000" lon="-2.533074000">
        <ele>534.10</ele>
        <time>2012-05-12T12:09:26Z</time>
      </trkpt>
      <trkpt lat="42.388248000" lon="-2.533041000">
        <ele>534.50</ele>
        <time>2012-05-12T12:09:28Z</time>
      </trkpt>
      <trkpt lat="42.388255000" lon="-2.532969000">
        <ele>535.20</ele>
        <time>2012-05-12T12:09:30Z</time>
      </trkpt>
      <trkpt lat="42.388216000" lon="-2.532673000">
        <ele>536.90</ele>
        <time>2012-05-12T12:09:37Z</time>
      </trkpt>
      <trkpt lat="42.388096000" lon="-2.532274000">
        <ele>537.80</ele>
        <time>2012-05-12T12:09:49Z</time>
      </trkpt>
      <trkpt lat="42.388016000" lon="-2.532088000">
        <ele>537.70</ele>
        <time>2012-05-12T12:09:54Z</time>
      </trkpt>
      <trkpt lat="42.388008000" lon="-2.532059000">
        <ele>537.70</ele>
        <time>2012-05-12T12:09:56Z</time>
      </trkpt>
      <trkpt lat="42.387970000" lon="-2.531963000">
        <ele>538.10</ele>
        <time>2012-05-12T12:09:59Z</time>
      </trkpt>
      <trkpt lat="42.387748000" lon="-2.531659000">
        <ele>539.50</ele>
        <time>2012-05-12T12:10:08Z</time>
      </trkpt>
      <trkpt lat="42.387606000" lon="-2.531438000">
        <ele>541.00</ele>
        <time>2012-05-12T12:10:15Z</time>
      </trkpt>
      <trkpt lat="42.387591000" lon="-2.531403000">
        <ele>541.10</ele>
        <time>2012-05-12T12:10:17Z</time>
      </trkpt>
      <trkpt lat="42.387385000" lon="-2.530981000">
        <ele>544.00</ele>
        <time>2012-05-12T12:10:29Z</time>
      </trkpt>
      <trkpt lat="42.387375000" lon="-2.530874000">
        <ele>545.00</ele>
        <time>2012-05-12T12:10:32Z</time>
      </trkpt>
      <trkpt lat="42.387368000" lon="-2.530846000">
        <ele>545.30</ele>
        <time>2012-05-12T12:10:34Z</time>
      </trkpt>
      <trkpt lat="42.387361000" lon="-2.530829000">
        <ele>545.50</ele>
        <time>2012-05-12T12:10:34Z</time>
      </trkpt>
      <trkpt lat="42.387356000" lon="-2.530808000">
        <ele>545.70</ele>
        <time>2012-05-12T12:10:36Z</time>
      </trkpt>
      <trkpt lat="42.387355000" lon="-2.530766000">
        <ele>546.20</ele>
        <time>2012-05-12T12:10:38Z</time>
      </trkpt>
      <trkpt lat="42.387366000" lon="-2.530751000">
        <ele>546.40</ele>
        <time>2012-05-12T12:10:38Z</time>
      </trkpt>
      <trkpt lat="42.387410000" lon="-2.530669000">
        <ele>547.40</ele>
        <time>2012-05-12T12:10:41Z</time>
      </trkpt>
      <trkpt lat="42.387415000" lon="-2.530634000">
        <ele>547.80</ele>
        <time>2012-05-12T12:10:43Z</time>
      </trkpt>
      <trkpt lat="42.387435000" lon="-2.530566000">
        <ele>548.60</ele>
        <time>2012-05-12T12:10:45Z</time>
      </trkpt>
      <trkpt lat="42.387453000" lon="-2.530446000">
        <ele>550.00</ele>
        <time>2012-05-12T12:10:48Z</time>
      </trkpt>
      <trkpt lat="42.387460000" lon="-2.530293000">
        <ele>550.80</ele>
        <time>2012-05-12T12:10:53Z</time>
      </trkpt>
      <trkpt lat="42.387453000" lon="-2.530264000">
        <ele>550.80</ele>
        <time>2012-05-12T12:10:55Z</time>
      </trkpt>
      <trkpt lat="42.387440000" lon="-2.530243000">
        <ele>550.80</ele>
        <time>2012-05-12T12:10:55Z</time>
      </trkpt>
      <trkpt lat="42.387215000" lon="-2.530064000">
        <ele>550.00</ele>
        <time>2012-05-12T12:11:07Z</time>
      </trkpt>
      <trkpt lat="42.386953000" lon="-2.529783000">
        <ele>549.30</ele>
        <time>2012-05-12T12:11:18Z</time>
      </trkpt>
      <trkpt lat="42.386930000" lon="-2.529748000">
        <ele>549.30</ele>
        <time>2012-05-12T12:11:19Z</time>
      </trkpt>
      <trkpt lat="42.386910000" lon="-2.529704000">
        <ele>549.30</ele>
        <time>2012-05-12T12:11:21Z</time>
      </trkpt>
      <trkpt lat="42.386105000" lon="-2.528451000">
        <ele>551.10</ele>
        <time>2012-05-12T12:11:53Z</time>
      </trkpt>
      <trkpt lat="42.385863000" lon="-2.528004000">
        <ele>552.40</ele>
        <time>2012-05-12T12:12:03Z</time>
      </trkpt>
      <trkpt lat="42.385820000" lon="-2.527816000">
        <ele>553.10</ele>
        <time>2012-05-12T12:12:06Z</time>
      </trkpt>
      <trkpt lat="42.385738000" lon="-2.527173000">
        <ele>555.70</ele>
        <time>2012-05-12T12:12:22Z</time>
      </trkpt>
      <trkpt lat="42.385726000" lon="-2.527129000">
        <ele>555.80</ele>
        <time>2012-05-12T12:12:22Z</time>
      </trkpt>
      <trkpt lat="42.385306000" lon="-2.525958000">
        <ele>558.70</ele>
        <time>2012-05-12T12:12:52Z</time>
      </trkpt>
      <trkpt lat="42.385300000" lon="-2.525944000">
        <ele>558.70</ele>
        <time>2012-05-12T12:12:52Z</time>
      </trkpt>
      <trkpt lat="42.385301000" lon="-2.525943000">
        <ele>558.70</ele>
        <time>2012-05-12T12:12:54Z</time>
      </trkpt>
      <trkpt lat="42.385296000" lon="-2.525941000">
        <ele>558.70</ele>
        <time>2012-05-12T12:12:55Z</time>
      </trkpt>
      <trkpt lat="42.385298000" lon="-2.525939000">
        <ele>558.70</ele>
        <time>2012-05-12T12:12:57Z</time>
      </trkpt>
      <trkpt lat="42.385296000" lon="-2.525928000">
        <ele>558.70</ele>
        <time>2012-05-12T12:13:07Z</time>
      </trkpt>
      <trkpt lat="42.385296000" lon="-2.525931000">
        <ele>558.70</ele>
        <time>2012-05-12T12:13:11Z</time>
      </trkpt>
      <trkpt lat="42.385298000" lon="-2.525931000">
        <ele>558.70</ele>
        <time>2012-05-12T12:13:14Z</time>
      </trkpt>
      <trkpt lat="42.385298000" lon="-2.525926000">
        <ele>558.70</ele>
        <time>2012-05-12T12:13:21Z</time>
      </trkpt>
      <trkpt lat="42.385300000" lon="-2.525926000">
        <ele>558.70</ele>
        <time>2012-05-12T12:13:21Z</time>
      </trkpt>
      <trkpt lat="42.385298000" lon="-2.525926000">
        <ele>558.70</ele>
        <time>2012-05-12T12:13:23Z</time>
      </trkpt>
      <trkpt lat="42.385298000" lon="-2.525911000">
        <ele>558.70</ele>
        <time>2012-05-12T12:13:37Z</time>
      </trkpt>
      <trkpt lat="42.385298000" lon="-2.525913000">
        <ele>558.70</ele>
        <time>2012-05-12T12:13:37Z</time>
      </trkpt>
      <trkpt lat="42.385300000" lon="-2.525914000">
        <ele>558.70</ele>
        <time>2012-05-12T12:13:44Z</time>
      </trkpt>
      <trkpt lat="42.385301000" lon="-2.525913000">
        <ele>558.70</ele>
        <time>2012-05-12T12:13:51Z</time>
      </trkpt>
      <trkpt lat="42.385301000" lon="-2.525916000">
        <ele>558.70</ele>
        <time>2012-05-12T12:13:53Z</time>
      </trkpt>
      <trkpt lat="42.385303000" lon="-2.525916000">
        <ele>558.70</ele>
        <time>2012-05-12T12:13:56Z</time>
      </trkpt>
      <trkpt lat="42.385303000" lon="-2.525903000">
        <ele>558.70</ele>
        <time>2012-05-12T12:14:15Z</time>
      </trkpt>
      <trkpt lat="42.385301000" lon="-2.525903000">
        <ele>558.70</ele>
        <time>2012-05-12T12:14:17Z</time>
      </trkpt>
      <trkpt lat="42.385300000" lon="-2.525889000">
        <ele>558.70</ele>
        <time>2012-05-12T12:14:33Z</time>
      </trkpt>
      <trkpt lat="42.385303000" lon="-2.525889000">
        <ele>558.70</ele>
        <time>2012-05-12T12:14:38Z</time>
      </trkpt>
      <trkpt lat="42.385303000" lon="-2.525891000">
        <ele>558.70</ele>
        <time>2012-05-12T12:14:40Z</time>
      </trkpt>
      <trkpt lat="42.385305000" lon="-2.525891000">
        <ele>558.70</ele>
        <time>2012-05-12T12:14:40Z</time>
      </trkpt>
      <trkpt lat="42.385306000" lon="-2.525893000">
        <ele>558.70</ele>
        <time>2012-05-12T12:14:43Z</time>
      </trkpt>
      <trkpt lat="42.385306000" lon="-2.525896000">
        <ele>558.70</ele>
        <time>2012-05-12T12:14:45Z</time>
      </trkpt>
      <trkpt lat="42.385310000" lon="-2.525904000">
        <ele>558.70</ele>
        <time>2012-05-12T12:14:47Z</time>
      </trkpt>
      <trkpt lat="42.385310000" lon="-2.525913000">
        <ele>558.70</ele>
        <time>2012-05-12T12:14:50Z</time>
      </trkpt>
      <trkpt lat="42.385315000" lon="-2.525921000">
        <ele>558.70</ele>
        <time>2012-05-12T12:14:59Z</time>
      </trkpt>
      <trkpt lat="42.385315000" lon="-2.525916000">
        <ele>558.70</ele>
        <time>2012-05-12T12:15:09Z</time>
      </trkpt>
      <trkpt lat="42.385315000" lon="-2.525918000">
        <ele>558.70</ele>
        <time>2012-05-12T12:15:09Z</time>
      </trkpt>
      <trkpt lat="42.385313000" lon="-2.525918000">
        <ele>558.70</ele>
        <time>2012-05-12T12:15:15Z</time>
      </trkpt>
      <trkpt lat="42.385315000" lon="-2.525916000">
        <ele>558.70</ele>
        <time>2012-05-12T12:15:16Z</time>
      </trkpt>
      <trkpt lat="42.385313000" lon="-2.525916000">
        <ele>558.70</ele>
        <time>2012-05-12T12:15:16Z</time>
      </trkpt>
      <trkpt lat="42.385313000" lon="-2.525913000">
        <ele>558.70</ele>
        <time>2012-05-12T12:15:20Z</time>
      </trkpt>
      <trkpt lat="42.385311000" lon="-2.525911000">
        <ele>558.70</ele>
        <time>2012-05-12T12:15:22Z</time>
      </trkpt>
      <trkpt lat="42.385310000" lon="-2.525933000">
        <ele>558.70</ele>
        <time>2012-05-12T12:15:39Z</time>
      </trkpt>
      <trkpt lat="42.385308000" lon="-2.525933000">
        <ele>558.70</ele>
        <time>2012-05-12T12:15:39Z</time>
      </trkpt>
      <trkpt lat="42.385308000" lon="-2.525941000">
        <ele>558.70</ele>
        <time>2012-05-12T12:15:44Z</time>
      </trkpt>
      <trkpt lat="42.385310000" lon="-2.525943000">
        <ele>558.70</ele>
        <time>2012-05-12T12:15:46Z</time>
      </trkpt>
      <trkpt lat="42.385308000" lon="-2.525944000">
        <ele>558.70</ele>
        <time>2012-05-12T12:15:46Z</time>
      </trkpt>
      <trkpt lat="42.385308000" lon="-2.525949000">
        <ele>558.70</ele>
        <time>2012-05-12T12:15:53Z</time>
      </trkpt>
      <trkpt lat="42.385306000" lon="-2.525949000">
        <ele>558.70</ele>
        <time>2012-05-12T12:15:53Z</time>
      </trkpt>
      <trkpt lat="42.385306000" lon="-2.525951000">
        <ele>558.70</ele>
        <time>2012-05-12T12:15:58Z</time>
      </trkpt>
      <trkpt lat="42.385300000" lon="-2.525951000">
        <ele>558.70</ele>
        <time>2012-05-12T12:16:12Z</time>
      </trkpt>
      <trkpt lat="42.385298000" lon="-2.525949000">
        <ele>558.70</ele>
        <time>2012-05-12T12:16:17Z</time>
      </trkpt>
      <trkpt lat="42.385295000" lon="-2.525949000">
        <ele>558.70</ele>
        <time>2012-05-12T12:16:31Z</time>
      </trkpt>
      <trkpt lat="42.385295000" lon="-2.525951000">
        <ele>558.70</ele>
        <time>2012-05-12T12:16:35Z</time>
      </trkpt>
      <trkpt lat="42.385291000" lon="-2.525951000">
        <ele>558.70</ele>
        <time>2012-05-12T12:16:45Z</time>
      </trkpt>
      <trkpt lat="42.385291000" lon="-2.525936000">
        <ele>558.70</ele>
        <time>2012-05-12T12:17:04Z</time>
      </trkpt>
      <trkpt lat="42.385295000" lon="-2.525934000">
        <ele>558.70</ele>
        <time>2012-05-12T12:17:08Z</time>
      </trkpt>
      <trkpt lat="42.385296000" lon="-2.525928000">
        <ele>558.70</ele>
        <time>2012-05-12T12:17:13Z</time>
      </trkpt>
      <trkpt lat="42.385298000" lon="-2.525929000">
        <ele>558.70</ele>
        <time>2012-05-12T12:17:15Z</time>
      </trkpt>
      <trkpt lat="42.385298000" lon="-2.525926000">
        <ele>558.70</ele>
        <time>2012-05-12T12:17:18Z</time>
      </trkpt>
      <trkpt lat="42.385300000" lon="-2.525926000">
        <ele>558.70</ele>
        <time>2012-05-12T12:17:18Z</time>
      </trkpt>
      <trkpt lat="42.385300000" lon="-2.525924000">
        <ele>558.70</ele>
        <time>2012-05-12T12:17:20Z</time>
      </trkpt>
      <trkpt lat="42.385303000" lon="-2.525929000">
        <ele>558.70</ele>
        <time>2012-05-12T12:17:24Z</time>
      </trkpt>
      <trkpt lat="42.385303000" lon="-2.525926000">
        <ele>558.70</ele>
        <time>2012-05-12T12:17:34Z</time>
      </trkpt>
      <trkpt lat="42.385301000" lon="-2.525926000">
        <ele>558.70</ele>
        <time>2012-05-12T12:17:36Z</time>
      </trkpt>
      <trkpt lat="42.385300000" lon="-2.525923000">
        <ele>558.70</ele>
        <time>2012-05-12T12:17:48Z</time>
      </trkpt>
      <trkpt lat="42.385298000" lon="-2.525923000">
        <ele>558.70</ele>
        <time>2012-05-12T12:17:50Z</time>
      </trkpt>
      <trkpt lat="42.385298000" lon="-2.525919000">
        <ele>558.70</ele>
        <time>2012-05-12T12:17:53Z</time>
      </trkpt>
      <trkpt lat="42.385296000" lon="-2.525919000">
        <ele>558.70</ele>
        <time>2012-05-12T12:17:53Z</time>
      </trkpt>
      <trkpt lat="42.385296000" lon="-2.525914000">
        <ele>558.70</ele>
        <time>2012-05-12T12:17:58Z</time>
      </trkpt>
      <trkpt lat="42.385293000" lon="-2.525909000">
        <ele>558.70</ele>
        <time>2012-05-12T12:18:02Z</time>
      </trkpt>
      <trkpt lat="42.385293000" lon="-2.525904000">
        <ele>558.70</ele>
        <time>2012-05-12T12:18:05Z</time>
      </trkpt>
      <trkpt lat="42.385290000" lon="-2.525903000">
        <ele>558.70</ele>
        <time>2012-05-12T12:18:07Z</time>
      </trkpt>
      <trkpt lat="42.385288000" lon="-2.525898000">
        <ele>558.70</ele>
        <time>2012-05-12T12:18:12Z</time>
      </trkpt>
      <trkpt lat="42.385286000" lon="-2.525899000">
        <ele>558.70</ele>
        <time>2012-05-12T12:18:14Z</time>
      </trkpt>
      <trkpt lat="42.385285000" lon="-2.525894000">
        <ele>558.70</ele>
        <time>2012-05-12T12:18:21Z</time>
      </trkpt>
      <trkpt lat="42.385283000" lon="-2.525893000">
        <ele>558.70</ele>
        <time>2012-05-12T12:18:23Z</time>
      </trkpt>
      <trkpt lat="42.385283000" lon="-2.525889000">
        <ele>558.70</ele>
        <time>2012-05-12T12:18:24Z</time>
      </trkpt>
      <trkpt lat="42.385281000" lon="-2.525888000">
        <ele>558.70</ele>
        <time>2012-05-12T12:18:26Z</time>
      </trkpt>
      <trkpt lat="42.385280000" lon="-2.525876000">
        <ele>558.70</ele>
        <time>2012-05-12T12:18:31Z</time>
      </trkpt>
      <trkpt lat="42.385278000" lon="-2.525874000">
        <ele>558.70</ele>
        <time>2012-05-12T12:18:33Z</time>
      </trkpt>
      <trkpt lat="42.385278000" lon="-2.525858000">
        <ele>558.70</ele>
        <time>2012-05-12T12:18:38Z</time>
      </trkpt>
      <trkpt lat="42.385278000" lon="-2.525856000">
        <ele>558.60</ele>
        <time>2012-05-12T12:18:40Z</time>
      </trkpt>
      <trkpt lat="42.385278000" lon="-2.525839000">
        <ele>558.60</ele>
        <time>2012-05-12T12:18:59Z</time>
      </trkpt>
      <trkpt lat="42.385271000" lon="-2.525843000">
        <ele>558.60</ele>
        <time>2012-05-12T12:19:18Z</time>
      </trkpt>
      <trkpt lat="42.385265000" lon="-2.525838000">
        <ele>558.60</ele>
        <time>2012-05-12T12:19:20Z</time>
      </trkpt>
      <trkpt lat="42.385266000" lon="-2.525834000">
        <ele>558.60</ele>
        <time>2012-05-12T12:19:22Z</time>
      </trkpt>
      <trkpt lat="42.385270000" lon="-2.525831000">
        <ele>558.60</ele>
        <time>2012-05-12T12:19:24Z</time>
      </trkpt>
      <trkpt lat="42.385270000" lon="-2.525834000">
        <ele>558.60</ele>
        <time>2012-05-12T12:19:27Z</time>
      </trkpt>
      <trkpt lat="42.385268000" lon="-2.525836000">
        <ele>558.60</ele>
        <time>2012-05-12T12:19:27Z</time>
      </trkpt>
      <trkpt lat="42.385268000" lon="-2.525848000">
        <ele>558.60</ele>
        <time>2012-05-12T12:19:34Z</time>
      </trkpt>
      <trkpt lat="42.385270000" lon="-2.525849000">
        <ele>558.60</ele>
        <time>2012-05-12T12:19:36Z</time>
      </trkpt>
      <trkpt lat="42.385270000" lon="-2.525854000">
        <ele>558.60</ele>
        <time>2012-05-12T12:19:38Z</time>
      </trkpt>
      <trkpt lat="42.385271000" lon="-2.525856000">
        <ele>558.70</ele>
        <time>2012-05-12T12:19:39Z</time>
      </trkpt>
      <trkpt lat="42.385271000" lon="-2.525864000">
        <ele>558.70</ele>
        <time>2012-05-12T12:19:45Z</time>
      </trkpt>
      <trkpt lat="42.385273000" lon="-2.525864000">
        <ele>558.70</ele>
        <time>2012-05-12T12:19:46Z</time>
      </trkpt>
      <trkpt lat="42.385275000" lon="-2.525868000">
        <ele>558.70</ele>
        <time>2012-05-12T12:19:48Z</time>
      </trkpt>
      <trkpt lat="42.385276000" lon="-2.525876000">
        <ele>558.70</ele>
        <time>2012-05-12T12:19:53Z</time>
      </trkpt>
      <trkpt lat="42.385278000" lon="-2.525879000">
        <ele>558.70</ele>
        <time>2012-05-12T12:19:55Z</time>
      </trkpt>
      <trkpt lat="42.385280000" lon="-2.525879000">
        <ele>558.70</ele>
        <time>2012-05-12T12:19:57Z</time>
      </trkpt>
      <trkpt lat="42.385283000" lon="-2.525893000">
        <ele>558.70</ele>
        <time>2012-05-12T12:20:14Z</time>
      </trkpt>
      <trkpt lat="42.385286000" lon="-2.525894000">
        <ele>558.70</ele>
        <time>2012-05-12T12:20:18Z</time>
      </trkpt>
      <trkpt lat="42.385285000" lon="-2.525896000">
        <ele>558.70</ele>
        <time>2012-05-12T12:20:23Z</time>
      </trkpt>
      <trkpt lat="42.385281000" lon="-2.525896000">
        <ele>558.70</ele>
        <time>2012-05-12T12:20:25Z</time>
      </trkpt>
      <trkpt lat="42.385281000" lon="-2.525898000">
        <ele>558.70</ele>
        <time>2012-05-12T12:20:25Z</time>
      </trkpt>
      <trkpt lat="42.385273000" lon="-2.525899000">
        <ele>558.70</ele>
        <time>2012-05-12T12:20:32Z</time>
      </trkpt>
      <trkpt lat="42.385273000" lon="-2.525901000">
        <ele>558.70</ele>
        <time>2012-05-12T12:20:33Z</time>
      </trkpt>
      <trkpt lat="42.385265000" lon="-2.525899000">
        <ele>558.70</ele>
        <time>2012-05-12T12:20:35Z</time>
      </trkpt>
      <trkpt lat="42.385260000" lon="-2.525894000">
        <ele>558.70</ele>
        <time>2012-05-12T12:20:35Z</time>
      </trkpt>
      <trkpt lat="42.385256000" lon="-2.525894000">
        <ele>558.70</ele>
        <time>2012-05-12T12:20:37Z</time>
      </trkpt>
      <trkpt lat="42.385256000" lon="-2.525896000">
        <ele>558.70</ele>
        <time>2012-05-12T12:20:39Z</time>
      </trkpt>
      <trkpt lat="42.385253000" lon="-2.525898000">
        <ele>558.70</ele>
        <time>2012-05-12T12:20:40Z</time>
      </trkpt>
      <trkpt lat="42.385223000" lon="-2.525871000">
        <ele>558.70</ele>
        <time>2012-05-12T12:20:42Z</time>
      </trkpt>
      <trkpt lat="42.384715000" lon="-2.525233000">
        <ele>558.50</ele>
        <time>2012-05-12T12:21:08Z</time>
      </trkpt>
      <trkpt lat="42.384545000" lon="-2.524923000">
        <ele>558.40</ele>
        <time>2012-05-12T12:21:15Z</time>
      </trkpt>
      <trkpt lat="42.384455000" lon="-2.524649000">
        <ele>558.20</ele>
        <time>2012-05-12T12:21:22Z</time>
      </trkpt>
      <trkpt lat="42.384363000" lon="-2.524159000">
        <ele>558.40</ele>
        <time>2012-05-12T12:21:31Z</time>
      </trkpt>
      <trkpt lat="42.384358000" lon="-2.523928000">
        <ele>558.60</ele>
        <time>2012-05-12T12:21:36Z</time>
      </trkpt>
      <trkpt lat="42.384361000" lon="-2.523886000">
        <ele>558.60</ele>
        <time>2012-05-12T12:21:38Z</time>
      </trkpt>
      <trkpt lat="42.384508000" lon="-2.523223000">
        <ele>561.20</ele>
        <time>2012-05-12T12:21:54Z</time>
      </trkpt>
      <trkpt lat="42.384650000" lon="-2.522314000">
        <ele>563.20</ele>
        <time>2012-05-12T12:22:11Z</time>
      </trkpt>
      <trkpt lat="42.385298000" lon="-2.520473000">
        <ele>562.20</ele>
        <time>2012-05-12T12:22:34Z</time>
      </trkpt>
      <trkpt lat="42.385386000" lon="-2.520168000">
        <ele>561.10</ele>
        <time>2012-05-12T12:22:37Z</time>
      </trkpt>
      <trkpt lat="42.385525000" lon="-2.519894000">
        <ele>560.60</ele>
        <time>2012-05-12T12:22:39Z</time>
      </trkpt>
      <trkpt lat="42.385580000" lon="-2.519813000">
        <ele>560.50</ele>
        <time>2012-05-12T12:22:41Z</time>
      </trkpt>
      <trkpt lat="42.386336000" lon="-2.518931000">
        <ele>557.90</ele>
        <time>2012-05-12T12:22:53Z</time>
      </trkpt>
      <trkpt lat="42.387428000" lon="-2.517388000">
        <ele>551.70</ele>
        <time>2012-05-12T12:23:12Z</time>
      </trkpt>
      <trkpt lat="42.387740000" lon="-2.517034000">
        <ele>549.70</ele>
        <time>2012-05-12T12:23:17Z</time>
      </trkpt>
      <trkpt lat="42.387868000" lon="-2.516839000">
        <ele>548.70</ele>
        <time>2012-05-12T12:23:19Z</time>
      </trkpt>
      <trkpt lat="42.388245000" lon="-2.516486000">
        <ele>546.80</ele>
        <time>2012-05-12T12:23:26Z</time>
      </trkpt>
      <trkpt lat="42.388803000" lon="-2.515616000">
        <ele>543.20</ele>
        <time>2012-05-12T12:23:43Z</time>
      </trkpt>
      <trkpt lat="42.388848000" lon="-2.515569000">
        <ele>543.10</ele>
        <time>2012-05-12T12:23:43Z</time>
      </trkpt>
      <trkpt lat="42.389205000" lon="-2.515226000">
        <ele>540.90</ele>
        <time>2012-05-12T12:23:50Z</time>
      </trkpt>
      <trkpt lat="42.389233000" lon="-2.515146000">
        <ele>540.70</ele>
        <time>2012-05-12T12:23:52Z</time>
      </trkpt>
      <trkpt lat="42.389256000" lon="-2.514688000">
        <ele>540.00</ele>
        <time>2012-05-12T12:23:57Z</time>
      </trkpt>
      <trkpt lat="42.389271000" lon="-2.514593000">
        <ele>539.90</ele>
        <time>2012-05-12T12:23:57Z</time>
      </trkpt>
      <trkpt lat="42.389368000" lon="-2.514321000">
        <ele>539.20</ele>
        <time>2012-05-12T12:24:01Z</time>
      </trkpt>
      <trkpt lat="42.390130000" lon="-2.512883000">
        <ele>535.50</ele>
        <time>2012-05-12T12:24:16Z</time>
      </trkpt>
      <trkpt lat="42.390318000" lon="-2.512656000">
        <ele>535.00</ele>
        <time>2012-05-12T12:24:20Z</time>
      </trkpt>
      <trkpt lat="42.390368000" lon="-2.512563000">
        <ele>534.80</ele>
        <time>2012-05-12T12:24:20Z</time>
      </trkpt>
      <trkpt lat="42.390405000" lon="-2.512458000">
        <ele>534.60</ele>
        <time>2012-05-12T12:24:22Z</time>
      </trkpt>
      <trkpt lat="42.390465000" lon="-2.512109000">
        <ele>534.10</ele>
        <time>2012-05-12T12:24:25Z</time>
      </trkpt>
      <trkpt lat="42.390471000" lon="-2.511998000">
        <ele>533.80</ele>
        <time>2012-05-12T12:24:25Z</time>
      </trkpt>
      <trkpt lat="42.390446000" lon="-2.511793000">
        <ele>533.20</ele>
        <time>2012-05-12T12:24:27Z</time>
      </trkpt>
      <trkpt lat="42.390400000" lon="-2.511618000">
        <ele>532.60</ele>
        <time>2012-05-12T12:24:30Z</time>
      </trkpt>
      <trkpt lat="42.390391000" lon="-2.511531000">
        <ele>532.40</ele>
        <time>2012-05-12T12:24:30Z</time>
      </trkpt>
      <trkpt lat="42.390453000" lon="-2.511074000">
        <ele>530.90</ele>
        <time>2012-05-12T12:24:35Z</time>
      </trkpt>
      <trkpt lat="42.390363000" lon="-2.509796000">
        <ele>529.40</ele>
        <time>2012-05-12T12:24:48Z</time>
      </trkpt>
      <trkpt lat="42.390370000" lon="-2.509703000">
        <ele>529.40</ele>
        <time>2012-05-12T12:24:49Z</time>
      </trkpt>
      <trkpt lat="42.390448000" lon="-2.509348000">
        <ele>529.00</ele>
        <time>2012-05-12T12:24:53Z</time>
      </trkpt>
      <trkpt lat="42.390715000" lon="-2.508509000">
        <ele>528.60</ele>
        <time>2012-05-12T12:25:03Z</time>
      </trkpt>
      <trkpt lat="42.390938000" lon="-2.507316000">
        <ele>528.90</ele>
        <time>2012-05-12T12:25:17Z</time>
      </trkpt>
      <trkpt lat="42.391153000" lon="-2.506501000">
        <ele>529.60</ele>
        <time>2012-05-12T12:25:26Z</time>
      </trkpt>
      <trkpt lat="42.391311000" lon="-2.505623000">
        <ele>529.90</ele>
        <time>2012-05-12T12:25:35Z</time>
      </trkpt>
      <trkpt lat="42.391468000" lon="-2.505059000">
        <ele>529.70</ele>
        <time>2012-05-12T12:25:42Z</time>
      </trkpt>
      <trkpt lat="42.391630000" lon="-2.504413000">
        <ele>529.50</ele>
        <time>2012-05-12T12:25:49Z</time>
      </trkpt>
      <trkpt lat="42.391735000" lon="-2.504174000">
        <ele>529.20</ele>
        <time>2012-05-12T12:25:52Z</time>
      </trkpt>
      <trkpt lat="42.391781000" lon="-2.504106000">
        <ele>529.10</ele>
        <time>2012-05-12T12:25:52Z</time>
      </trkpt>
      <trkpt lat="42.392208000" lon="-2.503146000">
        <ele>527.90</ele>
        <time>2012-05-12T12:26:06Z</time>
      </trkpt>
      <trkpt lat="42.392236000" lon="-2.502983000">
        <ele>527.80</ele>
        <time>2012-05-12T12:26:08Z</time>
      </trkpt>
      <trkpt lat="42.392300000" lon="-2.501908000">
        <ele>527.00</ele>
        <time>2012-05-12T12:26:20Z</time>
      </trkpt>
      <trkpt lat="42.392265000" lon="-2.501449000">
        <ele>527.30</ele>
        <time>2012-05-12T12:26:25Z</time>
      </trkpt>
      <trkpt lat="42.392358000" lon="-2.500849000">
        <ele>527.70</ele>
        <time>2012-05-12T12:26:32Z</time>
      </trkpt>
      <trkpt lat="42.392806000" lon="-2.499566000">
        <ele>528.20</ele>
        <time>2012-05-12T12:26:48Z</time>
      </trkpt>
      <trkpt lat="42.393023000" lon="-2.499179000">
        <ele>527.80</ele>
        <time>2012-05-12T12:26:55Z</time>
      </trkpt>
      <trkpt lat="42.393068000" lon="-2.499134000">
        <ele>527.70</ele>
        <time>2012-05-12T12:26:55Z</time>
      </trkpt>
      <trkpt lat="42.393223000" lon="-2.499048000">
        <ele>527.30</ele>
        <time>2012-05-12T12:26:58Z</time>
      </trkpt>
      <trkpt lat="42.393800000" lon="-2.498598000">
        <ele>526.30</ele>
        <time>2012-05-12T12:27:11Z</time>
      </trkpt>
      <trkpt lat="42.394003000" lon="-2.498494000">
        <ele>526.20</ele>
        <time>2012-05-12T12:27:14Z</time>
      </trkpt>
      <trkpt lat="42.394141000" lon="-2.498374000">
        <ele>526.20</ele>
        <time>2012-05-12T12:27:17Z</time>
      </trkpt>
      <trkpt lat="42.394945000" lon="-2.497169000">
        <ele>526.50</ele>
        <time>2012-05-12T12:27:38Z</time>
      </trkpt>
      <trkpt lat="42.395116000" lon="-2.496941000">
        <ele>526.40</ele>
        <time>2012-05-12T12:27:42Z</time>
      </trkpt>
      <trkpt lat="42.395253000" lon="-2.496656000">
        <ele>526.20</ele>
        <time>2012-05-12T12:27:47Z</time>
      </trkpt>
      <trkpt lat="42.395278000" lon="-2.496576000">
        <ele>526.20</ele>
        <time>2012-05-12T12:27:47Z</time>
      </trkpt>
      <trkpt lat="42.395336000" lon="-2.496241000">
        <ele>526.10</ele>
        <time>2012-05-12T12:27:52Z</time>
      </trkpt>
      <trkpt lat="42.395396000" lon="-2.496093000">
        <ele>525.70</ele>
        <time>2012-05-12T12:27:54Z</time>
      </trkpt>
      <trkpt lat="42.395435000" lon="-2.496024000">
        <ele>525.40</ele>
        <time>2012-05-12T12:27:54Z</time>
      </trkpt>
      <trkpt lat="42.395481000" lon="-2.495966000">
        <ele>525.10</ele>
        <time>2012-05-12T12:27:56Z</time>
      </trkpt>
      <trkpt lat="42.395773000" lon="-2.495693000">
        <ele>523.50</ele>
        <time>2012-05-12T12:28:01Z</time>
      </trkpt>
      <trkpt lat="42.395828000" lon="-2.495624000">
        <ele>523.30</ele>
        <time>2012-05-12T12:28:01Z</time>
      </trkpt>
      <trkpt lat="42.396426000" lon="-2.494673000">
        <ele>520.10</ele>
        <time>2012-05-12T12:28:17Z</time>
      </trkpt>
      <trkpt lat="42.396465000" lon="-2.494623000">
        <ele>520.10</ele>
        <time>2012-05-12T12:28:17Z</time>
      </trkpt>
      <trkpt lat="42.396506000" lon="-2.494584000">
        <ele>520.00</ele>
        <time>2012-05-12T12:28:18Z</time>
      </trkpt>
      <trkpt lat="42.396556000" lon="-2.494566000">
        <ele>520.00</ele>
        <time>2012-05-12T12:28:20Z</time>
      </trkpt>
      <trkpt lat="42.396663000" lon="-2.494559000">
        <ele>520.00</ele>
        <time>2012-05-12T12:28:22Z</time>
      </trkpt>
      <trkpt lat="42.396718000" lon="-2.494561000">
        <ele>520.00</ele>
        <time>2012-05-12T12:28:22Z</time>
      </trkpt>
      <trkpt lat="42.396831000" lon="-2.494546000">
        <ele>520.00</ele>
        <time>2012-05-12T12:28:24Z</time>
      </trkpt>
      <trkpt lat="42.396990000" lon="-2.494473000">
        <ele>520.10</ele>
        <time>2012-05-12T12:28:27Z</time>
      </trkpt>
      <trkpt lat="42.397081000" lon="-2.494394000">
        <ele>520.30</ele>
        <time>2012-05-12T12:28:29Z</time>
      </trkpt>
      <trkpt lat="42.397188000" lon="-2.494239000">
        <ele>520.50</ele>
        <time>2012-05-12T12:28:32Z</time>
      </trkpt>
      <trkpt lat="42.397213000" lon="-2.494184000">
        <ele>520.50</ele>
        <time>2012-05-12T12:28:34Z</time>
      </trkpt>
      <trkpt lat="42.397228000" lon="-2.494124000">
        <ele>520.50</ele>
        <time>2012-05-12T12:28:34Z</time>
      </trkpt>
      <trkpt lat="42.397236000" lon="-2.494063000">
        <ele>520.60</ele>
        <time>2012-05-12T12:28:36Z</time>
      </trkpt>
      <trkpt lat="42.397236000" lon="-2.493879000">
        <ele>520.80</ele>
        <time>2012-05-12T12:28:38Z</time>
      </trkpt>
      <trkpt lat="42.397193000" lon="-2.493649000">
        <ele>521.10</ele>
        <time>2012-05-12T12:28:43Z</time>
      </trkpt>
      <trkpt lat="42.397173000" lon="-2.493466000">
        <ele>521.00</ele>
        <time>2012-05-12T12:28:46Z</time>
      </trkpt>
      <trkpt lat="42.396983000" lon="-2.492959000">
        <ele>521.20</ele>
        <time>2012-05-12T12:28:53Z</time>
      </trkpt>
      <trkpt lat="42.396936000" lon="-2.492694000">
        <ele>521.50</ele>
        <time>2012-05-12T12:28:57Z</time>
      </trkpt>
      <trkpt lat="42.396935000" lon="-2.492644000">
        <ele>521.60</ele>
        <time>2012-05-12T12:28:59Z</time>
      </trkpt>
      <trkpt lat="42.397085000" lon="-2.491903000">
        <ele>523.00</ele>
        <time>2012-05-12T12:29:11Z</time>
      </trkpt>
      <trkpt lat="42.397110000" lon="-2.491833000">
        <ele>523.00</ele>
        <time>2012-05-12T12:29:11Z</time>
      </trkpt>
      <trkpt lat="42.397181000" lon="-2.491724000">
        <ele>522.80</ele>
        <time>2012-05-12T12:29:14Z</time>
      </trkpt>
      <trkpt lat="42.397220000" lon="-2.491681000">
        <ele>522.70</ele>
        <time>2012-05-12T12:29:14Z</time>
      </trkpt>
      <trkpt lat="42.397263000" lon="-2.491649000">
        <ele>522.50</ele>
        <time>2012-05-12T12:29:16Z</time>
      </trkpt>
      <trkpt lat="42.397308000" lon="-2.491629000">
        <ele>522.30</ele>
        <time>2012-05-12T12:29:16Z</time>
      </trkpt>
      <trkpt lat="42.397355000" lon="-2.491624000">
        <ele>522.10</ele>
        <time>2012-05-12T12:29:18Z</time>
      </trkpt>
      <trkpt lat="42.397401000" lon="-2.491626000">
        <ele>521.90</ele>
        <time>2012-05-12T12:29:18Z</time>
      </trkpt>
      <trkpt lat="42.397528000" lon="-2.491656000">
        <ele>521.00</ele>
        <time>2012-05-12T12:29:21Z</time>
      </trkpt>
      <trkpt lat="42.397565000" lon="-2.491654000">
        <ele>520.70</ele>
        <time>2012-05-12T12:29:23Z</time>
      </trkpt>
      <trkpt lat="42.397600000" lon="-2.491638000">
        <ele>520.50</ele>
        <time>2012-05-12T12:29:23Z</time>
      </trkpt>
      <trkpt lat="42.397711000" lon="-2.491556000">
        <ele>520.20</ele>
        <time>2012-05-12T12:29:26Z</time>
      </trkpt>
      <trkpt lat="42.397750000" lon="-2.491543000">
        <ele>520.10</ele>
        <time>2012-05-12T12:29:28Z</time>
      </trkpt>
      <trkpt lat="42.397841000" lon="-2.491533000">
        <ele>519.80</ele>
        <time>2012-05-12T12:29:30Z</time>
      </trkpt>
      <trkpt lat="42.397925000" lon="-2.491503000">
        <ele>519.60</ele>
        <time>2012-05-12T12:29:32Z</time>
      </trkpt>
      <trkpt lat="42.397961000" lon="-2.491478000">
        <ele>519.40</ele>
        <time>2012-05-12T12:29:33Z</time>
      </trkpt>
      <trkpt lat="42.397996000" lon="-2.491444000">
        <ele>519.20</ele>
        <time>2012-05-12T12:29:33Z</time>
      </trkpt>
      <trkpt lat="42.398051000" lon="-2.491359000">
        <ele>519.00</ele>
        <time>2012-05-12T12:29:35Z</time>
      </trkpt>
      <trkpt lat="42.398071000" lon="-2.491318000">
        <ele>519.10</ele>
        <time>2012-05-12T12:29:37Z</time>
      </trkpt>
      <trkpt lat="42.398088000" lon="-2.491224000">
        <ele>519.40</ele>
        <time>2012-05-12T12:29:39Z</time>
      </trkpt>
      <trkpt lat="42.398088000" lon="-2.491173000">
        <ele>519.60</ele>
        <time>2012-05-12T12:29:40Z</time>
      </trkpt>
      <trkpt lat="42.398068000" lon="-2.491016000">
        <ele>520.50</ele>
        <time>2012-05-12T12:29:42Z</time>
      </trkpt>
      <trkpt lat="42.398073000" lon="-2.490974000">
        <ele>520.80</ele>
        <time>2012-05-12T12:29:44Z</time>
      </trkpt>
      <trkpt lat="42.398085000" lon="-2.490944000">
        <ele>520.90</ele>
        <time>2012-05-12T12:29:44Z</time>
      </trkpt>
      <trkpt lat="42.398103000" lon="-2.490926000">
        <ele>520.90</ele>
        <time>2012-05-12T12:29:46Z</time>
      </trkpt>
      <trkpt lat="42.398448000" lon="-2.490739000">
        <ele>517.70</ele>
        <time>2012-05-12T12:29:54Z</time>
      </trkpt>
      <trkpt lat="42.398470000" lon="-2.490711000">
        <ele>517.40</ele>
        <time>2012-05-12T12:29:54Z</time>
      </trkpt>
      <trkpt lat="42.398505000" lon="-2.490648000">
        <ele>517.10</ele>
        <time>2012-05-12T12:29:56Z</time>
      </trkpt>
      <trkpt lat="42.398535000" lon="-2.490626000">
        <ele>516.90</ele>
        <time>2012-05-12T12:29:58Z</time>
      </trkpt>
      <trkpt lat="42.398576000" lon="-2.490613000">
        <ele>516.50</ele>
        <time>2012-05-12T12:29:58Z</time>
      </trkpt>
      <trkpt lat="42.398626000" lon="-2.490609000">
        <ele>516.10</ele>
        <time>2012-05-12T12:30:00Z</time>
      </trkpt>
      <trkpt lat="42.398780000" lon="-2.490641000">
        <ele>514.10</ele>
        <time>2012-05-12T12:30:03Z</time>
      </trkpt>
      <trkpt lat="42.398881000" lon="-2.490688000">
        <ele>512.10</ele>
        <time>2012-05-12T12:30:05Z</time>
      </trkpt>
      <trkpt lat="42.398908000" lon="-2.490681000">
        <ele>511.60</ele>
        <time>2012-05-12T12:30:06Z</time>
      </trkpt>
      <trkpt lat="42.398928000" lon="-2.490656000">
        <ele>511.20</ele>
        <time>2012-05-12T12:30:08Z</time>
      </trkpt>
      <trkpt lat="42.398935000" lon="-2.490616000">
        <ele>511.10</ele>
        <time>2012-05-12T12:30:08Z</time>
      </trkpt>
      <trkpt lat="42.398930000" lon="-2.490568000">
        <ele>511.10</ele>
        <time>2012-05-12T12:30:10Z</time>
      </trkpt>
      <trkpt lat="42.398671000" lon="-2.489688000">
        <ele>511.30</ele>
        <time>2012-05-12T12:30:22Z</time>
      </trkpt>
      <trkpt lat="42.398661000" lon="-2.489619000">
        <ele>511.20</ele>
        <time>2012-05-12T12:30:22Z</time>
      </trkpt>
      <trkpt lat="42.398671000" lon="-2.489553000">
        <ele>510.60</ele>
        <time>2012-05-12T12:30:24Z</time>
      </trkpt>
      <trkpt lat="42.398698000" lon="-2.489493000">
        <ele>509.90</ele>
        <time>2012-05-12T12:30:24Z</time>
      </trkpt>
      <trkpt lat="42.398823000" lon="-2.489326000">
        <ele>506.60</ele>
        <time>2012-05-12T12:30:27Z</time>
      </trkpt>
      <trkpt lat="42.398866000" lon="-2.489286000">
        <ele>505.50</ele>
        <time>2012-05-12T12:30:29Z</time>
      </trkpt>
      <trkpt lat="42.398920000" lon="-2.489259000">
        <ele>504.40</ele>
        <time>2012-05-12T12:30:29Z</time>
      </trkpt>
      <trkpt lat="42.399113000" lon="-2.489196000">
        <ele>501.30</ele>
        <time>2012-05-12T12:30:33Z</time>
      </trkpt>
      <trkpt lat="42.399176000" lon="-2.489158000">
        <ele>500.20</ele>
        <time>2012-05-12T12:30:34Z</time>
      </trkpt>
      <trkpt lat="42.399231000" lon="-2.489106000">
        <ele>499.10</ele>
        <time>2012-05-12T12:30:34Z</time>
      </trkpt>
      <trkpt lat="42.399395000" lon="-2.488896000">
        <ele>495.50</ele>
        <time>2012-05-12T12:30:38Z</time>
      </trkpt>
      <trkpt lat="42.399455000" lon="-2.488839000">
        <ele>494.30</ele>
        <time>2012-05-12T12:30:41Z</time>
      </trkpt>
      <trkpt lat="42.399471000" lon="-2.488806000">
        <ele>493.90</ele>
        <time>2012-05-12T12:30:41Z</time>
      </trkpt>
      <trkpt lat="42.399476000" lon="-2.488773000">
        <ele>493.50</ele>
        <time>2012-05-12T12:30:43Z</time>
      </trkpt>
      <trkpt lat="42.399466000" lon="-2.488743000">
        <ele>493.30</ele>
        <time>2012-05-12T12:30:43Z</time>
      </trkpt>
      <trkpt lat="42.399166000" lon="-2.487954000">
        <ele>492.60</ele>
        <time>2012-05-12T12:31:00Z</time>
      </trkpt>
      <trkpt lat="42.399141000" lon="-2.487916000">
        <ele>492.70</ele>
        <time>2012-05-12T12:31:02Z</time>
      </trkpt>
      <trkpt lat="42.399078000" lon="-2.487851000">
        <ele>492.70</ele>
        <time>2012-05-12T12:31:04Z</time>
      </trkpt>
      <trkpt lat="42.398588000" lon="-2.487519000">
        <ele>495.50</ele>
        <time>2012-05-12T12:31:16Z</time>
      </trkpt>
      <trkpt lat="42.398520000" lon="-2.487424000">
        <ele>496.00</ele>
        <time>2012-05-12T12:31:18Z</time>
      </trkpt>
      <trkpt lat="42.398268000" lon="-2.486991000">
        <ele>496.10</ele>
        <time>2012-05-12T12:31:25Z</time>
      </trkpt>
      <trkpt lat="42.398230000" lon="-2.486944000">
        <ele>496.20</ele>
        <time>2012-05-12T12:31:27Z</time>
      </trkpt>
      <trkpt lat="42.398056000" lon="-2.486601000">
        <ele>495.90</ele>
        <time>2012-05-12T12:31:32Z</time>
      </trkpt>
      <trkpt lat="42.398038000" lon="-2.486536000">
        <ele>495.70</ele>
        <time>2012-05-12T12:31:34Z</time>
      </trkpt>
      <trkpt lat="42.398013000" lon="-2.486394000">
        <ele>494.80</ele>
        <time>2012-05-12T12:31:35Z</time>
      </trkpt>
      <trkpt lat="42.397966000" lon="-2.486261000">
        <ele>493.90</ele>
        <time>2012-05-12T12:31:37Z</time>
      </trkpt>
      <trkpt lat="42.397828000" lon="-2.486053000">
        <ele>494.50</ele>
        <time>2012-05-12T12:31:42Z</time>
      </trkpt>
      <trkpt lat="42.397708000" lon="-2.485938000">
        <ele>496.50</ele>
        <time>2012-05-12T12:31:46Z</time>
      </trkpt>
      <trkpt lat="42.397693000" lon="-2.485908000">
        <ele>496.90</ele>
        <time>2012-05-12T12:31:46Z</time>
      </trkpt>
      <trkpt lat="42.397686000" lon="-2.485869000">
        <ele>497.10</ele>
        <time>2012-05-12T12:31:48Z</time>
      </trkpt>
      <trkpt lat="42.397691000" lon="-2.485826000">
        <ele>497.10</ele>
        <time>2012-05-12T12:31:49Z</time>
      </trkpt>
      <trkpt lat="42.397711000" lon="-2.485783000">
        <ele>496.90</ele>
        <time>2012-05-12T12:31:49Z</time>
      </trkpt>
      <trkpt lat="42.398623000" lon="-2.484594000">
        <ele>480.20</ele>
        <time>2012-05-12T12:32:05Z</time>
      </trkpt>
      <trkpt lat="42.398823000" lon="-2.484373000">
        <ele>477.70</ele>
        <time>2012-05-12T12:32:08Z</time>
      </trkpt>
      <trkpt lat="42.399715000" lon="-2.482878000">
        <ele>473.00</ele>
        <time>2012-05-12T12:32:31Z</time>
      </trkpt>
      <trkpt lat="42.399745000" lon="-2.482809000">
        <ele>473.00</ele>
        <time>2012-05-12T12:32:33Z</time>
      </trkpt>
      <trkpt lat="42.400328000" lon="-2.481243000">
        <ele>472.10</ele>
        <time>2012-05-12T12:32:55Z</time>
      </trkpt>
      <trkpt lat="42.401476000" lon="-2.478803000">
        <ele>473.10</ele>
        <time>2012-05-12T12:33:48Z</time>
      </trkpt>
      <trkpt lat="42.401498000" lon="-2.478738000">
        <ele>473.00</ele>
        <time>2012-05-12T12:33:48Z</time>
      </trkpt>
      <trkpt lat="42.401996000" lon="-2.477416000">
        <ele>471.30</ele>
        <time>2012-05-12T12:34:09Z</time>
      </trkpt>
      <trkpt lat="42.402018000" lon="-2.477356000">
        <ele>471.20</ele>
        <time>2012-05-12T12:34:10Z</time>
      </trkpt>
      <trkpt lat="42.402171000" lon="-2.476616000">
        <ele>470.30</ele>
        <time>2012-05-12T12:34:21Z</time>
      </trkpt>
      <trkpt lat="42.402453000" lon="-2.475938000">
        <ele>470.60</ele>
        <time>2012-05-12T12:34:31Z</time>
      </trkpt>
      <trkpt lat="42.405853000" lon="-2.470883000">
        <ele>469.50</ele>
        <time>2012-05-12T12:35:58Z</time>
      </trkpt>
      <trkpt lat="42.405893000" lon="-2.470838000">
        <ele>469.40</ele>
        <time>2012-05-12T12:35:58Z</time>
      </trkpt>
      <trkpt lat="42.406951000" lon="-2.469398000">
        <ele>466.50</ele>
        <time>2012-05-12T12:36:24Z</time>
      </trkpt>
      <trkpt lat="42.407360000" lon="-2.468991000">
        <ele>465.00</ele>
        <time>2012-05-12T12:36:33Z</time>
      </trkpt>
      <trkpt lat="42.408128000" lon="-2.467594000">
        <ele>461.90</ele>
        <time>2012-05-12T12:36:52Z</time>
      </trkpt>
      <trkpt lat="42.408746000" lon="-2.466758000">
        <ele>461.60</ele>
        <time>2012-05-12T12:37:06Z</time>
      </trkpt>
      <trkpt lat="42.408800000" lon="-2.466703000">
        <ele>461.60</ele>
        <time>2012-05-12T12:37:06Z</time>
      </trkpt>
      <trkpt lat="42.409790000" lon="-2.466073000">
        <ele>462.20</ele>
        <time>2012-05-12T12:37:24Z</time>
      </trkpt>
      <trkpt lat="42.410075000" lon="-2.466038000">
        <ele>462.10</ele>
        <time>2012-05-12T12:37:29Z</time>
      </trkpt>
      <trkpt lat="42.410735000" lon="-2.466143000">
        <ele>463.00</ele>
        <time>2012-05-12T12:37:39Z</time>
      </trkpt>
      <trkpt lat="42.412703000" lon="-2.467044000">
        <ele>461.20</ele>
        <time>2012-05-12T12:38:16Z</time>
      </trkpt>
      <trkpt lat="42.412756000" lon="-2.467058000">
        <ele>461.20</ele>
        <time>2012-05-12T12:38:16Z</time>
      </trkpt>
      <trkpt lat="42.413300000" lon="-2.467008000">
        <ele>460.10</ele>
        <time>2012-05-12T12:38:26Z</time>
      </trkpt>
      <trkpt lat="42.413433000" lon="-2.466931000">
        <ele>459.60</ele>
        <time>2012-05-12T12:38:28Z</time>
      </trkpt>
      <trkpt lat="42.413498000" lon="-2.466871000">
        <ele>459.30</ele>
        <time>2012-05-12T12:38:30Z</time>
      </trkpt>
      <trkpt lat="42.413550000" lon="-2.466801000">
        <ele>459.00</ele>
        <time>2012-05-12T12:38:30Z</time>
      </trkpt>
      <trkpt lat="42.413688000" lon="-2.466523000">
        <ele>458.50</ele>
        <time>2012-05-12T12:38:33Z</time>
      </trkpt>
      <trkpt lat="42.413846000" lon="-2.466564000">
        <ele>457.60</ele>
        <time>2012-05-12T12:38:35Z</time>
      </trkpt>
      <trkpt lat="42.413966000" lon="-2.466639000">
        <ele>457.50</ele>
        <time>2012-05-12T12:38:37Z</time>
      </trkpt>
      <trkpt lat="42.414510000" lon="-2.467569000">
        <ele>461.10</ele>
        <time>2012-05-12T12:38:58Z</time>
      </trkpt>
      <trkpt lat="42.414681000" lon="-2.467749000">
        <ele>461.80</ele>
        <time>2012-05-12T12:39:03Z</time>
      </trkpt>
      <trkpt lat="42.415155000" lon="-2.468008000">
        <ele>461.30</ele>
        <time>2012-05-12T12:39:13Z</time>
      </trkpt>
      <trkpt lat="42.417901000" lon="-2.468548000">
        <ele>463.80</ele>
        <time>2012-05-12T12:40:07Z</time>
      </trkpt>
      <trkpt lat="42.417955000" lon="-2.468546000">
        <ele>463.90</ele>
        <time>2012-05-12T12:40:09Z</time>
      </trkpt>
      <trkpt lat="42.418901000" lon="-2.468416000">
        <ele>463.60</ele>
        <time>2012-05-12T12:40:27Z</time>
      </trkpt>
      <trkpt lat="42.418950000" lon="-2.468416000">
        <ele>463.60</ele>
        <time>2012-05-12T12:40:28Z</time>
      </trkpt>
      <trkpt lat="42.419000000" lon="-2.468418000">
        <ele>463.50</ele>
        <time>2012-05-12T12:40:28Z</time>
      </trkpt>
      <trkpt lat="42.419598000" lon="-2.468289000">
        <ele>462.50</ele>
        <time>2012-05-12T12:40:39Z</time>
      </trkpt>
      <trkpt lat="42.419650000" lon="-2.468288000">
        <ele>462.40</ele>
        <time>2012-05-12T12:40:41Z</time>
      </trkpt>
      <trkpt lat="42.419838000" lon="-2.468299000">
        <ele>461.90</ele>
        <time>2012-05-12T12:40:44Z</time>
      </trkpt>
      <trkpt lat="42.421701000" lon="-2.467786000">
        <ele>459.10</ele>
        <time>2012-05-12T12:41:17Z</time>
      </trkpt>
      <trkpt lat="42.421750000" lon="-2.467761000">
        <ele>459.20</ele>
        <time>2012-05-12T12:41:19Z</time>
      </trkpt>
      <trkpt lat="42.424095000" lon="-2.465394000">
        <ele>456.10</ele>
        <time>2012-05-12T12:42:04Z</time>
      </trkpt>
      <trkpt lat="42.424378000" lon="-2.464871000">
        <ele>454.20</ele>
        <time>2012-05-12T12:42:09Z</time>
      </trkpt>
      <trkpt lat="42.424565000" lon="-2.464649000">
        <ele>453.50</ele>
        <time>2012-05-12T12:42:13Z</time>
      </trkpt>
      <trkpt lat="42.426596000" lon="-2.463258000">
        <ele>442.20</ele>
        <time>2012-05-12T12:42:37Z</time>
      </trkpt>
      <trkpt lat="42.426668000" lon="-2.463191000">
        <ele>442.20</ele>
        <time>2012-05-12T12:42:37Z</time>
      </trkpt>
      <trkpt lat="42.426783000" lon="-2.463041000">
        <ele>442.50</ele>
        <time>2012-05-12T12:42:39Z</time>
      </trkpt>
      <trkpt lat="42.426835000" lon="-2.462951000">
        <ele>442.60</ele>
        <time>2012-05-12T12:42:41Z</time>
      </trkpt>
      <trkpt lat="42.426958000" lon="-2.462583000">
        <ele>442.70</ele>
        <time>2012-05-12T12:42:44Z</time>
      </trkpt>
      <trkpt lat="42.427073000" lon="-2.462431000">
        <ele>442.50</ele>
        <time>2012-05-12T12:42:46Z</time>
      </trkpt>
      <trkpt lat="42.427161000" lon="-2.462296000">
        <ele>442.30</ele>
        <time>2012-05-12T12:42:48Z</time>
      </trkpt>
      <trkpt lat="42.427271000" lon="-2.462201000">
        <ele>442.20</ele>
        <time>2012-05-12T12:42:51Z</time>
      </trkpt>
      <trkpt lat="42.427316000" lon="-2.462131000">
        <ele>442.10</ele>
        <time>2012-05-12T12:42:51Z</time>
      </trkpt>
      <trkpt lat="42.427351000" lon="-2.462046000">
        <ele>442.00</ele>
        <time>2012-05-12T12:42:53Z</time>
      </trkpt>
      <trkpt lat="42.427686000" lon="-2.461534000">
        <ele>440.50</ele>
        <time>2012-05-12T12:43:00Z</time>
      </trkpt>
      <trkpt lat="42.427910000" lon="-2.461049000">
        <ele>439.30</ele>
        <time>2012-05-12T12:43:05Z</time>
      </trkpt>
      <trkpt lat="42.428101000" lon="-2.460779000">
        <ele>437.30</ele>
        <time>2012-05-12T12:43:12Z</time>
      </trkpt>
      <trkpt lat="42.428170000" lon="-2.460643000">
        <ele>436.50</ele>
        <time>2012-05-12T12:43:14Z</time>
      </trkpt>
      <trkpt lat="42.428206000" lon="-2.460591000">
        <ele>436.20</ele>
        <time>2012-05-12T12:43:16Z</time>
      </trkpt>
      <trkpt lat="42.428255000" lon="-2.460544000">
        <ele>435.90</ele>
        <time>2012-05-12T12:43:17Z</time>
      </trkpt>
      <trkpt lat="42.428381000" lon="-2.460468000">
        <ele>435.40</ele>
        <time>2012-05-12T12:43:19Z</time>
      </trkpt>
      <trkpt lat="42.428615000" lon="-2.460393000">
        <ele>434.50</ele>
        <time>2012-05-12T12:43:21Z</time>
      </trkpt>
      <trkpt lat="42.429023000" lon="-2.460374000">
        <ele>431.80</ele>
        <time>2012-05-12T12:43:28Z</time>
      </trkpt>
      <trkpt lat="42.429078000" lon="-2.460376000">
        <ele>431.30</ele>
        <time>2012-05-12T12:43:28Z</time>
      </trkpt>
      <trkpt lat="42.429181000" lon="-2.460408000">
        <ele>430.30</ele>
        <time>2012-05-12T12:43:31Z</time>
      </trkpt>
      <trkpt lat="42.430143000" lon="-2.460926000">
        <ele>424.50</ele>
        <time>2012-05-12T12:43:52Z</time>
      </trkpt>
      <trkpt lat="42.430195000" lon="-2.460943000">
        <ele>424.40</ele>
        <time>2012-05-12T12:43:52Z</time>
      </trkpt>
      <trkpt lat="42.430723000" lon="-2.461154000">
        <ele>424.60</ele>
        <time>2012-05-12T12:44:04Z</time>
      </trkpt>
      <trkpt lat="42.430770000" lon="-2.461154000">
        <ele>424.80</ele>
        <time>2012-05-12T12:44:04Z</time>
      </trkpt>
      <trkpt lat="42.430913000" lon="-2.461113000">
        <ele>425.20</ele>
        <time>2012-05-12T12:44:08Z</time>
      </trkpt>
      <trkpt lat="42.431128000" lon="-2.460966000">
        <ele>425.50</ele>
        <time>2012-05-12T12:44:13Z</time>
      </trkpt>
      <trkpt lat="42.431456000" lon="-2.460934000">
        <ele>425.80</ele>
        <time>2012-05-12T12:44:20Z</time>
      </trkpt>
      <trkpt lat="42.431503000" lon="-2.460936000">
        <ele>425.80</ele>
        <time>2012-05-12T12:44:20Z</time>
      </trkpt>
      <trkpt lat="42.431836000" lon="-2.460923000">
        <ele>425.70</ele>
        <time>2012-05-12T12:44:27Z</time>
      </trkpt>
      <trkpt lat="42.431940000" lon="-2.460926000">
        <ele>425.70</ele>
        <time>2012-05-12T12:44:29Z</time>
      </trkpt>
      <trkpt lat="42.432110000" lon="-2.460899000">
        <ele>425.50</ele>
        <time>2012-05-12T12:44:32Z</time>
      </trkpt>
      <trkpt lat="42.432280000" lon="-2.460823000">
        <ele>425.00</ele>
        <time>2012-05-12T12:44:36Z</time>
      </trkpt>
      <trkpt lat="42.432443000" lon="-2.460699000">
        <ele>424.30</ele>
        <time>2012-05-12T12:44:39Z</time>
      </trkpt>
      <trkpt lat="42.432500000" lon="-2.460676000">
        <ele>424.10</ele>
        <time>2012-05-12T12:44:39Z</time>
      </trkpt>
      <trkpt lat="42.433020000" lon="-2.460368000">
        <ele>422.00</ele>
        <time>2012-05-12T12:44:46Z</time>
      </trkpt>
      <trkpt lat="42.433206000" lon="-2.460548000">
        <ele>422.50</ele>
        <time>2012-05-12T12:44:50Z</time>
      </trkpt>
      <trkpt lat="42.433295000" lon="-2.460571000">
        <ele>422.60</ele>
        <time>2012-05-12T12:44:53Z</time>
      </trkpt>
      <trkpt lat="42.433340000" lon="-2.460571000">
        <ele>422.60</ele>
        <time>2012-05-12T12:44:53Z</time>
      </trkpt>
      <trkpt lat="42.433383000" lon="-2.460563000">
        <ele>422.50</ele>
        <time>2012-05-12T12:44:55Z</time>
      </trkpt>
      <trkpt lat="42.433421000" lon="-2.460543000">
        <ele>422.30</ele>
        <time>2012-05-12T12:44:55Z</time>
      </trkpt>
      <trkpt lat="42.433453000" lon="-2.460513000">
        <ele>422.20</ele>
        <time>2012-05-12T12:44:57Z</time>
      </trkpt>
      <trkpt lat="42.433515000" lon="-2.460414000">
        <ele>421.70</ele>
        <time>2012-05-12T12:45:00Z</time>
      </trkpt>
      <trkpt lat="42.433543000" lon="-2.460344000">
        <ele>421.30</ele>
        <time>2012-05-12T12:45:02Z</time>
      </trkpt>
      <trkpt lat="42.433568000" lon="-2.460318000">
        <ele>421.10</ele>
        <time>2012-05-12T12:45:02Z</time>
      </trkpt>
      <trkpt lat="42.433593000" lon="-2.460281000">
        <ele>420.90</ele>
        <time>2012-05-12T12:45:04Z</time>
      </trkpt>
      <trkpt lat="42.433663000" lon="-2.460134000">
        <ele>420.10</ele>
        <time>2012-05-12T12:45:07Z</time>
      </trkpt>
      <trkpt lat="42.433725000" lon="-2.460043000">
        <ele>419.60</ele>
        <time>2012-05-12T12:45:09Z</time>
      </trkpt>
      <trkpt lat="42.433843000" lon="-2.459934000">
        <ele>419.00</ele>
        <time>2012-05-12T12:45:12Z</time>
      </trkpt>
      <trkpt lat="42.435491000" lon="-2.459393000">
        <ele>415.80</ele>
        <time>2012-05-12T12:45:45Z</time>
      </trkpt>
      <trkpt lat="42.435575000" lon="-2.459389000">
        <ele>415.70</ele>
        <time>2012-05-12T12:45:47Z</time>
      </trkpt>
      <trkpt lat="42.435611000" lon="-2.459373000">
        <ele>415.60</ele>
        <time>2012-05-12T12:45:47Z</time>
      </trkpt>
      <trkpt lat="42.435640000" lon="-2.459338000">
        <ele>415.60</ele>
        <time>2012-05-12T12:45:49Z</time>
      </trkpt>
      <trkpt lat="42.435686000" lon="-2.459253000">
        <ele>415.40</ele>
        <time>2012-05-12T12:45:51Z</time>
      </trkpt>
      <trkpt lat="42.435718000" lon="-2.459213000">
        <ele>415.30</ele>
        <time>2012-05-12T12:45:52Z</time>
      </trkpt>
      <trkpt lat="42.435756000" lon="-2.459188000">
        <ele>415.20</ele>
        <time>2012-05-12T12:45:52Z</time>
      </trkpt>
      <trkpt lat="42.435798000" lon="-2.459179000">
        <ele>415.10</ele>
        <time>2012-05-12T12:45:54Z</time>
      </trkpt>
      <trkpt lat="42.435838000" lon="-2.459189000">
        <ele>415.10</ele>
        <time>2012-05-12T12:45:54Z</time>
      </trkpt>
      <trkpt lat="42.435956000" lon="-2.459226000">
        <ele>415.00</ele>
        <time>2012-05-12T12:45:58Z</time>
      </trkpt>
      <trkpt lat="42.436000000" lon="-2.459229000">
        <ele>415.00</ele>
        <time>2012-05-12T12:45:59Z</time>
      </trkpt>
      <trkpt lat="42.436045000" lon="-2.459226000">
        <ele>414.90</ele>
        <time>2012-05-12T12:45:59Z</time>
      </trkpt>
      <trkpt lat="42.437800000" lon="-2.458956000">
        <ele>411.50</ele>
        <time>2012-05-12T12:46:34Z</time>
      </trkpt>
      <trkpt lat="42.437848000" lon="-2.458958000">
        <ele>411.50</ele>
        <time>2012-05-12T12:46:36Z</time>
      </trkpt>
      <trkpt lat="42.437896000" lon="-2.458956000">
        <ele>411.60</ele>
        <time>2012-05-12T12:46:36Z</time>
      </trkpt>
      <trkpt lat="42.437943000" lon="-2.458958000">
        <ele>411.70</ele>
        <time>2012-05-12T12:46:38Z</time>
      </trkpt>
      <trkpt lat="42.438985000" lon="-2.458911000">
        <ele>413.50</ele>
        <time>2012-05-12T12:46:57Z</time>
      </trkpt>
      <trkpt lat="42.439041000" lon="-2.458914000">
        <ele>413.60</ele>
        <time>2012-05-12T12:46:59Z</time>
      </trkpt>
      <trkpt lat="42.440608000" lon="-2.458821000">
        <ele>410.40</ele>
        <time>2012-05-12T12:47:30Z</time>
      </trkpt>
      <trkpt lat="42.440703000" lon="-2.458773000">
        <ele>409.90</ele>
        <time>2012-05-12T12:47:32Z</time>
      </trkpt>
      <trkpt lat="42.440833000" lon="-2.458661000">
        <ele>409.20</ele>
        <time>2012-05-12T12:47:35Z</time>
      </trkpt>
      <trkpt lat="42.441086000" lon="-2.458328000">
        <ele>407.90</ele>
        <time>2012-05-12T12:47:42Z</time>
      </trkpt>
      <trkpt lat="42.441130000" lon="-2.458301000">
        <ele>407.70</ele>
        <time>2012-05-12T12:47:42Z</time>
      </trkpt>
      <trkpt lat="42.441173000" lon="-2.458298000">
        <ele>407.50</ele>
        <time>2012-05-12T12:47:44Z</time>
      </trkpt>
      <trkpt lat="42.444343000" lon="-2.458821000">
        <ele>404.40</ele>
        <time>2012-05-12T12:48:52Z</time>
      </trkpt>
      <trkpt lat="42.444390000" lon="-2.458818000">
        <ele>404.40</ele>
        <time>2012-05-12T12:48:52Z</time>
      </trkpt>
      <trkpt lat="42.445030000" lon="-2.458611000">
        <ele>402.80</ele>
        <time>2012-05-12T12:49:06Z</time>
      </trkpt>
      <trkpt lat="42.445683000" lon="-2.458529000">
        <ele>401.50</ele>
        <time>2012-05-12T12:49:21Z</time>
      </trkpt>
      <trkpt lat="42.446005000" lon="-2.458563000">
        <ele>401.20</ele>
        <time>2012-05-12T12:49:28Z</time>
      </trkpt>
      <trkpt lat="42.446095000" lon="-2.458556000">
        <ele>401.10</ele>
        <time>2012-05-12T12:49:30Z</time>
      </trkpt>
      <trkpt lat="42.446256000" lon="-2.458486000">
        <ele>401.00</ele>
        <time>2012-05-12T12:49:35Z</time>
      </trkpt>
      <trkpt lat="42.446753000" lon="-2.458186000">
        <ele>399.70</ele>
        <time>2012-05-12T12:49:46Z</time>
      </trkpt>
      <trkpt lat="42.447378000" lon="-2.457886000">
        <ele>399.50</ele>
        <time>2012-05-12T12:50:00Z</time>
      </trkpt>
      <trkpt lat="42.447421000" lon="-2.457856000">
        <ele>399.60</ele>
        <time>2012-05-12T12:50:01Z</time>
      </trkpt>
      <trkpt lat="42.448013000" lon="-2.457596000">
        <ele>400.10</ele>
        <time>2012-05-12T12:50:14Z</time>
      </trkpt>
      <trkpt lat="42.448060000" lon="-2.457563000">
        <ele>400.00</ele>
        <time>2012-05-12T12:50:15Z</time>
      </trkpt>
      <trkpt lat="42.448363000" lon="-2.457146000">
        <ele>398.00</ele>
        <time>2012-05-12T12:50:24Z</time>
      </trkpt>
      <trkpt lat="42.448488000" lon="-2.456923000">
        <ele>397.00</ele>
        <time>2012-05-12T12:50:28Z</time>
      </trkpt>
      <trkpt lat="42.449246000" lon="-2.455948000">
        <ele>396.30</ele>
        <time>2012-05-12T12:50:50Z</time>
      </trkpt>
      <trkpt lat="42.449345000" lon="-2.455768000">
        <ele>396.30</ele>
        <time>2012-05-12T12:50:55Z</time>
      </trkpt>
      <trkpt lat="42.449440000" lon="-2.455633000">
        <ele>396.20</ele>
        <time>2012-05-12T12:50:59Z</time>
      </trkpt>
      <trkpt lat="42.449506000" lon="-2.455574000">
        <ele>396.20</ele>
        <time>2012-05-12T12:51:01Z</time>
      </trkpt>
      <trkpt lat="42.449543000" lon="-2.455558000">
        <ele>396.10</ele>
        <time>2012-05-12T12:51:02Z</time>
      </trkpt>
      <trkpt lat="42.449583000" lon="-2.455549000">
        <ele>396.10</ele>
        <time>2012-05-12T12:51:04Z</time>
      </trkpt>
      <trkpt lat="42.449663000" lon="-2.455553000">
        <ele>396.10</ele>
        <time>2012-05-12T12:51:06Z</time>
      </trkpt>
      <trkpt lat="42.449745000" lon="-2.455549000">
        <ele>396.00</ele>
        <time>2012-05-12T12:51:08Z</time>
      </trkpt>
      <trkpt lat="42.452175000" lon="-2.454779000">
        <ele>392.80</ele>
        <time>2012-05-12T12:52:03Z</time>
      </trkpt>
      <trkpt lat="42.452185000" lon="-2.454779000">
        <ele>392.90</ele>
        <time>2012-05-12T12:52:05Z</time>
      </trkpt>
      <trkpt lat="42.452193000" lon="-2.454774000">
        <ele>392.90</ele>
        <time>2012-05-12T12:52:07Z</time>
      </trkpt>
      <trkpt lat="42.452223000" lon="-2.454763000">
        <ele>392.90</ele>
        <time>2012-05-12T12:52:09Z</time>
      </trkpt>
      <trkpt lat="42.452290000" lon="-2.454721000">
        <ele>393.10</ele>
        <time>2012-05-12T12:52:12Z</time>
      </trkpt>
      <trkpt lat="42.452350000" lon="-2.454703000">
        <ele>393.20</ele>
        <time>2012-05-12T12:52:14Z</time>
      </trkpt>
      <trkpt lat="42.452383000" lon="-2.454703000">
        <ele>393.20</ele>
        <time>2012-05-12T12:52:14Z</time>
      </trkpt>
      <trkpt lat="42.452418000" lon="-2.454709000">
        <ele>393.30</ele>
        <time>2012-05-12T12:52:16Z</time>
      </trkpt>
      <trkpt lat="42.452530000" lon="-2.454749000">
        <ele>393.40</ele>
        <time>2012-05-12T12:52:19Z</time>
      </trkpt>
      <trkpt lat="42.452570000" lon="-2.454751000">
        <ele>393.50</ele>
        <time>2012-05-12T12:52:19Z</time>
      </trkpt>
      <trkpt lat="42.453585000" lon="-2.454429000">
        <ele>390.80</ele>
        <time>2012-05-12T12:52:45Z</time>
      </trkpt>
      <trkpt lat="42.453621000" lon="-2.454426000">
        <ele>390.60</ele>
        <time>2012-05-12T12:52:47Z</time>
      </trkpt>
      <trkpt lat="42.453658000" lon="-2.454434000">
        <ele>390.40</ele>
        <time>2012-05-12T12:52:47Z</time>
      </trkpt>
      <trkpt lat="42.453690000" lon="-2.454453000">
        <ele>390.30</ele>
        <time>2012-05-12T12:52:49Z</time>
      </trkpt>
      <trkpt lat="42.453741000" lon="-2.454513000">
        <ele>390.00</ele>
        <time>2012-05-12T12:52:50Z</time>
      </trkpt>
      <trkpt lat="42.453781000" lon="-2.454588000">
        <ele>390.00</ele>
        <time>2012-05-12T12:52:52Z</time>
      </trkpt>
      <trkpt lat="42.453800000" lon="-2.454701000">
        <ele>390.40</ele>
        <time>2012-05-12T12:52:54Z</time>
      </trkpt>
      <trkpt lat="42.453816000" lon="-2.454746000">
        <ele>390.60</ele>
        <time>2012-05-12T12:52:56Z</time>
      </trkpt>
      <trkpt lat="42.453858000" lon="-2.454836000">
        <ele>391.10</ele>
        <time>2012-05-12T12:52:59Z</time>
      </trkpt>
      <trkpt lat="42.454115000" lon="-2.456423000">
        <ele>394.20</ele>
        <time>2012-05-12T12:53:34Z</time>
      </trkpt>
      <trkpt lat="42.454133000" lon="-2.456466000">
        <ele>394.20</ele>
        <time>2012-05-12T12:53:36Z</time>
      </trkpt>
      <trkpt lat="42.454188000" lon="-2.456539000">
        <ele>394.30</ele>
        <time>2012-05-12T12:53:37Z</time>
      </trkpt>
      <trkpt lat="42.454928000" lon="-2.457276000">
        <ele>394.40</ele>
        <time>2012-05-12T12:53:58Z</time>
      </trkpt>
      <trkpt lat="42.454953000" lon="-2.457313000">
        <ele>394.30</ele>
        <time>2012-05-12T12:54:00Z</time>
      </trkpt>
      <trkpt lat="42.454970000" lon="-2.457359000">
        <ele>394.20</ele>
        <time>2012-05-12T12:54:00Z</time>
      </trkpt>
      <trkpt lat="42.455060000" lon="-2.457966000">
        <ele>393.40</ele>
        <time>2012-05-12T12:54:12Z</time>
      </trkpt>
      <trkpt lat="42.455075000" lon="-2.458003000">
        <ele>393.30</ele>
        <time>2012-05-12T12:54:14Z</time>
      </trkpt>
      <trkpt lat="42.455096000" lon="-2.458028000">
        <ele>393.30</ele>
        <time>2012-05-12T12:54:14Z</time>
      </trkpt>
      <trkpt lat="42.455123000" lon="-2.458034000">
        <ele>393.20</ele>
        <time>2012-05-12T12:54:16Z</time>
      </trkpt>
      <trkpt lat="42.455273000" lon="-2.457994000">
        <ele>393.10</ele>
        <time>2012-05-12T12:54:21Z</time>
      </trkpt>
      <trkpt lat="42.455398000" lon="-2.457851000">
        <ele>393.00</ele>
        <time>2012-05-12T12:54:24Z</time>
      </trkpt>
      <trkpt lat="42.455485000" lon="-2.457778000">
        <ele>393.10</ele>
        <time>2012-05-12T12:54:26Z</time>
      </trkpt>
      <trkpt lat="42.455530000" lon="-2.457758000">
        <ele>393.20</ele>
        <time>2012-05-12T12:54:28Z</time>
      </trkpt>
      <trkpt lat="42.455576000" lon="-2.457769000">
        <ele>393.20</ele>
        <time>2012-05-12T12:54:28Z</time>
      </trkpt>
      <trkpt lat="42.455814000" lon="-2.457875000">
        <ele>393.00</ele>
        <time>2012-05-12T12:54:33Z</time>
      </trkpt>
      <trkpt lat="42.455946000" lon="-2.457881000">
        <ele>393.60</ele>
        <time>2012-05-12T12:54:37Z</time>
      </trkpt>
      <trkpt lat="42.456033000" lon="-2.457859000">
        <ele>393.70</ele>
        <time>2012-05-12T12:54:40Z</time>
      </trkpt>
      <trkpt lat="42.456056000" lon="-2.457858000">
        <ele>393.70</ele>
        <time>2012-05-12T12:54:42Z</time>
      </trkpt>
      <trkpt lat="42.456078000" lon="-2.457864000">
        <ele>393.80</ele>
        <time>2012-05-12T12:54:42Z</time>
      </trkpt>
      <trkpt lat="42.456096000" lon="-2.457886000">
        <ele>393.80</ele>
        <time>2012-05-12T12:54:44Z</time>
      </trkpt>
      <trkpt lat="42.456111000" lon="-2.457916000">
        <ele>393.80</ele>
        <time>2012-05-12T12:54:45Z</time>
      </trkpt>
      <trkpt lat="42.456131000" lon="-2.458039000">
        <ele>393.80</ele>
        <time>2012-05-12T12:54:47Z</time>
      </trkpt>
      <trkpt lat="42.456256000" lon="-2.458846000">
        <ele>393.90</ele>
        <time>2012-05-12T12:55:03Z</time>
      </trkpt>
      <trkpt lat="42.456558000" lon="-2.460381000">
        <ele>397.10</ele>
        <time>2012-05-12T12:55:34Z</time>
      </trkpt>
      <trkpt lat="42.456573000" lon="-2.460421000">
        <ele>397.20</ele>
        <time>2012-05-12T12:55:34Z</time>
      </trkpt>
      <trkpt lat="42.456628000" lon="-2.460513000">
        <ele>397.50</ele>
        <time>2012-05-12T12:55:38Z</time>
      </trkpt>
      <trkpt lat="42.456655000" lon="-2.460604000">
        <ele>397.70</ele>
        <time>2012-05-12T12:55:41Z</time>
      </trkpt>
      <trkpt lat="42.456670000" lon="-2.460636000">
        <ele>397.70</ele>
        <time>2012-05-12T12:55:41Z</time>
      </trkpt>
      <trkpt lat="42.456790000" lon="-2.461201000">
        <ele>399.00</ele>
        <time>2012-05-12T12:55:53Z</time>
      </trkpt>
      <trkpt lat="42.456793000" lon="-2.461269000">
        <ele>399.20</ele>
        <time>2012-05-12T12:55:55Z</time>
      </trkpt>
      <trkpt lat="42.456791000" lon="-2.461298000">
        <ele>399.30</ele>
        <time>2012-05-12T12:55:57Z</time>
      </trkpt>
      <trkpt lat="42.456795000" lon="-2.461326000">
        <ele>399.40</ele>
        <time>2012-05-12T12:55:57Z</time>
      </trkpt>
      <trkpt lat="42.456810000" lon="-2.461373000">
        <ele>399.60</ele>
        <time>2012-05-12T12:56:00Z</time>
      </trkpt>
      <trkpt lat="42.456823000" lon="-2.461388000">
        <ele>399.70</ele>
        <time>2012-05-12T12:56:00Z</time>
      </trkpt>
      <trkpt lat="42.456841000" lon="-2.461398000">
        <ele>399.70</ele>
        <time>2012-05-12T12:56:02Z</time>
      </trkpt>
      <trkpt lat="42.456861000" lon="-2.461403000">
        <ele>399.80</ele>
        <time>2012-05-12T12:56:02Z</time>
      </trkpt>
      <trkpt lat="42.457710000" lon="-2.461054000">
        <ele>398.90</ele>
        <time>2012-05-12T12:56:33Z</time>
      </trkpt>
      <trkpt lat="42.457716000" lon="-2.461054000">
        <ele>398.90</ele>
        <time>2012-05-12T12:56:35Z</time>
      </trkpt>
      <trkpt lat="42.457721000" lon="-2.461058000">
        <ele>398.90</ele>
        <time>2012-05-12T12:56:37Z</time>
      </trkpt>
      <trkpt lat="42.457738000" lon="-2.461059000">
        <ele>398.90</ele>
        <time>2012-05-12T12:56:47Z</time>
      </trkpt>
      <trkpt lat="42.457740000" lon="-2.461064000">
        <ele>398.90</ele>
        <time>2012-05-12T12:56:51Z</time>
      </trkpt>
      <trkpt lat="42.457743000" lon="-2.461064000">
        <ele>398.90</ele>
        <time>2012-05-12T12:56:54Z</time>
      </trkpt>
      <trkpt lat="42.457746000" lon="-2.461068000">
        <ele>398.90</ele>
        <time>2012-05-12T12:56:56Z</time>
      </trkpt>
      <trkpt lat="42.457751000" lon="-2.461071000">
        <ele>398.90</ele>
        <time>2012-05-12T12:56:58Z</time>
      </trkpt>
      <trkpt lat="42.457756000" lon="-2.461071000">
        <ele>398.90</ele>
        <time>2012-05-12T12:57:00Z</time>
      </trkpt>
      <trkpt lat="42.457758000" lon="-2.461073000">
        <ele>398.90</ele>
        <time>2012-05-12T12:57:01Z</time>
      </trkpt>
      <trkpt lat="42.457770000" lon="-2.461073000">
        <ele>398.90</ele>
        <time>2012-05-12T12:57:03Z</time>
      </trkpt>
      <trkpt lat="42.457900000" lon="-2.461004000">
        <ele>398.70</ele>
        <time>2012-05-12T12:57:08Z</time>
      </trkpt>
      <trkpt lat="42.457976000" lon="-2.460948000">
        <ele>398.70</ele>
        <time>2012-05-12T12:57:10Z</time>
      </trkpt>
      <trkpt lat="42.458880000" lon="-2.460596000">
        <ele>398.10</ele>
        <time>2012-05-12T12:57:29Z</time>
      </trkpt>
      <trkpt lat="42.458935000" lon="-2.460586000">
        <ele>397.80</ele>
        <time>2012-05-12T12:57:31Z</time>
      </trkpt>
      <trkpt lat="42.459035000" lon="-2.460616000">
        <ele>397.40</ele>
        <time>2012-05-12T12:57:33Z</time>
      </trkpt>
      <trkpt lat="42.459093000" lon="-2.460646000">
        <ele>397.10</ele>
        <time>2012-05-12T12:57:34Z</time>
      </trkpt>
      <trkpt lat="42.459096000" lon="-2.460649000">
        <ele>397.10</ele>
        <time>2012-05-12T12:57:36Z</time>
      </trkpt>
      <trkpt lat="42.459100000" lon="-2.460646000">
        <ele>397.00</ele>
        <time>2012-05-12T12:57:36Z</time>
      </trkpt>
      <trkpt lat="42.459105000" lon="-2.460643000">
        <ele>397.00</ele>
        <time>2012-05-12T12:57:38Z</time>
      </trkpt>
      <trkpt lat="42.459111000" lon="-2.460643000">
        <ele>396.90</ele>
        <time>2012-05-12T12:57:38Z</time>
      </trkpt>
      <trkpt lat="42.459118000" lon="-2.460643000">
        <ele>396.90</ele>
        <time>2012-05-12T12:57:40Z</time>
      </trkpt>
      <trkpt lat="42.459123000" lon="-2.460653000">
        <ele>396.90</ele>
        <time>2012-05-12T12:57:41Z</time>
      </trkpt>
      <trkpt lat="42.459301000" lon="-2.460933000">
        <ele>396.90</ele>
        <time>2012-05-12T12:57:52Z</time>
      </trkpt>
      <trkpt lat="42.459316000" lon="-2.460966000">
        <ele>396.90</ele>
        <time>2012-05-12T12:57:52Z</time>
      </trkpt>
      <trkpt lat="42.459633000" lon="-2.461521000">
        <ele>399.00</ele>
        <time>2012-05-12T12:58:09Z</time>
      </trkpt>
      <trkpt lat="42.459651000" lon="-2.461544000">
        <ele>399.20</ele>
        <time>2012-05-12T12:58:11Z</time>
      </trkpt>
      <trkpt lat="42.459688000" lon="-2.461576000">
        <ele>399.30</ele>
        <time>2012-05-12T12:58:13Z</time>
      </trkpt>
      <trkpt lat="42.459703000" lon="-2.461594000">
        <ele>399.40</ele>
        <time>2012-05-12T12:58:13Z</time>
      </trkpt>
      <trkpt lat="42.459760000" lon="-2.461698000">
        <ele>399.80</ele>
        <time>2012-05-12T12:58:18Z</time>
      </trkpt>
      <trkpt lat="42.460188000" lon="-2.462314000">
        <ele>399.60</ele>
        <time>2012-05-12T12:58:37Z</time>
      </trkpt>
      <trkpt lat="42.460203000" lon="-2.462349000">
        <ele>399.60</ele>
        <time>2012-05-12T12:58:39Z</time>
      </trkpt>
      <trkpt lat="42.460605000" lon="-2.463316000">
        <ele>400.20</ele>
        <time>2012-05-12T12:59:00Z</time>
      </trkpt>
      <trkpt lat="42.460620000" lon="-2.463369000">
        <ele>400.20</ele>
        <time>2012-05-12T12:59:01Z</time>
      </trkpt>
      <trkpt lat="42.460641000" lon="-2.463421000">
        <ele>400.20</ele>
        <time>2012-05-12T12:59:03Z</time>
      </trkpt>
      <trkpt lat="42.460673000" lon="-2.463461000">
        <ele>400.20</ele>
        <time>2012-05-12T12:59:03Z</time>
      </trkpt>
      <trkpt lat="42.460703000" lon="-2.463478000">
        <ele>400.20</ele>
        <time>2012-05-12T12:59:05Z</time>
      </trkpt>
      <trkpt lat="42.460793000" lon="-2.463499000">
        <ele>400.10</ele>
        <time>2012-05-12T12:59:07Z</time>
      </trkpt>
      <trkpt lat="42.460828000" lon="-2.463499000">
        <ele>400.00</ele>
        <time>2012-05-12T12:59:08Z</time>
      </trkpt>
      <trkpt lat="42.460860000" lon="-2.463501000">
        <ele>399.90</ele>
        <time>2012-05-12T12:59:10Z</time>
      </trkpt>
      <trkpt lat="42.460896000" lon="-2.463494000">
        <ele>399.80</ele>
        <time>2012-05-12T12:59:10Z</time>
      </trkpt>
      <trkpt lat="42.460930000" lon="-2.463498000">
        <ele>399.80</ele>
        <time>2012-05-12T12:59:12Z</time>
      </trkpt>
      <trkpt lat="42.460953000" lon="-2.463514000">
        <ele>399.70</ele>
        <time>2012-05-12T12:59:12Z</time>
      </trkpt>
      <trkpt lat="42.460960000" lon="-2.463536000">
        <ele>399.70</ele>
        <time>2012-05-12T12:59:14Z</time>
      </trkpt>
      <trkpt lat="42.460955000" lon="-2.463641000">
        <ele>400.20</ele>
        <time>2012-05-12T12:59:17Z</time>
      </trkpt>
      <trkpt lat="42.460956000" lon="-2.463668000">
        <ele>400.30</ele>
        <time>2012-05-12T12:59:19Z</time>
      </trkpt>
      <trkpt lat="42.460975000" lon="-2.463748000">
        <ele>400.80</ele>
        <time>2012-05-12T12:59:22Z</time>
      </trkpt>
      <trkpt lat="42.460986000" lon="-2.463769000">
        <ele>400.80</ele>
        <time>2012-05-12T12:59:22Z</time>
      </trkpt>
    </trkseg>
  </trk>
</gpx>
